<?xml version='1.0' encoding='UTF-8'?><gpx version="1.1" creator="JPX - https://github.com/jenetics/jpx" xmlns="http://www.topografix.com/GPX/1/1"><trk><trkseg><trkpt lat="45.3549721" lon="13.8271245"><ele>10.0</ele><time>2026-04-19T12:17:27.321Z</time></trkpt><trkpt lat="45.3550276" lon="13.8270516"><ele>10.0</ele><time>2026-04-19T12:22:43.32Z</time></trkpt><trkpt lat="45.3550679" lon="13.8269653"><ele>10.0</ele><time>2026-04-19T12:23:27.279Z</time></trkpt><trkpt lat="45.3550139" lon="13.826903"><ele>10.0</ele><time>2026-04-19T12:23:32.283Z</time></trkpt><trkpt lat="45.3549593" lon="13.8269566"><ele>10.0</ele><time>2026-04-19T12:23:49.297Z</time></trkpt><trkpt lat="45.3550502" lon="13.8269573"><ele>10.0</ele><time>2026-04-19T12:32:53.337Z</time></trkpt><trkpt lat="45.3550557" lon="13.8270483"><ele>10.0</ele><time>2026-04-19T12:33:29.291Z</time></trkpt><trkpt lat="45.3550073" lon="13.8269881"><ele>10.0</ele><time>2026-04-19T12:35:37.338Z</time></trkpt><trkpt lat="45.3550101" lon="13.8270779"><ele>10.0</ele><time>2026-04-19T12:39:31.259Z</time></trkpt><trkpt lat="45.3550592" lon="13.827138"><ele>10.0</ele><time>2026-04-19T12:42:40.311Z</time></trkpt><trkpt lat="45.3552743" lon="13.8272839"><ele>10.0</ele><time>2026-04-19T12:51:12.153Z</time></trkpt><trkpt lat="45.355153" lon="13.8271499"><ele>10.0</ele><time>2026-04-19T12:53:53.99Z</time></trkpt><trkpt lat="45.3550285" lon="13.8269776"><ele>10.0</ele><time>2026-04-19T12:53:55.876Z</time></trkpt><trkpt lat="45.355209" lon="13.8272241"><ele>10.0</ele><time>2026-04-19T12:54:00.356Z</time></trkpt><trkpt lat="45.3551295" lon="13.8272002"><ele>10.0</ele><time>2026-04-19T12:54:16.266Z</time></trkpt><trkpt lat="45.3550561" lon="13.8272393"><ele>10.0</ele><time>2026-04-19T12:54:19.268Z</time></trkpt><trkpt lat="45.3549939" lon="13.8272545"><ele>10.0</ele><time>2026-04-19T12:54:34.351Z</time></trkpt><trkpt lat="45.3549505" lon="13.8271862"><ele>10.0</ele><time>2026-04-19T12:54:41.283Z</time></trkpt><trkpt lat="45.3548937" lon="13.8271357"><ele>10.0</ele><time>2026-04-19T12:54:54.292Z</time></trkpt><trkpt lat="45.354839" lon="13.827188"><ele>10.0</ele><time>2026-04-19T12:55:16.307Z</time></trkpt><trkpt lat="45.3547784" lon="13.8272184"><ele>10.0</ele><time>2026-04-19T13:04:50.257Z</time></trkpt><trkpt lat="45.3547015" lon="13.8271598"><ele>10.0</ele><time>2026-04-19T13:04:52.274Z</time></trkpt><trkpt lat="45.3547375" lon="13.8274098"><ele>10.0</ele><time>2026-04-19T13:04:54.225Z</time></trkpt><trkpt lat="45.354829" lon="13.8277096"><ele>10.0</ele><time>2026-04-19T13:04:55.226Z</time></trkpt><trkpt lat="45.354842" lon="13.8278187"><ele>10.6</ele><time>2026-04-19T13:04:56.225Z</time></trkpt><trkpt lat="45.3548493" lon="13.8279727"><ele>11.2</ele><time>2026-04-19T13:04:58.217Z</time></trkpt><trkpt lat="45.3548551" lon="13.8281352"><ele>11.8</ele><time>2026-04-19T13:05:00.226Z</time></trkpt><trkpt lat="45.3548664" lon="13.8282846"><ele>12.4</ele><time>2026-04-19T13:05:02.221Z</time></trkpt><trkpt lat="45.3548664" lon="13.8284277"><ele>13.0</ele><time>2026-04-19T13:05:04.22Z</time></trkpt><trkpt lat="45.3548684" lon="13.8285486"><ele>13.0</ele><time>2026-04-19T13:05:06.225Z</time></trkpt><trkpt lat="45.3548672" lon="13.8286529"><ele>13.0</ele><time>2026-04-19T13:05:08.223Z</time></trkpt><trkpt lat="45.3548398" lon="13.8287511"><ele>13.0</ele><time>2026-04-19T13:05:10.129Z</time></trkpt><trkpt lat="45.3546962" lon="13.8288665"><ele>13.0</ele><time>2026-04-19T13:05:15.29Z</time></trkpt><trkpt lat="45.3546098" lon="13.8288697"><ele>13.0</ele><time>2026-04-19T13:05:17.291Z</time></trkpt><trkpt lat="45.354528" lon="13.8288803"><ele>12.4</ele><time>2026-04-19T13:05:19.292Z</time></trkpt><trkpt lat="45.35435" lon="13.828865"><ele>11.8</ele><time>2026-04-19T13:05:23.223Z</time></trkpt><trkpt lat="45.3542633" lon="13.828865"><ele>11.2</ele><time>2026-04-19T13:05:25.221Z</time></trkpt><trkpt lat="45.3541767" lon="13.8288733"><ele>10.6</ele><time>2026-04-19T13:05:27.223Z</time></trkpt><trkpt lat="45.3540883" lon="13.82888"><ele>10.0</ele><time>2026-04-19T13:05:29.223Z</time></trkpt><trkpt lat="45.3539983" lon="13.8288817"><ele>10.0</ele><time>2026-04-19T13:05:31.224Z</time></trkpt><trkpt lat="45.3539067" lon="13.8288817"><ele>10.0</ele><time>2026-04-19T13:05:33.226Z</time></trkpt><trkpt lat="45.353815" lon="13.8288883"><ele>10.0</ele><time>2026-04-19T13:05:35.222Z</time></trkpt><trkpt lat="45.3537217" lon="13.8288933"><ele>10.0</ele><time>2026-04-19T13:05:37.219Z</time></trkpt><trkpt lat="45.3536233" lon="13.8288983"><ele>10.0</ele><time>2026-04-19T13:05:39.221Z</time></trkpt><trkpt lat="45.35351" lon="13.8288983"><ele>10.166666666666668</ele><time>2026-04-19T13:05:41.222Z</time></trkpt><trkpt lat="45.3534433" lon="13.8289"><ele>10.333333333333334</ele><time>2026-04-19T13:05:42.227Z</time></trkpt><trkpt lat="45.35337" lon="13.8289017"><ele>10.5</ele><time>2026-04-19T13:05:43.221Z</time></trkpt><trkpt lat="45.3532933" lon="13.828905"><ele>10.666666666666666</ele><time>2026-04-19T13:05:44.226Z</time></trkpt><trkpt lat="45.353215" lon="13.828905"><ele>10.833333333333332</ele><time>2026-04-19T13:05:45.223Z</time></trkpt><trkpt lat="45.3531333" lon="13.8289083"><ele>11.0</ele><time>2026-04-19T13:05:46.225Z</time></trkpt><trkpt lat="45.353045" lon="13.8289083"><ele>11.4</ele><time>2026-04-19T13:05:47.222Z</time></trkpt><trkpt lat="45.35295" lon="13.82891"><ele>11.8</ele><time>2026-04-19T13:05:48.225Z</time></trkpt><trkpt lat="45.3528583" lon="13.8289133"><ele>12.200000000000001</ele><time>2026-04-19T13:05:49.224Z</time></trkpt><trkpt lat="45.352765" lon="13.8289167"><ele>12.600000000000001</ele><time>2026-04-19T13:05:50.226Z</time></trkpt><trkpt lat="45.3526717" lon="13.8289233"><ele>13.0</ele><time>2026-04-19T13:05:51.221Z</time></trkpt><trkpt lat="45.352575" lon="13.82893"><ele>13.0</ele><time>2026-04-19T13:05:52.227Z</time></trkpt><trkpt lat="45.3524717" lon="13.828935"><ele>13.0</ele><time>2026-04-19T13:05:53.4Z</time></trkpt><trkpt lat="45.352265" lon="13.8289467"><ele>13.0</ele><time>2026-04-19T13:05:55.225Z</time></trkpt><trkpt lat="45.35216" lon="13.8289483"><ele>13.0</ele><time>2026-04-19T13:05:56.223Z</time></trkpt><trkpt lat="45.352055" lon="13.828955"><ele>13.2</ele><time>2026-04-19T13:05:57.223Z</time></trkpt><trkpt lat="45.35195" lon="13.828955"><ele>13.4</ele><time>2026-04-19T13:05:58.223Z</time></trkpt><trkpt lat="45.3518433" lon="13.828955"><ele>13.599999999999998</ele><time>2026-04-19T13:05:59.222Z</time></trkpt><trkpt lat="45.3517367" lon="13.8289567"><ele>13.799999999999999</ele><time>2026-04-19T13:06:00.223Z</time></trkpt><trkpt lat="45.35163" lon="13.8289633"><ele>14.0</ele><time>2026-04-19T13:06:01.226Z</time></trkpt><trkpt lat="45.3515217" lon="13.828965"><ele>14.0</ele><time>2026-04-19T13:06:02.222Z</time></trkpt><trkpt lat="45.3514133" lon="13.8289783"><ele>13.999999999999998</ele><time>2026-04-19T13:06:03.22Z</time></trkpt><trkpt lat="45.351305" lon="13.8289833"><ele>13.999999999999998</ele><time>2026-04-19T13:06:04.222Z</time></trkpt><trkpt lat="45.351195" lon="13.8289867"><ele>14.0</ele><time>2026-04-19T13:06:05.219Z</time></trkpt><trkpt lat="45.3510833" lon="13.8289967"><ele>14.0</ele><time>2026-04-19T13:06:06.22Z</time></trkpt><trkpt lat="45.3509717" lon="13.8290067"><ele>13.5</ele><time>2026-04-19T13:06:07.222Z</time></trkpt><trkpt lat="45.350855" lon="13.82902"><ele>13.0</ele><time>2026-04-19T13:06:08.221Z</time></trkpt><trkpt lat="45.350735" lon="13.8290317"><ele>12.5</ele><time>2026-04-19T13:06:09.224Z</time></trkpt><trkpt lat="45.35061" lon="13.82904"><ele>12.0</ele><time>2026-04-19T13:06:10.221Z</time></trkpt><trkpt lat="45.350485" lon="13.8290417"><ele>13.0</ele><time>2026-04-19T13:06:11.221Z</time></trkpt><trkpt lat="45.35036" lon="13.8290383"><ele>14.0</ele><time>2026-04-19T13:06:12.223Z</time></trkpt><trkpt lat="45.3502283" lon="13.829045"><ele>15.0</ele><time>2026-04-19T13:06:13.222Z</time></trkpt><trkpt lat="45.350095" lon="13.8290633"><ele>16.0</ele><time>2026-04-19T13:06:14.221Z</time></trkpt><trkpt lat="45.349965" lon="13.8290767"><ele>16.0</ele><time>2026-04-19T13:06:15.223Z</time></trkpt><trkpt lat="45.349835" lon="13.8290867"><ele>16.0</ele><time>2026-04-19T13:06:16.222Z</time></trkpt><trkpt lat="45.3497083" lon="13.829095"><ele>16.0</ele><time>2026-04-19T13:06:17.222Z</time></trkpt><trkpt lat="45.3495833" lon="13.8291033"><ele>16.0</ele><time>2026-04-19T13:06:18.222Z</time></trkpt><trkpt lat="45.3494583" lon="13.8291117"><ele>16.75</ele><time>2026-04-19T13:06:19.221Z</time></trkpt><trkpt lat="45.34933" lon="13.8291117"><ele>17.5</ele><time>2026-04-19T13:06:20.222Z</time></trkpt><trkpt lat="45.3492017" lon="13.8291167"><ele>18.25</ele><time>2026-04-19T13:06:21.225Z</time></trkpt><trkpt lat="45.3490733" lon="13.8291167"><ele>19.0</ele><time>2026-04-19T13:06:22.219Z</time></trkpt><trkpt lat="45.3489417" lon="13.82911"><ele>19.0</ele><time>2026-04-19T13:06:23.219Z</time></trkpt><trkpt lat="45.3488133" lon="13.82911"><ele>19.0</ele><time>2026-04-19T13:06:24.22Z</time></trkpt><trkpt lat="45.348685" lon="13.8291083"><ele>19.0</ele><time>2026-04-19T13:06:25.221Z</time></trkpt><trkpt lat="45.3485517" lon="13.8291117"><ele>19.0</ele><time>2026-04-19T13:06:26.221Z</time></trkpt><trkpt lat="45.34842" lon="13.829125"><ele>19.0</ele><time>2026-04-19T13:06:27.222Z</time></trkpt><trkpt lat="45.3482917" lon="13.8291283"><ele>19.0</ele><time>2026-04-19T13:06:28.223Z</time></trkpt><trkpt lat="45.3481617" lon="13.8291333"><ele>19.0</ele><time>2026-04-19T13:06:29.221Z</time></trkpt><trkpt lat="45.3480333" lon="13.8291317"><ele>19.0</ele><time>2026-04-19T13:06:30.222Z</time></trkpt><trkpt lat="45.34791" lon="13.8291417"><ele>17.5</ele><time>2026-04-19T13:06:31.223Z</time></trkpt><trkpt lat="45.3477917" lon="13.8291467"><ele>16.0</ele><time>2026-04-19T13:06:32.221Z</time></trkpt><trkpt lat="45.3476767" lon="13.8291467"><ele>14.5</ele><time>2026-04-19T13:06:33.223Z</time></trkpt><trkpt lat="45.347565" lon="13.8291467"><ele>13.0</ele><time>2026-04-19T13:06:34.221Z</time></trkpt><trkpt lat="45.3474583" lon="13.8291533"><ele>12.999999999999998</ele><time>2026-04-19T13:06:35.223Z</time></trkpt><trkpt lat="45.3473617" lon="13.8291417"><ele>13.0</ele><time>2026-04-19T13:06:36.22Z</time></trkpt><trkpt lat="45.34727" lon="13.8291483"><ele>13.0</ele><time>2026-04-19T13:06:37.22Z</time></trkpt><trkpt lat="45.3471867" lon="13.829145"><ele>13.0</ele><time>2026-04-19T13:06:38.219Z</time></trkpt><trkpt lat="45.3471133" lon="13.8291383"><ele>12.999999999999998</ele><time>2026-04-19T13:06:39.222Z</time></trkpt><trkpt lat="45.3470217" lon="13.8291217"><ele>13.0</ele><time>2026-04-19T13:06:41.22Z</time></trkpt><trkpt lat="45.3469567" lon="13.82907"><ele>12.0</ele><time>2026-04-19T13:06:44.217Z</time></trkpt><trkpt lat="45.34688" lon="13.8289867"><ele>11.0</ele><time>2026-04-19T13:06:47.219Z</time></trkpt><trkpt lat="45.3468167" lon="13.828855"><ele>10.0</ele><time>2026-04-19T13:06:49.221Z</time></trkpt><trkpt lat="45.3467633" lon="13.8287017"><ele>9.0</ele><time>2026-04-19T13:06:51.227Z</time></trkpt><trkpt lat="45.3467233" lon="13.8286133"><ele>8.0</ele><time>2026-04-19T13:06:52.22Z</time></trkpt><trkpt lat="45.3466767" lon="13.82852"><ele>8.200000000000001</ele><time>2026-04-19T13:06:53.222Z</time></trkpt><trkpt lat="45.3466267" lon="13.8284167"><ele>8.4</ele><time>2026-04-19T13:06:54.219Z</time></trkpt><trkpt lat="45.3465767" lon="13.8283033"><ele>8.600000000000001</ele><time>2026-04-19T13:06:55.221Z</time></trkpt><trkpt lat="45.346525" lon="13.8281917"><ele>8.8</ele><time>2026-04-19T13:06:56.221Z</time></trkpt><trkpt lat="45.3464733" lon="13.8280833"><ele>9.0</ele><time>2026-04-19T13:06:57.222Z</time></trkpt><trkpt lat="45.346415" lon="13.82797"><ele>8.75</ele><time>2026-04-19T13:06:58.219Z</time></trkpt><trkpt lat="45.3463517" lon="13.8278517"><ele>8.5</ele><time>2026-04-19T13:06:59.219Z</time></trkpt><trkpt lat="45.3462817" lon="13.8277167"><ele>8.25</ele><time>2026-04-19T13:07:00.223Z</time></trkpt><trkpt lat="45.3462067" lon="13.8275533"><ele>8.0</ele><time>2026-04-19T13:07:01.222Z</time></trkpt><trkpt lat="45.3461117" lon="13.827375"><ele>8.0</ele><time>2026-04-19T13:07:02.222Z</time></trkpt><trkpt lat="45.3460033" lon="13.8271733"><ele>8.0</ele><time>2026-04-19T13:07:03.222Z</time></trkpt><trkpt lat="45.3458883" lon="13.8269483"><ele>8.0</ele><time>2026-04-19T13:07:04.22Z</time></trkpt><trkpt lat="45.345765" lon="13.8267217"><ele>8.0</ele><time>2026-04-19T13:07:05.222Z</time></trkpt><trkpt lat="45.34564" lon="13.826485"><ele>8.0</ele><time>2026-04-19T13:07:06.223Z</time></trkpt><trkpt lat="45.345505" lon="13.8262217"><ele>8.0</ele><time>2026-04-19T13:07:07.224Z</time></trkpt><trkpt lat="45.345355" lon="13.8259417"><ele>7.5</ele><time>2026-04-19T13:07:08.222Z</time></trkpt><trkpt lat="45.3452" lon="13.8256417"><ele>7.0</ele><time>2026-04-19T13:07:09.229Z</time></trkpt><trkpt lat="45.3450467" lon="13.8253533"><ele>7.0</ele><time>2026-04-19T13:07:10.223Z</time></trkpt><trkpt lat="45.34489" lon="13.8250633"><ele>7.0</ele><time>2026-04-19T13:07:11.223Z</time></trkpt><trkpt lat="45.3447317" lon="13.8247667"><ele>6.0</ele><time>2026-04-19T13:07:12.223Z</time></trkpt><trkpt lat="45.3445783" lon="13.824475"><ele>5.0</ele><time>2026-04-19T13:07:13.223Z</time></trkpt><trkpt lat="45.344425" lon="13.8241833"><ele>5.0</ele><time>2026-04-19T13:07:14.223Z</time></trkpt><trkpt lat="45.344275" lon="13.8238917"><ele>5.0</ele><time>2026-04-19T13:07:15.222Z</time></trkpt><trkpt lat="45.3441267" lon="13.823585"><ele>5.5</ele><time>2026-04-19T13:07:16.221Z</time></trkpt><trkpt lat="45.3439917" lon="13.8232883"><ele>6.0</ele><time>2026-04-19T13:07:17.222Z</time></trkpt><trkpt lat="45.3438683" lon="13.8230033"><ele>6.0</ele><time>2026-04-19T13:07:18.22Z</time></trkpt><trkpt lat="45.343755" lon="13.822715"><ele>6.0</ele><time>2026-04-19T13:07:19.223Z</time></trkpt><trkpt lat="45.3436517" lon="13.8224183"><ele>6.0</ele><time>2026-04-19T13:07:20.222Z</time></trkpt><trkpt lat="45.3435483" lon="13.82211"><ele>6.0</ele><time>2026-04-19T13:07:21.222Z</time></trkpt><trkpt lat="45.343435" lon="13.8217783"><ele>6.5</ele><time>2026-04-19T13:07:22.221Z</time></trkpt><trkpt lat="45.34333" lon="13.8214283"><ele>7.0</ele><time>2026-04-19T13:07:23.222Z</time></trkpt><trkpt lat="45.3432417" lon="13.821045"><ele>6.5</ele><time>2026-04-19T13:07:24.222Z</time></trkpt><trkpt lat="45.3431617" lon="13.820635"><ele>6.0</ele><time>2026-04-19T13:07:25.222Z</time></trkpt><trkpt lat="45.3430917" lon="13.8202183"><ele>6.0</ele><time>2026-04-19T13:07:26.22Z</time></trkpt><trkpt lat="45.3430367" lon="13.8198083"><ele>6.0</ele><time>2026-04-19T13:07:27.224Z</time></trkpt><trkpt lat="45.3429933" lon="13.8194"><ele>5.5</ele><time>2026-04-19T13:07:28.222Z</time></trkpt><trkpt lat="45.342965" lon="13.8189933"><ele>5.0</ele><time>2026-04-19T13:07:29.22Z</time></trkpt><trkpt lat="45.3429467" lon="13.818585"><ele>6.0</ele><time>2026-04-19T13:07:30.222Z</time></trkpt><trkpt lat="45.3429383" lon="13.81818"><ele>7.0</ele><time>2026-04-19T13:07:31.223Z</time></trkpt><trkpt lat="45.3429417" lon="13.8177717"><ele>7.5</ele><time>2026-04-19T13:07:32.221Z</time></trkpt><trkpt lat="45.3429633" lon="13.8173617"><ele>8.0</ele><time>2026-04-19T13:07:33.221Z</time></trkpt><trkpt lat="45.3429983" lon="13.81695"><ele>8.0</ele><time>2026-04-19T13:07:34.224Z</time></trkpt><trkpt lat="45.343045" lon="13.8165333"><ele>8.0</ele><time>2026-04-19T13:07:35.225Z</time></trkpt><trkpt lat="45.34311" lon="13.81611"><ele>7.5</ele><time>2026-04-19T13:07:36.223Z</time></trkpt><trkpt lat="45.3431883" lon="13.8156883"><ele>7.0</ele><time>2026-04-19T13:07:37.223Z</time></trkpt><trkpt lat="45.3432767" lon="13.8152717"><ele>6.5</ele><time>2026-04-19T13:07:38.221Z</time></trkpt><trkpt lat="45.3433667" lon="13.8148633"><ele>6.0</ele><time>2026-04-19T13:07:39.221Z</time></trkpt><trkpt lat="45.343455" lon="13.814455"><ele>6.0</ele><time>2026-04-19T13:07:40.221Z</time></trkpt><trkpt lat="45.34354" lon="13.81405"><ele>6.0</ele><time>2026-04-19T13:07:41.221Z</time></trkpt><trkpt lat="45.343625" lon="13.8136433"><ele>5.5</ele><time>2026-04-19T13:07:42.222Z</time></trkpt><trkpt lat="45.34371" lon="13.8132383"><ele>5.0</ele><time>2026-04-19T13:07:43.222Z</time></trkpt><trkpt lat="45.3437933" lon="13.8128383"><ele>5.5</ele><time>2026-04-19T13:07:44.222Z</time></trkpt><trkpt lat="45.3438767" lon="13.8124467"><ele>6.0</ele><time>2026-04-19T13:07:45.227Z</time></trkpt><trkpt lat="45.3439567" lon="13.8120567"><ele>6.5</ele><time>2026-04-19T13:07:46.221Z</time></trkpt><trkpt lat="45.34404" lon="13.8116717"><ele>7.0</ele><time>2026-04-19T13:07:47.223Z</time></trkpt><trkpt lat="45.3441217" lon="13.8112817"><ele>7.0</ele><time>2026-04-19T13:07:48.222Z</time></trkpt><trkpt lat="45.3442033" lon="13.8108933"><ele>7.0</ele><time>2026-04-19T13:07:49.223Z</time></trkpt><trkpt lat="45.344285" lon="13.810505"><ele>7.0</ele><time>2026-04-19T13:07:50.221Z</time></trkpt><trkpt lat="45.3443683" lon="13.8101183"><ele>7.0</ele><time>2026-04-19T13:07:51.222Z</time></trkpt><trkpt lat="45.34445" lon="13.8097317"><ele>7.0</ele><time>2026-04-19T13:07:52.222Z</time></trkpt><trkpt lat="45.344535" lon="13.809345"><ele>7.0</ele><time>2026-04-19T13:07:53.221Z</time></trkpt><trkpt lat="45.3446167" lon="13.8089567"><ele>6.5</ele><time>2026-04-19T13:07:54.222Z</time></trkpt><trkpt lat="45.3446967" lon="13.8085667"><ele>6.0</ele><time>2026-04-19T13:07:55.223Z</time></trkpt><trkpt lat="45.3447783" lon="13.8081733"><ele>6.5</ele><time>2026-04-19T13:07:56.221Z</time></trkpt><trkpt lat="45.34486" lon="13.8077767"><ele>7.0</ele><time>2026-04-19T13:07:57.227Z</time></trkpt><trkpt lat="45.3449417" lon="13.8073717"><ele>7.0</ele><time>2026-04-19T13:07:58.224Z</time></trkpt><trkpt lat="45.3450283" lon="13.8069567"><ele>7.0</ele><time>2026-04-19T13:07:59.223Z</time></trkpt><trkpt lat="45.3451167" lon="13.8065283"><ele>6.5</ele><time>2026-04-19T13:08:00.223Z</time></trkpt><trkpt lat="45.34521" lon="13.8060867"><ele>6.0</ele><time>2026-04-19T13:08:01.223Z</time></trkpt><trkpt lat="45.3453083" lon="13.8056217"><ele>6.0</ele><time>2026-04-19T13:08:02.222Z</time></trkpt><trkpt lat="45.34541" lon="13.8051367"><ele>6.0</ele><time>2026-04-19T13:08:03.223Z</time></trkpt><trkpt lat="45.3455083" lon="13.8046333"><ele>9.5</ele><time>2026-04-19T13:08:04.224Z</time></trkpt><trkpt lat="45.345615" lon="13.80413"><ele>13.0</ele><time>2026-04-19T13:08:05.223Z</time></trkpt><trkpt lat="45.3457167" lon="13.803635"><ele>11.5</ele><time>2026-04-19T13:08:06.223Z</time></trkpt><trkpt lat="45.34582" lon="13.803145"><ele>10.0</ele><time>2026-04-19T13:08:07.222Z</time></trkpt><trkpt lat="45.3459183" lon="13.8026533"><ele>9.0</ele><time>2026-04-19T13:08:08.219Z</time></trkpt><trkpt lat="45.346015" lon="13.8021583"><ele>8.0</ele><time>2026-04-19T13:08:09.223Z</time></trkpt><trkpt lat="45.3460967" lon="13.8016533"><ele>7.5</ele><time>2026-04-19T13:08:10.222Z</time></trkpt><trkpt lat="45.3461483" lon="13.801135"><ele>7.0</ele><time>2026-04-19T13:08:11.222Z</time></trkpt><trkpt lat="45.346175" lon="13.8006067"><ele>7.0</ele><time>2026-04-19T13:08:12.223Z</time></trkpt><trkpt lat="45.346185" lon="13.8000717"><ele>7.0</ele><time>2026-04-19T13:08:13.222Z</time></trkpt><trkpt lat="45.346165" lon="13.799535"><ele>7.5</ele><time>2026-04-19T13:08:14.223Z</time></trkpt><trkpt lat="45.3461167" lon="13.79899"><ele>8.0</ele><time>2026-04-19T13:08:15.221Z</time></trkpt><trkpt lat="45.3460467" lon="13.7984417"><ele>9.0</ele><time>2026-04-19T13:08:16.223Z</time></trkpt><trkpt lat="45.34596" lon="13.7978917"><ele>10.0</ele><time>2026-04-19T13:08:17.222Z</time></trkpt><trkpt lat="45.3458567" lon="13.7973417"><ele>12.5</ele><time>2026-04-19T13:08:18.221Z</time></trkpt><trkpt lat="45.34575" lon="13.7967933"><ele>15.0</ele><time>2026-04-19T13:08:19.223Z</time></trkpt><trkpt lat="45.3456433" lon="13.7962467"><ele>11.0</ele><time>2026-04-19T13:08:20.22Z</time></trkpt><trkpt lat="45.3455317" lon="13.7956967"><ele>7.0</ele><time>2026-04-19T13:08:21.223Z</time></trkpt><trkpt lat="45.3454133" lon="13.7951517"><ele>6.5</ele><time>2026-04-19T13:08:22.222Z</time></trkpt><trkpt lat="45.3453083" lon="13.7946017"><ele>6.0</ele><time>2026-04-19T13:08:23.221Z</time></trkpt><trkpt lat="45.3452017" lon="13.7940733"><ele>6.0</ele><time>2026-04-19T13:08:24.223Z</time></trkpt><trkpt lat="45.345095" lon="13.79357"><ele>6.0</ele><time>2026-04-19T13:08:25.224Z</time></trkpt><trkpt lat="45.3449967" lon="13.7931017"><ele>6.5</ele><time>2026-04-19T13:08:26.224Z</time></trkpt><trkpt lat="45.3449067" lon="13.792675"><ele>7.0</ele><time>2026-04-19T13:08:27.222Z</time></trkpt><trkpt lat="45.3448267" lon="13.7922867"><ele>7.0</ele><time>2026-04-19T13:08:28.221Z</time></trkpt><trkpt lat="45.3447567" lon="13.7919267"><ele>7.0</ele><time>2026-04-19T13:08:29.221Z</time></trkpt><trkpt lat="45.344685" lon="13.79158"><ele>6.5</ele><time>2026-04-19T13:08:30.222Z</time></trkpt><trkpt lat="45.3446233" lon="13.7912517"><ele>6.0</ele><time>2026-04-19T13:08:31.223Z</time></trkpt><trkpt lat="45.344575" lon="13.7909283"><ele>5.0</ele><time>2026-04-19T13:08:32.226Z</time></trkpt><trkpt lat="45.3445417" lon="13.7906017"><ele>4.0</ele><time>2026-04-19T13:08:33.224Z</time></trkpt><trkpt lat="45.344525" lon="13.7902783"><ele>4.333333333333333</ele><time>2026-04-19T13:08:34.221Z</time></trkpt><trkpt lat="45.3445183" lon="13.7899567"><ele>4.666666666666667</ele><time>2026-04-19T13:08:35.221Z</time></trkpt><trkpt lat="45.3445233" lon="13.78964"><ele>5.0</ele><time>2026-04-19T13:08:36.223Z</time></trkpt><trkpt lat="45.344545" lon="13.7893317"><ele>5.0</ele><time>2026-04-19T13:08:37.223Z</time></trkpt><trkpt lat="45.344575" lon="13.7890267"><ele>5.0</ele><time>2026-04-19T13:08:38.223Z</time></trkpt><trkpt lat="45.34461" lon="13.7887283"><ele>5.0</ele><time>2026-04-19T13:08:39.224Z</time></trkpt><trkpt lat="45.344655" lon="13.788435"><ele>5.0</ele><time>2026-04-19T13:08:40.221Z</time></trkpt><trkpt lat="45.3447083" lon="13.7881367"><ele>5.0</ele><time>2026-04-19T13:08:41.222Z</time></trkpt><trkpt lat="45.34478" lon="13.7878217"><ele>5.0</ele><time>2026-04-19T13:08:42.224Z</time></trkpt><trkpt lat="45.3448567" lon="13.7874767"><ele>6.0</ele><time>2026-04-19T13:08:43.22Z</time></trkpt><trkpt lat="45.3449633" lon="13.787115"><ele>7.0</ele><time>2026-04-19T13:08:44.221Z</time></trkpt><trkpt lat="45.3451067" lon="13.7867383"><ele>7.0</ele><time>2026-04-19T13:08:45.222Z</time></trkpt><trkpt lat="45.3452633" lon="13.786345"><ele>7.0</ele><time>2026-04-19T13:08:46.221Z</time></trkpt><trkpt lat="45.3454217" lon="13.785915"><ele>8.5</ele><time>2026-04-19T13:08:47.222Z</time></trkpt><trkpt lat="45.3455767" lon="13.785455"><ele>10.0</ele><time>2026-04-19T13:08:48.223Z</time></trkpt><trkpt lat="45.3457433" lon="13.784975"><ele>10.0</ele><time>2026-04-19T13:08:49.226Z</time></trkpt><trkpt lat="45.3459133" lon="13.7844817"><ele>10.0</ele><time>2026-04-19T13:08:50.222Z</time></trkpt><trkpt lat="45.3461" lon="13.7840017"><ele>9.5</ele><time>2026-04-19T13:08:51.225Z</time></trkpt><trkpt lat="45.3462767" lon="13.7835067"><ele>9.0</ele><time>2026-04-19T13:08:52.222Z</time></trkpt><trkpt lat="45.34646" lon="13.78301"><ele>9.5</ele><time>2026-04-19T13:08:53.223Z</time></trkpt><trkpt lat="45.3466467" lon="13.7825"><ele>10.0</ele><time>2026-04-19T13:08:54.221Z</time></trkpt><trkpt lat="45.3468467" lon="13.7819817"><ele>9.5</ele><time>2026-04-19T13:08:55.222Z</time></trkpt><trkpt lat="45.347055" lon="13.7814583"><ele>9.0</ele><time>2026-04-19T13:08:56.22Z</time></trkpt><trkpt lat="45.3472617" lon="13.7809267"><ele>9.0</ele><time>2026-04-19T13:08:57.226Z</time></trkpt><trkpt lat="45.347455" lon="13.7804"><ele>9.0</ele><time>2026-04-19T13:08:58.223Z</time></trkpt><trkpt lat="45.347645" lon="13.7799017"><ele>9.0</ele><time>2026-04-19T13:08:59.222Z</time></trkpt><trkpt lat="45.3478167" lon="13.77943"><ele>9.0</ele><time>2026-04-19T13:09:00.22Z</time></trkpt><trkpt lat="45.3479833" lon="13.778995"><ele>9.0</ele><time>2026-04-19T13:09:01.226Z</time></trkpt><trkpt lat="45.3481483" lon="13.77859"><ele>9.0</ele><time>2026-04-19T13:09:02.221Z</time></trkpt><trkpt lat="45.3483117" lon="13.7781983"><ele>9.0</ele><time>2026-04-19T13:09:03.221Z</time></trkpt><trkpt lat="45.3484733" lon="13.777805"><ele>9.0</ele><time>2026-04-19T13:09:04.223Z</time></trkpt><trkpt lat="45.3486417" lon="13.777415"><ele>8.5</ele><time>2026-04-19T13:09:05.222Z</time></trkpt><trkpt lat="45.3488083" lon="13.7770183"><ele>8.0</ele><time>2026-04-19T13:09:06.221Z</time></trkpt><trkpt lat="45.3489733" lon="13.77661"><ele>8.0</ele><time>2026-04-19T13:09:07.223Z</time></trkpt><trkpt lat="45.3491367" lon="13.7761917"><ele>8.0</ele><time>2026-04-19T13:09:08.223Z</time></trkpt><trkpt lat="45.349325" lon="13.7757783"><ele>8.0</ele><time>2026-04-19T13:09:09.224Z</time></trkpt><trkpt lat="45.34952" lon="13.775365"><ele>8.0</ele><time>2026-04-19T13:09:10.223Z</time></trkpt><trkpt lat="45.3497033" lon="13.774935"><ele>8.5</ele><time>2026-04-19T13:09:11.221Z</time></trkpt><trkpt lat="45.34989" lon="13.7745033"><ele>9.0</ele><time>2026-04-19T13:09:12.22Z</time></trkpt><trkpt lat="45.350075" lon="13.77407"><ele>9.0</ele><time>2026-04-19T13:09:13.223Z</time></trkpt><trkpt lat="45.3502533" lon="13.77363"><ele>9.0</ele><time>2026-04-19T13:09:14.222Z</time></trkpt><trkpt lat="45.3504333" lon="13.77321"><ele>9.0</ele><time>2026-04-19T13:09:15.224Z</time></trkpt><trkpt lat="45.3506117" lon="13.7727933"><ele>9.0</ele><time>2026-04-19T13:09:16.222Z</time></trkpt><trkpt lat="45.3507833" lon="13.7723817"><ele>9.0</ele><time>2026-04-19T13:09:17.22Z</time></trkpt><trkpt lat="45.3509517" lon="13.7719733"><ele>9.0</ele><time>2026-04-19T13:09:18.223Z</time></trkpt><trkpt lat="45.35112" lon="13.771575"><ele>9.0</ele><time>2026-04-19T13:09:19.223Z</time></trkpt><trkpt lat="45.351285" lon="13.7711867"><ele>9.0</ele><time>2026-04-19T13:09:20.222Z</time></trkpt><trkpt lat="45.3514367" lon="13.7707983"><ele>10.0</ele><time>2026-04-19T13:09:21.223Z</time></trkpt><trkpt lat="45.3515733" lon="13.77041"><ele>11.0</ele><time>2026-04-19T13:09:22.224Z</time></trkpt><trkpt lat="45.3516633" lon="13.7699983"><ele>11.5</ele><time>2026-04-19T13:09:23.221Z</time></trkpt><trkpt lat="45.3517083" lon="13.7695633"><ele>12.0</ele><time>2026-04-19T13:09:24.222Z</time></trkpt><trkpt lat="45.3517167" lon="13.7691083"><ele>11.0</ele><time>2026-04-19T13:09:25.225Z</time></trkpt><trkpt lat="45.3516967" lon="13.7686383"><ele>10.0</ele><time>2026-04-19T13:09:26.221Z</time></trkpt><trkpt lat="45.351675" lon="13.7681417"><ele>9.0</ele><time>2026-04-19T13:09:27.224Z</time></trkpt><trkpt lat="45.35166" lon="13.7676183"><ele>8.0</ele><time>2026-04-19T13:09:28.22Z</time></trkpt><trkpt lat="45.3516817" lon="13.7670717"><ele>9.5</ele><time>2026-04-19T13:09:29.219Z</time></trkpt><trkpt lat="45.3517067" lon="13.7665033"><ele>11.0</ele><time>2026-04-19T13:09:30.221Z</time></trkpt><trkpt lat="45.3517017" lon="13.7659267"><ele>11.0</ele><time>2026-04-19T13:09:31.226Z</time></trkpt><trkpt lat="45.3516867" lon="13.765335"><ele>11.0</ele><time>2026-04-19T13:09:32.222Z</time></trkpt><trkpt lat="45.351675" lon="13.7647283"><ele>12.0</ele><time>2026-04-19T13:09:33.221Z</time></trkpt><trkpt lat="45.3516583" lon="13.76411"><ele>13.0</ele><time>2026-04-19T13:09:34.222Z</time></trkpt><trkpt lat="45.3516383" lon="13.763485"><ele>10.5</ele><time>2026-04-19T13:09:35.221Z</time></trkpt><trkpt lat="45.3516217" lon="13.7628517"><ele>8.0</ele><time>2026-04-19T13:09:36.222Z</time></trkpt><trkpt lat="45.3516" lon="13.7622033"><ele>4.0</ele><time>2026-04-19T13:09:37.223Z</time></trkpt><trkpt lat="45.351575" lon="13.761545"><ele>6.0</ele><time>2026-04-19T13:09:38.222Z</time></trkpt><trkpt lat="45.3515667" lon="13.7608933"><ele>6.0</ele><time>2026-04-19T13:09:39.222Z</time></trkpt><trkpt lat="45.3515483" lon="13.7602667"><ele>6.0</ele><time>2026-04-19T13:09:40.223Z</time></trkpt><trkpt lat="45.35153" lon="13.7596667"><ele>5.0</ele><time>2026-04-19T13:09:41.221Z</time></trkpt><trkpt lat="45.3515133" lon="13.7590917"><ele>4.0</ele><time>2026-04-19T13:09:42.222Z</time></trkpt><trkpt lat="45.3514983" lon="13.7585517"><ele>4.5</ele><time>2026-04-19T13:09:43.223Z</time></trkpt><trkpt lat="45.35148" lon="13.7580433"><ele>5.0</ele><time>2026-04-19T13:09:44.224Z</time></trkpt><trkpt lat="45.3514683" lon="13.75756"><ele>5.0</ele><time>2026-04-19T13:09:45.221Z</time></trkpt><trkpt lat="45.3514683" lon="13.7570883"><ele>5.0</ele><time>2026-04-19T13:09:46.226Z</time></trkpt><trkpt lat="45.351485" lon="13.7566217"><ele>5.0</ele><time>2026-04-19T13:09:47.22Z</time></trkpt><trkpt lat="45.351535" lon="13.75616"><ele>5.0</ele><time>2026-04-19T13:09:48.223Z</time></trkpt><trkpt lat="45.3516133" lon="13.755705"><ele>5.0</ele><time>2026-04-19T13:09:49.222Z</time></trkpt><trkpt lat="45.35172" lon="13.755265"><ele>5.0</ele><time>2026-04-19T13:09:50.224Z</time></trkpt><trkpt lat="45.351865" lon="13.7548367"><ele>5.0</ele><time>2026-04-19T13:09:51.224Z</time></trkpt><trkpt lat="45.3520333" lon="13.7544083"><ele>5.0</ele><time>2026-04-19T13:09:52.225Z</time></trkpt><trkpt lat="45.3522117" lon="13.753965"><ele>5.5</ele><time>2026-04-19T13:09:53.221Z</time></trkpt><trkpt lat="45.352395" lon="13.7535017"><ele>6.0</ele><time>2026-04-19T13:09:54.221Z</time></trkpt><trkpt lat="45.35257" lon="13.75301"><ele>6.5</ele><time>2026-04-19T13:09:55.224Z</time></trkpt><trkpt lat="45.35274" lon="13.7524933"><ele>7.0</ele><time>2026-04-19T13:09:56.225Z</time></trkpt><trkpt lat="45.3528817" lon="13.7519483"><ele>7.0</ele><time>2026-04-19T13:09:57.225Z</time></trkpt><trkpt lat="45.35301" lon="13.7513833"><ele>7.0</ele><time>2026-04-19T13:09:58.222Z</time></trkpt><trkpt lat="45.3531283" lon="13.75081"><ele>5.5</ele><time>2026-04-19T13:09:59.223Z</time></trkpt><trkpt lat="45.3532183" lon="13.7502183"><ele>4.0</ele><time>2026-04-19T13:10:00.224Z</time></trkpt><trkpt lat="45.3532983" lon="13.7496283"><ele>4.0</ele><time>2026-04-19T13:10:01.22Z</time></trkpt><trkpt lat="45.3533817" lon="13.749055"><ele>4.0</ele><time>2026-04-19T13:10:02.219Z</time></trkpt><trkpt lat="45.35345" lon="13.7485083"><ele>3.5</ele><time>2026-04-19T13:10:03.223Z</time></trkpt><trkpt lat="45.3535467" lon="13.748005"><ele>3.0</ele><time>2026-04-19T13:10:04.219Z</time></trkpt><trkpt lat="45.35364" lon="13.747535"><ele>3.0</ele><time>2026-04-19T13:10:05.221Z</time></trkpt><trkpt lat="45.3537467" lon="13.7471"><ele>3.0</ele><time>2026-04-19T13:10:06.221Z</time></trkpt><trkpt lat="45.3538533" lon="13.74669"><ele>3.5</ele><time>2026-04-19T13:10:07.223Z</time></trkpt><trkpt lat="45.3539717" lon="13.7463"><ele>4.0</ele><time>2026-04-19T13:10:08.22Z</time></trkpt><trkpt lat="45.3540883" lon="13.7459217"><ele>4.0</ele><time>2026-04-19T13:10:09.219Z</time></trkpt><trkpt lat="45.3542067" lon="13.7455583"><ele>4.0</ele><time>2026-04-19T13:10:10.222Z</time></trkpt><trkpt lat="45.354335" lon="13.7452167"><ele>4.5</ele><time>2026-04-19T13:10:11.221Z</time></trkpt><trkpt lat="45.35446" lon="13.744885"><ele>5.0</ele><time>2026-04-19T13:10:12.223Z</time></trkpt><trkpt lat="45.3545883" lon="13.74457"><ele>5.0</ele><time>2026-04-19T13:10:13.22Z</time></trkpt><trkpt lat="45.3547167" lon="13.7442733"><ele>5.0</ele><time>2026-04-19T13:10:14.223Z</time></trkpt><trkpt lat="45.35485" lon="13.7439983"><ele>5.0</ele><time>2026-04-19T13:10:15.225Z</time></trkpt><trkpt lat="45.35498" lon="13.7437417"><ele>5.0</ele><time>2026-04-19T13:10:16.221Z</time></trkpt><trkpt lat="45.3551033" lon="13.7434967"><ele>5.0</ele><time>2026-04-19T13:10:17.222Z</time></trkpt><trkpt lat="45.3552417" lon="13.7432717"><ele>5.0</ele><time>2026-04-19T13:10:18.217Z</time></trkpt><trkpt lat="45.3553767" lon="13.74305"><ele>5.0</ele><time>2026-04-19T13:10:19.218Z</time></trkpt><trkpt lat="45.3554833" lon="13.7428067"><ele>5.0</ele><time>2026-04-19T13:10:20.226Z</time></trkpt><trkpt lat="45.3557983" lon="13.742395"><ele>5.0</ele><time>2026-04-19T13:10:21.881Z</time></trkpt><trkpt lat="45.3557483" lon="13.74212"><ele>5.0</ele><time>2026-04-19T13:10:23.058Z</time></trkpt><trkpt lat="45.3560383" lon="13.7416283"><ele>5.333333333333334</ele><time>2026-04-19T13:10:25.221Z</time></trkpt><trkpt lat="45.356165" lon="13.7414083"><ele>5.666666666666667</ele><time>2026-04-19T13:10:26.222Z</time></trkpt><trkpt lat="45.3562867" lon="13.741195"><ele>6.0</ele><time>2026-04-19T13:10:27.218Z</time></trkpt><trkpt lat="45.35642" lon="13.741005"><ele>5.333333333333333</ele><time>2026-04-19T13:10:28.223Z</time></trkpt><trkpt lat="45.3565417" lon="13.74079"><ele>4.666666666666666</ele><time>2026-04-19T13:10:29.218Z</time></trkpt><trkpt lat="45.3566717" lon="13.7405767"><ele>4.0</ele><time>2026-04-19T13:10:30.221Z</time></trkpt><trkpt lat="45.3568133" lon="13.740375"><ele>4.0</ele><time>2026-04-19T13:10:31.221Z</time></trkpt><trkpt lat="45.3569633" lon="13.7401833"><ele>4.0</ele><time>2026-04-19T13:10:32.219Z</time></trkpt><trkpt lat="45.3571167" lon="13.739995"><ele>4.0</ele><time>2026-04-19T13:10:33.222Z</time></trkpt><trkpt lat="45.3572717" lon="13.73982"><ele>4.0</ele><time>2026-04-19T13:10:34.217Z</time></trkpt><trkpt lat="45.3574267" lon="13.7396617"><ele>4.0</ele><time>2026-04-19T13:10:35.22Z</time></trkpt><trkpt lat="45.3575733" lon="13.7395033"><ele>4.0</ele><time>2026-04-19T13:10:36.224Z</time></trkpt><trkpt lat="45.357715" lon="13.739355"><ele>3.75</ele><time>2026-04-19T13:10:37.218Z</time></trkpt><trkpt lat="45.3578467" lon="13.73922"><ele>3.5</ele><time>2026-04-19T13:10:38.225Z</time></trkpt><trkpt lat="45.357965" lon="13.7390983"><ele>3.25</ele><time>2026-04-19T13:10:39.223Z</time></trkpt><trkpt lat="45.3580717" lon="13.7389883"><ele>3.0</ele><time>2026-04-19T13:10:40.219Z</time></trkpt><trkpt lat="45.3581633" lon="13.738875"><ele>3.2</ele><time>2026-04-19T13:10:41.222Z</time></trkpt><trkpt lat="45.3582433" lon="13.7387617"><ele>3.4</ele><time>2026-04-19T13:10:42.224Z</time></trkpt><trkpt lat="45.358315" lon="13.7386517"><ele>3.6000000000000005</ele><time>2026-04-19T13:10:43.218Z</time></trkpt><trkpt lat="45.3583783" lon="13.738545"><ele>3.8000000000000003</ele><time>2026-04-19T13:10:44.223Z</time></trkpt><trkpt lat="45.3584617" lon="13.7384733"><ele>4.0</ele><time>2026-04-19T13:10:45.221Z</time></trkpt><trkpt lat="45.3585633" lon="13.7384483"><ele>4.0</ele><time>2026-04-19T13:10:46.221Z</time></trkpt><trkpt lat="45.3586783" lon="13.73846"><ele>4.0</ele><time>2026-04-19T13:10:47.221Z</time></trkpt><trkpt lat="45.358805" lon="13.7385383"><ele>4.0</ele><time>2026-04-19T13:10:48.224Z</time></trkpt><trkpt lat="45.3589417" lon="13.7386433"><ele>4.0</ele><time>2026-04-19T13:10:49.221Z</time></trkpt><trkpt lat="45.3590917" lon="13.7387433"><ele>4.666666666666666</ele><time>2026-04-19T13:10:50.222Z</time></trkpt><trkpt lat="45.3592483" lon="13.7388333"><ele>5.333333333333333</ele><time>2026-04-19T13:10:51.223Z</time></trkpt><trkpt lat="45.3594067" lon="13.7389217"><ele>6.0</ele><time>2026-04-19T13:10:52.223Z</time></trkpt><trkpt lat="45.35957" lon="13.7389983"><ele>6.0</ele><time>2026-04-19T13:10:53.222Z</time></trkpt><trkpt lat="45.3597433" lon="13.7390317"><ele>6.0</ele><time>2026-04-19T13:10:54.223Z</time></trkpt><trkpt lat="45.3599283" lon="13.7389983"><ele>6.0</ele><time>2026-04-19T13:10:55.22Z</time></trkpt><trkpt lat="45.3601133" lon="13.7389167"><ele>6.0</ele><time>2026-04-19T13:10:56.222Z</time></trkpt><trkpt lat="45.3602733" lon="13.7387667"><ele>6.0</ele><time>2026-04-19T13:10:57.222Z</time></trkpt><trkpt lat="45.3604" lon="13.7385483"><ele>6.0</ele><time>2026-04-19T13:10:58.222Z</time></trkpt><trkpt lat="45.360495" lon="13.7382917"><ele>5.5</ele><time>2026-04-19T13:10:59.222Z</time></trkpt><trkpt lat="45.3605367" lon="13.73798"><ele>5.0</ele><time>2026-04-19T13:11:00.218Z</time></trkpt><trkpt lat="45.360555" lon="13.7376483"><ele>5.0</ele><time>2026-04-19T13:11:01.222Z</time></trkpt><trkpt lat="45.3605967" lon="13.737295"><ele>5.0</ele><time>2026-04-19T13:11:02.223Z</time></trkpt><trkpt lat="45.36063" lon="13.7369167"><ele>4.0</ele><time>2026-04-19T13:11:03.225Z</time></trkpt><trkpt lat="45.3606633" lon="13.73654"><ele>3.0</ele><time>2026-04-19T13:11:04.224Z</time></trkpt><trkpt lat="45.3606967" lon="13.7361733"><ele>3.5</ele><time>2026-04-19T13:11:05.222Z</time></trkpt><trkpt lat="45.3607217" lon="13.73581"><ele>4.0</ele><time>2026-04-19T13:11:06.219Z</time></trkpt><trkpt lat="45.3607467" lon="13.7354483"><ele>4.0</ele><time>2026-04-19T13:11:07.223Z</time></trkpt><trkpt lat="45.3607733" lon="13.7350933"><ele>4.0</ele><time>2026-04-19T13:11:08.223Z</time></trkpt><trkpt lat="45.3608033" lon="13.7347367"><ele>3.5</ele><time>2026-04-19T13:11:09.222Z</time></trkpt><trkpt lat="45.3608317" lon="13.734385"><ele>3.0</ele><time>2026-04-19T13:11:10.226Z</time></trkpt><trkpt lat="45.3608583" lon="13.7340283"><ele>3.0</ele><time>2026-04-19T13:11:11.221Z</time></trkpt><trkpt lat="45.36088" lon="13.733665"><ele>3.0</ele><time>2026-04-19T13:11:12.223Z</time></trkpt><trkpt lat="45.3609033" lon="13.7332967"><ele>3.0</ele><time>2026-04-19T13:11:13.225Z</time></trkpt><trkpt lat="45.3609433" lon="13.7329133"><ele>3.0</ele><time>2026-04-19T13:11:14.222Z</time></trkpt><trkpt lat="45.3609633" lon="13.7325167"><ele>2.5</ele><time>2026-04-19T13:11:15.222Z</time></trkpt><trkpt lat="45.3609933" lon="13.7321117"><ele>2.0</ele><time>2026-04-19T13:11:16.223Z</time></trkpt><trkpt lat="45.3610217" lon="13.7317067"><ele>2.0</ele><time>2026-04-19T13:11:17.223Z</time></trkpt><trkpt lat="45.3610483" lon="13.7312967"><ele>2.0</ele><time>2026-04-19T13:11:18.221Z</time></trkpt><trkpt lat="45.3610767" lon="13.73089"><ele>3.5</ele><time>2026-04-19T13:11:19.222Z</time></trkpt><trkpt lat="45.361105" lon="13.7304867"><ele>5.0</ele><time>2026-04-19T13:11:20.221Z</time></trkpt><trkpt lat="45.3611367" lon="13.7300983"><ele>8.5</ele><time>2026-04-19T13:11:21.225Z</time></trkpt><trkpt lat="45.3611767" lon="13.729725"><ele>12.0</ele><time>2026-04-19T13:11:22.219Z</time></trkpt><trkpt lat="45.3612433" lon="13.7293633"><ele>10.5</ele><time>2026-04-19T13:11:23.22Z</time></trkpt><trkpt lat="45.3613483" lon="13.7290183"><ele>9.0</ele><time>2026-04-19T13:11:24.222Z</time></trkpt><trkpt lat="45.3614817" lon="13.7286767"><ele>11.5</ele><time>2026-04-19T13:11:25.221Z</time></trkpt><trkpt lat="45.36164" lon="13.7283483"><ele>14.0</ele><time>2026-04-19T13:11:26.223Z</time></trkpt><trkpt lat="45.3617833" lon="13.7280183"><ele>21.0</ele><time>2026-04-19T13:11:27.224Z</time></trkpt><trkpt lat="45.3619033" lon="13.727675"><ele>28.0</ele><time>2026-04-19T13:11:28.225Z</time></trkpt><trkpt lat="45.362025" lon="13.72733"><ele>28.0</ele><time>2026-04-19T13:11:29.223Z</time></trkpt><trkpt lat="45.3621617" lon="13.726995"><ele>28.0</ele><time>2026-04-19T13:11:30.223Z</time></trkpt><trkpt lat="45.362315" lon="13.7266783"><ele>24.0</ele><time>2026-04-19T13:11:31.225Z</time></trkpt><trkpt lat="45.3624733" lon="13.7263867"><ele>20.0</ele><time>2026-04-19T13:11:32.223Z</time></trkpt><trkpt lat="45.362635" lon="13.7261167"><ele>27.5</ele><time>2026-04-19T13:11:33.221Z</time></trkpt><trkpt lat="45.362795" lon="13.72587"><ele>35.0</ele><time>2026-04-19T13:11:34.221Z</time></trkpt><trkpt lat="45.3629667" lon="13.72567"><ele>31.0</ele><time>2026-04-19T13:11:35.225Z</time></trkpt><trkpt lat="45.3631817" lon="13.7255517"><ele>27.0</ele><time>2026-04-19T13:11:36.224Z</time></trkpt><trkpt lat="45.3634317" lon="13.7255067"><ele>27.0</ele><time>2026-04-19T13:11:37.226Z</time></trkpt><trkpt lat="45.3636933" lon="13.7254433"><ele>27.0</ele><time>2026-04-19T13:11:38.223Z</time></trkpt><trkpt lat="45.3639417" lon="13.7253017"><ele>26.0</ele><time>2026-04-19T13:11:39.229Z</time></trkpt><trkpt lat="45.364225" lon="13.7252867"><ele>25.0</ele><time>2026-04-19T13:11:40.218Z</time></trkpt><trkpt lat="45.3645" lon="13.7252633"><ele>26.0</ele><time>2026-04-19T13:11:41.222Z</time></trkpt><trkpt lat="45.36477" lon="13.7252383"><ele>27.0</ele><time>2026-04-19T13:11:42.225Z</time></trkpt><trkpt lat="45.36504" lon="13.725105"><ele>31.5</ele><time>2026-04-19T13:11:43.223Z</time></trkpt><trkpt lat="45.3653017" lon="13.7249217"><ele>36.0</ele><time>2026-04-19T13:11:44.225Z</time></trkpt><trkpt lat="45.365555" lon="13.724735"><ele>36.0</ele><time>2026-04-19T13:11:45.223Z</time></trkpt><trkpt lat="45.3658083" lon="13.7245283"><ele>36.0</ele><time>2026-04-19T13:11:46.222Z</time></trkpt><trkpt lat="45.3660367" lon="13.7242567"><ele>38.5</ele><time>2026-04-19T13:11:47.222Z</time></trkpt><trkpt lat="45.36625" lon="13.7239933"><ele>41.0</ele><time>2026-04-19T13:11:48.225Z</time></trkpt><trkpt lat="45.3664417" lon="13.7237617"><ele>51.0</ele><time>2026-04-19T13:11:49.223Z</time></trkpt><trkpt lat="45.3666083" lon="13.723545"><ele>61.0</ele><time>2026-04-19T13:11:50.22Z</time></trkpt><trkpt lat="45.36672" lon="13.7232567"><ele>61.0</ele><time>2026-04-19T13:11:51.223Z</time></trkpt><trkpt lat="45.3667783" lon="13.7229167"><ele>61.0</ele><time>2026-04-19T13:11:52.223Z</time></trkpt><trkpt lat="45.36682" lon="13.7225867"><ele>63.666666666666664</ele><time>2026-04-19T13:11:53.223Z</time></trkpt><trkpt lat="45.3668783" lon="13.72231"><ele>66.33333333333333</ele><time>2026-04-19T13:11:54.223Z</time></trkpt><trkpt lat="45.366955" lon="13.7220917"><ele>69.0</ele><time>2026-04-19T13:11:55.224Z</time></trkpt><trkpt lat="45.3670517" lon="13.72192"><ele>68.33333333333333</ele><time>2026-04-19T13:11:56.22Z</time></trkpt><trkpt lat="45.3671883" lon="13.7217883"><ele>67.66666666666666</ele><time>2026-04-19T13:11:57.223Z</time></trkpt><trkpt lat="45.3673883" lon="13.7217183"><ele>67.0</ele><time>2026-04-19T13:11:58.223Z</time></trkpt><trkpt lat="45.3675983" lon="13.7216433"><ele>67.0</ele><time>2026-04-19T13:11:59.222Z</time></trkpt><trkpt lat="45.3677883" lon="13.721495"><ele>67.0</ele><time>2026-04-19T13:12:00.223Z</time></trkpt><trkpt lat="45.3679783" lon="13.7213067"><ele>67.0</ele><time>2026-04-19T13:12:01.225Z</time></trkpt><trkpt lat="45.3681733" lon="13.721065"><ele>71.0</ele><time>2026-04-19T13:12:02.223Z</time></trkpt><trkpt lat="45.3683633" lon="13.7208033"><ele>75.0</ele><time>2026-04-19T13:12:03.223Z</time></trkpt><trkpt lat="45.3685383" lon="13.7205533"><ele>75.0</ele><time>2026-04-19T13:12:04.225Z</time></trkpt><trkpt lat="45.3686917" lon="13.7203183"><ele>75.0</ele><time>2026-04-19T13:12:05.223Z</time></trkpt><trkpt lat="45.3687967" lon="13.7200817"><ele>75.0</ele><time>2026-04-19T13:12:06.221Z</time></trkpt><trkpt lat="45.3688533" lon="13.7198233"><ele>75.0</ele><time>2026-04-19T13:12:07.225Z</time></trkpt><trkpt lat="45.3688683" lon="13.71953"><ele>75.0</ele><time>2026-04-19T13:12:08.223Z</time></trkpt><trkpt lat="45.3688867" lon="13.71923"><ele>75.0</ele><time>2026-04-19T13:12:09.217Z</time></trkpt><trkpt lat="45.3688983" lon="13.7189283"><ele>75.0</ele><time>2026-04-19T13:12:10.219Z</time></trkpt><trkpt lat="45.3688983" lon="13.71863"><ele>75.0</ele><time>2026-04-19T13:12:11.223Z</time></trkpt><trkpt lat="45.3689033" lon="13.718345"><ele>75.0</ele><time>2026-04-19T13:12:12.224Z</time></trkpt><trkpt lat="45.3688967" lon="13.7180667"><ele>76.0</ele><time>2026-04-19T13:12:13.223Z</time></trkpt><trkpt lat="45.3688683" lon="13.7177883"><ele>77.0</ele><time>2026-04-19T13:12:14.221Z</time></trkpt><trkpt lat="45.368825" lon="13.7175133"><ele>78.0</ele><time>2026-04-19T13:12:15.226Z</time></trkpt><trkpt lat="45.3687783" lon="13.7172233"><ele>83.0</ele><time>2026-04-19T13:12:16.224Z</time></trkpt><trkpt lat="45.368735" lon="13.7169217"><ele>88.0</ele><time>2026-04-19T13:12:17.222Z</time></trkpt><trkpt lat="45.3686883" lon="13.7166"><ele>93.0</ele><time>2026-04-19T13:12:18.224Z</time></trkpt><trkpt lat="45.3686417" lon="13.7162567"><ele>98.5</ele><time>2026-04-19T13:12:19.223Z</time></trkpt><trkpt lat="45.3686" lon="13.7159033"><ele>104.0</ele><time>2026-04-19T13:12:20.22Z</time></trkpt><trkpt lat="45.368565" lon="13.715545"><ele>105.5</ele><time>2026-04-19T13:12:21.225Z</time></trkpt><trkpt lat="45.368525" lon="13.7151817"><ele>107.0</ele><time>2026-04-19T13:12:22.225Z</time></trkpt><trkpt lat="45.3684817" lon="13.71481"><ele>107.0</ele><time>2026-04-19T13:12:23.221Z</time></trkpt><trkpt lat="45.3684417" lon="13.7144233"><ele>107.0</ele><time>2026-04-19T13:12:24.223Z</time></trkpt><trkpt lat="45.3683833" lon="13.71404"><ele>108.5</ele><time>2026-04-19T13:12:25.221Z</time></trkpt><trkpt lat="45.36834" lon="13.713665"><ele>110.0</ele><time>2026-04-19T13:12:26.226Z</time></trkpt><trkpt lat="45.3683233" lon="13.7132967"><ele>111.0</ele><time>2026-04-19T13:12:27.224Z</time></trkpt><trkpt lat="45.368315" lon="13.712925"><ele>112.0</ele><time>2026-04-19T13:12:28.225Z</time></trkpt><trkpt lat="45.36832" lon="13.7125583"><ele>113.0</ele><time>2026-04-19T13:12:29.222Z</time></trkpt><trkpt lat="45.3683817" lon="13.7122117"><ele>114.0</ele><time>2026-04-19T13:12:30.223Z</time></trkpt><trkpt lat="45.36849" lon="13.7118917"><ele>117.5</ele><time>2026-04-19T13:12:31.226Z</time></trkpt><trkpt lat="45.3686167" lon="13.7115917"><ele>121.0</ele><time>2026-04-19T13:12:32.226Z</time></trkpt><trkpt lat="45.3687883" lon="13.7113167"><ele>122.0</ele><time>2026-04-19T13:12:33.227Z</time></trkpt><trkpt lat="45.36897" lon="13.71104"><ele>123.0</ele><time>2026-04-19T13:12:34.223Z</time></trkpt><trkpt lat="45.3691733" lon="13.7107567"><ele>123.0</ele><time>2026-04-19T13:12:35.221Z</time></trkpt><trkpt lat="45.3693633" lon="13.7104467"><ele>123.0</ele><time>2026-04-19T13:12:36.222Z</time></trkpt><trkpt lat="45.3695633" lon="13.7101267"><ele>127.5</ele><time>2026-04-19T13:12:37.225Z</time></trkpt><trkpt lat="45.3697567" lon="13.7098"><ele>132.0</ele><time>2026-04-19T13:12:38.223Z</time></trkpt><trkpt lat="45.36995" lon="13.70948"><ele>132.5</ele><time>2026-04-19T13:12:39.224Z</time></trkpt><trkpt lat="45.3701383" lon="13.70917"><ele>133.0</ele><time>2026-04-19T13:12:40.223Z</time></trkpt><trkpt lat="45.370325" lon="13.7088633"><ele>135.0</ele><time>2026-04-19T13:12:41.222Z</time></trkpt><trkpt lat="45.3705083" lon="13.7085633"><ele>137.0</ele><time>2026-04-19T13:12:42.224Z</time></trkpt><trkpt lat="45.3706783" lon="13.7082767"><ele>140.5</ele><time>2026-04-19T13:12:43.222Z</time></trkpt><trkpt lat="45.3708367" lon="13.70801"><ele>144.0</ele><time>2026-04-19T13:12:44.222Z</time></trkpt><trkpt lat="45.3709833" lon="13.7077717"><ele>144.0</ele><time>2026-04-19T13:12:45.223Z</time></trkpt><trkpt lat="45.37111" lon="13.7075517"><ele>144.0</ele><time>2026-04-19T13:12:46.223Z</time></trkpt><trkpt lat="45.3712433" lon="13.7073717"><ele>144.0</ele><time>2026-04-19T13:12:47.223Z</time></trkpt><trkpt lat="45.3713883" lon="13.7072417"><ele>148.33333333333334</ele><time>2026-04-19T13:12:48.222Z</time></trkpt><trkpt lat="45.3715533" lon="13.7071617"><ele>152.66666666666669</ele><time>2026-04-19T13:12:49.224Z</time></trkpt><trkpt lat="45.3717183" lon="13.70709"><ele>157.0</ele><time>2026-04-19T13:12:50.223Z</time></trkpt><trkpt lat="45.3718717" lon="13.70701"><ele>157.0</ele><time>2026-04-19T13:12:51.225Z</time></trkpt><trkpt lat="45.3720217" lon="13.7069367"><ele>157.0</ele><time>2026-04-19T13:12:52.223Z</time></trkpt><trkpt lat="45.37217" lon="13.7068633"><ele>157.0</ele><time>2026-04-19T13:12:53.222Z</time></trkpt><trkpt lat="45.3723183" lon="13.7067867"><ele>157.66666666666669</ele><time>2026-04-19T13:12:54.223Z</time></trkpt><trkpt lat="45.3724683" lon="13.706715"><ele>158.33333333333334</ele><time>2026-04-19T13:12:55.224Z</time></trkpt><trkpt lat="45.3726217" lon="13.7066383"><ele>159.0</ele><time>2026-04-19T13:12:56.223Z</time></trkpt><trkpt lat="45.372775" lon="13.7065583"><ele>159.0</ele><time>2026-04-19T13:12:57.223Z</time></trkpt><trkpt lat="45.3729367" lon="13.7064783"><ele>159.0</ele><time>2026-04-19T13:12:58.221Z</time></trkpt><trkpt lat="45.37311" lon="13.70638"><ele>159.0</ele><time>2026-04-19T13:12:59.221Z</time></trkpt><trkpt lat="45.3732917" lon="13.7063"><ele>159.66666666666666</ele><time>2026-04-19T13:13:00.222Z</time></trkpt><trkpt lat="45.3734683" lon="13.7062333"><ele>160.33333333333331</ele><time>2026-04-19T13:13:01.225Z</time></trkpt><trkpt lat="45.3736317" lon="13.7061483"><ele>161.0</ele><time>2026-04-19T13:13:02.22Z</time></trkpt><trkpt lat="45.373785" lon="13.7060717"><ele>163.66666666666666</ele><time>2026-04-19T13:13:03.224Z</time></trkpt><trkpt lat="45.3739267" lon="13.706005"><ele>166.33333333333334</ele><time>2026-04-19T13:13:04.224Z</time></trkpt><trkpt lat="45.37407" lon="13.705945"><ele>169.0</ele><time>2026-04-19T13:13:05.221Z</time></trkpt><trkpt lat="45.3742217" lon="13.7058833"><ele>169.0</ele><time>2026-04-19T13:13:06.223Z</time></trkpt><trkpt lat="45.37438" lon="13.705815"><ele>169.0</ele><time>2026-04-19T13:13:07.223Z</time></trkpt><trkpt lat="45.3745517" lon="13.7057483"><ele>169.0</ele><time>2026-04-19T13:13:08.223Z</time></trkpt><trkpt lat="45.3747367" lon="13.7056683"><ele>169.33333333333334</ele><time>2026-04-19T13:13:09.232Z</time></trkpt><trkpt lat="45.3749333" lon="13.7055883"><ele>169.66666666666666</ele><time>2026-04-19T13:13:10.224Z</time></trkpt><trkpt lat="45.3751417" lon="13.7055067"><ele>170.0</ele><time>2026-04-19T13:13:11.22Z</time></trkpt><trkpt lat="45.3753483" lon="13.7054267"><ele>169.33333333333331</ele><time>2026-04-19T13:13:12.223Z</time></trkpt><trkpt lat="45.375535" lon="13.7053433"><ele>168.66666666666666</ele><time>2026-04-19T13:13:13.223Z</time></trkpt><trkpt lat="45.3756933" lon="13.7052783"><ele>168.0</ele><time>2026-04-19T13:13:14.222Z</time></trkpt><trkpt lat="45.375815" lon="13.70522"><ele>168.0</ele><time>2026-04-19T13:13:15.221Z</time></trkpt><trkpt lat="45.3758983" lon="13.7051467"><ele>168.0</ele><time>2026-04-19T13:13:16.224Z</time></trkpt><trkpt lat="45.3759317" lon="13.7050267"><ele>168.0</ele><time>2026-04-19T13:13:17.221Z</time></trkpt><trkpt lat="45.3759417" lon="13.7049017"><ele>168.0</ele><time>2026-04-19T13:13:18.222Z</time></trkpt><trkpt lat="45.375895" lon="13.7047667"><ele>168.0</ele><time>2026-04-19T13:13:19.222Z</time></trkpt><trkpt lat="45.375805" lon="13.7046517"><ele>168.0</ele><time>2026-04-19T13:13:20.223Z</time></trkpt><trkpt lat="45.375705" lon="13.704525"><ele>168.0</ele><time>2026-04-19T13:13:21.223Z</time></trkpt><trkpt lat="45.3755417" lon="13.704395"><ele>168.0</ele><time>2026-04-19T13:13:22.223Z</time></trkpt><trkpt lat="45.3753917" lon="13.704255"><ele>165.33333333333334</ele><time>2026-04-19T13:13:23.218Z</time></trkpt><trkpt lat="45.3752483" lon="13.704095"><ele>162.66666666666669</ele><time>2026-04-19T13:13:24.219Z</time></trkpt><trkpt lat="45.3751483" lon="13.7038833"><ele>160.0</ele><time>2026-04-19T13:13:25.223Z</time></trkpt><trkpt lat="45.37509" lon="13.7036217"><ele>159.66666666666669</ele><time>2026-04-19T13:13:26.224Z</time></trkpt><trkpt lat="45.37506" lon="13.703335"><ele>159.33333333333334</ele><time>2026-04-19T13:13:27.224Z</time></trkpt><trkpt lat="45.37506" lon="13.703025"><ele>159.0</ele><time>2026-04-19T13:13:28.222Z</time></trkpt><trkpt lat="45.3750783" lon="13.7026867"><ele>158.5</ele><time>2026-04-19T13:13:29.222Z</time></trkpt><trkpt lat="45.3750967" lon="13.7023117"><ele>158.0</ele><time>2026-04-19T13:13:30.221Z</time></trkpt><trkpt lat="45.3751167" lon="13.7019317"><ele>157.0</ele><time>2026-04-19T13:13:31.222Z</time></trkpt><trkpt lat="45.3751367" lon="13.701565"><ele>156.0</ele><time>2026-04-19T13:13:32.223Z</time></trkpt><trkpt lat="45.375155" lon="13.70121"><ele>154.33333333333334</ele><time>2026-04-19T13:13:33.22Z</time></trkpt><trkpt lat="45.3751667" lon="13.7008817"><ele>152.66666666666669</ele><time>2026-04-19T13:13:34.223Z</time></trkpt><trkpt lat="45.3751933" lon="13.700605"><ele>151.0</ele><time>2026-04-19T13:13:35.221Z</time></trkpt><trkpt lat="45.375225" lon="13.7003633"><ele>149.33333333333334</ele><time>2026-04-19T13:13:36.22Z</time></trkpt><trkpt lat="45.3752983" lon="13.7001483"><ele>147.66666666666666</ele><time>2026-04-19T13:13:37.224Z</time></trkpt><trkpt lat="45.3754217" lon="13.6999733"><ele>146.0</ele><time>2026-04-19T13:13:38.22Z</time></trkpt><trkpt lat="45.3755883" lon="13.69982"><ele>151.5</ele><time>2026-04-19T13:13:39.223Z</time></trkpt><trkpt lat="45.3757767" lon="13.6996683"><ele>157.0</ele><time>2026-04-19T13:13:40.22Z</time></trkpt><trkpt lat="45.3759983" lon="13.699515"><ele>152.5</ele><time>2026-04-19T13:13:41.224Z</time></trkpt><trkpt lat="45.37624" lon="13.6993733"><ele>148.0</ele><time>2026-04-19T13:13:42.222Z</time></trkpt><trkpt lat="45.3764783" lon="13.6992217"><ele>148.0</ele><time>2026-04-19T13:13:43.221Z</time></trkpt><trkpt lat="45.3767" lon="13.6990883"><ele>148.0</ele><time>2026-04-19T13:13:44.224Z</time></trkpt><trkpt lat="45.3768983" lon="13.6990017"><ele>148.0</ele><time>2026-04-19T13:13:45.227Z</time></trkpt><trkpt lat="45.3770667" lon="13.6989583"><ele>148.0</ele><time>2026-04-19T13:13:46.223Z</time></trkpt><trkpt lat="45.377205" lon="13.6989217"><ele>148.0</ele><time>2026-04-19T13:13:47.223Z</time></trkpt><trkpt lat="45.3773083" lon="13.6988533"><ele>148.0</ele><time>2026-04-19T13:13:48.223Z</time></trkpt><trkpt lat="45.3773567" lon="13.698735"><ele>148.0</ele><time>2026-04-19T13:13:49.223Z</time></trkpt><trkpt lat="45.3773633" lon="13.69858"><ele>148.0</ele><time>2026-04-19T13:13:50.222Z</time></trkpt><trkpt lat="45.37734" lon="13.69841"><ele>148.0</ele><time>2026-04-19T13:13:51.225Z</time></trkpt><trkpt lat="45.3772883" lon="13.6982467"><ele>148.0</ele><time>2026-04-19T13:13:52.223Z</time></trkpt><trkpt lat="45.3772" lon="13.6980983"><ele>148.0</ele><time>2026-04-19T13:13:53.222Z</time></trkpt><trkpt lat="45.3770883" lon="13.6979817"><ele>147.4</ele><time>2026-04-19T13:13:54.218Z</time></trkpt><trkpt lat="45.37698" lon="13.697895"><ele>146.8</ele><time>2026-04-19T13:13:55.225Z</time></trkpt><trkpt lat="45.376875" lon="13.6978217"><ele>146.2</ele><time>2026-04-19T13:13:56.219Z</time></trkpt><trkpt lat="45.37679" lon="13.6977567"><ele>145.6</ele><time>2026-04-19T13:13:57.223Z</time></trkpt><trkpt lat="45.3767233" lon="13.6976867"><ele>145.0</ele><time>2026-04-19T13:13:58.222Z</time></trkpt><trkpt lat="45.3766583" lon="13.6976217"><ele>146.8</ele><time>2026-04-19T13:13:59.219Z</time></trkpt><trkpt lat="45.3765867" lon="13.6975617"><ele>148.6</ele><time>2026-04-19T13:14:00.221Z</time></trkpt><trkpt lat="45.3765133" lon="13.6974917"><ele>150.4</ele><time>2026-04-19T13:14:01.223Z</time></trkpt><trkpt lat="45.3764417" lon="13.6974167"><ele>152.2</ele><time>2026-04-19T13:14:02.223Z</time></trkpt><trkpt lat="45.3763833" lon="13.697315"><ele>154.0</ele><time>2026-04-19T13:14:03.226Z</time></trkpt><trkpt lat="45.37636" lon="13.697155"><ele>154.0</ele><time>2026-04-19T13:14:04.22Z</time></trkpt><trkpt lat="45.376355" lon="13.6969717"><ele>154.0</ele><time>2026-04-19T13:14:05.223Z</time></trkpt><trkpt lat="45.3763467" lon="13.6967467"><ele>154.0</ele><time>2026-04-19T13:14:06.221Z</time></trkpt><trkpt lat="45.3763433" lon="13.6964583"><ele>158.0</ele><time>2026-04-19T13:14:07.22Z</time></trkpt><trkpt lat="45.376375" lon="13.6961083"><ele>162.0</ele><time>2026-04-19T13:14:08.225Z</time></trkpt><trkpt lat="45.3764" lon="13.69574"><ele>162.0</ele><time>2026-04-19T13:14:09.223Z</time></trkpt><trkpt lat="45.3764283" lon="13.6953583"><ele>162.0</ele><time>2026-04-19T13:14:10.224Z</time></trkpt><trkpt lat="45.37646" lon="13.6950033"><ele>162.5</ele><time>2026-04-19T13:14:11.221Z</time></trkpt><trkpt lat="45.3764933" lon="13.6946733"><ele>163.0</ele><time>2026-04-19T13:14:12.223Z</time></trkpt><trkpt lat="45.37651" lon="13.69436"><ele>164.33333333333334</ele><time>2026-04-19T13:14:13.222Z</time></trkpt><trkpt lat="45.3765283" lon="13.6940767"><ele>165.66666666666666</ele><time>2026-04-19T13:14:14.222Z</time></trkpt><trkpt lat="45.376545" lon="13.6938367"><ele>167.0</ele><time>2026-04-19T13:14:15.223Z</time></trkpt><trkpt lat="45.3765617" lon="13.693635"><ele>168.0</ele><time>2026-04-19T13:14:16.223Z</time></trkpt><trkpt lat="45.3765783" lon="13.6934683"><ele>169.0</ele><time>2026-04-19T13:14:17.222Z</time></trkpt><trkpt lat="45.37662" lon="13.693345"><ele>170.0</ele><time>2026-04-19T13:14:18.222Z</time></trkpt><trkpt lat="45.3766867" lon="13.6932967"><ele>171.0</ele><time>2026-04-19T13:14:19.221Z</time></trkpt><trkpt lat="45.3767617" lon="13.6933367"><ele>172.0</ele><time>2026-04-19T13:14:20.221Z</time></trkpt><trkpt lat="45.3768233" lon="13.6933983"><ele>173.0</ele><time>2026-04-19T13:14:21.222Z</time></trkpt><trkpt lat="45.37688" lon="13.6934583"><ele>171.0</ele><time>2026-04-19T13:14:22.215Z</time></trkpt><trkpt lat="45.3769433" lon="13.69363"><ele>169.0</ele><time>2026-04-19T13:14:23.216Z</time></trkpt><trkpt lat="45.3769733" lon="13.6939483"><ele>167.0</ele><time>2026-04-19T13:14:24.223Z</time></trkpt><trkpt lat="45.377" lon="13.6942833"><ele>165.0</ele><time>2026-04-19T13:14:25.222Z</time></trkpt><trkpt lat="45.3770567" lon="13.6946"><ele>163.0</ele><time>2026-04-19T13:14:26.223Z</time></trkpt><trkpt lat="45.377125" lon="13.694925"><ele>171.5</ele><time>2026-04-19T13:14:27.22Z</time></trkpt><trkpt lat="45.37719" lon="13.69526"><ele>180.0</ele><time>2026-04-19T13:14:28.225Z</time></trkpt><trkpt lat="45.3772467" lon="13.695585"><ele>180.0</ele><time>2026-04-19T13:14:29.217Z</time></trkpt><trkpt lat="45.3773017" lon="13.695895"><ele>180.0</ele><time>2026-04-19T13:14:30.226Z</time></trkpt><trkpt lat="45.3773583" lon="13.69618"><ele>180.0</ele><time>2026-04-19T13:14:31.223Z</time></trkpt><trkpt lat="45.3774133" lon="13.696435"><ele>178.66666666666666</ele><time>2026-04-19T13:14:32.223Z</time></trkpt><trkpt lat="45.377485" lon="13.696655"><ele>177.33333333333331</ele><time>2026-04-19T13:14:33.221Z</time></trkpt><trkpt lat="45.3776017" lon="13.6968383"><ele>176.0</ele><time>2026-04-19T13:14:34.224Z</time></trkpt><trkpt lat="45.37775" lon="13.6969783"><ele>173.0</ele><time>2026-04-19T13:14:35.223Z</time></trkpt><trkpt lat="45.3779233" lon="13.6970833"><ele>170.0</ele><time>2026-04-19T13:14:36.222Z</time></trkpt><trkpt lat="45.3781067" lon="13.697125"><ele>167.0</ele><time>2026-04-19T13:14:37.221Z</time></trkpt><trkpt lat="45.3782883" lon="13.6970983"><ele>167.0</ele><time>2026-04-19T13:14:38.224Z</time></trkpt><trkpt lat="45.3784717" lon="13.6969833"><ele>167.0</ele><time>2026-04-19T13:14:39.223Z</time></trkpt><trkpt lat="45.3786167" lon="13.6967517"><ele>167.0</ele><time>2026-04-19T13:14:40.222Z</time></trkpt><trkpt lat="45.378735" lon="13.6965033"><ele>176.0</ele><time>2026-04-19T13:14:41.222Z</time></trkpt><trkpt lat="45.3788417" lon="13.6962217"><ele>185.0</ele><time>2026-04-19T13:14:42.22Z</time></trkpt><trkpt lat="45.37894" lon="13.695915"><ele>185.0</ele><time>2026-04-19T13:14:43.221Z</time></trkpt><trkpt lat="45.379025" lon="13.69561"><ele>185.0</ele><time>2026-04-19T13:14:44.224Z</time></trkpt><trkpt lat="45.3791267" lon="13.695345"><ele>185.0</ele><time>2026-04-19T13:14:45.225Z</time></trkpt><trkpt lat="45.3792417" lon="13.6951433"><ele>191.0</ele><time>2026-04-19T13:14:46.224Z</time></trkpt><trkpt lat="45.3793767" lon="13.6949883"><ele>197.0</ele><time>2026-04-19T13:14:47.22Z</time></trkpt><trkpt lat="45.37953" lon="13.69483"><ele>203.0</ele><time>2026-04-19T13:14:48.219Z</time></trkpt><trkpt lat="45.37967" lon="13.69466"><ele>203.0</ele><time>2026-04-19T13:14:49.219Z</time></trkpt><trkpt lat="45.3797517" lon="13.6944283"><ele>203.0</ele><time>2026-04-19T13:14:50.223Z</time></trkpt><trkpt lat="45.3798067" lon="13.69418"><ele>203.0</ele><time>2026-04-19T13:14:51.225Z</time></trkpt><trkpt lat="45.37986" lon="13.6939467"><ele>203.0</ele><time>2026-04-19T13:14:52.224Z</time></trkpt><trkpt lat="45.37995" lon="13.6937933"><ele>203.0</ele><time>2026-04-19T13:14:53.221Z</time></trkpt><trkpt lat="45.3800483" lon="13.6936967"><ele>203.0</ele><time>2026-04-19T13:14:54.222Z</time></trkpt><trkpt lat="45.3801767" lon="13.6936733"><ele>203.0</ele><time>2026-04-19T13:14:55.222Z</time></trkpt><trkpt lat="45.3803333" lon="13.6936967"><ele>203.0</ele><time>2026-04-19T13:14:56.219Z</time></trkpt><trkpt lat="45.380495" lon="13.6937267"><ele>203.0</ele><time>2026-04-19T13:14:57.223Z</time></trkpt><trkpt lat="45.3806667" lon="13.693715"><ele>203.0</ele><time>2026-04-19T13:14:58.225Z</time></trkpt><trkpt lat="45.38083" lon="13.693635"><ele>207.33333333333334</ele><time>2026-04-19T13:14:59.221Z</time></trkpt><trkpt lat="45.3809817" lon="13.6934617"><ele>211.66666666666669</ele><time>2026-04-19T13:15:00.219Z</time></trkpt><trkpt lat="45.381135" lon="13.69327"><ele>216.0</ele><time>2026-04-19T13:15:01.225Z</time></trkpt><trkpt lat="45.3812833" lon="13.6930417"><ele>215.33333333333331</ele><time>2026-04-19T13:15:02.222Z</time></trkpt><trkpt lat="45.38141" lon="13.6927683"><ele>214.66666666666666</ele><time>2026-04-19T13:15:03.219Z</time></trkpt><trkpt lat="45.3815183" lon="13.6924983"><ele>214.0</ele><time>2026-04-19T13:15:04.224Z</time></trkpt><trkpt lat="45.3816283" lon="13.692275"><ele>214.0</ele><time>2026-04-19T13:15:05.222Z</time></trkpt><trkpt lat="45.381725" lon="13.6920983"><ele>214.0</ele><time>2026-04-19T13:15:06.219Z</time></trkpt><trkpt lat="45.3818033" lon="13.6919533"><ele>214.0</ele><time>2026-04-19T13:15:07.221Z</time></trkpt><trkpt lat="45.38187" lon="13.69183"><ele>214.0</ele><time>2026-04-19T13:15:08.22Z</time></trkpt><trkpt lat="45.381935" lon="13.6917183"><ele>215.79999999999998</ele><time>2026-04-19T13:15:09.221Z</time></trkpt><trkpt lat="45.3820033" lon="13.6916033"><ele>217.59999999999997</ele><time>2026-04-19T13:15:10.223Z</time></trkpt><trkpt lat="45.3820817" lon="13.6914983"><ele>219.4</ele><time>2026-04-19T13:15:11.222Z</time></trkpt><trkpt lat="45.38215" lon="13.691385"><ele>221.2</ele><time>2026-04-19T13:15:12.22Z</time></trkpt><trkpt lat="45.3822183" lon="13.69127"><ele>223.0</ele><time>2026-04-19T13:15:13.22Z</time></trkpt><trkpt lat="45.3822917" lon="13.691155"><ele>225.0</ele><time>2026-04-19T13:15:14.221Z</time></trkpt><trkpt lat="45.38236" lon="13.6910333"><ele>227.0</ele><time>2026-04-19T13:15:15.217Z</time></trkpt><trkpt lat="45.3824317" lon="13.6909117"><ele>229.0</ele><time>2026-04-19T13:15:16.221Z</time></trkpt><trkpt lat="45.3825017" lon="13.6907783"><ele>231.0</ele><time>2026-04-19T13:15:17.221Z</time></trkpt><trkpt lat="45.3825733" lon="13.69064"><ele>231.0</ele><time>2026-04-19T13:15:18.221Z</time></trkpt><trkpt lat="45.3826467" lon="13.6905017"><ele>231.0</ele><time>2026-04-19T13:15:19.222Z</time></trkpt><trkpt lat="45.38272" lon="13.690355"><ele>231.0</ele><time>2026-04-19T13:15:20.222Z</time></trkpt><trkpt lat="45.3827933" lon="13.6902033"><ele>231.0</ele><time>2026-04-19T13:15:21.224Z</time></trkpt><trkpt lat="45.382865" lon="13.6900467"><ele>229.25</ele><time>2026-04-19T13:15:22.22Z</time></trkpt><trkpt lat="45.382935" lon="13.68988"><ele>227.5</ele><time>2026-04-19T13:15:23.222Z</time></trkpt><trkpt lat="45.383" lon="13.68969"><ele>225.75</ele><time>2026-04-19T13:15:24.226Z</time></trkpt><trkpt lat="45.3830417" lon="13.6894667"><ele>224.0</ele><time>2026-04-19T13:15:25.222Z</time></trkpt><trkpt lat="45.3830667" lon="13.68922"><ele>222.66666666666669</ele><time>2026-04-19T13:15:26.222Z</time></trkpt><trkpt lat="45.3830717" lon="13.6889617"><ele>221.33333333333331</ele><time>2026-04-19T13:15:27.223Z</time></trkpt><trkpt lat="45.38305" lon="13.6887217"><ele>220.0</ele><time>2026-04-19T13:15:28.226Z</time></trkpt><trkpt lat="45.383005" lon="13.6885017"><ele>220.0</ele><time>2026-04-19T13:15:29.22Z</time></trkpt><trkpt lat="45.3829467" lon="13.68829"><ele>220.0</ele><time>2026-04-19T13:15:30.22Z</time></trkpt><trkpt lat="45.382885" lon="13.6880867"><ele>220.0</ele><time>2026-04-19T13:15:31.222Z</time></trkpt><trkpt lat="45.38283" lon="13.6878967"><ele>222.5</ele><time>2026-04-19T13:15:32.222Z</time></trkpt><trkpt lat="45.3827783" lon="13.68771"><ele>225.0</ele><time>2026-04-19T13:15:33.224Z</time></trkpt><trkpt lat="45.3827333" lon="13.6875217"><ele>227.5</ele><time>2026-04-19T13:15:34.221Z</time></trkpt><trkpt lat="45.3826867" lon="13.6873467"><ele>230.0</ele><time>2026-04-19T13:15:35.221Z</time></trkpt><trkpt lat="45.3826567" lon="13.68717"><ele>230.0</ele><time>2026-04-19T13:15:36.221Z</time></trkpt><trkpt lat="45.382665" lon="13.686985"><ele>230.0</ele><time>2026-04-19T13:15:37.221Z</time></trkpt><trkpt lat="45.3827033" lon="13.6868017"><ele>230.0</ele><time>2026-04-19T13:15:38.223Z</time></trkpt><trkpt lat="45.3827683" lon="13.6866333"><ele>230.0</ele><time>2026-04-19T13:15:39.222Z</time></trkpt><trkpt lat="45.382865" lon="13.6864967"><ele>230.0</ele><time>2026-04-19T13:15:40.222Z</time></trkpt><trkpt lat="45.3829933" lon="13.686395"><ele>230.0</ele><time>2026-04-19T13:15:41.222Z</time></trkpt><trkpt lat="45.3831233" lon="13.6863067"><ele>230.0</ele><time>2026-04-19T13:15:42.218Z</time></trkpt><trkpt lat="45.38324" lon="13.6862133"><ele>230.0</ele><time>2026-04-19T13:15:43.222Z</time></trkpt><trkpt lat="45.3833467" lon="13.6861133"><ele>230.2</ele><time>2026-04-19T13:15:44.223Z</time></trkpt><trkpt lat="45.3834433" lon="13.6860167"><ele>230.4</ele><time>2026-04-19T13:15:45.224Z</time></trkpt><trkpt lat="45.38353" lon="13.6859333"><ele>230.60000000000002</ele><time>2026-04-19T13:15:46.225Z</time></trkpt><trkpt lat="45.38361" lon="13.685855"><ele>230.8</ele><time>2026-04-19T13:15:47.229Z</time></trkpt><trkpt lat="45.3836867" lon="13.685775"><ele>231.0</ele><time>2026-04-19T13:15:48.222Z</time></trkpt><trkpt lat="45.3837617" lon="13.68571"><ele>231.0</ele><time>2026-04-19T13:15:49.223Z</time></trkpt><trkpt lat="45.3838467" lon="13.6856867"><ele>231.00000000000003</ele><time>2026-04-19T13:15:50.224Z</time></trkpt><trkpt lat="45.3839317" lon="13.6857183"><ele>231.00000000000003</ele><time>2026-04-19T13:15:51.227Z</time></trkpt><trkpt lat="45.3840117" lon="13.6858"><ele>231.0</ele><time>2026-04-19T13:15:52.223Z</time></trkpt><trkpt lat="45.3840817" lon="13.6859467"><ele>231.0</ele><time>2026-04-19T13:15:53.218Z</time></trkpt><trkpt lat="45.3841633" lon="13.686105"><ele>233.33333333333331</ele><time>2026-04-19T13:15:54.22Z</time></trkpt><trkpt lat="45.38426" lon="13.6862883"><ele>235.66666666666666</ele><time>2026-04-19T13:15:55.224Z</time></trkpt><trkpt lat="45.3843667" lon="13.6864983"><ele>238.0</ele><time>2026-04-19T13:15:56.221Z</time></trkpt><trkpt lat="45.3844817" lon="13.6867267"><ele>242.33333333333331</ele><time>2026-04-19T13:15:57.223Z</time></trkpt><trkpt lat="45.3846" lon="13.68697"><ele>246.66666666666669</ele><time>2026-04-19T13:15:58.225Z</time></trkpt><trkpt lat="45.3847333" lon="13.6872183"><ele>251.0</ele><time>2026-04-19T13:15:59.225Z</time></trkpt><trkpt lat="45.3848683" lon="13.6874817"><ele>243.5</ele><time>2026-04-19T13:16:00.222Z</time></trkpt><trkpt lat="45.3849983" lon="13.6877533"><ele>236.0</ele><time>2026-04-19T13:16:01.223Z</time></trkpt><trkpt lat="45.3851333" lon="13.6880267"><ele>236.0</ele><time>2026-04-19T13:16:02.221Z</time></trkpt><trkpt lat="45.385265" lon="13.6883"><ele>236.0</ele><time>2026-04-19T13:16:03.22Z</time></trkpt><trkpt lat="45.3853883" lon="13.6885583"><ele>232.66666666666669</ele><time>2026-04-19T13:16:04.222Z</time></trkpt><trkpt lat="45.38551" lon="13.68878"><ele>229.33333333333331</ele><time>2026-04-19T13:16:05.223Z</time></trkpt><trkpt lat="45.38562" lon="13.6889717"><ele>226.0</ele><time>2026-04-19T13:16:06.222Z</time></trkpt><trkpt lat="45.3857467" lon="13.6891067"><ele>226.0</ele><time>2026-04-19T13:16:07.224Z</time></trkpt><trkpt lat="45.385905" lon="13.68917"><ele>226.0</ele><time>2026-04-19T13:16:08.22Z</time></trkpt><trkpt lat="45.3860767" lon="13.6891833"><ele>226.0</ele><time>2026-04-19T13:16:09.224Z</time></trkpt><trkpt lat="45.386255" lon="13.6891517"><ele>227.66666666666666</ele><time>2026-04-19T13:16:10.22Z</time></trkpt><trkpt lat="45.3864367" lon="13.6890117"><ele>229.33333333333331</ele><time>2026-04-19T13:16:11.221Z</time></trkpt><trkpt lat="45.386605" lon="13.6888"><ele>231.0</ele><time>2026-04-19T13:16:12.223Z</time></trkpt><trkpt lat="45.38674" lon="13.688565"><ele>227.33333333333331</ele><time>2026-04-19T13:16:13.221Z</time></trkpt><trkpt lat="45.3868517" lon="13.6883067"><ele>223.66666666666666</ele><time>2026-04-19T13:16:14.221Z</time></trkpt><trkpt lat="45.38697" lon="13.688105"><ele>220.0</ele><time>2026-04-19T13:16:15.223Z</time></trkpt><trkpt lat="45.3870767" lon="13.6879167"><ele>221.5</ele><time>2026-04-19T13:16:16.222Z</time></trkpt><trkpt lat="45.38718" lon="13.6877433"><ele>223.0</ele><time>2026-04-19T13:16:17.221Z</time></trkpt><trkpt lat="45.3872783" lon="13.68759"><ele>224.5</ele><time>2026-04-19T13:16:18.223Z</time></trkpt><trkpt lat="45.38737" lon="13.6874567"><ele>226.0</ele><time>2026-04-19T13:16:19.221Z</time></trkpt><trkpt lat="45.3874617" lon="13.6873317"><ele>226.0</ele><time>2026-04-19T13:16:20.222Z</time></trkpt><trkpt lat="45.387555" lon="13.6872133"><ele>226.0</ele><time>2026-04-19T13:16:21.222Z</time></trkpt><trkpt lat="45.38765" lon="13.687095"><ele>226.0</ele><time>2026-04-19T13:16:22.221Z</time></trkpt><trkpt lat="45.3877533" lon="13.6869783"><ele>226.0</ele><time>2026-04-19T13:16:23.219Z</time></trkpt><trkpt lat="45.3878667" lon="13.6868717"><ele>226.5</ele><time>2026-04-19T13:16:24.22Z</time></trkpt><trkpt lat="45.3879817" lon="13.6867717"><ele>227.0</ele><time>2026-04-19T13:16:25.221Z</time></trkpt><trkpt lat="45.388095" lon="13.6866833"><ele>227.5</ele><time>2026-04-19T13:16:26.222Z</time></trkpt><trkpt lat="45.3882083" lon="13.6865983"><ele>228.0</ele><time>2026-04-19T13:16:27.223Z</time></trkpt><trkpt lat="45.3883183" lon="13.6865117"><ele>228.0</ele><time>2026-04-19T13:16:28.215Z</time></trkpt><trkpt lat="45.38843" lon="13.6864233"><ele>228.0</ele><time>2026-04-19T13:16:29.222Z</time></trkpt><trkpt lat="45.3885417" lon="13.6863567"><ele>228.0</ele><time>2026-04-19T13:16:30.22Z</time></trkpt><trkpt lat="45.3886617" lon="13.6863267"><ele>228.0</ele><time>2026-04-19T13:16:31.221Z</time></trkpt><trkpt lat="45.3887867" lon="13.6863467"><ele>229.0</ele><time>2026-04-19T13:16:32.223Z</time></trkpt><trkpt lat="45.3889033" lon="13.6863983"><ele>230.0</ele><time>2026-04-19T13:16:33.224Z</time></trkpt><trkpt lat="45.3890133" lon="13.68645"><ele>231.0</ele><time>2026-04-19T13:16:34.225Z</time></trkpt><trkpt lat="45.389115" lon="13.6864867"><ele>232.0</ele><time>2026-04-19T13:16:35.222Z</time></trkpt><trkpt lat="45.38922" lon="13.686515"><ele>232.0</ele><time>2026-04-19T13:16:36.22Z</time></trkpt><trkpt lat="45.3893217" lon="13.68652"><ele>232.0</ele><time>2026-04-19T13:16:37.223Z</time></trkpt><trkpt lat="45.38943" lon="13.686495"><ele>232.0</ele><time>2026-04-19T13:16:38.225Z</time></trkpt><trkpt lat="45.389545" lon="13.6864467"><ele>232.0</ele><time>2026-04-19T13:16:39.222Z</time></trkpt><trkpt lat="45.38967" lon="13.6863933"><ele>232.0</ele><time>2026-04-19T13:16:40.22Z</time></trkpt><trkpt lat="45.3898017" lon="13.6863467"><ele>232.0</ele><time>2026-04-19T13:16:41.221Z</time></trkpt><trkpt lat="45.3899383" lon="13.6863067"><ele>232.0</ele><time>2026-04-19T13:16:42.219Z</time></trkpt><trkpt lat="45.3900767" lon="13.686275"><ele>232.0</ele><time>2026-04-19T13:16:43.219Z</time></trkpt><trkpt lat="45.3902117" lon="13.6862517"><ele>232.0</ele><time>2026-04-19T13:16:44.221Z</time></trkpt><trkpt lat="45.3903467" lon="13.68624"><ele>232.0</ele><time>2026-04-19T13:16:45.223Z</time></trkpt><trkpt lat="45.390485" lon="13.6862283"><ele>232.0</ele><time>2026-04-19T13:16:46.223Z</time></trkpt><trkpt lat="45.39063" lon="13.6862133"><ele>232.0</ele><time>2026-04-19T13:16:47.222Z</time></trkpt><trkpt lat="45.3907833" lon="13.6861867"><ele>232.33333333333331</ele><time>2026-04-19T13:16:48.221Z</time></trkpt><trkpt lat="45.3909417" lon="13.6861317"><ele>232.66666666666669</ele><time>2026-04-19T13:16:49.222Z</time></trkpt><trkpt lat="45.391095" lon="13.6860367"><ele>233.0</ele><time>2026-04-19T13:16:50.222Z</time></trkpt><trkpt lat="45.391245" lon="13.6859133"><ele>226.66666666666669</ele><time>2026-04-19T13:16:51.223Z</time></trkpt><trkpt lat="45.39139" lon="13.6857467"><ele>220.33333333333331</ele><time>2026-04-19T13:16:52.223Z</time></trkpt><trkpt lat="45.3915383" lon="13.68555"><ele>214.0</ele><time>2026-04-19T13:16:53.221Z</time></trkpt><trkpt lat="45.3916867" lon="13.6853233"><ele>212.0</ele><time>2026-04-19T13:16:54.223Z</time></trkpt><trkpt lat="45.3918367" lon="13.6850883"><ele>210.0</ele><time>2026-04-19T13:16:55.221Z</time></trkpt><trkpt lat="45.391975" lon="13.68484"><ele>208.0</ele><time>2026-04-19T13:16:56.224Z</time></trkpt><trkpt lat="45.3920983" lon="13.6845833"><ele>210.0</ele><time>2026-04-19T13:16:57.223Z</time></trkpt><trkpt lat="45.3922217" lon="13.6843367"><ele>212.0</ele><time>2026-04-19T13:16:58.224Z</time></trkpt><trkpt lat="45.39233" lon="13.6840883"><ele>214.0</ele><time>2026-04-19T13:16:59.219Z</time></trkpt><trkpt lat="45.3924417" lon="13.6838633"><ele>214.0</ele><time>2026-04-19T13:17:00.222Z</time></trkpt><trkpt lat="45.3925567" lon="13.6836533"><ele>214.0</ele><time>2026-04-19T13:17:01.222Z</time></trkpt><trkpt lat="45.3926733" lon="13.6834533"><ele>214.0</ele><time>2026-04-19T13:17:02.223Z</time></trkpt><trkpt lat="45.3928067" lon="13.68327"><ele>216.0</ele><time>2026-04-19T13:17:03.226Z</time></trkpt><trkpt lat="45.3929417" lon="13.6830917"><ele>218.0</ele><time>2026-04-19T13:17:04.222Z</time></trkpt><trkpt lat="45.3930817" lon="13.68291"><ele>220.0</ele><time>2026-04-19T13:17:05.222Z</time></trkpt><trkpt lat="45.39323" lon="13.6827167"><ele>216.0</ele><time>2026-04-19T13:17:06.222Z</time></trkpt><trkpt lat="45.39338" lon="13.6824967"><ele>212.0</ele><time>2026-04-19T13:17:07.221Z</time></trkpt><trkpt lat="45.3935417" lon="13.6822883"><ele>208.0</ele><time>2026-04-19T13:17:08.222Z</time></trkpt><trkpt lat="45.3937167" lon="13.6820933"><ele>209.0</ele><time>2026-04-19T13:17:09.223Z</time></trkpt><trkpt lat="45.3938917" lon="13.6818917"><ele>210.0</ele><time>2026-04-19T13:17:10.221Z</time></trkpt><trkpt lat="45.3940633" lon="13.6816783"><ele>210.0</ele><time>2026-04-19T13:17:11.222Z</time></trkpt><trkpt lat="45.3942317" lon="13.681465"><ele>210.0</ele><time>2026-04-19T13:17:12.221Z</time></trkpt><trkpt lat="45.3943983" lon="13.681245"><ele>209.33333333333331</ele><time>2026-04-19T13:17:13.224Z</time></trkpt><trkpt lat="45.3945667" lon="13.6810317"><ele>208.66666666666666</ele><time>2026-04-19T13:17:14.223Z</time></trkpt><trkpt lat="45.39473" lon="13.6808233"><ele>208.0</ele><time>2026-04-19T13:17:15.223Z</time></trkpt><trkpt lat="45.3948883" lon="13.6806233"><ele>208.0</ele><time>2026-04-19T13:17:16.224Z</time></trkpt><trkpt lat="45.395045" lon="13.6804433"><ele>208.0</ele><time>2026-04-19T13:17:17.222Z</time></trkpt><trkpt lat="45.39517" lon="13.6802633"><ele>208.0</ele><time>2026-04-19T13:17:18.219Z</time></trkpt><trkpt lat="45.3952833" lon="13.6801083"><ele>207.25</ele><time>2026-04-19T13:17:19.223Z</time></trkpt><trkpt lat="45.3953933" lon="13.6799767"><ele>206.5</ele><time>2026-04-19T13:17:20.224Z</time></trkpt><trkpt lat="45.395495" lon="13.67986"><ele>205.75</ele><time>2026-04-19T13:17:21.228Z</time></trkpt><trkpt lat="45.3955983" lon="13.6797683"><ele>205.0</ele><time>2026-04-19T13:17:22.224Z</time></trkpt><trkpt lat="45.3957067" lon="13.6797167"><ele>207.0</ele><time>2026-04-19T13:17:23.227Z</time></trkpt><trkpt lat="45.39583" lon="13.6796983"><ele>209.0</ele><time>2026-04-19T13:17:24.224Z</time></trkpt><trkpt lat="45.3959717" lon="13.6797"><ele>211.0</ele><time>2026-04-19T13:17:25.223Z</time></trkpt><trkpt lat="45.396125" lon="13.6797017"><ele>213.0</ele><time>2026-04-19T13:17:26.221Z</time></trkpt><trkpt lat="45.3962967" lon="13.679685"><ele>213.66666666666669</ele><time>2026-04-19T13:17:27.222Z</time></trkpt><trkpt lat="45.3964867" lon="13.6796617"><ele>214.33333333333334</ele><time>2026-04-19T13:17:28.222Z</time></trkpt><trkpt lat="45.39668" lon="13.679625"><ele>215.0</ele><time>2026-04-19T13:17:29.222Z</time></trkpt><trkpt lat="45.3968617" lon="13.6795433"><ele>215.33333333333334</ele><time>2026-04-19T13:17:30.224Z</time></trkpt><trkpt lat="45.397025" lon="13.67939"><ele>215.66666666666669</ele><time>2026-04-19T13:17:31.22Z</time></trkpt><trkpt lat="45.3971617" lon="13.6791967"><ele>216.0</ele><time>2026-04-19T13:17:32.22Z</time></trkpt><trkpt lat="45.3972833" lon="13.67897"><ele>216.0</ele><time>2026-04-19T13:17:33.229Z</time></trkpt><trkpt lat="45.3974183" lon="13.6787283"><ele>216.0</ele><time>2026-04-19T13:17:34.222Z</time></trkpt><trkpt lat="45.3975567" lon="13.6784717"><ele>216.0</ele><time>2026-04-19T13:17:35.222Z</time></trkpt><trkpt lat="45.3976967" lon="13.6782283"><ele>215.0</ele><time>2026-04-19T13:17:36.222Z</time></trkpt><trkpt lat="45.3978317" lon="13.6779933"><ele>214.0</ele><time>2026-04-19T13:17:37.221Z</time></trkpt><trkpt lat="45.39798" lon="13.6777883"><ele>213.0</ele><time>2026-04-19T13:17:38.224Z</time></trkpt><trkpt lat="45.3981483" lon="13.6776117"><ele>213.0</ele><time>2026-04-19T13:17:39.223Z</time></trkpt><trkpt lat="45.3983383" lon="13.6774583"><ele>213.0</ele><time>2026-04-19T13:17:40.223Z</time></trkpt><trkpt lat="45.39852" lon="13.6772867"><ele>213.0</ele><time>2026-04-19T13:17:41.221Z</time></trkpt><trkpt lat="45.398695" lon="13.67711"><ele>211.33333333333331</ele><time>2026-04-19T13:17:42.222Z</time></trkpt><trkpt lat="45.3988683" lon="13.676925"><ele>209.66666666666666</ele><time>2026-04-19T13:17:43.223Z</time></trkpt><trkpt lat="45.3990317" lon="13.6767133"><ele>208.0</ele><time>2026-04-19T13:17:44.221Z</time></trkpt><trkpt lat="45.3991683" lon="13.6764533"><ele>208.0</ele><time>2026-04-19T13:17:45.224Z</time></trkpt><trkpt lat="45.3992733" lon="13.6761533"><ele>208.0</ele><time>2026-04-19T13:17:46.222Z</time></trkpt><trkpt lat="45.399335" lon="13.675825"><ele>206.0</ele><time>2026-04-19T13:17:47.223Z</time></trkpt><trkpt lat="45.3993467" lon="13.6754833"><ele>204.0</ele><time>2026-04-19T13:17:48.222Z</time></trkpt><trkpt lat="45.3993267" lon="13.6751517"><ele>204.0</ele><time>2026-04-19T13:17:49.223Z</time></trkpt><trkpt lat="45.3993133" lon="13.6748317"><ele>204.0</ele><time>2026-04-19T13:17:50.225Z</time></trkpt><trkpt lat="45.3993267" lon="13.674535"><ele>204.0</ele><time>2026-04-19T13:17:51.227Z</time></trkpt><trkpt lat="45.39934" lon="13.6742667"><ele>203.66666666666669</ele><time>2026-04-19T13:17:52.223Z</time></trkpt><trkpt lat="45.3993933" lon="13.6740367"><ele>203.33333333333334</ele><time>2026-04-19T13:17:53.222Z</time></trkpt><trkpt lat="45.39949" lon="13.673855"><ele>203.0</ele><time>2026-04-19T13:17:54.223Z</time></trkpt><trkpt lat="45.3996317" lon="13.6737117"><ele>201.66666666666669</ele><time>2026-04-19T13:17:55.223Z</time></trkpt><trkpt lat="45.3998133" lon="13.673605"><ele>200.33333333333331</ele><time>2026-04-19T13:17:56.218Z</time></trkpt><trkpt lat="45.3999917" lon="13.6734783"><ele>199.0</ele><time>2026-04-19T13:17:57.223Z</time></trkpt><trkpt lat="45.40019" lon="13.673315"><ele>199.0</ele><time>2026-04-19T13:17:58.225Z</time></trkpt><trkpt lat="45.400395" lon="13.673095"><ele>199.0</ele><time>2026-04-19T13:17:59.225Z</time></trkpt><trkpt lat="45.4005867" lon="13.6728233"><ele>199.0</ele><time>2026-04-19T13:18:00.221Z</time></trkpt><trkpt lat="45.4007583" lon="13.6725217"><ele>199.0</ele><time>2026-04-19T13:18:01.223Z</time></trkpt><trkpt lat="45.400925" lon="13.67222"><ele>197.5</ele><time>2026-04-19T13:18:02.222Z</time></trkpt><trkpt lat="45.401085" lon="13.6719367"><ele>196.0</ele><time>2026-04-19T13:18:03.224Z</time></trkpt><trkpt lat="45.4012367" lon="13.6716683"><ele>199.33333333333331</ele><time>2026-04-19T13:18:04.221Z</time></trkpt><trkpt lat="45.40138" lon="13.6714183"><ele>202.66666666666669</ele><time>2026-04-19T13:18:05.22Z</time></trkpt><trkpt lat="45.4015167" lon="13.671185"><ele>206.0</ele><time>2026-04-19T13:18:06.222Z</time></trkpt><trkpt lat="45.40165" lon="13.6709667"><ele>206.0</ele><time>2026-04-19T13:18:07.225Z</time></trkpt><trkpt lat="45.4017667" lon="13.6707483"><ele>206.0</ele><time>2026-04-19T13:18:08.222Z</time></trkpt><trkpt lat="45.4018917" lon="13.67055"><ele>206.0</ele><time>2026-04-19T13:18:09.225Z</time></trkpt><trkpt lat="45.402005" lon="13.6703433"><ele>203.0</ele><time>2026-04-19T13:18:10.223Z</time></trkpt><trkpt lat="45.4021133" lon="13.6701233"><ele>200.0</ele><time>2026-04-19T13:18:11.222Z</time></trkpt><trkpt lat="45.4021833" lon="13.6698717"><ele>197.0</ele><time>2026-04-19T13:18:12.221Z</time></trkpt><trkpt lat="45.402195" lon="13.6696"><ele>195.66666666666669</ele><time>2026-04-19T13:18:13.22Z</time></trkpt><trkpt lat="45.40215" lon="13.6693217"><ele>194.33333333333331</ele><time>2026-04-19T13:18:14.219Z</time></trkpt><trkpt lat="45.4020583" lon="13.6690633"><ele>193.0</ele><time>2026-04-19T13:18:15.225Z</time></trkpt><trkpt lat="45.401935" lon="13.6688317"><ele>193.0</ele><time>2026-04-19T13:18:16.223Z</time></trkpt><trkpt lat="45.4018" lon="13.6686217"><ele>193.0</ele><time>2026-04-19T13:18:17.222Z</time></trkpt><trkpt lat="45.4016983" lon="13.6684"><ele>193.0</ele><time>2026-04-19T13:18:18.221Z</time></trkpt><trkpt lat="45.4016233" lon="13.6681667"><ele>193.33333333333331</ele><time>2026-04-19T13:18:19.221Z</time></trkpt><trkpt lat="45.4015917" lon="13.6679333"><ele>193.66666666666669</ele><time>2026-04-19T13:18:20.223Z</time></trkpt><trkpt lat="45.4015833" lon="13.6677"><ele>194.0</ele><time>2026-04-19T13:18:21.222Z</time></trkpt><trkpt lat="45.4016167" lon="13.667475"><ele>194.0</ele><time>2026-04-19T13:18:22.221Z</time></trkpt><trkpt lat="45.4017383" lon="13.667235"><ele>194.0</ele><time>2026-04-19T13:18:23.221Z</time></trkpt><trkpt lat="45.4018717" lon="13.667"><ele>194.0</ele><time>2026-04-19T13:18:24.221Z</time></trkpt><trkpt lat="45.4019933" lon="13.666745"><ele>194.33333333333334</ele><time>2026-04-19T13:18:25.222Z</time></trkpt><trkpt lat="45.4021117" lon="13.6664967"><ele>194.66666666666669</ele><time>2026-04-19T13:18:26.222Z</time></trkpt><trkpt lat="45.4022317" lon="13.66626"><ele>195.0</ele><time>2026-04-19T13:18:27.223Z</time></trkpt><trkpt lat="45.402345" lon="13.6660283"><ele>191.66666666666666</ele><time>2026-04-19T13:18:28.223Z</time></trkpt><trkpt lat="45.4024517" lon="13.66581"><ele>188.33333333333331</ele><time>2026-04-19T13:18:29.222Z</time></trkpt><trkpt lat="45.4025667" lon="13.665615"><ele>185.0</ele><time>2026-04-19T13:18:30.22Z</time></trkpt><trkpt lat="45.4026867" lon="13.66544"><ele>183.0</ele><time>2026-04-19T13:18:31.22Z</time></trkpt><trkpt lat="45.402805" lon="13.665275"><ele>181.0</ele><time>2026-04-19T13:18:32.22Z</time></trkpt><trkpt lat="45.4029283" lon="13.6651117"><ele>179.0</ele><time>2026-04-19T13:18:33.224Z</time></trkpt><trkpt lat="45.4030583" lon="13.66495"><ele>178.33333333333331</ele><time>2026-04-19T13:18:34.22Z</time></trkpt><trkpt lat="45.4032" lon="13.664795"><ele>177.66666666666666</ele><time>2026-04-19T13:18:35.222Z</time></trkpt><trkpt lat="45.4033533" lon="13.6646433"><ele>177.0</ele><time>2026-04-19T13:18:36.223Z</time></trkpt><trkpt lat="45.4035217" lon="13.6645083"><ele>177.33333333333334</ele><time>2026-04-19T13:18:37.225Z</time></trkpt><trkpt lat="45.4037083" lon="13.6644083"><ele>177.66666666666669</ele><time>2026-04-19T13:18:38.22Z</time></trkpt><trkpt lat="45.4039133" lon="13.6643533"><ele>178.0</ele><time>2026-04-19T13:18:39.22Z</time></trkpt><trkpt lat="45.4041267" lon="13.6643567"><ele>178.66666666666669</ele><time>2026-04-19T13:18:40.222Z</time></trkpt><trkpt lat="45.4043433" lon="13.6644"><ele>179.33333333333334</ele><time>2026-04-19T13:18:41.223Z</time></trkpt><trkpt lat="45.4045567" lon="13.6644917"><ele>180.0</ele><time>2026-04-19T13:18:42.223Z</time></trkpt><trkpt lat="45.4047733" lon="13.66463"><ele>180.0</ele><time>2026-04-19T13:18:43.223Z</time></trkpt><trkpt lat="45.404995" lon="13.6648133"><ele>180.0</ele><time>2026-04-19T13:18:44.221Z</time></trkpt><trkpt lat="45.405215" lon="13.6649983"><ele>180.0</ele><time>2026-04-19T13:18:45.224Z</time></trkpt><trkpt lat="45.4054367" lon="13.6651733"><ele>180.0</ele><time>2026-04-19T13:18:46.224Z</time></trkpt><trkpt lat="45.40566" lon="13.6653433"><ele>177.5</ele><time>2026-04-19T13:18:47.225Z</time></trkpt><trkpt lat="45.4058767" lon="13.6655083"><ele>175.0</ele><time>2026-04-19T13:18:48.221Z</time></trkpt><trkpt lat="45.4060833" lon="13.66568"><ele>175.0</ele><time>2026-04-19T13:18:49.221Z</time></trkpt><trkpt lat="45.4062917" lon="13.66585"><ele>175.0</ele><time>2026-04-19T13:18:50.223Z</time></trkpt><trkpt lat="45.4064967" lon="13.66603"><ele>171.0</ele><time>2026-04-19T13:18:51.226Z</time></trkpt><trkpt lat="45.4067017" lon="13.666215"><ele>167.0</ele><time>2026-04-19T13:18:52.221Z</time></trkpt><trkpt lat="45.40691" lon="13.666395"><ele>167.0</ele><time>2026-04-19T13:18:53.225Z</time></trkpt><trkpt lat="45.4071183" lon="13.6665733"><ele>167.0</ele><time>2026-04-19T13:18:54.227Z</time></trkpt><trkpt lat="45.407325" lon="13.6667433"><ele>164.66666666666666</ele><time>2026-04-19T13:18:55.222Z</time></trkpt><trkpt lat="45.407525" lon="13.666895"><ele>162.33333333333334</ele><time>2026-04-19T13:18:56.225Z</time></trkpt><trkpt lat="45.40772" lon="13.6670183"><ele>160.0</ele><time>2026-04-19T13:18:57.223Z</time></trkpt><trkpt lat="45.4079083" lon="13.6671067"><ele>160.33333333333334</ele><time>2026-04-19T13:18:58.223Z</time></trkpt><trkpt lat="45.4080933" lon="13.6671533"><ele>160.66666666666666</ele><time>2026-04-19T13:18:59.221Z</time></trkpt><trkpt lat="45.408275" lon="13.66717"><ele>161.0</ele><time>2026-04-19T13:19:00.221Z</time></trkpt><trkpt lat="45.408445" lon="13.6671683"><ele>161.0</ele><time>2026-04-19T13:19:01.225Z</time></trkpt><trkpt lat="45.4086067" lon="13.6671367"><ele>161.0</ele><time>2026-04-19T13:19:02.221Z</time></trkpt><trkpt lat="45.4087583" lon="13.6670783"><ele>161.0</ele><time>2026-04-19T13:19:03.222Z</time></trkpt><trkpt lat="45.4088983" lon="13.666995"><ele>161.0</ele><time>2026-04-19T13:19:04.22Z</time></trkpt><trkpt lat="45.4090317" lon="13.6669067"><ele>161.0</ele><time>2026-04-19T13:19:05.221Z</time></trkpt><trkpt lat="45.4091683" lon="13.66679"><ele>161.0</ele><time>2026-04-19T13:19:06.222Z</time></trkpt><trkpt lat="45.4092967" lon="13.66666"><ele>161.0</ele><time>2026-04-19T13:19:07.218Z</time></trkpt><trkpt lat="45.4094267" lon="13.6665217"><ele>161.0</ele><time>2026-04-19T13:19:08.223Z</time></trkpt><trkpt lat="45.409555" lon="13.6663817"><ele>161.0</ele><time>2026-04-19T13:19:09.221Z</time></trkpt><trkpt lat="45.4096817" lon="13.6662417"><ele>157.0</ele><time>2026-04-19T13:19:10.22Z</time></trkpt><trkpt lat="45.409805" lon="13.66611"><ele>153.0</ele><time>2026-04-19T13:19:11.223Z</time></trkpt><trkpt lat="45.4099317" lon="13.6659783"><ele>149.0</ele><time>2026-04-19T13:19:12.221Z</time></trkpt><trkpt lat="45.4100517" lon="13.6658467"><ele>149.0</ele><time>2026-04-19T13:19:13.223Z</time></trkpt><trkpt lat="45.4101683" lon="13.6657233"><ele>149.0</ele><time>2026-04-19T13:19:14.219Z</time></trkpt><trkpt lat="45.410275" lon="13.6656033"><ele>149.0</ele><time>2026-04-19T13:19:15.222Z</time></trkpt><trkpt lat="45.4103717" lon="13.6654917"><ele>149.0</ele><time>2026-04-19T13:19:16.221Z</time></trkpt><trkpt lat="45.410455" lon="13.6653933"><ele>149.16666666666666</ele><time>2026-04-19T13:19:17.223Z</time></trkpt><trkpt lat="45.4105233" lon="13.665315"><ele>149.33333333333331</ele><time>2026-04-19T13:19:18.221Z</time></trkpt><trkpt lat="45.410585" lon="13.6652517"><ele>149.5</ele><time>2026-04-19T13:19:19.219Z</time></trkpt><trkpt lat="45.41064" lon="13.6651933"><ele>149.66666666666666</ele><time>2026-04-19T13:19:20.221Z</time></trkpt><trkpt lat="45.41072" lon="13.6650917"><ele>149.83333333333334</ele><time>2026-04-19T13:19:22.222Z</time></trkpt><trkpt lat="45.41072" lon="13.6649917"><ele>150.0</ele><time>2026-04-19T13:19:24.221Z</time></trkpt><trkpt lat="45.4106433" lon="13.6649517"><ele>150.0</ele><time>2026-04-19T13:19:27.222Z</time></trkpt><trkpt lat="45.4105817" lon="13.6649717"><ele>150.0</ele><time>2026-04-19T13:19:30.224Z</time></trkpt><trkpt lat="45.4105033" lon="13.6649417"><ele>150.0</ele><time>2026-04-19T13:19:34.224Z</time></trkpt><trkpt lat="45.4104233" lon="13.6650417"><ele>150.0</ele><time>2026-04-19T13:23:32.224Z</time></trkpt><trkpt lat="45.4104617" lon="13.6652133"><ele>150.0</ele><time>2026-04-19T13:23:56.223Z</time></trkpt><trkpt lat="45.4105133" lon="13.6652667"><ele>150.0</ele><time>2026-04-19T13:23:59.221Z</time></trkpt><trkpt lat="45.4105817" lon="13.6652483"><ele>150.0</ele><time>2026-04-19T13:24:01.221Z</time></trkpt><trkpt lat="45.4106767" lon="13.6651533"><ele>150.0</ele><time>2026-04-19T13:24:03.221Z</time></trkpt><trkpt lat="45.4107567" lon="13.6650817"><ele>150.0</ele><time>2026-04-19T13:24:04.219Z</time></trkpt><trkpt lat="45.410835" lon="13.6649967"><ele>150.0</ele><time>2026-04-19T13:24:05.222Z</time></trkpt><trkpt lat="45.4109217" lon="13.6649067"><ele>150.0</ele><time>2026-04-19T13:24:06.22Z</time></trkpt><trkpt lat="45.41102" lon="13.6648017"><ele>150.0</ele><time>2026-04-19T13:24:07.224Z</time></trkpt><trkpt lat="45.4111267" lon="13.66469"><ele>150.0</ele><time>2026-04-19T13:24:08.221Z</time></trkpt><trkpt lat="45.4112317" lon="13.6645767"><ele>150.0</ele><time>2026-04-19T13:24:09.222Z</time></trkpt><trkpt lat="45.4113367" lon="13.6644617"><ele>150.0</ele><time>2026-04-19T13:24:10.221Z</time></trkpt><trkpt lat="45.4114367" lon="13.66435"><ele>151.0</ele><time>2026-04-19T13:24:11.222Z</time></trkpt><trkpt lat="45.4115283" lon="13.6642533"><ele>152.0</ele><time>2026-04-19T13:24:12.222Z</time></trkpt><trkpt lat="45.4116033" lon="13.6641733"><ele>153.0</ele><time>2026-04-19T13:24:13.224Z</time></trkpt><trkpt lat="45.411675" lon="13.6640983"><ele>154.0</ele><time>2026-04-19T13:24:14.218Z</time></trkpt><trkpt lat="45.4117483" lon="13.6640383"><ele>155.0</ele><time>2026-04-19T13:24:15.215Z</time></trkpt><trkpt lat="45.4118317" lon="13.663995"><ele>155.0</ele><time>2026-04-19T13:24:16.218Z</time></trkpt><trkpt lat="45.4119167" lon="13.66396"><ele>155.0</ele><time>2026-04-19T13:24:17.218Z</time></trkpt><trkpt lat="45.412" lon="13.66391"><ele>155.0</ele><time>2026-04-19T13:24:18.218Z</time></trkpt><trkpt lat="45.41208" lon="13.6638267"><ele>155.0</ele><time>2026-04-19T13:24:19.224Z</time></trkpt><trkpt lat="45.4121683" lon="13.663715"><ele>155.0</ele><time>2026-04-19T13:24:20.223Z</time></trkpt><trkpt lat="45.4122867" lon="13.663595"><ele>156.25</ele><time>2026-04-19T13:24:21.223Z</time></trkpt><trkpt lat="45.412415" lon="13.6635017"><ele>157.5</ele><time>2026-04-19T13:24:22.221Z</time></trkpt><trkpt lat="45.4125433" lon="13.6634167"><ele>158.75</ele><time>2026-04-19T13:24:23.219Z</time></trkpt><trkpt lat="45.4126733" lon="13.663335"><ele>160.0</ele><time>2026-04-19T13:24:24.221Z</time></trkpt><trkpt lat="45.4128067" lon="13.6632483"><ele>160.0</ele><time>2026-04-19T13:24:25.222Z</time></trkpt><trkpt lat="45.41294" lon="13.6631583"><ele>160.0</ele><time>2026-04-19T13:24:26.22Z</time></trkpt><trkpt lat="45.4130783" lon="13.663075"><ele>160.0</ele><time>2026-04-19T13:24:27.221Z</time></trkpt><trkpt lat="45.4132167" lon="13.6630017"><ele>160.0</ele><time>2026-04-19T13:24:28.221Z</time></trkpt><trkpt lat="45.4133467" lon="13.6629367"><ele>161.6</ele><time>2026-04-19T13:24:29.22Z</time></trkpt><trkpt lat="45.4134667" lon="13.6628933"><ele>163.2</ele><time>2026-04-19T13:24:30.222Z</time></trkpt><trkpt lat="45.413575" lon="13.6628717"><ele>164.8</ele><time>2026-04-19T13:24:31.222Z</time></trkpt><trkpt lat="45.4136817" lon="13.6628617"><ele>166.4</ele><time>2026-04-19T13:24:32.22Z</time></trkpt><trkpt lat="45.41379" lon="13.662865"><ele>168.0</ele><time>2026-04-19T13:24:33.22Z</time></trkpt><trkpt lat="45.4139017" lon="13.6628733"><ele>168.60000000000002</ele><time>2026-04-19T13:24:34.22Z</time></trkpt><trkpt lat="45.414005" lon="13.6628833"><ele>169.20000000000002</ele><time>2026-04-19T13:24:35.218Z</time></trkpt><trkpt lat="45.4141017" lon="13.6628883"><ele>169.8</ele><time>2026-04-19T13:24:36.221Z</time></trkpt><trkpt lat="45.414195" lon="13.662895"><ele>170.4</ele><time>2026-04-19T13:24:37.22Z</time></trkpt><trkpt lat="45.41429" lon="13.662905"><ele>171.0</ele><time>2026-04-19T13:24:38.219Z</time></trkpt><trkpt lat="45.4143883" lon="13.6629283"><ele>171.0</ele><time>2026-04-19T13:24:39.223Z</time></trkpt><trkpt lat="45.4144917" lon="13.6629717"><ele>171.0</ele><time>2026-04-19T13:24:40.221Z</time></trkpt><trkpt lat="45.414605" lon="13.66302"><ele>171.0</ele><time>2026-04-19T13:24:41.222Z</time></trkpt><trkpt lat="45.4147283" lon="13.6630733"><ele>171.0</ele><time>2026-04-19T13:24:42.222Z</time></trkpt><trkpt lat="45.4148633" lon="13.663125"><ele>171.0</ele><time>2026-04-19T13:24:43.223Z</time></trkpt><trkpt lat="45.415015" lon="13.663165"><ele>171.0</ele><time>2026-04-19T13:24:44.22Z</time></trkpt><trkpt lat="45.415175" lon="13.663205"><ele>171.0</ele><time>2026-04-19T13:24:45.223Z</time></trkpt><trkpt lat="45.4153367" lon="13.663235"><ele>171.0</ele><time>2026-04-19T13:24:46.222Z</time></trkpt><trkpt lat="45.415495" lon="13.66326"><ele>171.0</ele><time>2026-04-19T13:24:47.22Z</time></trkpt><trkpt lat="45.41566" lon="13.6632733"><ele>171.0</ele><time>2026-04-19T13:24:48.22Z</time></trkpt><trkpt lat="45.415825" lon="13.663275"><ele>171.0</ele><time>2026-04-19T13:24:49.222Z</time></trkpt><trkpt lat="45.4159917" lon="13.6632467"><ele>171.0</ele><time>2026-04-19T13:24:50.225Z</time></trkpt><trkpt lat="45.41616" lon="13.6632083"><ele>171.0</ele><time>2026-04-19T13:24:51.226Z</time></trkpt><trkpt lat="45.41633" lon="13.663165"><ele>171.33333333333334</ele><time>2026-04-19T13:24:52.22Z</time></trkpt><trkpt lat="45.416505" lon="13.663115"><ele>171.66666666666669</ele><time>2026-04-19T13:24:53.224Z</time></trkpt><trkpt lat="45.416685" lon="13.6630633"><ele>172.0</ele><time>2026-04-19T13:24:54.223Z</time></trkpt><trkpt lat="45.4168667" lon="13.6630083"><ele>172.0</ele><time>2026-04-19T13:24:55.225Z</time></trkpt><trkpt lat="45.417055" lon="13.6629533"><ele>172.0</ele><time>2026-04-19T13:24:56.224Z</time></trkpt><trkpt lat="45.4172517" lon="13.6628967"><ele>172.0</ele><time>2026-04-19T13:24:57.224Z</time></trkpt><trkpt lat="45.417455" lon="13.66284"><ele>172.0</ele><time>2026-04-19T13:24:58.222Z</time></trkpt><trkpt lat="45.4176533" lon="13.66277"><ele>172.0</ele><time>2026-04-19T13:24:59.225Z</time></trkpt><trkpt lat="45.41785" lon="13.6627117"><ele>172.0</ele><time>2026-04-19T13:25:00.224Z</time></trkpt><trkpt lat="45.41805" lon="13.6626483"><ele>170.66666666666669</ele><time>2026-04-19T13:25:01.224Z</time></trkpt><trkpt lat="45.4182583" lon="13.6625883"><ele>169.33333333333334</ele><time>2026-04-19T13:25:02.222Z</time></trkpt><trkpt lat="45.4184767" lon="13.662525"><ele>168.0</ele><time>2026-04-19T13:25:03.226Z</time></trkpt><trkpt lat="45.4187067" lon="13.66246"><ele>167.5</ele><time>2026-04-19T13:25:04.223Z</time></trkpt><trkpt lat="45.41894" lon="13.662395"><ele>167.0</ele><time>2026-04-19T13:25:05.221Z</time></trkpt><trkpt lat="45.4191683" lon="13.6623333"><ele>167.0</ele><time>2026-04-19T13:25:06.222Z</time></trkpt><trkpt lat="45.4193917" lon="13.662275"><ele>167.0</ele><time>2026-04-19T13:25:07.222Z</time></trkpt><trkpt lat="45.4196117" lon="13.6622183"><ele>167.0</ele><time>2026-04-19T13:25:08.224Z</time></trkpt><trkpt lat="45.4198333" lon="13.6621617"><ele>167.0</ele><time>2026-04-19T13:25:09.223Z</time></trkpt><trkpt lat="45.4200583" lon="13.6621017"><ele>167.0</ele><time>2026-04-19T13:25:10.224Z</time></trkpt><trkpt lat="45.420285" lon="13.66204"><ele>167.0</ele><time>2026-04-19T13:25:11.222Z</time></trkpt><trkpt lat="45.4205133" lon="13.66198"><ele>166.0</ele><time>2026-04-19T13:25:12.224Z</time></trkpt><trkpt lat="45.4207417" lon="13.661915"><ele>165.0</ele><time>2026-04-19T13:25:13.219Z</time></trkpt><trkpt lat="45.4209717" lon="13.6618533"><ele>165.0</ele><time>2026-04-19T13:25:14.223Z</time></trkpt><trkpt lat="45.4212017" lon="13.6617833"><ele>165.0</ele><time>2026-04-19T13:25:15.226Z</time></trkpt><trkpt lat="45.4214317" lon="13.6617083"><ele>164.5</ele><time>2026-04-19T13:25:16.223Z</time></trkpt><trkpt lat="45.4216633" lon="13.661635"><ele>164.0</ele><time>2026-04-19T13:25:17.22Z</time></trkpt><trkpt lat="45.421895" lon="13.6615867"><ele>164.0</ele><time>2026-04-19T13:25:18.221Z</time></trkpt><trkpt lat="45.4221267" lon="13.6615333"><ele>164.0</ele><time>2026-04-19T13:25:19.223Z</time></trkpt><trkpt lat="45.4223517" lon="13.6614617"><ele>163.33333333333331</ele><time>2026-04-19T13:25:20.222Z</time></trkpt><trkpt lat="45.42256" lon="13.6613567"><ele>162.66666666666666</ele><time>2026-04-19T13:25:21.224Z</time></trkpt><trkpt lat="45.4227517" lon="13.661205"><ele>162.0</ele><time>2026-04-19T13:25:22.222Z</time></trkpt><trkpt lat="45.422935" lon="13.6610233"><ele>160.0</ele><time>2026-04-19T13:25:23.223Z</time></trkpt><trkpt lat="45.4231033" lon="13.660805"><ele>158.0</ele><time>2026-04-19T13:25:24.219Z</time></trkpt><trkpt lat="45.42327" lon="13.6605767"><ele>158.0</ele><time>2026-04-19T13:25:25.223Z</time></trkpt><trkpt lat="45.4234433" lon="13.66035"><ele>158.0</ele><time>2026-04-19T13:25:26.223Z</time></trkpt><trkpt lat="45.423615" lon="13.6601233"><ele>158.0</ele><time>2026-04-19T13:25:27.223Z</time></trkpt><trkpt lat="45.4237817" lon="13.659905"><ele>158.0</ele><time>2026-04-19T13:25:28.223Z</time></trkpt><trkpt lat="45.4239567" lon="13.6597117"><ele>158.0</ele><time>2026-04-19T13:25:29.222Z</time></trkpt><trkpt lat="45.42415" lon="13.6595567"><ele>157.5</ele><time>2026-04-19T13:25:30.221Z</time></trkpt><trkpt lat="45.4243567" lon="13.6594367"><ele>157.0</ele><time>2026-04-19T13:25:31.225Z</time></trkpt><trkpt lat="45.42459" lon="13.6593683"><ele>157.0</ele><time>2026-04-19T13:25:32.222Z</time></trkpt><trkpt lat="45.4248233" lon="13.6593017"><ele>157.0</ele><time>2026-04-19T13:25:33.222Z</time></trkpt><trkpt lat="45.4250567" lon="13.6592183"><ele>157.0</ele><time>2026-04-19T13:25:34.223Z</time></trkpt><trkpt lat="45.4252883" lon="13.659125"><ele>157.0</ele><time>2026-04-19T13:25:35.223Z</time></trkpt><trkpt lat="45.4255233" lon="13.6590383"><ele>158.0</ele><time>2026-04-19T13:25:36.224Z</time></trkpt><trkpt lat="45.425755" lon="13.65895"><ele>159.0</ele><time>2026-04-19T13:25:37.224Z</time></trkpt><trkpt lat="45.4259883" lon="13.658865"><ele>159.0</ele><time>2026-04-19T13:25:38.222Z</time></trkpt><trkpt lat="45.4262217" lon="13.6587817"><ele>159.0</ele><time>2026-04-19T13:25:39.223Z</time></trkpt><trkpt lat="45.4264533" lon="13.6587"><ele>159.5</ele><time>2026-04-19T13:25:40.222Z</time></trkpt><trkpt lat="45.42668" lon="13.65862"><ele>160.0</ele><time>2026-04-19T13:25:41.224Z</time></trkpt><trkpt lat="45.4268983" lon="13.6585283"><ele>160.0</ele><time>2026-04-19T13:25:42.226Z</time></trkpt><trkpt lat="45.4271133" lon="13.658405"><ele>160.0</ele><time>2026-04-19T13:25:43.225Z</time></trkpt><trkpt lat="45.42732" lon="13.6582467"><ele>163.0</ele><time>2026-04-19T13:25:44.227Z</time></trkpt><trkpt lat="45.4275167" lon="13.6580683"><ele>166.0</ele><time>2026-04-19T13:25:45.23Z</time></trkpt><trkpt lat="45.4277017" lon="13.6578883"><ele>167.0</ele><time>2026-04-19T13:25:46.221Z</time></trkpt><trkpt lat="45.4278783" lon="13.6577183"><ele>168.0</ele><time>2026-04-19T13:25:47.222Z</time></trkpt><trkpt lat="45.42805" lon="13.6575583"><ele>169.0</ele><time>2026-04-19T13:25:48.22Z</time></trkpt><trkpt lat="45.42822" lon="13.6573983"><ele>169.0</ele><time>2026-04-19T13:25:49.224Z</time></trkpt><trkpt lat="45.4283867" lon="13.6572483"><ele>169.0</ele><time>2026-04-19T13:25:50.223Z</time></trkpt><trkpt lat="45.4285467" lon="13.657095"><ele>169.0</ele><time>2026-04-19T13:25:51.222Z</time></trkpt><trkpt lat="45.428695" lon="13.6569433"><ele>169.0</ele><time>2026-04-19T13:25:52.22Z</time></trkpt><trkpt lat="45.4288533" lon="13.65683"><ele>169.0</ele><time>2026-04-19T13:25:53.22Z</time></trkpt><trkpt lat="45.4290083" lon="13.65674"><ele>169.0</ele><time>2026-04-19T13:25:54.22Z</time></trkpt><trkpt lat="45.4291733" lon="13.6567283"><ele>169.0</ele><time>2026-04-19T13:25:55.218Z</time></trkpt><trkpt lat="45.42935" lon="13.656775"><ele>169.0</ele><time>2026-04-19T13:25:56.222Z</time></trkpt><trkpt lat="45.42954" lon="13.656825"><ele>169.0</ele><time>2026-04-19T13:25:57.222Z</time></trkpt><trkpt lat="45.4297483" lon="13.6569117"><ele>170.0</ele><time>2026-04-19T13:25:58.224Z</time></trkpt><trkpt lat="45.4299733" lon="13.6570017"><ele>171.0</ele><time>2026-04-19T13:25:59.222Z</time></trkpt><trkpt lat="45.4302217" lon="13.6570917"><ele>169.5</ele><time>2026-04-19T13:26:00.223Z</time></trkpt><trkpt lat="45.43049" lon="13.6571867"><ele>168.0</ele><time>2026-04-19T13:26:01.218Z</time></trkpt><trkpt lat="45.4307867" lon="13.6572817"><ele>168.0</ele><time>2026-04-19T13:26:02.223Z</time></trkpt><trkpt lat="45.4310933" lon="13.65739"><ele>168.0</ele><time>2026-04-19T13:26:03.227Z</time></trkpt><trkpt lat="45.4313883" lon="13.6574917"><ele>167.5</ele><time>2026-04-19T13:26:04.223Z</time></trkpt><trkpt lat="45.4316667" lon="13.6575967"><ele>167.0</ele><time>2026-04-19T13:26:05.22Z</time></trkpt><trkpt lat="45.431935" lon="13.65769"><ele>167.0</ele><time>2026-04-19T13:26:06.222Z</time></trkpt><trkpt lat="45.4321883" lon="13.6577817"><ele>167.0</ele><time>2026-04-19T13:26:07.223Z</time></trkpt><trkpt lat="45.43243" lon="13.6578667"><ele>167.0</ele><time>2026-04-19T13:26:08.224Z</time></trkpt><trkpt lat="45.43266" lon="13.65795"><ele>167.0</ele><time>2026-04-19T13:26:09.222Z</time></trkpt><trkpt lat="45.4328717" lon="13.658025"><ele>167.33333333333331</ele><time>2026-04-19T13:26:10.223Z</time></trkpt><trkpt lat="45.4330667" lon="13.6580933"><ele>167.66666666666666</ele><time>2026-04-19T13:26:11.222Z</time></trkpt><trkpt lat="45.4332533" lon="13.6581383"><ele>168.0</ele><time>2026-04-19T13:26:12.223Z</time></trkpt><trkpt lat="45.4334367" lon="13.658125"><ele>168.0</ele><time>2026-04-19T13:26:13.224Z</time></trkpt><trkpt lat="45.4336183" lon="13.6581017"><ele>168.0</ele><time>2026-04-19T13:26:14.223Z</time></trkpt><trkpt lat="45.43379" lon="13.6580133"><ele>168.0</ele><time>2026-04-19T13:26:15.223Z</time></trkpt><trkpt lat="45.4339633" lon="13.65792"><ele>168.0</ele><time>2026-04-19T13:26:16.222Z</time></trkpt><trkpt lat="45.4341217" lon="13.6577733"><ele>168.0</ele><time>2026-04-19T13:26:17.22Z</time></trkpt><trkpt lat="45.43429" lon="13.6576617"><ele>168.0</ele><time>2026-04-19T13:26:18.223Z</time></trkpt><trkpt lat="45.43446" lon="13.657545"><ele>168.0</ele><time>2026-04-19T13:26:19.22Z</time></trkpt><trkpt lat="45.4346367" lon="13.6574583"><ele>168.0</ele><time>2026-04-19T13:26:20.22Z</time></trkpt><trkpt lat="45.43482" lon="13.6573883"><ele>168.0</ele><time>2026-04-19T13:26:21.225Z</time></trkpt><trkpt lat="45.4350233" lon="13.65736"><ele>162.5</ele><time>2026-04-19T13:26:22.219Z</time></trkpt><trkpt lat="45.4352467" lon="13.6573317"><ele>157.0</ele><time>2026-04-19T13:26:23.22Z</time></trkpt><trkpt lat="45.4354917" lon="13.65732"><ele>157.0</ele><time>2026-04-19T13:26:24.221Z</time></trkpt><trkpt lat="45.435755" lon="13.6573233"><ele>157.0</ele><time>2026-04-19T13:26:25.223Z</time></trkpt><trkpt lat="45.436015" lon="13.6573267"><ele>157.0</ele><time>2026-04-19T13:26:26.222Z</time></trkpt><trkpt lat="45.43626" lon="13.6573167"><ele>157.0</ele><time>2026-04-19T13:26:27.226Z</time></trkpt><trkpt lat="45.436495" lon="13.6573033"><ele>158.5</ele><time>2026-04-19T13:26:28.22Z</time></trkpt><trkpt lat="45.4367267" lon="13.6573067"><ele>160.0</ele><time>2026-04-19T13:26:29.223Z</time></trkpt><trkpt lat="45.4369483" lon="13.6573333"><ele>159.5</ele><time>2026-04-19T13:26:30.224Z</time></trkpt><trkpt lat="45.4371667" lon="13.6573817"><ele>159.0</ele><time>2026-04-19T13:26:31.219Z</time></trkpt><trkpt lat="45.4373883" lon="13.6574667"><ele>159.0</ele><time>2026-04-19T13:26:32.223Z</time></trkpt><trkpt lat="45.4376183" lon="13.6575517"><ele>159.0</ele><time>2026-04-19T13:26:33.223Z</time></trkpt><trkpt lat="45.4378617" lon="13.6576133"><ele>156.0</ele><time>2026-04-19T13:26:34.221Z</time></trkpt><trkpt lat="45.4381233" lon="13.657635"><ele>153.0</ele><time>2026-04-19T13:26:35.217Z</time></trkpt><trkpt lat="45.438395" lon="13.6576533"><ele>153.0</ele><time>2026-04-19T13:26:36.222Z</time></trkpt><trkpt lat="45.4386617" lon="13.6576783"><ele>153.0</ele><time>2026-04-19T13:26:37.224Z</time></trkpt><trkpt lat="45.43892" lon="13.6576917"><ele>152.5</ele><time>2026-04-19T13:26:38.222Z</time></trkpt><trkpt lat="45.4391683" lon="13.6577117"><ele>152.0</ele><time>2026-04-19T13:26:39.223Z</time></trkpt><trkpt lat="45.4394083" lon="13.6577317"><ele>151.5</ele><time>2026-04-19T13:26:40.22Z</time></trkpt><trkpt lat="45.4396383" lon="13.6577533"><ele>151.0</ele><time>2026-04-19T13:26:41.22Z</time></trkpt><trkpt lat="45.4398567" lon="13.65778"><ele>151.66666666666669</ele><time>2026-04-19T13:26:42.224Z</time></trkpt><trkpt lat="45.440065" lon="13.6578033"><ele>152.33333333333334</ele><time>2026-04-19T13:26:43.225Z</time></trkpt><trkpt lat="45.4402667" lon="13.6578233"><ele>153.0</ele><time>2026-04-19T13:26:44.22Z</time></trkpt><trkpt lat="45.4404533" lon="13.657825"><ele>152.33333333333334</ele><time>2026-04-19T13:26:45.222Z</time></trkpt><trkpt lat="45.44064" lon="13.6577967"><ele>151.66666666666669</ele><time>2026-04-19T13:26:46.221Z</time></trkpt><trkpt lat="45.44081" lon="13.6577233"><ele>151.0</ele><time>2026-04-19T13:26:47.221Z</time></trkpt><trkpt lat="45.4409617" lon="13.6576217"><ele>150.25</ele><time>2026-04-19T13:26:48.221Z</time></trkpt><trkpt lat="45.4411033" lon="13.65752"><ele>149.5</ele><time>2026-04-19T13:26:49.22Z</time></trkpt><trkpt lat="45.4412367" lon="13.6574367"><ele>148.75</ele><time>2026-04-19T13:26:50.221Z</time></trkpt><trkpt lat="45.4413417" lon="13.6573617"><ele>148.0</ele><time>2026-04-19T13:26:51.221Z</time></trkpt><trkpt lat="45.4414267" lon="13.6573"><ele>149.33333333333334</ele><time>2026-04-19T13:26:52.22Z</time></trkpt><trkpt lat="45.4415" lon="13.6572483"><ele>150.66666666666669</ele><time>2026-04-19T13:26:53.221Z</time></trkpt><trkpt lat="45.4415717" lon="13.6572067"><ele>152.0</ele><time>2026-04-19T13:26:54.219Z</time></trkpt><trkpt lat="45.44165" lon="13.657165"><ele>153.33333333333334</ele><time>2026-04-19T13:26:55.221Z</time></trkpt><trkpt lat="45.4417367" lon="13.6571133"><ele>154.66666666666666</ele><time>2026-04-19T13:26:56.221Z</time></trkpt><trkpt lat="45.4418283" lon="13.6570517"><ele>156.0</ele><time>2026-04-19T13:26:57.221Z</time></trkpt><trkpt lat="45.441925" lon="13.65698"><ele>156.25</ele><time>2026-04-19T13:26:58.222Z</time></trkpt><trkpt lat="45.4420333" lon="13.656905"><ele>156.5</ele><time>2026-04-19T13:26:59.222Z</time></trkpt><trkpt lat="45.4421433" lon="13.6568233"><ele>156.75</ele><time>2026-04-19T13:27:00.22Z</time></trkpt><trkpt lat="45.4422517" lon="13.6567433"><ele>157.0</ele><time>2026-04-19T13:27:01.221Z</time></trkpt><trkpt lat="45.4423617" lon="13.65666"><ele>157.0</ele><time>2026-04-19T13:27:02.222Z</time></trkpt><trkpt lat="45.4424817" lon="13.656575"><ele>157.0</ele><time>2026-04-19T13:27:03.223Z</time></trkpt><trkpt lat="45.4426033" lon="13.6564917"><ele>157.0</ele><time>2026-04-19T13:27:04.222Z</time></trkpt><trkpt lat="45.44272" lon="13.65641"><ele>157.0</ele><time>2026-04-19T13:27:05.22Z</time></trkpt><trkpt lat="45.44284" lon="13.656335"><ele>157.0</ele><time>2026-04-19T13:27:06.223Z</time></trkpt><trkpt lat="45.442955" lon="13.6562483"><ele>157.0</ele><time>2026-04-19T13:27:07.222Z</time></trkpt><trkpt lat="45.44307" lon="13.6561633"><ele>157.0</ele><time>2026-04-19T13:27:08.223Z</time></trkpt><trkpt lat="45.4431883" lon="13.6560767"><ele>157.0</ele><time>2026-04-19T13:27:09.223Z</time></trkpt><trkpt lat="45.4433083" lon="13.6559933"><ele>157.5</ele><time>2026-04-19T13:27:10.221Z</time></trkpt><trkpt lat="45.4434283" lon="13.655925"><ele>158.0</ele><time>2026-04-19T13:27:11.224Z</time></trkpt><trkpt lat="45.4435533" lon="13.6558783"><ele>158.5</ele><time>2026-04-19T13:27:12.222Z</time></trkpt><trkpt lat="45.4436867" lon="13.6558667"><ele>159.0</ele><time>2026-04-19T13:27:13.221Z</time></trkpt><trkpt lat="45.4438233" lon="13.6558867"><ele>159.5</ele><time>2026-04-19T13:27:14.221Z</time></trkpt><trkpt lat="45.4439583" lon="13.6559417"><ele>160.0</ele><time>2026-04-19T13:27:15.224Z</time></trkpt><trkpt lat="45.4441017" lon="13.65601"><ele>160.5</ele><time>2026-04-19T13:27:16.223Z</time></trkpt><trkpt lat="45.4442483" lon="13.6560767"><ele>161.0</ele><time>2026-04-19T13:27:17.223Z</time></trkpt><trkpt lat="45.4443917" lon="13.6561367"><ele>161.0</ele><time>2026-04-19T13:27:18.223Z</time></trkpt><trkpt lat="45.44454" lon="13.6561833"><ele>161.0</ele><time>2026-04-19T13:27:19.222Z</time></trkpt><trkpt lat="45.4446867" lon="13.6562383"><ele>161.0</ele><time>2026-04-19T13:27:20.222Z</time></trkpt><trkpt lat="45.44483" lon="13.6562967"><ele>161.0</ele><time>2026-04-19T13:27:21.22Z</time></trkpt><trkpt lat="45.4449717" lon="13.6563567"><ele>161.0</ele><time>2026-04-19T13:27:22.223Z</time></trkpt><trkpt lat="45.4451117" lon="13.6564167"><ele>161.0</ele><time>2026-04-19T13:27:23.218Z</time></trkpt><trkpt lat="45.4452483" lon="13.6564783"><ele>161.0</ele><time>2026-04-19T13:27:24.222Z</time></trkpt><trkpt lat="45.4453833" lon="13.6565483"><ele>159.66666666666666</ele><time>2026-04-19T13:27:25.224Z</time></trkpt><trkpt lat="45.4455167" lon="13.656645"><ele>158.33333333333334</ele><time>2026-04-19T13:27:26.217Z</time></trkpt><trkpt lat="45.4456533" lon="13.6567683"><ele>157.0</ele><time>2026-04-19T13:27:27.224Z</time></trkpt><trkpt lat="45.4457617" lon="13.6569633"><ele>157.0</ele><time>2026-04-19T13:27:28.227Z</time></trkpt><trkpt lat="45.4458833" lon="13.657165"><ele>157.0</ele><time>2026-04-19T13:27:29.225Z</time></trkpt><trkpt lat="45.4460133" lon="13.6573833"><ele>157.0</ele><time>2026-04-19T13:27:30.224Z</time></trkpt><trkpt lat="45.44615" lon="13.6575967"><ele>155.66666666666669</ele><time>2026-04-19T13:27:31.221Z</time></trkpt><trkpt lat="45.446285" lon="13.6578083"><ele>154.33333333333334</ele><time>2026-04-19T13:27:32.221Z</time></trkpt><trkpt lat="45.446425" lon="13.6579983"><ele>153.0</ele><time>2026-04-19T13:27:33.225Z</time></trkpt><trkpt lat="45.4465533" lon="13.6581783"><ele>153.0</ele><time>2026-04-19T13:27:34.222Z</time></trkpt><trkpt lat="45.4466767" lon="13.6583267"><ele>153.0</ele><time>2026-04-19T13:27:35.221Z</time></trkpt><trkpt lat="45.4468017" lon="13.6584217"><ele>153.0</ele><time>2026-04-19T13:27:36.221Z</time></trkpt><trkpt lat="45.4469467" lon="13.6584433"><ele>153.0</ele><time>2026-04-19T13:27:37.221Z</time></trkpt><trkpt lat="45.4471" lon="13.6583683"><ele>147.66666666666666</ele><time>2026-04-19T13:27:38.221Z</time></trkpt><trkpt lat="45.4472583" lon="13.658235"><ele>142.33333333333331</ele><time>2026-04-19T13:27:39.222Z</time></trkpt><trkpt lat="45.4474283" lon="13.6580533"><ele>137.0</ele><time>2026-04-19T13:27:40.222Z</time></trkpt><trkpt lat="45.44761" lon="13.6578367"><ele>140.5</ele><time>2026-04-19T13:27:41.222Z</time></trkpt><trkpt lat="45.4478083" lon="13.65761"><ele>144.0</ele><time>2026-04-19T13:27:42.225Z</time></trkpt><trkpt lat="45.448025" lon="13.65738"><ele>142.5</ele><time>2026-04-19T13:27:43.224Z</time></trkpt><trkpt lat="45.4482383" lon="13.6571383"><ele>141.0</ele><time>2026-04-19T13:27:44.225Z</time></trkpt><trkpt lat="45.4484533" lon="13.6569067"><ele>141.0</ele><time>2026-04-19T13:27:45.221Z</time></trkpt><trkpt lat="45.44866" lon="13.6566767"><ele>141.0</ele><time>2026-04-19T13:27:46.222Z</time></trkpt><trkpt lat="45.4488583" lon="13.6564533"><ele>136.0</ele><time>2026-04-19T13:27:47.22Z</time></trkpt><trkpt lat="45.44904" lon="13.6562333"><ele>131.0</ele><time>2026-04-19T13:27:48.224Z</time></trkpt><trkpt lat="45.449195" lon="13.6560117"><ele>131.0</ele><time>2026-04-19T13:27:49.221Z</time></trkpt><trkpt lat="45.449345" lon="13.6558033"><ele>131.0</ele><time>2026-04-19T13:27:50.222Z</time></trkpt><trkpt lat="45.4495017" lon="13.6556217"><ele>131.0</ele><time>2026-04-19T13:27:51.228Z</time></trkpt><trkpt lat="45.449625" lon="13.6554183"><ele>125.33333333333333</ele><time>2026-04-19T13:27:52.223Z</time></trkpt><trkpt lat="45.4497017" lon="13.6551783"><ele>119.66666666666666</ele><time>2026-04-19T13:27:53.221Z</time></trkpt><trkpt lat="45.44974" lon="13.654945"><ele>114.0</ele><time>2026-04-19T13:27:54.22Z</time></trkpt><trkpt lat="45.4497217" lon="13.6547167"><ele>114.0</ele><time>2026-04-19T13:27:55.22Z</time></trkpt><trkpt lat="45.4496517" lon="13.65449"><ele>114.0</ele><time>2026-04-19T13:27:56.225Z</time></trkpt><trkpt lat="45.4495567" lon="13.6542583"><ele>114.0</ele><time>2026-04-19T13:27:57.226Z</time></trkpt><trkpt lat="45.4494433" lon="13.6540183"><ele>118.0</ele><time>2026-04-19T13:27:58.224Z</time></trkpt><trkpt lat="45.44934" lon="13.6537683"><ele>122.0</ele><time>2026-04-19T13:27:59.223Z</time></trkpt><trkpt lat="45.4492417" lon="13.6534983"><ele>126.0</ele><time>2026-04-19T13:28:00.222Z</time></trkpt><trkpt lat="45.4491317" lon="13.6532183"><ele>126.0</ele><time>2026-04-19T13:28:01.221Z</time></trkpt><trkpt lat="45.449015" lon="13.6529383"><ele>126.0</ele><time>2026-04-19T13:28:02.222Z</time></trkpt><trkpt lat="45.448915" lon="13.6526433"><ele>122.33333333333334</ele><time>2026-04-19T13:28:03.222Z</time></trkpt><trkpt lat="45.4488283" lon="13.65235"><ele>118.66666666666667</ele><time>2026-04-19T13:28:04.221Z</time></trkpt><trkpt lat="45.4487583" lon="13.6520767"><ele>115.0</ele><time>2026-04-19T13:28:05.222Z</time></trkpt><trkpt lat="45.448735" lon="13.6518067"><ele>113.0</ele><time>2026-04-19T13:28:06.222Z</time></trkpt><trkpt lat="45.4487567" lon="13.6515433"><ele>111.0</ele><time>2026-04-19T13:28:07.225Z</time></trkpt><trkpt lat="45.4488417" lon="13.6512767"><ele>109.0</ele><time>2026-04-19T13:28:08.22Z</time></trkpt><trkpt lat="45.448955" lon="13.651025"><ele>109.0</ele><time>2026-04-19T13:28:09.226Z</time></trkpt><trkpt lat="45.4491183" lon="13.6507933"><ele>109.0</ele><time>2026-04-19T13:28:10.225Z</time></trkpt><trkpt lat="45.4493017" lon="13.6505783"><ele>109.0</ele><time>2026-04-19T13:28:11.222Z</time></trkpt><trkpt lat="45.4495133" lon="13.65038"><ele>109.0</ele><time>2026-04-19T13:28:12.223Z</time></trkpt><trkpt lat="45.44973" lon="13.6501733"><ele>102.5</ele><time>2026-04-19T13:28:13.223Z</time></trkpt><trkpt lat="45.449935" lon="13.6499"><ele>96.0</ele><time>2026-04-19T13:28:14.226Z</time></trkpt><trkpt lat="45.450135" lon="13.64957"><ele>104.0</ele><time>2026-04-19T13:28:15.221Z</time></trkpt><trkpt lat="45.4503517" lon="13.6492133"><ele>112.0</ele><time>2026-04-19T13:28:16.223Z</time></trkpt><trkpt lat="45.4505833" lon="13.6488367"><ele>105.0</ele><time>2026-04-19T13:28:17.223Z</time></trkpt><trkpt lat="45.4508283" lon="13.6484367"><ele>98.0</ele><time>2026-04-19T13:28:18.224Z</time></trkpt><trkpt lat="45.45108" lon="13.64804"><ele>89.0</ele><time>2026-04-19T13:28:19.222Z</time></trkpt><trkpt lat="45.4513367" lon="13.6476717"><ele>80.0</ele><time>2026-04-19T13:28:20.224Z</time></trkpt><trkpt lat="45.4515767" lon="13.6473167"><ele>80.0</ele><time>2026-04-19T13:28:21.223Z</time></trkpt><trkpt lat="45.4518083" lon="13.6469733"><ele>80.0</ele><time>2026-04-19T13:28:22.224Z</time></trkpt><trkpt lat="45.4520467" lon="13.6466517"><ele>82.0</ele><time>2026-04-19T13:28:23.222Z</time></trkpt><trkpt lat="45.452285" lon="13.64635"><ele>84.0</ele><time>2026-04-19T13:28:24.221Z</time></trkpt><trkpt lat="45.4525317" lon="13.6461033"><ele>84.0</ele><time>2026-04-19T13:28:25.223Z</time></trkpt><trkpt lat="45.4527667" lon="13.6459"><ele>84.0</ele><time>2026-04-19T13:28:26.224Z</time></trkpt><trkpt lat="45.452985" lon="13.6457467"><ele>78.0</ele><time>2026-04-19T13:28:27.225Z</time></trkpt><trkpt lat="45.4531983" lon="13.645645"><ele>72.0</ele><time>2026-04-19T13:28:28.221Z</time></trkpt><trkpt lat="45.45339" lon="13.645545"><ele>66.0</ele><time>2026-04-19T13:28:29.222Z</time></trkpt><trkpt lat="45.45355" lon="13.64543"><ele>72.0</ele><time>2026-04-19T13:28:30.223Z</time></trkpt><trkpt lat="45.4536767" lon="13.64528"><ele>78.0</ele><time>2026-04-19T13:28:31.215Z</time></trkpt><trkpt lat="45.4537467" lon="13.645085"><ele>84.0</ele><time>2026-04-19T13:28:32.222Z</time></trkpt><trkpt lat="45.4537683" lon="13.64488"><ele>84.0</ele><time>2026-04-19T13:28:33.225Z</time></trkpt><trkpt lat="45.453785" lon="13.6447"><ele>84.0</ele><time>2026-04-19T13:28:34.224Z</time></trkpt><trkpt lat="45.4538283" lon="13.6445717"><ele>84.0</ele><time>2026-04-19T13:28:35.222Z</time></trkpt><trkpt lat="45.4539033" lon="13.644525"><ele>84.0</ele><time>2026-04-19T13:28:36.221Z</time></trkpt><trkpt lat="45.4539783" lon="13.6445317"><ele>84.0</ele><time>2026-04-19T13:28:37.22Z</time></trkpt><trkpt lat="45.454055" lon="13.6445983"><ele>79.0</ele><time>2026-04-19T13:28:39.222Z</time></trkpt><trkpt lat="45.4540433" lon="13.644715"><ele>74.0</ele><time>2026-04-19T13:28:43.22Z</time></trkpt><trkpt lat="45.4540333" lon="13.6448617"><ele>69.0</ele><time>2026-04-19T13:28:49.224Z</time></trkpt><trkpt lat="45.45401" lon="13.6449917"><ele>64.0</ele><time>2026-04-19T13:28:50.222Z</time></trkpt><trkpt lat="45.4539817" lon="13.6451183"><ele>59.0</ele><time>2026-04-19T13:28:51.223Z</time></trkpt><trkpt lat="45.4539517" lon="13.645235"><ele>57.25</ele><time>2026-04-19T13:28:52.219Z</time></trkpt><trkpt lat="45.4539233" lon="13.64537"><ele>55.5</ele><time>2026-04-19T13:28:53.221Z</time></trkpt><trkpt lat="45.4538817" lon="13.6455233"><ele>53.75</ele><time>2026-04-19T13:28:54.224Z</time></trkpt><trkpt lat="45.45383" lon="13.64569"><ele>52.0</ele><time>2026-04-19T13:28:55.224Z</time></trkpt><trkpt lat="45.4537533" lon="13.6458567"><ele>51.666666666666664</ele><time>2026-04-19T13:28:56.224Z</time></trkpt><trkpt lat="45.4536417" lon="13.64602"><ele>51.33333333333333</ele><time>2026-04-19T13:28:57.223Z</time></trkpt><trkpt lat="45.4535033" lon="13.6461833"><ele>51.0</ele><time>2026-04-19T13:28:58.222Z</time></trkpt><trkpt lat="45.453335" lon="13.6463283"><ele>51.0</ele><time>2026-04-19T13:28:59.223Z</time></trkpt><trkpt lat="45.453165" lon="13.6464817"><ele>51.0</ele><time>2026-04-19T13:29:00.222Z</time></trkpt><trkpt lat="45.4529983" lon="13.6466617"><ele>51.0</ele><time>2026-04-19T13:29:01.222Z</time></trkpt><trkpt lat="45.4528433" lon="13.6468733"><ele>51.66666666666667</ele><time>2026-04-19T13:29:02.22Z</time></trkpt><trkpt lat="45.4526983" lon="13.6470967"><ele>52.333333333333336</ele><time>2026-04-19T13:29:03.225Z</time></trkpt><trkpt lat="45.4525517" lon="13.6473167"><ele>53.0</ele><time>2026-04-19T13:29:04.221Z</time></trkpt><trkpt lat="45.45241" lon="13.647545"><ele>57.0</ele><time>2026-04-19T13:29:05.221Z</time></trkpt><trkpt lat="45.452285" lon="13.6478"><ele>61.0</ele><time>2026-04-19T13:29:06.222Z</time></trkpt><trkpt lat="45.452175" lon="13.6480733"><ele>65.0</ele><time>2026-04-19T13:29:07.224Z</time></trkpt><trkpt lat="45.4520717" lon="13.6483433"><ele>65.0</ele><time>2026-04-19T13:29:08.223Z</time></trkpt><trkpt lat="45.4519717" lon="13.648595"><ele>65.0</ele><time>2026-04-19T13:29:09.225Z</time></trkpt><trkpt lat="45.45187" lon="13.6488117"><ele>65.0</ele><time>2026-04-19T13:29:10.222Z</time></trkpt><trkpt lat="45.4517817" lon="13.648995"><ele>64.0</ele><time>2026-04-19T13:29:11.223Z</time></trkpt><trkpt lat="45.451705" lon="13.6491367"><ele>63.0</ele><time>2026-04-19T13:29:12.219Z</time></trkpt><trkpt lat="45.4516467" lon="13.649255"><ele>62.0</ele><time>2026-04-19T13:29:13.22Z</time></trkpt><trkpt lat="45.4516383" lon="13.64937"><ele>61.0</ele><time>2026-04-19T13:29:14.223Z</time></trkpt><trkpt lat="45.4516683" lon="13.6494683"><ele>60.0</ele><time>2026-04-19T13:29:15.221Z</time></trkpt><trkpt lat="45.451725" lon="13.6495183"><ele>60.0</ele><time>2026-04-19T13:29:16.221Z</time></trkpt><trkpt lat="45.4518317" lon="13.6495067"><ele>60.0</ele><time>2026-04-19T13:29:17.22Z</time></trkpt><trkpt lat="45.45193" lon="13.6495"><ele>60.0</ele><time>2026-04-19T13:29:18.224Z</time></trkpt><trkpt lat="45.4520283" lon="13.64943"><ele>60.0</ele><time>2026-04-19T13:29:19.222Z</time></trkpt><trkpt lat="45.4521033" lon="13.6493083"><ele>60.0</ele><time>2026-04-19T13:29:20.222Z</time></trkpt><trkpt lat="45.45218" lon="13.6492"><ele>56.2</ele><time>2026-04-19T13:29:21.223Z</time></trkpt><trkpt lat="45.4522633" lon="13.6491167"><ele>52.4</ele><time>2026-04-19T13:29:22.221Z</time></trkpt><trkpt lat="45.4523533" lon="13.6490733"><ele>48.599999999999994</ele><time>2026-04-19T13:29:23.222Z</time></trkpt><trkpt lat="45.4524433" lon="13.6490533"><ele>44.8</ele><time>2026-04-19T13:29:24.22Z</time></trkpt><trkpt lat="45.4525333" lon="13.64904"><ele>41.0</ele><time>2026-04-19T13:29:25.221Z</time></trkpt><trkpt lat="45.4526217" lon="13.6490317"><ele>41.0</ele><time>2026-04-19T13:29:26.222Z</time></trkpt><trkpt lat="45.45272" lon="13.6490367"><ele>41.0</ele><time>2026-04-19T13:29:27.22Z</time></trkpt><trkpt lat="45.4528267" lon="13.64905"><ele>41.0</ele><time>2026-04-19T13:29:28.226Z</time></trkpt><trkpt lat="45.4529367" lon="13.6490817"><ele>41.0</ele><time>2026-04-19T13:29:29.221Z</time></trkpt><trkpt lat="45.4530417" lon="13.6491333"><ele>41.0</ele><time>2026-04-19T13:29:30.218Z</time></trkpt><trkpt lat="45.45314" lon="13.649195"><ele>40.166666666666664</ele><time>2026-04-19T13:29:31.222Z</time></trkpt><trkpt lat="45.4532267" lon="13.649265"><ele>39.33333333333333</ele><time>2026-04-19T13:29:32.22Z</time></trkpt><trkpt lat="45.4533033" lon="13.649335"><ele>38.5</ele><time>2026-04-19T13:29:33.223Z</time></trkpt><trkpt lat="45.4533633" lon="13.6494033"><ele>37.666666666666664</ele><time>2026-04-19T13:29:34.22Z</time></trkpt><trkpt lat="45.453415" lon="13.6494833"><ele>36.833333333333336</ele><time>2026-04-19T13:29:35.223Z</time></trkpt><trkpt lat="45.45346" lon="13.6495683"><ele>36.0</ele><time>2026-04-19T13:29:36.222Z</time></trkpt><trkpt lat="45.4534917" lon="13.6496483"><ele>36.0</ele><time>2026-04-19T13:29:37.222Z</time></trkpt><trkpt lat="45.45353" lon="13.6497617"><ele>36.0</ele><time>2026-04-19T13:29:39.222Z</time></trkpt><trkpt lat="45.4535467" lon="13.6498917"><ele>36.0</ele><time>2026-04-19T13:29:42.219Z</time></trkpt><trkpt lat="45.4535567" lon="13.6500083"><ele>36.0</ele><time>2026-04-19T13:29:44.224Z</time></trkpt><trkpt lat="45.4535567" lon="13.6501583"><ele>36.0</ele><time>2026-04-19T13:29:46.223Z</time></trkpt><trkpt lat="45.4535533" lon="13.6503617"><ele>36.2</ele><time>2026-04-19T13:29:48.22Z</time></trkpt><trkpt lat="45.4535517" lon="13.6504967"><ele>36.400000000000006</ele><time>2026-04-19T13:29:49.222Z</time></trkpt><trkpt lat="45.453555" lon="13.65064"><ele>36.6</ele><time>2026-04-19T13:29:50.223Z</time></trkpt><trkpt lat="45.4535617" lon="13.6507817"><ele>36.800000000000004</ele><time>2026-04-19T13:29:51.223Z</time></trkpt><trkpt lat="45.4535483" lon="13.650935"><ele>37.0</ele><time>2026-04-19T13:29:52.222Z</time></trkpt><trkpt lat="45.453525" lon="13.65111"><ele>34.333333333333336</ele><time>2026-04-19T13:29:53.223Z</time></trkpt><trkpt lat="45.4534883" lon="13.6513083"><ele>31.666666666666664</ele><time>2026-04-19T13:29:54.221Z</time></trkpt><trkpt lat="45.4534133" lon="13.65165"><ele>29.0</ele><time>2026-04-19T13:29:55.791Z</time></trkpt><trkpt lat="45.4533017" lon="13.6520333"><ele>26.0</ele><time>2026-04-19T13:29:57.221Z</time></trkpt><trkpt lat="45.4532183" lon="13.65228"><ele>23.0</ele><time>2026-04-19T13:29:58.22Z</time></trkpt><trkpt lat="45.45313" lon="13.6525183"><ele>20.0</ele><time>2026-04-19T13:29:59.225Z</time></trkpt><trkpt lat="45.4530467" lon="13.6527467"><ele>17.333333333333336</ele><time>2026-04-19T13:30:00.222Z</time></trkpt><trkpt lat="45.4529667" lon="13.65297"><ele>14.666666666666668</ele><time>2026-04-19T13:30:01.223Z</time></trkpt><trkpt lat="45.4528883" lon="13.65318"><ele>12.0</ele><time>2026-04-19T13:30:02.221Z</time></trkpt><trkpt lat="45.4528233" lon="13.6533667"><ele>12.833333333333334</ele><time>2026-04-19T13:30:03.219Z</time></trkpt><trkpt lat="45.4527667" lon="13.6535267"><ele>13.666666666666668</ele><time>2026-04-19T13:30:04.217Z</time></trkpt><trkpt lat="45.4527233" lon="13.653645"><ele>14.5</ele><time>2026-04-19T13:30:05.223Z</time></trkpt><trkpt lat="45.4526917" lon="13.6537283"><ele>15.333333333333334</ele><time>2026-04-19T13:30:06.222Z</time></trkpt><trkpt lat="45.4526533" lon="13.6538317"><ele>16.166666666666668</ele><time>2026-04-19T13:30:08.225Z</time></trkpt><trkpt lat="45.4526217" lon="13.6539133"><ele>17.0</ele><time>2026-04-19T13:30:10.223Z</time></trkpt><trkpt lat="45.4525817" lon="13.6540333"><ele>17.0</ele><time>2026-04-19T13:30:12.226Z</time></trkpt><trkpt lat="45.452545" lon="13.654215"><ele>17.0</ele><time>2026-04-19T13:30:14.223Z</time></trkpt><trkpt lat="45.452545" lon="13.6543233"><ele>17.0</ele><time>2026-04-19T13:30:15.228Z</time></trkpt><trkpt lat="45.45257" lon="13.6544317"><ele>17.0</ele><time>2026-04-19T13:30:16.223Z</time></trkpt><trkpt lat="45.45262" lon="13.6545433"><ele>17.0</ele><time>2026-04-19T13:30:17.221Z</time></trkpt><trkpt lat="45.452695" lon="13.6546517"><ele>16.6</ele><time>2026-04-19T13:30:18.224Z</time></trkpt><trkpt lat="45.4527817" lon="13.6547483"><ele>16.2</ele><time>2026-04-19T13:30:19.222Z</time></trkpt><trkpt lat="45.4528733" lon="13.65484"><ele>15.8</ele><time>2026-04-19T13:30:20.221Z</time></trkpt><trkpt lat="45.452965" lon="13.6549267"><ele>15.4</ele><time>2026-04-19T13:30:21.223Z</time></trkpt><trkpt lat="45.453055" lon="13.6550133"><ele>15.0</ele><time>2026-04-19T13:30:22.223Z</time></trkpt><trkpt lat="45.4531417" lon="13.6551017"><ele>14.6</ele><time>2026-04-19T13:30:23.22Z</time></trkpt><trkpt lat="45.4532317" lon="13.6551917"><ele>14.2</ele><time>2026-04-19T13:30:24.223Z</time></trkpt><trkpt lat="45.4533267" lon="13.6552817"><ele>13.8</ele><time>2026-04-19T13:30:25.222Z</time></trkpt><trkpt lat="45.4534183" lon="13.65537"><ele>13.4</ele><time>2026-04-19T13:30:26.223Z</time></trkpt><trkpt lat="45.453505" lon="13.655455"><ele>13.0</ele><time>2026-04-19T13:30:27.228Z</time></trkpt><trkpt lat="45.4535783" lon="13.6555283"><ele>12.999999999999998</ele><time>2026-04-19T13:30:28.223Z</time></trkpt><trkpt lat="45.4536367" lon="13.6555833"><ele>13.0</ele><time>2026-04-19T13:30:29.224Z</time></trkpt><trkpt lat="45.453715" lon="13.655665"><ele>13.0</ele><time>2026-04-19T13:30:31.223Z</time></trkpt><trkpt lat="45.4537783" lon="13.65574"><ele>13.0</ele><time>2026-04-19T13:30:34.222Z</time></trkpt><trkpt lat="45.45384" lon="13.6558"><ele>12.999999999999998</ele><time>2026-04-19T13:30:38.223Z</time></trkpt><trkpt lat="45.45391" lon="13.6558817"><ele>13.0</ele><time>2026-04-19T13:30:41.222Z</time></trkpt><trkpt lat="45.4539833" lon="13.6559633"><ele>12.833333333333332</ele><time>2026-04-19T13:30:44.223Z</time></trkpt><trkpt lat="45.45404" lon="13.65602"><ele>12.666666666666666</ele><time>2026-04-19T13:30:46.224Z</time></trkpt><trkpt lat="45.454105" lon="13.6560883"><ele>12.5</ele><time>2026-04-19T13:30:49.223Z</time></trkpt><trkpt lat="45.4541767" lon="13.6561533"><ele>12.333333333333332</ele><time>2026-04-19T13:30:53.223Z</time></trkpt><trkpt lat="45.4542533" lon="13.65623"><ele>12.166666666666666</ele><time>2026-04-19T13:30:56.225Z</time></trkpt><trkpt lat="45.454305" lon="13.6562833"><ele>12.0</ele><time>2026-04-19T13:30:58.221Z</time></trkpt><trkpt lat="45.4543833" lon="13.6563617"><ele>11.999999999999998</ele><time>2026-04-19T13:31:01.221Z</time></trkpt><trkpt lat="45.454445" lon="13.6564217"><ele>12.0</ele><time>2026-04-19T13:31:03.22Z</time></trkpt><trkpt lat="45.4545033" lon="13.65648"><ele>12.0</ele><time>2026-04-19T13:31:05.223Z</time></trkpt><trkpt lat="45.4545617" lon="13.6565383"><ele>12.0</ele><time>2026-04-19T13:31:07.224Z</time></trkpt><trkpt lat="45.4546217" lon="13.6565983"><ele>12.0</ele><time>2026-04-19T13:31:09.225Z</time></trkpt><trkpt lat="45.4546767" lon="13.656655"><ele>11.999999999999998</ele><time>2026-04-19T13:31:11.219Z</time></trkpt><trkpt lat="45.45473" lon="13.6567117"><ele>12.0</ele><time>2026-04-19T13:31:13.221Z</time></trkpt><trkpt lat="45.4547883" lon="13.6567833"><ele>11.8</ele><time>2026-04-19T13:31:15.224Z</time></trkpt><trkpt lat="45.45487" lon="13.656875"><ele>11.6</ele><time>2026-04-19T13:31:17.222Z</time></trkpt><trkpt lat="45.4549283" lon="13.6569283"><ele>11.4</ele><time>2026-04-19T13:31:18.222Z</time></trkpt><trkpt lat="45.4550083" lon="13.657005"><ele>11.200000000000001</ele><time>2026-04-19T13:31:19.222Z</time></trkpt><trkpt lat="45.4550983" lon="13.657085"><ele>11.0</ele><time>2026-04-19T13:31:20.22Z</time></trkpt><trkpt lat="45.45519" lon="13.657165"><ele>11.0</ele><time>2026-04-19T13:31:21.224Z</time></trkpt><trkpt lat="45.455285" lon="13.6572517"><ele>11.0</ele><time>2026-04-19T13:31:22.223Z</time></trkpt><trkpt lat="45.4553817" lon="13.6573417"><ele>11.0</ele><time>2026-04-19T13:31:23.22Z</time></trkpt><trkpt lat="45.4554817" lon="13.6574383"><ele>11.0</ele><time>2026-04-19T13:31:24.222Z</time></trkpt><trkpt lat="45.4555817" lon="13.6575367"><ele>11.0</ele><time>2026-04-19T13:31:25.221Z</time></trkpt><trkpt lat="45.4556867" lon="13.6576433"><ele>11.0</ele><time>2026-04-19T13:31:26.218Z</time></trkpt><trkpt lat="45.4558017" lon="13.657755"><ele>11.0</ele><time>2026-04-19T13:31:27.223Z</time></trkpt><trkpt lat="45.4559333" lon="13.6578733"><ele>11.0</ele><time>2026-04-19T13:31:28.222Z</time></trkpt><trkpt lat="45.4560617" lon="13.6579767"><ele>11.25</ele><time>2026-04-19T13:31:29.221Z</time></trkpt><trkpt lat="45.4561817" lon="13.658065"><ele>11.5</ele><time>2026-04-19T13:31:30.22Z</time></trkpt><trkpt lat="45.4563083" lon="13.6581417"><ele>11.75</ele><time>2026-04-19T13:31:31.222Z</time></trkpt><trkpt lat="45.4564383" lon="13.6582067"><ele>12.0</ele><time>2026-04-19T13:31:32.222Z</time></trkpt><trkpt lat="45.456575" lon="13.6582483"><ele>11.333333333333334</ele><time>2026-04-19T13:31:33.224Z</time></trkpt><trkpt lat="45.4567217" lon="13.65827"><ele>10.666666666666668</ele><time>2026-04-19T13:31:34.222Z</time></trkpt><trkpt lat="45.4568733" lon="13.658285"><ele>10.0</ele><time>2026-04-19T13:31:35.223Z</time></trkpt><trkpt lat="45.45703" lon="13.658295"><ele>9.666666666666668</ele><time>2026-04-19T13:31:36.227Z</time></trkpt><trkpt lat="45.4571983" lon="13.6582967"><ele>9.333333333333334</ele><time>2026-04-19T13:31:37.221Z</time></trkpt><trkpt lat="45.4573683" lon="13.6582833"><ele>9.0</ele><time>2026-04-19T13:31:38.226Z</time></trkpt><trkpt lat="45.4575333" lon="13.6582517"><ele>9.0</ele><time>2026-04-19T13:31:39.221Z</time></trkpt><trkpt lat="45.4577017" lon="13.6581967"><ele>9.0</ele><time>2026-04-19T13:31:40.22Z</time></trkpt><trkpt lat="45.45789" lon="13.6581083"><ele>9.0</ele><time>2026-04-19T13:31:41.222Z</time></trkpt><trkpt lat="45.4581" lon="13.6579917"><ele>9.0</ele><time>2026-04-19T13:31:42.222Z</time></trkpt><trkpt lat="45.4583317" lon="13.657865"><ele>9.0</ele><time>2026-04-19T13:31:43.226Z</time></trkpt><trkpt lat="45.4585517" lon="13.65774"><ele>9.333333333333334</ele><time>2026-04-19T13:31:44.222Z</time></trkpt><trkpt lat="45.458765" lon="13.6576183"><ele>9.666666666666668</ele><time>2026-04-19T13:31:45.226Z</time></trkpt><trkpt lat="45.4589667" lon="13.6575"><ele>10.0</ele><time>2026-04-19T13:31:46.224Z</time></trkpt><trkpt lat="45.45915" lon="13.657395"><ele>10.666666666666668</ele><time>2026-04-19T13:31:47.222Z</time></trkpt><trkpt lat="45.4593117" lon="13.6573133"><ele>11.333333333333334</ele><time>2026-04-19T13:31:48.222Z</time></trkpt><trkpt lat="45.4594567" lon="13.6572483"><ele>12.0</ele><time>2026-04-19T13:31:49.224Z</time></trkpt><trkpt lat="45.4595883" lon="13.657195"><ele>12.6</ele><time>2026-04-19T13:31:50.221Z</time></trkpt><trkpt lat="45.459705" lon="13.65715"><ele>13.2</ele><time>2026-04-19T13:31:51.219Z</time></trkpt><trkpt lat="45.4598083" lon="13.6571217"><ele>13.8</ele><time>2026-04-19T13:31:52.22Z</time></trkpt><trkpt lat="45.4598967" lon="13.6571083"><ele>14.4</ele><time>2026-04-19T13:31:53.219Z</time></trkpt><trkpt lat="45.459965" lon="13.6570983"><ele>15.0</ele><time>2026-04-19T13:31:54.22Z</time></trkpt><trkpt lat="45.4600667" lon="13.6570783"><ele>15.0</ele><time>2026-04-19T13:31:56.22Z</time></trkpt><trkpt lat="45.4601967" lon="13.65706"><ele>15.0</ele><time>2026-04-19T13:31:58.219Z</time></trkpt><trkpt lat="45.460305" lon="13.6570583"><ele>15.0</ele><time>2026-04-19T13:31:59.222Z</time></trkpt><trkpt lat="45.4604217" lon="13.6570717"><ele>15.0</ele><time>2026-04-19T13:32:00.222Z</time></trkpt><trkpt lat="45.4605517" lon="13.65711"><ele>14.666666666666668</ele><time>2026-04-19T13:32:01.223Z</time></trkpt><trkpt lat="45.460685" lon="13.6571733"><ele>14.333333333333334</ele><time>2026-04-19T13:32:02.222Z</time></trkpt><trkpt lat="45.460825" lon="13.657265"><ele>14.0</ele><time>2026-04-19T13:32:03.227Z</time></trkpt><trkpt lat="45.460965" lon="13.6574017"><ele>14.0</ele><time>2026-04-19T13:32:04.222Z</time></trkpt><trkpt lat="45.4611033" lon="13.6575833"><ele>14.0</ele><time>2026-04-19T13:32:05.219Z</time></trkpt><trkpt lat="45.4612333" lon="13.6578"><ele>14.0</ele><time>2026-04-19T13:32:06.222Z</time></trkpt><trkpt lat="45.4613583" lon="13.6580267"><ele>18.0</ele><time>2026-04-19T13:32:07.222Z</time></trkpt><trkpt lat="45.4615083" lon="13.6582567"><ele>22.0</ele><time>2026-04-19T13:32:08.223Z</time></trkpt><trkpt lat="45.4616933" lon="13.6584633"><ele>25.5</ele><time>2026-04-19T13:32:09.223Z</time></trkpt><trkpt lat="45.4619117" lon="13.65866"><ele>29.0</ele><time>2026-04-19T13:32:10.221Z</time></trkpt><trkpt lat="45.4621583" lon="13.6588533"><ele>29.0</ele><time>2026-04-19T13:32:11.223Z</time></trkpt><trkpt lat="45.462425" lon="13.65903"><ele>29.0</ele><time>2026-04-19T13:32:12.221Z</time></trkpt><trkpt lat="45.4626833" lon="13.659175"><ele>29.0</ele><time>2026-04-19T13:32:13.224Z</time></trkpt><trkpt lat="45.4629333" lon="13.6593"><ele>29.0</ele><time>2026-04-19T13:32:14.223Z</time></trkpt><trkpt lat="45.4631717" lon="13.65942"><ele>31.666666666666664</ele><time>2026-04-19T13:32:15.223Z</time></trkpt><trkpt lat="45.46338" lon="13.6595267"><ele>34.333333333333336</ele><time>2026-04-19T13:32:16.221Z</time></trkpt><trkpt lat="45.46358" lon="13.6596183"><ele>37.0</ele><time>2026-04-19T13:32:17.222Z</time></trkpt><trkpt lat="45.4637767" lon="13.6597017"><ele>32.0</ele><time>2026-04-19T13:32:18.221Z</time></trkpt><trkpt lat="45.4639767" lon="13.6597917"><ele>27.0</ele><time>2026-04-19T13:32:19.221Z</time></trkpt><trkpt lat="45.4641767" lon="13.6599083"><ele>22.0</ele><time>2026-04-19T13:32:20.223Z</time></trkpt><trkpt lat="45.4643717" lon="13.6600683"><ele>22.0</ele><time>2026-04-19T13:32:21.226Z</time></trkpt><trkpt lat="45.4645533" lon="13.6602717"><ele>22.0</ele><time>2026-04-19T13:32:22.222Z</time></trkpt><trkpt lat="45.4647083" lon="13.6605233"><ele>22.0</ele><time>2026-04-19T13:32:23.22Z</time></trkpt><trkpt lat="45.4648417" lon="13.6608167"><ele>22.0</ele><time>2026-04-19T13:32:24.222Z</time></trkpt><trkpt lat="45.46495" lon="13.6611417"><ele>22.0</ele><time>2026-04-19T13:32:25.222Z</time></trkpt><trkpt lat="45.4650383" lon="13.661485"><ele>22.0</ele><time>2026-04-19T13:32:26.222Z</time></trkpt><trkpt lat="45.4651167" lon="13.6618267"><ele>25.0</ele><time>2026-04-19T13:32:27.226Z</time></trkpt><trkpt lat="45.4651817" lon="13.6621617"><ele>28.0</ele><time>2026-04-19T13:32:28.221Z</time></trkpt><trkpt lat="45.465245" lon="13.6624833"><ele>29.666666666666668</ele><time>2026-04-19T13:32:29.223Z</time></trkpt><trkpt lat="45.4653133" lon="13.6627883"><ele>31.333333333333336</ele><time>2026-04-19T13:32:30.224Z</time></trkpt><trkpt lat="45.4653767" lon="13.6630833"><ele>33.0</ele><time>2026-04-19T13:32:31.22Z</time></trkpt><trkpt lat="45.4654433" lon="13.663375"><ele>28.333333333333332</ele><time>2026-04-19T13:32:32.223Z</time></trkpt><trkpt lat="45.46551" lon="13.6636633"><ele>23.666666666666664</ele><time>2026-04-19T13:32:33.223Z</time></trkpt><trkpt lat="45.465585" lon="13.663935"><ele>19.0</ele><time>2026-04-19T13:32:34.223Z</time></trkpt><trkpt lat="45.4656733" lon="13.6641883"><ele>19.0</ele><time>2026-04-19T13:32:35.223Z</time></trkpt><trkpt lat="45.4657667" lon="13.6644317"><ele>19.0</ele><time>2026-04-19T13:32:36.222Z</time></trkpt><trkpt lat="45.4658717" lon="13.6646567"><ele>19.0</ele><time>2026-04-19T13:32:37.224Z</time></trkpt><trkpt lat="45.46599" lon="13.6648683"><ele>18.333333333333332</ele><time>2026-04-19T13:32:38.225Z</time></trkpt><trkpt lat="45.4661117" lon="13.6650817"><ele>17.666666666666668</ele><time>2026-04-19T13:32:39.226Z</time></trkpt><trkpt lat="45.4662317" lon="13.665295"><ele>17.0</ele><time>2026-04-19T13:32:40.229Z</time></trkpt><trkpt lat="45.46635" lon="13.665515"><ele>17.0</ele><time>2026-04-19T13:32:41.221Z</time></trkpt><trkpt lat="45.4664683" lon="13.66575"><ele>17.0</ele><time>2026-04-19T13:32:42.222Z</time></trkpt><trkpt lat="45.46658" lon="13.6659967"><ele>17.0</ele><time>2026-04-19T13:32:43.223Z</time></trkpt><trkpt lat="45.466675" lon="13.6662583"><ele>20.0</ele><time>2026-04-19T13:32:44.223Z</time></trkpt><trkpt lat="45.466755" lon="13.66653"><ele>23.0</ele><time>2026-04-19T13:32:45.223Z</time></trkpt><trkpt lat="45.4668183" lon="13.6668017"><ele>26.0</ele><time>2026-04-19T13:32:46.227Z</time></trkpt><trkpt lat="45.466875" lon="13.6670783"><ele>27.666666666666664</ele><time>2026-04-19T13:32:47.223Z</time></trkpt><trkpt lat="45.4669333" lon="13.6673583"><ele>29.333333333333336</ele><time>2026-04-19T13:32:48.223Z</time></trkpt><trkpt lat="45.4670017" lon="13.66764"><ele>31.0</ele><time>2026-04-19T13:32:49.224Z</time></trkpt><trkpt lat="45.46709" lon="13.6679183"><ele>26.0</ele><time>2026-04-19T13:32:50.223Z</time></trkpt><trkpt lat="45.467205" lon="13.6681733"><ele>21.0</ele><time>2026-04-19T13:32:51.223Z</time></trkpt><trkpt lat="45.467345" lon="13.668385"><ele>16.0</ele><time>2026-04-19T13:32:52.224Z</time></trkpt><trkpt lat="45.4674933" lon="13.6685583"><ele>17.666666666666664</ele><time>2026-04-19T13:32:53.222Z</time></trkpt><trkpt lat="45.4676517" lon="13.66871"><ele>19.333333333333332</ele><time>2026-04-19T13:32:54.221Z</time></trkpt><trkpt lat="45.4678167" lon="13.6688467"><ele>21.0</ele><time>2026-04-19T13:32:55.224Z</time></trkpt><trkpt lat="45.4679917" lon="13.6689883"><ele>21.0</ele><time>2026-04-19T13:32:56.224Z</time></trkpt><trkpt lat="45.4681667" lon="13.6691383"><ele>21.0</ele><time>2026-04-19T13:32:57.227Z</time></trkpt><trkpt lat="45.4683383" lon="13.66931"><ele>21.0</ele><time>2026-04-19T13:32:58.223Z</time></trkpt><trkpt lat="45.4685033" lon="13.669505"><ele>21.5</ele><time>2026-04-19T13:32:59.222Z</time></trkpt><trkpt lat="45.468675" lon="13.6697183"><ele>22.0</ele><time>2026-04-19T13:33:00.222Z</time></trkpt><trkpt lat="45.4688533" lon="13.6699483"><ele>22.0</ele><time>2026-04-19T13:33:01.224Z</time></trkpt><trkpt lat="45.4690417" lon="13.6701817"><ele>22.0</ele><time>2026-04-19T13:33:02.222Z</time></trkpt><trkpt lat="45.46923" lon="13.6704117"><ele>29.5</ele><time>2026-04-19T13:33:03.222Z</time></trkpt><trkpt lat="45.4694133" lon="13.67064"><ele>37.0</ele><time>2026-04-19T13:33:04.224Z</time></trkpt><trkpt lat="45.4695967" lon="13.6708567"><ele>36.5</ele><time>2026-04-19T13:33:05.221Z</time></trkpt><trkpt lat="45.46978" lon="13.67106"><ele>36.0</ele><time>2026-04-19T13:33:06.222Z</time></trkpt><trkpt lat="45.4699633" lon="13.6712467"><ele>36.0</ele><time>2026-04-19T13:33:07.223Z</time></trkpt><trkpt lat="45.4701433" lon="13.6714217"><ele>36.0</ele><time>2026-04-19T13:33:08.223Z</time></trkpt><trkpt lat="45.4703233" lon="13.6715883"><ele>36.0</ele><time>2026-04-19T13:33:09.224Z</time></trkpt><trkpt lat="45.4704983" lon="13.671745"><ele>30.666666666666668</ele><time>2026-04-19T13:33:10.221Z</time></trkpt><trkpt lat="45.4706733" lon="13.6718833"><ele>25.333333333333336</ele><time>2026-04-19T13:33:11.222Z</time></trkpt><trkpt lat="45.4708467" lon="13.6720133"><ele>20.0</ele><time>2026-04-19T13:33:12.222Z</time></trkpt><trkpt lat="45.4710183" lon="13.6721367"><ele>20.0</ele><time>2026-04-19T13:33:13.219Z</time></trkpt><trkpt lat="45.4711883" lon="13.6722583"><ele>20.0</ele><time>2026-04-19T13:33:14.221Z</time></trkpt><trkpt lat="45.4713433" lon="13.6723667"><ele>20.0</ele><time>2026-04-19T13:33:15.224Z</time></trkpt><trkpt lat="45.47148" lon="13.6724633"><ele>20.0</ele><time>2026-04-19T13:33:16.224Z</time></trkpt><trkpt lat="45.4716183" lon="13.672555"><ele>20.0</ele><time>2026-04-19T13:33:17.223Z</time></trkpt><trkpt lat="45.4717483" lon="13.6726433"><ele>20.0</ele><time>2026-04-19T13:33:18.22Z</time></trkpt><trkpt lat="45.471875" lon="13.6727267"><ele>20.0</ele><time>2026-04-19T13:33:19.223Z</time></trkpt><trkpt lat="45.471995" lon="13.6728083"><ele>22.5</ele><time>2026-04-19T13:33:20.22Z</time></trkpt><trkpt lat="45.472115" lon="13.6728833"><ele>25.0</ele><time>2026-04-19T13:33:21.222Z</time></trkpt><trkpt lat="45.4722417" lon="13.6729517"><ele>27.5</ele><time>2026-04-19T13:33:22.222Z</time></trkpt><trkpt lat="45.4723783" lon="13.67302"><ele>30.0</ele><time>2026-04-19T13:33:23.221Z</time></trkpt><trkpt lat="45.4725283" lon="13.6730917"><ele>30.0</ele><time>2026-04-19T13:33:24.22Z</time></trkpt><trkpt lat="45.4726883" lon="13.673165"><ele>30.0</ele><time>2026-04-19T13:33:25.219Z</time></trkpt><trkpt lat="45.472855" lon="13.67324"><ele>30.0</ele><time>2026-04-19T13:33:26.222Z</time></trkpt><trkpt lat="45.4730167" lon="13.6733267"><ele>28.0</ele><time>2026-04-19T13:33:27.22Z</time></trkpt><trkpt lat="45.4731733" lon="13.6734267"><ele>26.0</ele><time>2026-04-19T13:33:28.22Z</time></trkpt><trkpt lat="45.4733267" lon="13.67355"><ele>24.0</ele><time>2026-04-19T13:33:29.223Z</time></trkpt><trkpt lat="45.4734867" lon="13.6736717"><ele>26.0</ele><time>2026-04-19T13:33:30.22Z</time></trkpt><trkpt lat="45.47366" lon="13.6737783"><ele>28.0</ele><time>2026-04-19T13:33:31.225Z</time></trkpt><trkpt lat="45.4738383" lon="13.6738767"><ele>30.0</ele><time>2026-04-19T13:33:32.223Z</time></trkpt><trkpt lat="45.4740283" lon="13.6739767"><ele>30.0</ele><time>2026-04-19T13:33:33.231Z</time></trkpt><trkpt lat="45.4742217" lon="13.6740817"><ele>30.0</ele><time>2026-04-19T13:33:34.223Z</time></trkpt><trkpt lat="45.4744083" lon="13.6741817"><ele>30.0</ele><time>2026-04-19T13:33:35.227Z</time></trkpt><trkpt lat="45.474585" lon="13.6742767"><ele>30.333333333333336</ele><time>2026-04-19T13:33:36.224Z</time></trkpt><trkpt lat="45.4747583" lon="13.6743683"><ele>30.666666666666668</ele><time>2026-04-19T13:33:37.225Z</time></trkpt><trkpt lat="45.47494" lon="13.6744617"><ele>31.0</ele><time>2026-04-19T13:33:38.222Z</time></trkpt><trkpt lat="45.47513" lon="13.67455"><ele>31.0</ele><time>2026-04-19T13:33:39.223Z</time></trkpt><trkpt lat="45.4753317" lon="13.67462"><ele>31.0</ele><time>2026-04-19T13:33:40.222Z</time></trkpt><trkpt lat="45.4755283" lon="13.6746617"><ele>31.0</ele><time>2026-04-19T13:33:41.222Z</time></trkpt><trkpt lat="45.4757183" lon="13.674695"><ele>31.0</ele><time>2026-04-19T13:33:42.221Z</time></trkpt><trkpt lat="45.475905" lon="13.674725"><ele>31.0</ele><time>2026-04-19T13:33:43.223Z</time></trkpt><trkpt lat="45.47609" lon="13.6747567"><ele>31.0</ele><time>2026-04-19T13:33:44.223Z</time></trkpt><trkpt lat="45.4762683" lon="13.6747867"><ele>31.0</ele><time>2026-04-19T13:33:45.223Z</time></trkpt><trkpt lat="45.47644" lon="13.6748183"><ele>31.0</ele><time>2026-04-19T13:33:46.223Z</time></trkpt><trkpt lat="45.476605" lon="13.67487"><ele>31.0</ele><time>2026-04-19T13:33:47.221Z</time></trkpt><trkpt lat="45.4767583" lon="13.6749333"><ele>31.0</ele><time>2026-04-19T13:33:48.222Z</time></trkpt><trkpt lat="45.476895" lon="13.675015"><ele>31.0</ele><time>2026-04-19T13:33:49.226Z</time></trkpt><trkpt lat="45.4770217" lon="13.6750933"><ele>31.0</ele><time>2026-04-19T13:33:50.224Z</time></trkpt><trkpt lat="45.477145" lon="13.6751667"><ele>31.0</ele><time>2026-04-19T13:33:51.225Z</time></trkpt><trkpt lat="45.4772683" lon="13.6752467"><ele>32.75</ele><time>2026-04-19T13:33:52.222Z</time></trkpt><trkpt lat="45.477395" lon="13.675335"><ele>34.5</ele><time>2026-04-19T13:33:53.221Z</time></trkpt><trkpt lat="45.477525" lon="13.67542"><ele>36.25</ele><time>2026-04-19T13:33:54.223Z</time></trkpt><trkpt lat="45.4776617" lon="13.6754967"><ele>38.0</ele><time>2026-04-19T13:33:55.225Z</time></trkpt><trkpt lat="45.4778083" lon="13.67555"><ele>37.33333333333333</ele><time>2026-04-19T13:33:56.224Z</time></trkpt><trkpt lat="45.4779717" lon="13.67558"><ele>36.666666666666664</ele><time>2026-04-19T13:33:57.224Z</time></trkpt><trkpt lat="45.4781633" lon="13.67558"><ele>36.0</ele><time>2026-04-19T13:33:58.22Z</time></trkpt><trkpt lat="45.4783717" lon="13.6755683"><ele>36.0</ele><time>2026-04-19T13:33:59.223Z</time></trkpt><trkpt lat="45.4785983" lon="13.6755567"><ele>36.0</ele><time>2026-04-19T13:34:00.225Z</time></trkpt><trkpt lat="45.4788183" lon="13.675555"><ele>36.0</ele><time>2026-04-19T13:34:01.223Z</time></trkpt><trkpt lat="45.4790117" lon="13.675555"><ele>38.0</ele><time>2026-04-19T13:34:02.221Z</time></trkpt><trkpt lat="45.4791817" lon="13.6755633"><ele>40.0</ele><time>2026-04-19T13:34:03.223Z</time></trkpt><trkpt lat="45.47934" lon="13.6755933"><ele>42.0</ele><time>2026-04-19T13:34:04.222Z</time></trkpt><trkpt lat="45.4795017" lon="13.6756383"><ele>39.666666666666664</ele><time>2026-04-19T13:34:05.222Z</time></trkpt><trkpt lat="45.4796817" lon="13.6757"><ele>37.33333333333333</ele><time>2026-04-19T13:34:06.223Z</time></trkpt><trkpt lat="45.47988" lon="13.6757717"><ele>35.0</ele><time>2026-04-19T13:34:07.221Z</time></trkpt><trkpt lat="45.480085" lon="13.6758533"><ele>35.0</ele><time>2026-04-19T13:34:08.224Z</time></trkpt><trkpt lat="45.4802783" lon="13.6759317"><ele>35.0</ele><time>2026-04-19T13:34:09.23Z</time></trkpt><trkpt lat="45.4804567" lon="13.6760033"><ele>35.0</ele><time>2026-04-19T13:34:10.225Z</time></trkpt><trkpt lat="45.48062" lon="13.67607"><ele>39.0</ele><time>2026-04-19T13:34:11.222Z</time></trkpt><trkpt lat="45.4807717" lon="13.6761317"><ele>43.0</ele><time>2026-04-19T13:34:12.219Z</time></trkpt><trkpt lat="45.4809117" lon="13.6761917"><ele>47.0</ele><time>2026-04-19T13:34:13.22Z</time></trkpt><trkpt lat="45.4810483" lon="13.676265"><ele>47.0</ele><time>2026-04-19T13:34:14.222Z</time></trkpt><trkpt lat="45.4811867" lon="13.676355"><ele>47.0</ele><time>2026-04-19T13:34:15.224Z</time></trkpt><trkpt lat="45.4813267" lon="13.67646"><ele>47.0</ele><time>2026-04-19T13:34:16.219Z</time></trkpt><trkpt lat="45.4814817" lon="13.6765667"><ele>43.0</ele><time>2026-04-19T13:34:17.222Z</time></trkpt><trkpt lat="45.4816583" lon="13.6766767"><ele>39.0</ele><time>2026-04-19T13:34:18.219Z</time></trkpt><trkpt lat="45.4818567" lon="13.6768067"><ele>35.0</ele><time>2026-04-19T13:34:19.225Z</time></trkpt><trkpt lat="45.4820767" lon="13.6769733"><ele>32.0</ele><time>2026-04-19T13:34:20.223Z</time></trkpt><trkpt lat="45.4823167" lon="13.6771617"><ele>29.0</ele><time>2026-04-19T13:34:21.224Z</time></trkpt><trkpt lat="45.48256" lon="13.6773467"><ele>29.0</ele><time>2026-04-19T13:34:22.222Z</time></trkpt><trkpt lat="45.4827917" lon="13.6775133"><ele>29.0</ele><time>2026-04-19T13:34:23.223Z</time></trkpt><trkpt lat="45.483015" lon="13.6776633"><ele>33.0</ele><time>2026-04-19T13:34:24.222Z</time></trkpt><trkpt lat="45.483235" lon="13.6777767"><ele>37.0</ele><time>2026-04-19T13:34:25.227Z</time></trkpt><trkpt lat="45.48345" lon="13.6778283"><ele>37.0</ele><time>2026-04-19T13:34:26.222Z</time></trkpt><trkpt lat="45.4836683" lon="13.6778133"><ele>37.0</ele><time>2026-04-19T13:34:27.228Z</time></trkpt><trkpt lat="45.4838983" lon="13.6777517"><ele>35.5</ele><time>2026-04-19T13:34:28.225Z</time></trkpt><trkpt lat="45.4841483" lon="13.6776817"><ele>34.0</ele><time>2026-04-19T13:34:29.223Z</time></trkpt><trkpt lat="45.4844267" lon="13.6776367"><ele>35.0</ele><time>2026-04-19T13:34:30.222Z</time></trkpt><trkpt lat="45.4847283" lon="13.6775983"><ele>36.0</ele><time>2026-04-19T13:34:31.224Z</time></trkpt><trkpt lat="45.485035" lon="13.6775667"><ele>36.0</ele><time>2026-04-19T13:34:32.224Z</time></trkpt><trkpt lat="45.4853317" lon="13.67753"><ele>36.0</ele><time>2026-04-19T13:34:33.222Z</time></trkpt><trkpt lat="45.4856267" lon="13.677505"><ele>37.5</ele><time>2026-04-19T13:34:34.224Z</time></trkpt><trkpt lat="45.485925" lon="13.6774767"><ele>39.0</ele><time>2026-04-19T13:34:35.223Z</time></trkpt><trkpt lat="45.4862267" lon="13.67745"><ele>40.5</ele><time>2026-04-19T13:34:36.221Z</time></trkpt><trkpt lat="45.4865333" lon="13.67744"><ele>42.0</ele><time>2026-04-19T13:34:37.216Z</time></trkpt><trkpt lat="45.4868367" lon="13.6774383"><ele>43.0</ele><time>2026-04-19T13:34:38.216Z</time></trkpt><trkpt lat="45.4871283" lon="13.6774333"><ele>44.0</ele><time>2026-04-19T13:34:39.218Z</time></trkpt><trkpt lat="45.4874067" lon="13.6774417"><ele>44.0</ele><time>2026-04-19T13:34:40.219Z</time></trkpt><trkpt lat="45.48767" lon="13.6774517"><ele>44.0</ele><time>2026-04-19T13:34:41.219Z</time></trkpt><trkpt lat="45.487915" lon="13.6774617"><ele>45.0</ele><time>2026-04-19T13:34:42.215Z</time></trkpt><trkpt lat="45.4881283" lon="13.677475"><ele>46.0</ele><time>2026-04-19T13:34:43.22Z</time></trkpt><trkpt lat="45.488315" lon="13.6774717"><ele>47.0</ele><time>2026-04-19T13:34:44.225Z</time></trkpt><trkpt lat="45.4884917" lon="13.677455"><ele>47.0</ele><time>2026-04-19T13:34:45.227Z</time></trkpt><trkpt lat="45.4886717" lon="13.6774517"><ele>47.0</ele><time>2026-04-19T13:34:46.22Z</time></trkpt><trkpt lat="45.488855" lon="13.67742"><ele>47.0</ele><time>2026-04-19T13:34:47.222Z</time></trkpt><trkpt lat="45.4890683" lon="13.6773517"><ele>48.0</ele><time>2026-04-19T13:34:48.222Z</time></trkpt><trkpt lat="45.48931" lon="13.677265"><ele>49.0</ele><time>2026-04-19T13:34:49.223Z</time></trkpt><trkpt lat="45.489575" lon="13.6771717"><ele>44.0</ele><time>2026-04-19T13:34:50.223Z</time></trkpt><trkpt lat="45.4898483" lon="13.6770533"><ele>39.0</ele><time>2026-04-19T13:34:51.226Z</time></trkpt><trkpt lat="45.49013" lon="13.6769333"><ele>39.0</ele><time>2026-04-19T13:34:52.22Z</time></trkpt><trkpt lat="45.4904183" lon="13.6768217"><ele>39.0</ele><time>2026-04-19T13:34:53.228Z</time></trkpt><trkpt lat="45.4906917" lon="13.6767217"><ele>44.0</ele><time>2026-04-19T13:34:54.226Z</time></trkpt><trkpt lat="45.490955" lon="13.6766417"><ele>49.0</ele><time>2026-04-19T13:34:55.229Z</time></trkpt><trkpt lat="45.4912117" lon="13.676575"><ele>53.5</ele><time>2026-04-19T13:34:56.223Z</time></trkpt><trkpt lat="45.4914533" lon="13.676505"><ele>58.0</ele><time>2026-04-19T13:34:57.223Z</time></trkpt><trkpt lat="45.4916783" lon="13.6764317"><ele>58.0</ele><time>2026-04-19T13:34:58.222Z</time></trkpt><trkpt lat="45.491885" lon="13.6763717"><ele>58.0</ele><time>2026-04-19T13:34:59.222Z</time></trkpt><trkpt lat="45.4920783" lon="13.67633"><ele>58.0</ele><time>2026-04-19T13:35:00.225Z</time></trkpt><trkpt lat="45.4922567" lon="13.6763017"><ele>60.33333333333333</ele><time>2026-04-19T13:35:01.22Z</time></trkpt><trkpt lat="45.49243" lon="13.6762733"><ele>62.66666666666667</ele><time>2026-04-19T13:35:02.222Z</time></trkpt><trkpt lat="45.4926033" lon="13.6762517"><ele>65.0</ele><time>2026-04-19T13:35:03.22Z</time></trkpt><trkpt lat="45.492775" lon="13.6762367"><ele>63.333333333333336</ele><time>2026-04-19T13:35:04.229Z</time></trkpt><trkpt lat="45.49295" lon="13.67624"><ele>61.66666666666667</ele><time>2026-04-19T13:35:05.221Z</time></trkpt><trkpt lat="45.4931283" lon="13.6762617"><ele>60.0</ele><time>2026-04-19T13:35:06.221Z</time></trkpt><trkpt lat="45.49332" lon="13.6763183"><ele>60.0</ele><time>2026-04-19T13:35:07.656Z</time></trkpt><trkpt lat="45.4936267" lon="13.6764817"><ele>60.0</ele><time>2026-04-19T13:35:08.835Z</time></trkpt><trkpt lat="45.4940567" lon="13.6767983"><ele>60.5</ele><time>2026-04-19T13:35:11.22Z</time></trkpt><trkpt lat="45.4942467" lon="13.67696"><ele>61.0</ele><time>2026-04-19T13:35:12.222Z</time></trkpt><trkpt lat="45.4944383" lon="13.677145"><ele>56.666666666666664</ele><time>2026-04-19T13:35:13.221Z</time></trkpt><trkpt lat="45.4946233" lon="13.6773167"><ele>52.33333333333333</ele><time>2026-04-19T13:35:14.223Z</time></trkpt><trkpt lat="45.4948133" lon="13.6774567"><ele>48.0</ele><time>2026-04-19T13:35:15.219Z</time></trkpt><trkpt lat="45.49501" lon="13.677585"><ele>48.0</ele><time>2026-04-19T13:35:16.226Z</time></trkpt><trkpt lat="45.495215" lon="13.6776983"><ele>48.0</ele><time>2026-04-19T13:35:17.223Z</time></trkpt><trkpt lat="45.495425" lon="13.6777983"><ele>48.0</ele><time>2026-04-19T13:35:18.225Z</time></trkpt><trkpt lat="45.4956383" lon="13.6778817"><ele>50.0</ele><time>2026-04-19T13:35:19.222Z</time></trkpt><trkpt lat="45.4958417" lon="13.6779533"><ele>52.0</ele><time>2026-04-19T13:35:20.223Z</time></trkpt><trkpt lat="45.4960333" lon="13.6780217"><ele>54.0</ele><time>2026-04-19T13:35:21.223Z</time></trkpt><trkpt lat="45.4962117" lon="13.6781017"><ele>53.33333333333333</ele><time>2026-04-19T13:35:22.223Z</time></trkpt><trkpt lat="45.4963783" lon="13.678215"><ele>52.666666666666664</ele><time>2026-04-19T13:35:23.226Z</time></trkpt><trkpt lat="45.496525" lon="13.678365"><ele>52.0</ele><time>2026-04-19T13:35:24.225Z</time></trkpt><trkpt lat="45.496655" lon="13.6785467"><ele>55.0</ele><time>2026-04-19T13:35:25.22Z</time></trkpt><trkpt lat="45.4967733" lon="13.6787683"><ele>58.0</ele><time>2026-04-19T13:35:26.223Z</time></trkpt><trkpt lat="45.4968983" lon="13.6790167"><ele>61.0</ele><time>2026-04-19T13:35:27.225Z</time></trkpt><trkpt lat="45.4970417" lon="13.6792767"><ele>63.0</ele><time>2026-04-19T13:35:28.217Z</time></trkpt><trkpt lat="45.4972267" lon="13.6795067"><ele>65.0</ele><time>2026-04-19T13:35:29.223Z</time></trkpt><trkpt lat="45.4974633" lon="13.6796817"><ele>65.0</ele><time>2026-04-19T13:35:30.224Z</time></trkpt><trkpt lat="45.4977383" lon="13.67983"><ele>65.0</ele><time>2026-04-19T13:35:31.225Z</time></trkpt><trkpt lat="45.498035" lon="13.6799567"><ele>66.5</ele><time>2026-04-19T13:35:32.222Z</time></trkpt><trkpt lat="45.4983517" lon="13.680065"><ele>68.0</ele><time>2026-04-19T13:35:33.226Z</time></trkpt><trkpt lat="45.4986733" lon="13.6802083"><ele>74.5</ele><time>2026-04-19T13:35:34.225Z</time></trkpt><trkpt lat="45.4990017" lon="13.68038"><ele>81.0</ele><time>2026-04-19T13:35:35.223Z</time></trkpt><trkpt lat="45.4993183" lon="13.680545"><ele>79.0</ele><time>2026-04-19T13:35:36.223Z</time></trkpt><trkpt lat="45.499615" lon="13.6807083"><ele>77.0</ele><time>2026-04-19T13:35:37.221Z</time></trkpt><trkpt lat="45.4998917" lon="13.6808717"><ele>77.0</ele><time>2026-04-19T13:35:38.219Z</time></trkpt><trkpt lat="45.5001617" lon="13.6810417"><ele>77.0</ele><time>2026-04-19T13:35:39.228Z</time></trkpt><trkpt lat="45.5004117" lon="13.68125"><ele>84.0</ele><time>2026-04-19T13:35:40.223Z</time></trkpt><trkpt lat="45.5006483" lon="13.6814783"><ele>91.0</ele><time>2026-04-19T13:35:41.222Z</time></trkpt><trkpt lat="45.5008783" lon="13.6817083"><ele>91.0</ele><time>2026-04-19T13:35:42.227Z</time></trkpt><trkpt lat="45.5011317" lon="13.6818733"><ele>91.0</ele><time>2026-04-19T13:35:43.23Z</time></trkpt><trkpt lat="45.5014" lon="13.681975"><ele>97.5</ele><time>2026-04-19T13:35:44.226Z</time></trkpt><trkpt lat="45.5016683" lon="13.682085"><ele>104.0</ele><time>2026-04-19T13:35:45.224Z</time></trkpt><trkpt lat="45.5019133" lon="13.6822333"><ele>98.0</ele><time>2026-04-19T13:35:46.223Z</time></trkpt><trkpt lat="45.50213" lon="13.682435"><ele>92.0</ele><time>2026-04-19T13:35:47.223Z</time></trkpt><trkpt lat="45.5023133" lon="13.6826783"><ele>100.0</ele><time>2026-04-19T13:35:48.223Z</time></trkpt><trkpt lat="45.5024633" lon="13.6829467"><ele>108.0</ele><time>2026-04-19T13:35:49.225Z</time></trkpt><trkpt lat="45.5025867" lon="13.683275"><ele>116.0</ele><time>2026-04-19T13:35:50.225Z</time></trkpt><trkpt lat="45.5026917" lon="13.6836417"><ele>124.0</ele><time>2026-04-19T13:35:51.225Z</time></trkpt><trkpt lat="45.5027917" lon="13.6840267"><ele>130.0</ele><time>2026-04-19T13:35:52.224Z</time></trkpt><trkpt lat="45.5028617" lon="13.68445"><ele>136.0</ele><time>2026-04-19T13:35:53.222Z</time></trkpt><trkpt lat="45.5029167" lon="13.6848983"><ele>118.0</ele><time>2026-04-19T13:35:54.223Z</time></trkpt><trkpt lat="45.5029717" lon="13.6853767"><ele>100.0</ele><time>2026-04-19T13:35:55.224Z</time></trkpt><trkpt lat="45.5030317" lon="13.68587"><ele>101.5</ele><time>2026-04-19T13:35:56.223Z</time></trkpt><trkpt lat="45.5030933" lon="13.6863817"><ele>103.0</ele><time>2026-04-19T13:35:57.226Z</time></trkpt><trkpt lat="45.5031717" lon="13.6868683"><ele>107.5</ele><time>2026-04-19T13:35:58.223Z</time></trkpt><trkpt lat="45.5032433" lon="13.6873167"><ele>112.0</ele><time>2026-04-19T13:35:59.223Z</time></trkpt><trkpt lat="45.5033083" lon="13.687735"><ele>117.0</ele><time>2026-04-19T13:36:00.223Z</time></trkpt><trkpt lat="45.50336" lon="13.6881383"><ele>122.0</ele><time>2026-04-19T13:36:01.223Z</time></trkpt><trkpt lat="45.503385" lon="13.688545"><ele>122.5</ele><time>2026-04-19T13:36:02.223Z</time></trkpt><trkpt lat="45.5033983" lon="13.68896"><ele>123.0</ele><time>2026-04-19T13:36:03.222Z</time></trkpt><trkpt lat="45.5033917" lon="13.689385"><ele>127.0</ele><time>2026-04-19T13:36:04.224Z</time></trkpt><trkpt lat="45.5033783" lon="13.6898117"><ele>131.0</ele><time>2026-04-19T13:36:05.223Z</time></trkpt><trkpt lat="45.5033933" lon="13.690235"><ele>136.5</ele><time>2026-04-19T13:36:06.222Z</time></trkpt><trkpt lat="45.5034617" lon="13.69064"><ele>142.0</ele><time>2026-04-19T13:36:07.223Z</time></trkpt><trkpt lat="45.50357" lon="13.6910183"><ele>147.0</ele><time>2026-04-19T13:36:08.224Z</time></trkpt><trkpt lat="45.5036917" lon="13.69138"><ele>152.0</ele><time>2026-04-19T13:36:09.219Z</time></trkpt><trkpt lat="45.503795" lon="13.69174"><ele>140.0</ele><time>2026-04-19T13:36:10.229Z</time></trkpt><trkpt lat="45.5038733" lon="13.692095"><ele>128.0</ele><time>2026-04-19T13:36:11.224Z</time></trkpt><trkpt lat="45.5039183" lon="13.6924617"><ele>132.0</ele><time>2026-04-19T13:36:12.223Z</time></trkpt><trkpt lat="45.5039267" lon="13.6928417"><ele>136.0</ele><time>2026-04-19T13:36:13.223Z</time></trkpt><trkpt lat="45.50395" lon="13.69322"><ele>141.0</ele><time>2026-04-19T13:36:14.222Z</time></trkpt><trkpt lat="45.5039717" lon="13.6936033"><ele>146.0</ele><time>2026-04-19T13:36:15.227Z</time></trkpt><trkpt lat="45.5040267" lon="13.69399"><ele>146.0</ele><time>2026-04-19T13:36:16.224Z</time></trkpt><trkpt lat="45.5041033" lon="13.6943867"><ele>146.0</ele><time>2026-04-19T13:36:17.221Z</time></trkpt><trkpt lat="45.5042183" lon="13.694775"><ele>155.0</ele><time>2026-04-19T13:36:18.223Z</time></trkpt><trkpt lat="45.5043483" lon="13.695165"><ele>164.0</ele><time>2026-04-19T13:36:19.223Z</time></trkpt><trkpt lat="45.5044817" lon="13.6955467"><ele>161.0</ele><time>2026-04-19T13:36:20.227Z</time></trkpt><trkpt lat="45.5046" lon="13.6959167"><ele>158.0</ele><time>2026-04-19T13:36:21.222Z</time></trkpt><trkpt lat="45.5047017" lon="13.6962733"><ele>158.0</ele><time>2026-04-19T13:36:22.222Z</time></trkpt><trkpt lat="45.5048133" lon="13.6966033"><ele>158.0</ele><time>2026-04-19T13:36:23.224Z</time></trkpt><trkpt lat="45.5049233" lon="13.6969233"><ele>162.0</ele><time>2026-04-19T13:36:24.223Z</time></trkpt><trkpt lat="45.5050433" lon="13.6972317"><ele>166.0</ele><time>2026-04-19T13:36:25.223Z</time></trkpt><trkpt lat="45.5051683" lon="13.697545"><ele>164.0</ele><time>2026-04-19T13:36:26.222Z</time></trkpt><trkpt lat="45.5053133" lon="13.69785"><ele>162.0</ele><time>2026-04-19T13:36:27.223Z</time></trkpt><trkpt lat="45.5054783" lon="13.6981483"><ele>162.0</ele><time>2026-04-19T13:36:28.223Z</time></trkpt><trkpt lat="45.5056333" lon="13.69846"><ele>162.0</ele><time>2026-04-19T13:36:29.223Z</time></trkpt><trkpt lat="45.5057783" lon="13.6987817"><ele>170.5</ele><time>2026-04-19T13:36:30.225Z</time></trkpt><trkpt lat="45.5058933" lon="13.6991267"><ele>179.0</ele><time>2026-04-19T13:36:31.222Z</time></trkpt><trkpt lat="45.505975" lon="13.6995067"><ele>184.5</ele><time>2026-04-19T13:36:32.223Z</time></trkpt><trkpt lat="45.5060233" lon="13.6999133"><ele>190.0</ele><time>2026-04-19T13:36:33.223Z</time></trkpt><trkpt lat="45.5060533" lon="13.700335"><ele>192.0</ele><time>2026-04-19T13:36:34.222Z</time></trkpt><trkpt lat="45.5060583" lon="13.7007517"><ele>194.0</ele><time>2026-04-19T13:36:35.22Z</time></trkpt><trkpt lat="45.5060633" lon="13.7011467"><ele>196.0</ele><time>2026-04-19T13:36:36.223Z</time></trkpt><trkpt lat="45.5061" lon="13.7015133"><ele>198.0</ele><time>2026-04-19T13:36:37.222Z</time></trkpt><trkpt lat="45.506165" lon="13.7018533"><ele>193.66666666666666</ele><time>2026-04-19T13:36:38.223Z</time></trkpt><trkpt lat="45.5062267" lon="13.7021717"><ele>189.33333333333331</ele><time>2026-04-19T13:36:39.224Z</time></trkpt><trkpt lat="45.5062717" lon="13.7024667"><ele>185.0</ele><time>2026-04-19T13:36:40.224Z</time></trkpt><trkpt lat="45.5063167" lon="13.70274"><ele>187.33333333333331</ele><time>2026-04-19T13:36:41.221Z</time></trkpt><trkpt lat="45.5063717" lon="13.7029967"><ele>189.66666666666666</ele><time>2026-04-19T13:36:42.222Z</time></trkpt><trkpt lat="45.506415" lon="13.7032383"><ele>192.0</ele><time>2026-04-19T13:36:43.224Z</time></trkpt><trkpt lat="45.5064617" lon="13.7034683"><ele>195.33333333333331</ele><time>2026-04-19T13:36:44.226Z</time></trkpt><trkpt lat="45.506515" lon="13.7036867"><ele>198.66666666666666</ele><time>2026-04-19T13:36:45.223Z</time></trkpt><trkpt lat="45.5065617" lon="13.7039033"><ele>202.0</ele><time>2026-04-19T13:36:46.224Z</time></trkpt><trkpt lat="45.5066133" lon="13.7041"><ele>202.0</ele><time>2026-04-19T13:36:47.22Z</time></trkpt><trkpt lat="45.5066733" lon="13.7042717"><ele>202.0</ele><time>2026-04-19T13:36:48.22Z</time></trkpt><trkpt lat="45.5067483" lon="13.70442"><ele>202.0</ele><time>2026-04-19T13:36:49.224Z</time></trkpt><trkpt lat="45.50683" lon="13.7045517"><ele>202.0</ele><time>2026-04-19T13:36:50.222Z</time></trkpt><trkpt lat="45.5069117" lon="13.70467"><ele>202.39999999999998</ele><time>2026-04-19T13:36:51.222Z</time></trkpt><trkpt lat="45.506995" lon="13.7047733"><ele>202.79999999999998</ele><time>2026-04-19T13:36:52.22Z</time></trkpt><trkpt lat="45.5070767" lon="13.7048583"><ele>203.2</ele><time>2026-04-19T13:36:53.224Z</time></trkpt><trkpt lat="45.507155" lon="13.70493"><ele>203.6</ele><time>2026-04-19T13:36:54.224Z</time></trkpt><trkpt lat="45.5072383" lon="13.7049867"><ele>204.0</ele><time>2026-04-19T13:36:55.225Z</time></trkpt><trkpt lat="45.5073267" lon="13.705035"><ele>204.0</ele><time>2026-04-19T13:36:56.223Z</time></trkpt><trkpt lat="45.5074233" lon="13.7050717"><ele>204.0</ele><time>2026-04-19T13:36:57.223Z</time></trkpt><trkpt lat="45.50752" lon="13.7051017"><ele>204.0</ele><time>2026-04-19T13:36:58.222Z</time></trkpt><trkpt lat="45.5076183" lon="13.7051167"><ele>204.0</ele><time>2026-04-19T13:36:59.221Z</time></trkpt><trkpt lat="45.5077117" lon="13.70512"><ele>204.0</ele><time>2026-04-19T13:37:00.221Z</time></trkpt><trkpt lat="45.5078033" lon="13.7051133"><ele>204.0</ele><time>2026-04-19T13:37:01.221Z</time></trkpt><trkpt lat="45.5078883" lon="13.7050967"><ele>204.0</ele><time>2026-04-19T13:37:02.223Z</time></trkpt><trkpt lat="45.5079717" lon="13.70508"><ele>204.0</ele><time>2026-04-19T13:37:03.221Z</time></trkpt><trkpt lat="45.50806" lon="13.7050567"><ele>204.0</ele><time>2026-04-19T13:37:04.223Z</time></trkpt><trkpt lat="45.50815" lon="13.7050233"><ele>204.0</ele><time>2026-04-19T13:37:05.224Z</time></trkpt><trkpt lat="45.50824" lon="13.7049917"><ele>204.0</ele><time>2026-04-19T13:37:06.223Z</time></trkpt><trkpt lat="45.5083283" lon="13.704955"><ele>204.79999999999998</ele><time>2026-04-19T13:37:07.224Z</time></trkpt><trkpt lat="45.5084183" lon="13.7049167"><ele>205.6</ele><time>2026-04-19T13:37:08.221Z</time></trkpt><trkpt lat="45.5085017" lon="13.7048783"><ele>206.4</ele><time>2026-04-19T13:37:09.227Z</time></trkpt><trkpt lat="45.5085783" lon="13.7048483"><ele>207.2</ele><time>2026-04-19T13:37:10.222Z</time></trkpt><trkpt lat="45.50865" lon="13.704825"><ele>208.0</ele><time>2026-04-19T13:37:11.222Z</time></trkpt><trkpt lat="45.5087633" lon="13.7047933"><ele>208.49999999999997</ele><time>2026-04-19T13:37:13.223Z</time></trkpt><trkpt lat="45.5088267" lon="13.7047683"><ele>209.0</ele><time>2026-04-19T13:37:15.222Z</time></trkpt><trkpt lat="45.508895" lon="13.7047667"><ele>209.5</ele><time>2026-04-19T13:37:18.224Z</time></trkpt><trkpt lat="45.5089683" lon="13.7047633"><ele>210.0</ele><time>2026-04-19T13:37:20.224Z</time></trkpt><trkpt lat="45.5090517" lon="13.7047767"><ele>210.49999999999997</ele><time>2026-04-19T13:37:22.227Z</time></trkpt><trkpt lat="45.5091383" lon="13.7047983"><ele>211.0</ele><time>2026-04-19T13:37:24.221Z</time></trkpt><trkpt lat="45.5092133" lon="13.704845"><ele>210.99999999999997</ele><time>2026-04-19T13:37:26.22Z</time></trkpt><trkpt lat="45.5092833" lon="13.7049117"><ele>211.0</ele><time>2026-04-19T13:37:28.222Z</time></trkpt><trkpt lat="45.5093633" lon="13.7049433"><ele>211.0</ele><time>2026-04-19T13:37:30.219Z</time></trkpt><trkpt lat="45.509445" lon="13.70496"><ele>211.0</ele><time>2026-04-19T13:37:32.224Z</time></trkpt><trkpt lat="45.5095083" lon="13.7050117"><ele>210.99999999999997</ele><time>2026-04-19T13:37:35.223Z</time></trkpt><trkpt lat="45.5095883" lon="13.7050967"><ele>211.0</ele><time>2026-04-19T13:37:38.223Z</time></trkpt><trkpt lat="45.5096833" lon="13.70523"><ele>211.4</ele><time>2026-04-19T13:37:40.223Z</time></trkpt><trkpt lat="45.50974" lon="13.70532"><ele>211.8</ele><time>2026-04-19T13:37:41.221Z</time></trkpt><trkpt lat="45.5098083" lon="13.7054317"><ele>212.20000000000002</ele><time>2026-04-19T13:37:42.222Z</time></trkpt><trkpt lat="45.5098817" lon="13.7055567"><ele>212.60000000000002</ele><time>2026-04-19T13:37:43.219Z</time></trkpt><trkpt lat="45.5099567" lon="13.705685"><ele>213.0</ele><time>2026-04-19T13:37:44.221Z</time></trkpt><trkpt lat="45.5100233" lon="13.70581"><ele>213.0</ele><time>2026-04-19T13:37:45.222Z</time></trkpt><trkpt lat="45.5100917" lon="13.7059267"><ele>213.0</ele><time>2026-04-19T13:37:46.226Z</time></trkpt><trkpt lat="45.510155" lon="13.7060417"><ele>213.0</ele><time>2026-04-19T13:37:47.221Z</time></trkpt><trkpt lat="45.51022" lon="13.7061517"><ele>213.0</ele><time>2026-04-19T13:37:48.22Z</time></trkpt><trkpt lat="45.5102783" lon="13.70626"><ele>213.0</ele><time>2026-04-19T13:37:49.222Z</time></trkpt><trkpt lat="45.5103333" lon="13.7063617"><ele>213.33333333333334</ele><time>2026-04-19T13:37:50.225Z</time></trkpt><trkpt lat="45.5103867" lon="13.7064617"><ele>213.66666666666669</ele><time>2026-04-19T13:37:51.222Z</time></trkpt><trkpt lat="45.5104367" lon="13.7065717"><ele>214.0</ele><time>2026-04-19T13:37:52.224Z</time></trkpt><trkpt lat="45.51049" lon="13.7066717"><ele>214.33333333333334</ele><time>2026-04-19T13:37:53.224Z</time></trkpt><trkpt lat="45.51054" lon="13.7067683"><ele>214.66666666666669</ele><time>2026-04-19T13:37:54.22Z</time></trkpt><trkpt lat="45.5105883" lon="13.706855"><ele>215.0</ele><time>2026-04-19T13:37:55.22Z</time></trkpt><trkpt lat="45.5106283" lon="13.7069317"><ele>215.00000000000003</ele><time>2026-04-19T13:37:56.221Z</time></trkpt><trkpt lat="45.510675" lon="13.7070417"><ele>215.0</ele><time>2026-04-19T13:37:58.222Z</time></trkpt><trkpt lat="45.51071" lon="13.7071217"><ele>215.0</ele><time>2026-04-19T13:38:01.222Z</time></trkpt><trkpt lat="45.5107483" lon="13.7071933"><ele>215.0</ele><time>2026-04-19T13:38:03.223Z</time></trkpt><trkpt lat="45.51079" lon="13.7072767"><ele>215.00000000000003</ele><time>2026-04-19T13:38:05.224Z</time></trkpt><trkpt lat="45.5108317" lon="13.7073767"><ele>215.0</ele><time>2026-04-19T13:38:07.223Z</time></trkpt><trkpt lat="45.5108817" lon="13.7074967"><ele>215.00000000000003</ele><time>2026-04-19T13:38:09.224Z</time></trkpt><trkpt lat="45.5109167" lon="13.7075767"><ele>215.0</ele><time>2026-04-19T13:38:10.221Z</time></trkpt><trkpt lat="45.510955" lon="13.7076617"><ele>215.0</ele><time>2026-04-19T13:38:11.218Z</time></trkpt><trkpt lat="45.5110017" lon="13.7077483"><ele>215.0</ele><time>2026-04-19T13:38:12.221Z</time></trkpt><trkpt lat="45.511055" lon="13.7078467"><ele>215.00000000000003</ele><time>2026-04-19T13:38:13.219Z</time></trkpt><trkpt lat="45.511105" lon="13.707955"><ele>215.0</ele><time>2026-04-19T13:38:14.221Z</time></trkpt><trkpt lat="45.511155" lon="13.70807"><ele>215.33333333333334</ele><time>2026-04-19T13:38:15.223Z</time></trkpt><trkpt lat="45.5111967" lon="13.7081733"><ele>215.66666666666669</ele><time>2026-04-19T13:38:16.222Z</time></trkpt><trkpt lat="45.5112333" lon="13.7082783"><ele>216.0</ele><time>2026-04-19T13:38:17.223Z</time></trkpt><trkpt lat="45.5112617" lon="13.7083817"><ele>216.33333333333331</ele><time>2026-04-19T13:38:18.222Z</time></trkpt><trkpt lat="45.5112883" lon="13.708485"><ele>216.66666666666666</ele><time>2026-04-19T13:38:19.222Z</time></trkpt><trkpt lat="45.5113167" lon="13.7085917"><ele>217.0</ele><time>2026-04-19T13:38:20.221Z</time></trkpt><trkpt lat="45.5113483" lon="13.708705"><ele>216.99999999999997</ele><time>2026-04-19T13:38:21.221Z</time></trkpt><trkpt lat="45.51138" lon="13.70882"><ele>217.0</ele><time>2026-04-19T13:38:22.219Z</time></trkpt><trkpt lat="45.5114117" lon="13.7089367"><ele>217.0</ele><time>2026-04-19T13:38:23.221Z</time></trkpt><trkpt lat="45.511445" lon="13.7090517"><ele>217.0</ele><time>2026-04-19T13:38:24.222Z</time></trkpt><trkpt lat="45.5114833" lon="13.7091667"><ele>216.99999999999997</ele><time>2026-04-19T13:38:25.221Z</time></trkpt><trkpt lat="45.5115333" lon="13.7092683"><ele>217.0</ele><time>2026-04-19T13:38:26.22Z</time></trkpt><trkpt lat="45.511585" lon="13.7093767"><ele>214.39999999999998</ele><time>2026-04-19T13:38:27.224Z</time></trkpt><trkpt lat="45.5116433" lon="13.70949"><ele>211.79999999999998</ele><time>2026-04-19T13:38:28.222Z</time></trkpt><trkpt lat="45.5117033" lon="13.7095967"><ele>209.2</ele><time>2026-04-19T13:38:29.222Z</time></trkpt><trkpt lat="45.5117633" lon="13.7097"><ele>206.6</ele><time>2026-04-19T13:38:30.224Z</time></trkpt><trkpt lat="45.511825" lon="13.709805"><ele>204.0</ele><time>2026-04-19T13:38:31.221Z</time></trkpt><trkpt lat="45.5118883" lon="13.709905"><ele>204.0</ele><time>2026-04-19T13:38:32.222Z</time></trkpt><trkpt lat="45.5119483" lon="13.7100033"><ele>204.0</ele><time>2026-04-19T13:38:33.222Z</time></trkpt><trkpt lat="45.512005" lon="13.7100983"><ele>204.0</ele><time>2026-04-19T13:38:34.222Z</time></trkpt><trkpt lat="45.5120633" lon="13.7101983"><ele>204.0</ele><time>2026-04-19T13:38:35.223Z</time></trkpt><trkpt lat="45.5121217" lon="13.710305"><ele>204.0</ele><time>2026-04-19T13:38:36.223Z</time></trkpt><trkpt lat="45.5121783" lon="13.7104133"><ele>205.79999999999998</ele><time>2026-04-19T13:38:37.222Z</time></trkpt><trkpt lat="45.5122333" lon="13.7105283"><ele>207.6</ele><time>2026-04-19T13:38:38.221Z</time></trkpt><trkpt lat="45.512285" lon="13.7106467"><ele>209.4</ele><time>2026-04-19T13:38:39.224Z</time></trkpt><trkpt lat="45.5123317" lon="13.7107733"><ele>211.2</ele><time>2026-04-19T13:38:40.224Z</time></trkpt><trkpt lat="45.5123783" lon="13.7109033"><ele>213.0</ele><time>2026-04-19T13:38:41.225Z</time></trkpt><trkpt lat="45.5124217" lon="13.7110367"><ele>211.2</ele><time>2026-04-19T13:38:42.225Z</time></trkpt><trkpt lat="45.5124617" lon="13.711175"><ele>209.4</ele><time>2026-04-19T13:38:43.223Z</time></trkpt><trkpt lat="45.5124983" lon="13.71131"><ele>207.6</ele><time>2026-04-19T13:38:44.218Z</time></trkpt><trkpt lat="45.5125317" lon="13.711445"><ele>205.79999999999998</ele><time>2026-04-19T13:38:45.222Z</time></trkpt><trkpt lat="45.5125633" lon="13.7115733"><ele>204.0</ele><time>2026-04-19T13:38:46.222Z</time></trkpt><trkpt lat="45.512595" lon="13.7117017"><ele>204.0</ele><time>2026-04-19T13:38:47.222Z</time></trkpt><trkpt lat="45.5126267" lon="13.711825"><ele>204.0</ele><time>2026-04-19T13:38:48.22Z</time></trkpt><trkpt lat="45.512655" lon="13.7119367"><ele>204.0</ele><time>2026-04-19T13:38:49.22Z</time></trkpt><trkpt lat="45.5126783" lon="13.7120267"><ele>204.0</ele><time>2026-04-19T13:38:50.222Z</time></trkpt><trkpt lat="45.512715" lon="13.71214"><ele>204.0</ele><time>2026-04-19T13:38:52.221Z</time></trkpt><trkpt lat="45.5127567" lon="13.7122517"><ele>204.0</ele><time>2026-04-19T13:38:54.216Z</time></trkpt><trkpt lat="45.512815" lon="13.7124133"><ele>204.75</ele><time>2026-04-19T13:38:56.219Z</time></trkpt><trkpt lat="45.5128633" lon="13.7125233"><ele>205.5</ele><time>2026-04-19T13:38:57.223Z</time></trkpt><trkpt lat="45.5129283" lon="13.7126667"><ele>206.25</ele><time>2026-04-19T13:38:58.219Z</time></trkpt><trkpt lat="45.5130117" lon="13.712825"><ele>207.0</ele><time>2026-04-19T13:38:59.222Z</time></trkpt><trkpt lat="45.5131233" lon="13.71301"><ele>201.5</ele><time>2026-04-19T13:39:00.221Z</time></trkpt><trkpt lat="45.5132717" lon="13.7132267"><ele>196.0</ele><time>2026-04-19T13:39:01.225Z</time></trkpt><trkpt lat="45.5134417" lon="13.713485"><ele>195.5</ele><time>2026-04-19T13:39:02.225Z</time></trkpt><trkpt lat="45.5136033" lon="13.7137667"><ele>195.0</ele><time>2026-04-19T13:39:03.224Z</time></trkpt><trkpt lat="45.5137433" lon="13.7140567"><ele>195.0</ele><time>2026-04-19T13:39:04.223Z</time></trkpt><trkpt lat="45.5138617" lon="13.71435"><ele>195.0</ele><time>2026-04-19T13:39:05.221Z</time></trkpt><trkpt lat="45.51396" lon="13.71464"><ele>191.33333333333334</ele><time>2026-04-19T13:39:06.221Z</time></trkpt><trkpt lat="45.5140367" lon="13.7149183"><ele>187.66666666666669</ele><time>2026-04-19T13:39:07.219Z</time></trkpt><trkpt lat="45.5141017" lon="13.7151733"><ele>184.0</ele><time>2026-04-19T13:39:08.223Z</time></trkpt><trkpt lat="45.51416" lon="13.7154067"><ele>182.0</ele><time>2026-04-19T13:39:09.224Z</time></trkpt><trkpt lat="45.51422" lon="13.71561"><ele>180.0</ele><time>2026-04-19T13:39:10.223Z</time></trkpt><trkpt lat="45.5142883" lon="13.7157867"><ele>178.0</ele><time>2026-04-19T13:39:11.225Z</time></trkpt><trkpt lat="45.5143767" lon="13.7159417"><ele>176.0</ele><time>2026-04-19T13:39:12.222Z</time></trkpt><trkpt lat="45.51448" lon="13.716085"><ele>175.66666666666666</ele><time>2026-04-19T13:39:13.219Z</time></trkpt><trkpt lat="45.5145967" lon="13.71622"><ele>175.33333333333334</ele><time>2026-04-19T13:39:14.223Z</time></trkpt><trkpt lat="45.5147233" lon="13.71634"><ele>175.0</ele><time>2026-04-19T13:39:15.222Z</time></trkpt><trkpt lat="45.5148617" lon="13.7164267"><ele>175.0</ele><time>2026-04-19T13:39:16.224Z</time></trkpt><trkpt lat="45.515005" lon="13.7164817"><ele>175.0</ele><time>2026-04-19T13:39:17.221Z</time></trkpt><trkpt lat="45.5151517" lon="13.71651"><ele>175.0</ele><time>2026-04-19T13:39:18.222Z</time></trkpt><trkpt lat="45.515295" lon="13.7165183"><ele>175.0</ele><time>2026-04-19T13:39:19.222Z</time></trkpt><trkpt lat="45.51544" lon="13.716515"><ele>174.75</ele><time>2026-04-19T13:39:20.222Z</time></trkpt><trkpt lat="45.5155833" lon="13.71651"><ele>174.5</ele><time>2026-04-19T13:39:21.224Z</time></trkpt><trkpt lat="45.51572" lon="13.7165217"><ele>174.25</ele><time>2026-04-19T13:39:22.224Z</time></trkpt><trkpt lat="45.5158433" lon="13.7165667"><ele>174.0</ele><time>2026-04-19T13:39:23.222Z</time></trkpt><trkpt lat="45.515955" lon="13.7166533"><ele>174.0</ele><time>2026-04-19T13:39:24.222Z</time></trkpt><trkpt lat="45.5160417" lon="13.7167867"><ele>174.0</ele><time>2026-04-19T13:39:25.222Z</time></trkpt><trkpt lat="45.5160983" lon="13.7169417"><ele>174.0</ele><time>2026-04-19T13:39:26.225Z</time></trkpt><trkpt lat="45.516125" lon="13.7171133"><ele>174.0</ele><time>2026-04-19T13:39:27.224Z</time></trkpt><trkpt lat="45.5161267" lon="13.7172967"><ele>171.0</ele><time>2026-04-19T13:39:28.222Z</time></trkpt><trkpt lat="45.5160967" lon="13.7174833"><ele>168.0</ele><time>2026-04-19T13:39:29.221Z</time></trkpt><trkpt lat="45.51603" lon="13.7176517"><ele>165.0</ele><time>2026-04-19T13:39:30.223Z</time></trkpt><trkpt lat="45.5159283" lon="13.7177917"><ele>162.0</ele><time>2026-04-19T13:39:31.222Z</time></trkpt><trkpt lat="45.5158017" lon="13.7178833"><ele>157.66666666666666</ele><time>2026-04-19T13:39:32.222Z</time></trkpt><trkpt lat="45.5156517" lon="13.7179217"><ele>153.33333333333331</ele><time>2026-04-19T13:39:33.225Z</time></trkpt><trkpt lat="45.5154933" lon="13.717915"><ele>149.0</ele><time>2026-04-19T13:39:34.223Z</time></trkpt><trkpt lat="45.5153367" lon="13.7178783"><ele>147.75</ele><time>2026-04-19T13:39:35.223Z</time></trkpt><trkpt lat="45.515185" lon="13.71783"><ele>146.5</ele><time>2026-04-19T13:39:36.222Z</time></trkpt><trkpt lat="45.5150367" lon="13.7177983"><ele>145.25</ele><time>2026-04-19T13:39:37.221Z</time></trkpt><trkpt lat="45.5148933" lon="13.7178033"><ele>144.0</ele><time>2026-04-19T13:39:38.219Z</time></trkpt><trkpt lat="45.514755" lon="13.71783"><ele>144.0</ele><time>2026-04-19T13:39:39.22Z</time></trkpt><trkpt lat="45.5146217" lon="13.7178617"><ele>144.0</ele><time>2026-04-19T13:39:40.221Z</time></trkpt><trkpt lat="45.5144817" lon="13.7178833"><ele>144.0</ele><time>2026-04-19T13:39:41.223Z</time></trkpt><trkpt lat="45.5143383" lon="13.717875"><ele>144.0</ele><time>2026-04-19T13:39:42.225Z</time></trkpt><trkpt lat="45.5141967" lon="13.71783"><ele>144.5</ele><time>2026-04-19T13:39:43.224Z</time></trkpt><trkpt lat="45.5140633" lon="13.7177633"><ele>145.0</ele><time>2026-04-19T13:39:44.226Z</time></trkpt><trkpt lat="45.51393" lon="13.71769"><ele>145.5</ele><time>2026-04-19T13:39:45.224Z</time></trkpt><trkpt lat="45.5137867" lon="13.7176333"><ele>146.0</ele><time>2026-04-19T13:39:46.224Z</time></trkpt><trkpt lat="45.51361" lon="13.7176133"><ele>146.0</ele><time>2026-04-19T13:39:47.222Z</time></trkpt><trkpt lat="45.5134133" lon="13.7176233"><ele>146.0</ele><time>2026-04-19T13:39:48.226Z</time></trkpt><trkpt lat="45.513215" lon="13.7176617"><ele>146.0</ele><time>2026-04-19T13:39:49.223Z</time></trkpt><trkpt lat="45.513025" lon="13.7177183"><ele>140.0</ele><time>2026-04-19T13:39:50.225Z</time></trkpt><trkpt lat="45.5128417" lon="13.7177883"><ele>134.0</ele><time>2026-04-19T13:39:51.227Z</time></trkpt><trkpt lat="45.5126617" lon="13.7178533"><ele>128.0</ele><time>2026-04-19T13:39:52.222Z</time></trkpt><trkpt lat="45.5124817" lon="13.7178967"><ele>128.0</ele><time>2026-04-19T13:39:53.219Z</time></trkpt><trkpt lat="45.512305" lon="13.7178933"><ele>128.0</ele><time>2026-04-19T13:39:54.224Z</time></trkpt><trkpt lat="45.5121317" lon="13.717855"><ele>128.0</ele><time>2026-04-19T13:39:55.222Z</time></trkpt><trkpt lat="45.5119533" lon="13.7177883"><ele>129.0</ele><time>2026-04-19T13:39:56.225Z</time></trkpt><trkpt lat="45.5117633" lon="13.7176817"><ele>130.0</ele><time>2026-04-19T13:39:57.221Z</time></trkpt><trkpt lat="45.511575" lon="13.717535"><ele>131.0</ele><time>2026-04-19T13:39:58.224Z</time></trkpt><trkpt lat="45.5113967" lon="13.717385"><ele>127.33333333333333</ele><time>2026-04-19T13:39:59.221Z</time></trkpt><trkpt lat="45.51122" lon="13.7172617"><ele>123.66666666666666</ele><time>2026-04-19T13:40:00.225Z</time></trkpt><trkpt lat="45.5110183" lon="13.7171883"><ele>120.0</ele><time>2026-04-19T13:40:01.225Z</time></trkpt><trkpt lat="45.5107967" lon="13.717155"><ele>120.0</ele><time>2026-04-19T13:40:02.224Z</time></trkpt><trkpt lat="45.5105767" lon="13.7171417"><ele>120.0</ele><time>2026-04-19T13:40:03.224Z</time></trkpt><trkpt lat="45.5103617" lon="13.7171283"><ele>120.0</ele><time>2026-04-19T13:40:04.224Z</time></trkpt><trkpt lat="45.5101533" lon="13.7170967"><ele>120.0</ele><time>2026-04-19T13:40:05.221Z</time></trkpt><trkpt lat="45.509955" lon="13.7170233"><ele>120.0</ele><time>2026-04-19T13:40:06.226Z</time></trkpt><trkpt lat="45.50978" lon="13.71689"><ele>120.0</ele><time>2026-04-19T13:40:07.223Z</time></trkpt><trkpt lat="45.5096317" lon="13.7167"><ele>118.66666666666666</ele><time>2026-04-19T13:40:08.225Z</time></trkpt><trkpt lat="45.509515" lon="13.7164617"><ele>117.33333333333333</ele><time>2026-04-19T13:40:09.224Z</time></trkpt><trkpt lat="45.5094217" lon="13.7162033"><ele>116.0</ele><time>2026-04-19T13:40:10.223Z</time></trkpt><trkpt lat="45.5093383" lon="13.7159483"><ele>116.0</ele><time>2026-04-19T13:40:11.225Z</time></trkpt><trkpt lat="45.5092383" lon="13.7157133"><ele>116.0</ele><time>2026-04-19T13:40:12.225Z</time></trkpt><trkpt lat="45.50911" lon="13.715525"><ele>116.0</ele><time>2026-04-19T13:40:13.224Z</time></trkpt><trkpt lat="45.5089567" lon="13.7154033"><ele>116.0</ele><time>2026-04-19T13:40:14.225Z</time></trkpt><trkpt lat="45.5087783" lon="13.7153733"><ele>116.0</ele><time>2026-04-19T13:40:15.223Z</time></trkpt><trkpt lat="45.508605" lon="13.715415"><ele>116.0</ele><time>2026-04-19T13:40:16.222Z</time></trkpt><trkpt lat="45.5084483" lon="13.7155267"><ele>110.0</ele><time>2026-04-19T13:40:17.222Z</time></trkpt><trkpt lat="45.5083267" lon="13.7157083"><ele>104.0</ele><time>2026-04-19T13:40:18.223Z</time></trkpt><trkpt lat="45.5082467" lon="13.71592"><ele>98.0</ele><time>2026-04-19T13:40:19.218Z</time></trkpt><trkpt lat="45.50821" lon="13.7161583"><ele>97.33333333333333</ele><time>2026-04-19T13:40:20.221Z</time></trkpt><trkpt lat="45.508225" lon="13.7163917"><ele>96.66666666666666</ele><time>2026-04-19T13:40:21.225Z</time></trkpt><trkpt lat="45.5082883" lon="13.7166117"><ele>96.0</ele><time>2026-04-19T13:40:22.224Z</time></trkpt><trkpt lat="45.5083717" lon="13.7168083"><ele>94.33333333333333</ele><time>2026-04-19T13:40:23.225Z</time></trkpt><trkpt lat="45.50847" lon="13.716985"><ele>92.66666666666666</ele><time>2026-04-19T13:40:24.225Z</time></trkpt><trkpt lat="45.50857" lon="13.71715"><ele>91.0</ele><time>2026-04-19T13:40:25.224Z</time></trkpt><trkpt lat="45.5086633" lon="13.71732"><ele>91.0</ele><time>2026-04-19T13:40:26.224Z</time></trkpt><trkpt lat="45.5087383" lon="13.7175083"><ele>91.0</ele><time>2026-04-19T13:40:27.223Z</time></trkpt><trkpt lat="45.5087983" lon="13.717705"><ele>91.0</ele><time>2026-04-19T13:40:28.225Z</time></trkpt><trkpt lat="45.5088617" lon="13.7179033"><ele>92.66666666666666</ele><time>2026-04-19T13:40:29.223Z</time></trkpt><trkpt lat="45.5089367" lon="13.7180917"><ele>94.33333333333333</ele><time>2026-04-19T13:40:30.222Z</time></trkpt><trkpt lat="45.5090283" lon="13.7182683"><ele>96.0</ele><time>2026-04-19T13:40:31.222Z</time></trkpt><trkpt lat="45.509135" lon="13.7184283"><ele>90.33333333333333</ele><time>2026-04-19T13:40:32.222Z</time></trkpt><trkpt lat="45.509255" lon="13.7185733"><ele>84.66666666666666</ele><time>2026-04-19T13:40:33.223Z</time></trkpt><trkpt lat="45.50939" lon="13.7187"><ele>79.0</ele><time>2026-04-19T13:40:34.222Z</time></trkpt><trkpt lat="45.5095383" lon="13.7188117"><ele>82.0</ele><time>2026-04-19T13:40:35.224Z</time></trkpt><trkpt lat="45.5096883" lon="13.718915"><ele>85.0</ele><time>2026-04-19T13:40:36.22Z</time></trkpt><trkpt lat="45.509835" lon="13.719025"><ele>88.0</ele><time>2026-04-19T13:40:37.221Z</time></trkpt><trkpt lat="45.509975" lon="13.7191467"><ele>88.0</ele><time>2026-04-19T13:40:38.223Z</time></trkpt><trkpt lat="45.5101017" lon="13.7192933"><ele>88.0</ele><time>2026-04-19T13:40:39.223Z</time></trkpt><trkpt lat="45.5102117" lon="13.7194667"><ele>88.0</ele><time>2026-04-19T13:40:40.225Z</time></trkpt><trkpt lat="45.5103133" lon="13.7196467"><ele>87.0</ele><time>2026-04-19T13:40:41.224Z</time></trkpt><trkpt lat="45.5104117" lon="13.7198417"><ele>86.0</ele><time>2026-04-19T13:40:42.224Z</time></trkpt><trkpt lat="45.5105083" lon="13.7200467"><ele>85.0</ele><time>2026-04-19T13:40:43.221Z</time></trkpt><trkpt lat="45.51061" lon="13.7202517"><ele>83.66666666666666</ele><time>2026-04-19T13:40:44.223Z</time></trkpt><trkpt lat="45.5107217" lon="13.7204433"><ele>82.33333333333333</ele><time>2026-04-19T13:40:45.225Z</time></trkpt><trkpt lat="45.510845" lon="13.7206183"><ele>81.0</ele><time>2026-04-19T13:40:46.22Z</time></trkpt><trkpt lat="45.5109767" lon="13.7207733"><ele>81.0</ele><time>2026-04-19T13:40:47.222Z</time></trkpt><trkpt lat="45.5111233" lon="13.7209033"><ele>81.0</ele><time>2026-04-19T13:40:48.224Z</time></trkpt><trkpt lat="45.5112767" lon="13.7210133"><ele>81.0</ele><time>2026-04-19T13:40:49.224Z</time></trkpt><trkpt lat="45.5114367" lon="13.72111"><ele>74.66666666666667</ele><time>2026-04-19T13:40:50.225Z</time></trkpt><trkpt lat="45.5116017" lon="13.7211883"><ele>68.33333333333334</ele><time>2026-04-19T13:40:51.225Z</time></trkpt><trkpt lat="45.5117783" lon="13.7212533"><ele>62.0</ele><time>2026-04-19T13:40:52.224Z</time></trkpt><trkpt lat="45.5119617" lon="13.7213033"><ele>61.333333333333336</ele><time>2026-04-19T13:40:53.223Z</time></trkpt><trkpt lat="45.512145" lon="13.7213433"><ele>60.66666666666667</ele><time>2026-04-19T13:40:54.223Z</time></trkpt><trkpt lat="45.5123283" lon="13.7213883"><ele>60.0</ele><time>2026-04-19T13:40:55.224Z</time></trkpt><trkpt lat="45.51251" lon="13.7214467"><ele>60.0</ele><time>2026-04-19T13:40:56.223Z</time></trkpt><trkpt lat="45.51269" lon="13.721525"><ele>60.0</ele><time>2026-04-19T13:40:57.223Z</time></trkpt><trkpt lat="45.5128633" lon="13.7216233"><ele>60.0</ele><time>2026-04-19T13:40:58.223Z</time></trkpt><trkpt lat="45.513035" lon="13.72173"><ele>62.66666666666667</ele><time>2026-04-19T13:40:59.223Z</time></trkpt><trkpt lat="45.513205" lon="13.7218417"><ele>65.33333333333334</ele><time>2026-04-19T13:41:00.223Z</time></trkpt><trkpt lat="45.5133783" lon="13.7219583"><ele>68.0</ele><time>2026-04-19T13:41:01.228Z</time></trkpt><trkpt lat="45.5135517" lon="13.7220833"><ele>62.0</ele><time>2026-04-19T13:41:02.223Z</time></trkpt><trkpt lat="45.513735" lon="13.7222067"><ele>56.0</ele><time>2026-04-19T13:41:03.226Z</time></trkpt><trkpt lat="45.5139183" lon="13.7223283"><ele>50.0</ele><time>2026-04-19T13:41:04.224Z</time></trkpt><trkpt lat="45.5141017" lon="13.7224533"><ele>50.0</ele><time>2026-04-19T13:41:05.229Z</time></trkpt><trkpt lat="45.5142817" lon="13.722575"><ele>50.0</ele><time>2026-04-19T13:41:06.223Z</time></trkpt><trkpt lat="45.5144617" lon="13.7226967"><ele>50.0</ele><time>2026-04-19T13:41:07.224Z</time></trkpt><trkpt lat="45.5146467" lon="13.7228233"><ele>46.66666666666667</ele><time>2026-04-19T13:41:08.223Z</time></trkpt><trkpt lat="45.5148333" lon="13.7229533"><ele>43.333333333333336</ele><time>2026-04-19T13:41:09.225Z</time></trkpt><trkpt lat="45.515025" lon="13.7230783"><ele>40.0</ele><time>2026-04-19T13:41:10.225Z</time></trkpt><trkpt lat="45.5152217" lon="13.723195"><ele>40.66666666666667</ele><time>2026-04-19T13:41:11.223Z</time></trkpt><trkpt lat="45.51542" lon="13.72331"><ele>41.333333333333336</ele><time>2026-04-19T13:41:12.224Z</time></trkpt><trkpt lat="45.5156217" lon="13.7234233"><ele>42.0</ele><time>2026-04-19T13:41:13.227Z</time></trkpt><trkpt lat="45.515825" lon="13.7235383"><ele>39.0</ele><time>2026-04-19T13:41:14.222Z</time></trkpt><trkpt lat="45.5160283" lon="13.7236567"><ele>36.0</ele><time>2026-04-19T13:41:15.223Z</time></trkpt><trkpt lat="45.5162317" lon="13.7237767"><ele>33.0</ele><time>2026-04-19T13:41:16.223Z</time></trkpt><trkpt lat="45.516435" lon="13.7238867"><ele>32.0</ele><time>2026-04-19T13:41:17.225Z</time></trkpt><trkpt lat="45.516635" lon="13.72399"><ele>31.0</ele><time>2026-04-19T13:41:18.225Z</time></trkpt><trkpt lat="45.5168333" lon="13.7240883"><ele>30.0</ele><time>2026-04-19T13:41:19.224Z</time></trkpt><trkpt lat="45.5170183" lon="13.7241967"><ele>29.666666666666664</ele><time>2026-04-19T13:41:20.222Z</time></trkpt><trkpt lat="45.51719" lon="13.72429"><ele>29.333333333333332</ele><time>2026-04-19T13:41:21.226Z</time></trkpt><trkpt lat="45.517345" lon="13.7243783"><ele>29.0</ele><time>2026-04-19T13:41:22.222Z</time></trkpt><trkpt lat="45.5174933" lon="13.72446"><ele>29.0</ele><time>2026-04-19T13:41:23.222Z</time></trkpt><trkpt lat="45.5176367" lon="13.7245367"><ele>29.0</ele><time>2026-04-19T13:41:24.224Z</time></trkpt><trkpt lat="45.517775" lon="13.7246117"><ele>29.0</ele><time>2026-04-19T13:41:25.222Z</time></trkpt><trkpt lat="45.5179117" lon="13.724685"><ele>29.0</ele><time>2026-04-19T13:41:26.223Z</time></trkpt><trkpt lat="45.51805" lon="13.7247617"><ele>27.333333333333332</ele><time>2026-04-19T13:41:27.223Z</time></trkpt><trkpt lat="45.51819" lon="13.7248417"><ele>25.666666666666664</ele><time>2026-04-19T13:41:28.222Z</time></trkpt><trkpt lat="45.5183333" lon="13.7249167"><ele>24.0</ele><time>2026-04-19T13:41:29.222Z</time></trkpt><trkpt lat="45.518475" lon="13.724995"><ele>24.0</ele><time>2026-04-19T13:41:30.223Z</time></trkpt><trkpt lat="45.5186133" lon="13.725075"><ele>24.0</ele><time>2026-04-19T13:41:31.225Z</time></trkpt><trkpt lat="45.51875" lon="13.725155"><ele>24.0</ele><time>2026-04-19T13:41:32.226Z</time></trkpt><trkpt lat="45.5188867" lon="13.7252367"><ele>24.0</ele><time>2026-04-19T13:41:33.221Z</time></trkpt><trkpt lat="45.5190233" lon="13.7253183"><ele>23.666666666666668</ele><time>2026-04-19T13:41:34.221Z</time></trkpt><trkpt lat="45.51916" lon="13.725405"><ele>23.333333333333336</ele><time>2026-04-19T13:41:35.223Z</time></trkpt><trkpt lat="45.5192967" lon="13.7254933"><ele>23.0</ele><time>2026-04-19T13:41:36.225Z</time></trkpt><trkpt lat="45.5194367" lon="13.725585"><ele>24.333333333333336</ele><time>2026-04-19T13:41:37.221Z</time></trkpt><trkpt lat="45.51958" lon="13.725685"><ele>25.666666666666668</ele><time>2026-04-19T13:41:38.223Z</time></trkpt><trkpt lat="45.51973" lon="13.7257983"><ele>27.0</ele><time>2026-04-19T13:41:39.223Z</time></trkpt><trkpt lat="45.5198833" lon="13.7259167"><ele>27.0</ele><time>2026-04-19T13:41:40.222Z</time></trkpt><trkpt lat="45.5200333" lon="13.726045"><ele>27.0</ele><time>2026-04-19T13:41:41.218Z</time></trkpt><trkpt lat="45.520185" lon="13.7261733"><ele>27.0</ele><time>2026-04-19T13:41:42.222Z</time></trkpt><trkpt lat="45.52033" lon="13.7263067"><ele>26.666666666666664</ele><time>2026-04-19T13:41:43.222Z</time></trkpt><trkpt lat="45.52047" lon="13.7264467"><ele>26.333333333333332</ele><time>2026-04-19T13:41:44.223Z</time></trkpt><trkpt lat="45.5206067" lon="13.7265883"><ele>26.0</ele><time>2026-04-19T13:41:45.225Z</time></trkpt><trkpt lat="45.52074" lon="13.72673"><ele>26.0</ele><time>2026-04-19T13:41:46.221Z</time></trkpt><trkpt lat="45.5208667" lon="13.7268717"><ele>26.0</ele><time>2026-04-19T13:41:47.221Z</time></trkpt><trkpt lat="45.52099" lon="13.7270183"><ele>26.0</ele><time>2026-04-19T13:41:48.224Z</time></trkpt><trkpt lat="45.5211083" lon="13.7271633"><ele>25.0</ele><time>2026-04-19T13:41:49.222Z</time></trkpt><trkpt lat="45.5212217" lon="13.727315"><ele>24.0</ele><time>2026-04-19T13:41:50.222Z</time></trkpt><trkpt lat="45.521335" lon="13.7274667"><ele>23.0</ele><time>2026-04-19T13:41:51.225Z</time></trkpt><trkpt lat="45.52145" lon="13.7276283"><ele>21.0</ele><time>2026-04-19T13:41:52.223Z</time></trkpt><trkpt lat="45.521565" lon="13.7278"><ele>19.0</ele><time>2026-04-19T13:41:53.222Z</time></trkpt><trkpt lat="45.5216833" lon="13.72798"><ele>17.0</ele><time>2026-04-19T13:41:54.226Z</time></trkpt><trkpt lat="45.5218033" lon="13.7281733"><ele>17.0</ele><time>2026-04-19T13:41:55.222Z</time></trkpt><trkpt lat="45.5219267" lon="13.7283733"><ele>17.0</ele><time>2026-04-19T13:41:56.223Z</time></trkpt><trkpt lat="45.5220533" lon="13.7285817"><ele>17.0</ele><time>2026-04-19T13:41:57.225Z</time></trkpt><trkpt lat="45.5221717" lon="13.728815"><ele>16.333333333333336</ele><time>2026-04-19T13:41:58.225Z</time></trkpt><trkpt lat="45.5223083" lon="13.7290383"><ele>15.666666666666668</ele><time>2026-04-19T13:41:59.223Z</time></trkpt><trkpt lat="45.522445" lon="13.7292633"><ele>15.0</ele><time>2026-04-19T13:42:00.222Z</time></trkpt><trkpt lat="45.5225917" lon="13.7294717"><ele>15.0</ele><time>2026-04-19T13:42:01.224Z</time></trkpt><trkpt lat="45.5227083" lon="13.7297"><ele>15.0</ele><time>2026-04-19T13:42:02.224Z</time></trkpt><trkpt lat="45.5228233" lon="13.7298983"><ele>15.0</ele><time>2026-04-19T13:42:03.224Z</time></trkpt><trkpt lat="45.5229333" lon="13.7300667"><ele>14.5</ele><time>2026-04-19T13:42:04.221Z</time></trkpt><trkpt lat="45.5230367" lon="13.7302167"><ele>14.0</ele><time>2026-04-19T13:42:05.224Z</time></trkpt><trkpt lat="45.5231317" lon="13.730365"><ele>13.5</ele><time>2026-04-19T13:42:06.219Z</time></trkpt><trkpt lat="45.52322" lon="13.730515"><ele>13.0</ele><time>2026-04-19T13:42:07.221Z</time></trkpt><trkpt lat="45.52331" lon="13.7306617"><ele>13.0</ele><time>2026-04-19T13:42:08.219Z</time></trkpt><trkpt lat="45.5234" lon="13.7308067"><ele>13.0</ele><time>2026-04-19T13:42:09.223Z</time></trkpt><trkpt lat="45.52349" lon="13.73095"><ele>13.0</ele><time>2026-04-19T13:42:10.22Z</time></trkpt><trkpt lat="45.5235767" lon="13.7310933"><ele>13.0</ele><time>2026-04-19T13:42:11.221Z</time></trkpt><trkpt lat="45.5236633" lon="13.731235"><ele>12.75</ele><time>2026-04-19T13:42:12.223Z</time></trkpt><trkpt lat="45.523745" lon="13.7313717"><ele>12.5</ele><time>2026-04-19T13:42:13.222Z</time></trkpt><trkpt lat="45.5238267" lon="13.7315017"><ele>12.25</ele><time>2026-04-19T13:42:14.222Z</time></trkpt><trkpt lat="45.523905" lon="13.7316267"><ele>12.0</ele><time>2026-04-19T13:42:15.225Z</time></trkpt><trkpt lat="45.5239833" lon="13.7317533"><ele>12.0</ele><time>2026-04-19T13:42:16.225Z</time></trkpt><trkpt lat="45.524065" lon="13.73188"><ele>12.0</ele><time>2026-04-19T13:42:17.221Z</time></trkpt><trkpt lat="45.5241483" lon="13.7320067"><ele>12.0</ele><time>2026-04-19T13:42:18.222Z</time></trkpt><trkpt lat="45.5242333" lon="13.73213"><ele>12.0</ele><time>2026-04-19T13:42:19.225Z</time></trkpt><trkpt lat="45.52432" lon="13.7322517"><ele>11.5</ele><time>2026-04-19T13:42:20.223Z</time></trkpt><trkpt lat="45.5244133" lon="13.7323717"><ele>11.0</ele><time>2026-04-19T13:42:21.225Z</time></trkpt><trkpt lat="45.524505" lon="13.7324933"><ele>10.5</ele><time>2026-04-19T13:42:22.224Z</time></trkpt><trkpt lat="45.5245983" lon="13.73261"><ele>10.0</ele><time>2026-04-19T13:42:23.222Z</time></trkpt><trkpt lat="45.5246883" lon="13.7327217"><ele>10.5</ele><time>2026-04-19T13:42:24.221Z</time></trkpt><trkpt lat="45.5247817" lon="13.73283"><ele>11.0</ele><time>2026-04-19T13:42:25.223Z</time></trkpt><trkpt lat="45.5248767" lon="13.732935"><ele>11.5</ele><time>2026-04-19T13:42:26.222Z</time></trkpt><trkpt lat="45.52497" lon="13.7330333"><ele>12.0</ele><time>2026-04-19T13:42:27.222Z</time></trkpt><trkpt lat="45.5250633" lon="13.7331333"><ele>12.0</ele><time>2026-04-19T13:42:28.22Z</time></trkpt><trkpt lat="45.5251567" lon="13.73323"><ele>12.0</ele><time>2026-04-19T13:42:29.223Z</time></trkpt><trkpt lat="45.5252533" lon="13.7333283"><ele>12.0</ele><time>2026-04-19T13:42:30.221Z</time></trkpt><trkpt lat="45.52535" lon="13.7334217"><ele>12.0</ele><time>2026-04-19T13:42:31.221Z</time></trkpt><trkpt lat="45.5254517" lon="13.7335067"><ele>11.25</ele><time>2026-04-19T13:42:32.222Z</time></trkpt><trkpt lat="45.5255533" lon="13.7335883"><ele>10.5</ele><time>2026-04-19T13:42:33.222Z</time></trkpt><trkpt lat="45.5256517" lon="13.7336767"><ele>9.75</ele><time>2026-04-19T13:42:34.222Z</time></trkpt><trkpt lat="45.525755" lon="13.7337617"><ele>9.0</ele><time>2026-04-19T13:42:35.22Z</time></trkpt><trkpt lat="45.5258517" lon="13.7338467"><ele>9.0</ele><time>2026-04-19T13:42:36.222Z</time></trkpt><trkpt lat="45.5259433" lon="13.7339317"><ele>9.0</ele><time>2026-04-19T13:42:37.22Z</time></trkpt><trkpt lat="45.5260317" lon="13.7340067"><ele>9.0</ele><time>2026-04-19T13:42:38.221Z</time></trkpt><trkpt lat="45.52612" lon="13.7340717"><ele>9.0</ele><time>2026-04-19T13:42:39.224Z</time></trkpt><trkpt lat="45.5262067" lon="13.7341317"><ele>9.0</ele><time>2026-04-19T13:42:40.219Z</time></trkpt><trkpt lat="45.5262917" lon="13.7341933"><ele>9.2</ele><time>2026-04-19T13:42:41.221Z</time></trkpt><trkpt lat="45.52638" lon="13.7342467"><ele>9.4</ele><time>2026-04-19T13:42:42.222Z</time></trkpt><trkpt lat="45.52647" lon="13.7343017"><ele>9.6</ele><time>2026-04-19T13:42:43.222Z</time></trkpt><trkpt lat="45.526565" lon="13.73436"><ele>9.8</ele><time>2026-04-19T13:42:44.222Z</time></trkpt><trkpt lat="45.5266617" lon="13.734415"><ele>10.0</ele><time>2026-04-19T13:42:45.225Z</time></trkpt><trkpt lat="45.5267567" lon="13.7344667"><ele>10.0</ele><time>2026-04-19T13:42:46.223Z</time></trkpt><trkpt lat="45.52685" lon="13.734515"><ele>10.0</ele><time>2026-04-19T13:42:47.221Z</time></trkpt><trkpt lat="45.5269383" lon="13.73456"><ele>10.0</ele><time>2026-04-19T13:42:48.222Z</time></trkpt><trkpt lat="45.5270233" lon="13.73461"><ele>10.0</ele><time>2026-04-19T13:42:49.223Z</time></trkpt><trkpt lat="45.5271067" lon="13.7346533"><ele>10.0</ele><time>2026-04-19T13:42:50.223Z</time></trkpt><trkpt lat="45.52719" lon="13.7346917"><ele>10.0</ele><time>2026-04-19T13:42:51.225Z</time></trkpt><trkpt lat="45.527275" lon="13.7347267"><ele>10.0</ele><time>2026-04-19T13:42:52.22Z</time></trkpt><trkpt lat="45.5273633" lon="13.7347583"><ele>10.0</ele><time>2026-04-19T13:42:53.224Z</time></trkpt><trkpt lat="45.5274533" lon="13.7347917"><ele>10.0</ele><time>2026-04-19T13:42:54.222Z</time></trkpt><trkpt lat="45.52754" lon="13.73483"><ele>10.0</ele><time>2026-04-19T13:42:55.221Z</time></trkpt><trkpt lat="45.5276283" lon="13.73487"><ele>10.0</ele><time>2026-04-19T13:42:56.223Z</time></trkpt><trkpt lat="45.527725" lon="13.7349083"><ele>10.0</ele><time>2026-04-19T13:42:57.222Z</time></trkpt><trkpt lat="45.5278233" lon="13.7349483"><ele>10.0</ele><time>2026-04-19T13:42:58.226Z</time></trkpt><trkpt lat="45.5279267" lon="13.7349933"><ele>10.0</ele><time>2026-04-19T13:42:59.225Z</time></trkpt><trkpt lat="45.5280283" lon="13.735035"><ele>10.0</ele><time>2026-04-19T13:43:00.222Z</time></trkpt><trkpt lat="45.52813" lon="13.7350733"><ele>10.0</ele><time>2026-04-19T13:43:01.223Z</time></trkpt><trkpt lat="45.5282317" lon="13.7351083"><ele>10.0</ele><time>2026-04-19T13:43:02.221Z</time></trkpt><trkpt lat="45.5283333" lon="13.735145"><ele>10.0</ele><time>2026-04-19T13:43:03.222Z</time></trkpt><trkpt lat="45.52845" lon="13.7351833"><ele>10.0</ele><time>2026-04-19T13:43:04.221Z</time></trkpt><trkpt lat="45.52858" lon="13.7352233"><ele>8.75</ele><time>2026-04-19T13:43:05.222Z</time></trkpt><trkpt lat="45.52872" lon="13.7352467"><ele>7.5</ele><time>2026-04-19T13:43:06.221Z</time></trkpt><trkpt lat="45.5288567" lon="13.73526"><ele>6.25</ele><time>2026-04-19T13:43:07.221Z</time></trkpt><trkpt lat="45.5289833" lon="13.7352633"><ele>5.0</ele><time>2026-04-19T13:43:08.222Z</time></trkpt><trkpt lat="45.529095" lon="13.7352567"><ele>5.0</ele><time>2026-04-19T13:43:09.223Z</time></trkpt><trkpt lat="45.5291933" lon="13.7352533"><ele>5.0</ele><time>2026-04-19T13:43:10.223Z</time></trkpt><trkpt lat="45.5292817" lon="13.7352583"><ele>5.0</ele><time>2026-04-19T13:43:11.222Z</time></trkpt><trkpt lat="45.529365" lon="13.7352583"><ele>5.0</ele><time>2026-04-19T13:43:12.223Z</time></trkpt><trkpt lat="45.529445" lon="13.7352517"><ele>5.0</ele><time>2026-04-19T13:43:13.222Z</time></trkpt><trkpt lat="45.5295117" lon="13.7352533"><ele>5.0</ele><time>2026-04-19T13:43:14.221Z</time></trkpt><trkpt lat="45.5295833" lon="13.73526"><ele>4.8</ele><time>2026-04-19T13:43:16.224Z</time></trkpt><trkpt lat="45.5296717" lon="13.73528"><ele>4.6</ele><time>2026-04-19T13:43:19.222Z</time></trkpt><trkpt lat="45.5298017" lon="13.7353117"><ele>4.4</ele><time>2026-04-19T13:43:21.222Z</time></trkpt><trkpt lat="45.52987" lon="13.7352917"><ele>4.2</ele><time>2026-04-19T13:43:22.222Z</time></trkpt><trkpt lat="45.529965" lon="13.7352533"><ele>4.0</ele><time>2026-04-19T13:43:23.22Z</time></trkpt><trkpt lat="45.53007" lon="13.7352333"><ele>4.0</ele><time>2026-04-19T13:43:24.22Z</time></trkpt><trkpt lat="45.5301733" lon="13.7352317"><ele>4.0</ele><time>2026-04-19T13:43:25.222Z</time></trkpt><trkpt lat="45.5302767" lon="13.7352317"><ele>4.0</ele><time>2026-04-19T13:43:26.222Z</time></trkpt><trkpt lat="45.530385" lon="13.7352333"><ele>4.0</ele><time>2026-04-19T13:43:27.227Z</time></trkpt><trkpt lat="45.53052" lon="13.7352433"><ele>4.0</ele><time>2026-04-19T13:43:28.224Z</time></trkpt><trkpt lat="45.5306633" lon="13.7352667"><ele>4.0</ele><time>2026-04-19T13:43:29.224Z</time></trkpt><trkpt lat="45.5307967" lon="13.7352617"><ele>4.0</ele><time>2026-04-19T13:43:30.225Z</time></trkpt><trkpt lat="45.5309217" lon="13.7352783"><ele>4.0</ele><time>2026-04-19T13:43:31.226Z</time></trkpt><trkpt lat="45.531035" lon="13.7352817"><ele>4.0</ele><time>2026-04-19T13:43:32.226Z</time></trkpt><trkpt lat="45.5311417" lon="13.7352767"><ele>4.0</ele><time>2026-04-19T13:43:33.225Z</time></trkpt><trkpt lat="45.5312533" lon="13.7352767"><ele>4.0</ele><time>2026-04-19T13:43:34.222Z</time></trkpt><trkpt lat="45.5313667" lon="13.735275"><ele>4.0</ele><time>2026-04-19T13:43:35.221Z</time></trkpt><trkpt lat="45.531485" lon="13.7352717"><ele>3.5</ele><time>2026-04-19T13:43:36.223Z</time></trkpt><trkpt lat="45.531605" lon="13.7352683"><ele>3.0</ele><time>2026-04-19T13:43:37.221Z</time></trkpt><trkpt lat="45.531725" lon="13.7352617"><ele>2.5</ele><time>2026-04-19T13:43:38.222Z</time></trkpt><trkpt lat="45.5318433" lon="13.7352583"><ele>2.0</ele><time>2026-04-19T13:43:39.225Z</time></trkpt><trkpt lat="45.5319567" lon="13.73524"><ele>2.0</ele><time>2026-04-19T13:43:40.223Z</time></trkpt><trkpt lat="45.5320667" lon="13.735235"><ele>2.0</ele><time>2026-04-19T13:43:41.223Z</time></trkpt><trkpt lat="45.532175" lon="13.735235"><ele>2.0</ele><time>2026-04-19T13:43:42.221Z</time></trkpt><trkpt lat="45.53228" lon="13.735235"><ele>2.0</ele><time>2026-04-19T13:43:43.221Z</time></trkpt><trkpt lat="45.5323783" lon="13.735235"><ele>2.0</ele><time>2026-04-19T13:43:44.218Z</time></trkpt><trkpt lat="45.5324767" lon="13.7352367"><ele>1.9999999999999998</ele><time>2026-04-19T13:43:45.22Z</time></trkpt><trkpt lat="45.5325683" lon="13.735235"><ele>2.0</ele><time>2026-04-19T13:43:46.222Z</time></trkpt><trkpt lat="45.53265" lon="13.7352367"><ele>2.0</ele><time>2026-04-19T13:43:47.222Z</time></trkpt><trkpt lat="45.5327183" lon="13.7352433"><ele>2.0</ele><time>2026-04-19T13:43:48.223Z</time></trkpt><trkpt lat="45.532795" lon="13.7352367"><ele>1.9999999999999998</ele><time>2026-04-19T13:43:50.222Z</time></trkpt><trkpt lat="45.5328767" lon="13.7352317"><ele>2.0</ele><time>2026-04-19T13:43:54.222Z</time></trkpt><trkpt lat="45.5329733" lon="13.73522"><ele>2.2</ele><time>2026-04-19T13:43:56.227Z</time></trkpt><trkpt lat="45.5330967" lon="13.73522"><ele>2.4000000000000004</ele><time>2026-04-19T13:43:58.223Z</time></trkpt><trkpt lat="45.53318" lon="13.7352067"><ele>2.5999999999999996</ele><time>2026-04-19T13:43:59.223Z</time></trkpt><trkpt lat="45.5332783" lon="13.7351983"><ele>2.8</ele><time>2026-04-19T13:44:00.219Z</time></trkpt><trkpt lat="45.5333917" lon="13.7351917"><ele>3.0</ele><time>2026-04-19T13:44:01.224Z</time></trkpt><trkpt lat="45.5335017" lon="13.7351967"><ele>3.0</ele><time>2026-04-19T13:44:02.221Z</time></trkpt><trkpt lat="45.5336017" lon="13.7352117"><ele>3.0</ele><time>2026-04-19T13:44:03.22Z</time></trkpt><trkpt lat="45.5336983" lon="13.73523"><ele>3.0</ele><time>2026-04-19T13:44:04.221Z</time></trkpt><trkpt lat="45.5337867" lon="13.7352433"><ele>3.0</ele><time>2026-04-19T13:44:05.221Z</time></trkpt><trkpt lat="45.5338683" lon="13.7352533"><ele>3.0</ele><time>2026-04-19T13:44:06.219Z</time></trkpt><trkpt lat="45.5339367" lon="13.73526"><ele>3.0</ele><time>2026-04-19T13:44:07.218Z</time></trkpt><trkpt lat="45.5340333" lon="13.735265"><ele>2.8571428571428568</ele><time>2026-04-19T13:44:09.225Z</time></trkpt><trkpt lat="45.5341033" lon="13.7352683"><ele>2.7142857142857144</ele><time>2026-04-19T13:44:11.223Z</time></trkpt><trkpt lat="45.5341733" lon="13.73527"><ele>2.571428571428571</ele><time>2026-04-19T13:44:13.225Z</time></trkpt><trkpt lat="45.534245" lon="13.73527"><ele>2.4285714285714284</ele><time>2026-04-19T13:44:15.227Z</time></trkpt><trkpt lat="45.5343083" lon="13.7352717"><ele>2.2857142857142856</ele><time>2026-04-19T13:44:17.222Z</time></trkpt><trkpt lat="45.5343717" lon="13.73528"><ele>2.142857142857143</ele><time>2026-04-19T13:44:19.214Z</time></trkpt><trkpt lat="45.5344433" lon="13.73529"><ele>2.0</ele><time>2026-04-19T13:44:21.221Z</time></trkpt><trkpt lat="45.534535" lon="13.735345"><ele>2.1666666666666665</ele><time>2026-04-19T13:44:23.225Z</time></trkpt><trkpt lat="45.5346317" lon="13.7354667"><ele>2.333333333333333</ele><time>2026-04-19T13:44:25.221Z</time></trkpt><trkpt lat="45.5346833" lon="13.7355383"><ele>2.5</ele><time>2026-04-19T13:44:26.221Z</time></trkpt><trkpt lat="45.5347433" lon="13.7356117"><ele>2.6666666666666665</ele><time>2026-04-19T13:44:27.221Z</time></trkpt><trkpt lat="45.53481" lon="13.73568"><ele>2.8333333333333335</ele><time>2026-04-19T13:44:28.22Z</time></trkpt><trkpt lat="45.5348817" lon="13.7357317"><ele>3.0</ele><time>2026-04-19T13:44:29.221Z</time></trkpt><trkpt lat="45.5349517" lon="13.73579"><ele>3.0</ele><time>2026-04-19T13:44:30.223Z</time></trkpt><trkpt lat="45.535035" lon="13.73586"><ele>3.0</ele><time>2026-04-19T13:44:31.223Z</time></trkpt><trkpt lat="45.5351317" lon="13.7359417"><ele>3.0</ele><time>2026-04-19T13:44:32.223Z</time></trkpt><trkpt lat="45.535235" lon="13.7360383"><ele>3.0</ele><time>2026-04-19T13:44:33.23Z</time></trkpt><trkpt lat="45.535355" lon="13.73615"><ele>3.0</ele><time>2026-04-19T13:44:34.226Z</time></trkpt><trkpt lat="45.53548" lon="13.7362683"><ele>3.0</ele><time>2026-04-19T13:44:35.223Z</time></trkpt><trkpt lat="45.5356033" lon="13.736385"><ele>3.0</ele><time>2026-04-19T13:44:36.224Z</time></trkpt><trkpt lat="45.5357217" lon="13.7364983"><ele>3.0</ele><time>2026-04-19T13:44:37.225Z</time></trkpt><trkpt lat="45.535835" lon="13.736595"><ele>3.0</ele><time>2026-04-19T13:44:38.224Z</time></trkpt><trkpt lat="45.53593" lon="13.7366983"><ele>3.0</ele><time>2026-04-19T13:44:39.23Z</time></trkpt><trkpt lat="45.53602" lon="13.7367817"><ele>3.0</ele><time>2026-04-19T13:44:40.224Z</time></trkpt><trkpt lat="45.536105" lon="13.73686"><ele>3.0</ele><time>2026-04-19T13:44:41.22Z</time></trkpt><trkpt lat="45.5361817" lon="13.736935"><ele>3.0</ele><time>2026-04-19T13:44:42.222Z</time></trkpt><trkpt lat="45.5362433" lon="13.7370083"><ele>2.8</ele><time>2026-04-19T13:44:43.226Z</time></trkpt><trkpt lat="45.5362933" lon="13.7370783"><ele>2.5999999999999996</ele><time>2026-04-19T13:44:45.224Z</time></trkpt><trkpt lat="45.53636" lon="13.7371783"><ele>2.4000000000000004</ele><time>2026-04-19T13:44:49.221Z</time></trkpt><trkpt lat="45.5364217" lon="13.7372833"><ele>2.2</ele><time>2026-04-19T13:44:51.222Z</time></trkpt><trkpt lat="45.536475" lon="13.7373933"><ele>2.0</ele><time>2026-04-19T13:44:53.219Z</time></trkpt><trkpt lat="45.5365317" lon="13.7375233"><ele>2.0</ele><time>2026-04-19T13:44:55.221Z</time></trkpt><trkpt lat="45.536615" lon="13.7376733"><ele>2.0</ele><time>2026-04-19T13:44:57.222Z</time></trkpt><trkpt lat="45.5366633" lon="13.7377733"><ele>2.0</ele><time>2026-04-19T13:44:58.221Z</time></trkpt><trkpt lat="45.5366983" lon="13.7378817"><ele>2.0</ele><time>2026-04-19T13:44:59.221Z</time></trkpt><trkpt lat="45.53673" lon="13.73801"><ele>2.0</ele><time>2026-04-19T13:45:00.219Z</time></trkpt><trkpt lat="45.536765" lon="13.7381717"><ele>2.0</ele><time>2026-04-19T13:45:01.22Z</time></trkpt><trkpt lat="45.5367983" lon="13.7383383"><ele>2.0</ele><time>2026-04-19T13:45:02.221Z</time></trkpt><trkpt lat="45.5368367" lon="13.738515"><ele>2.0</ele><time>2026-04-19T13:45:03.218Z</time></trkpt><trkpt lat="45.5368867" lon="13.738715"><ele>2.0</ele><time>2026-04-19T13:45:04.221Z</time></trkpt><trkpt lat="45.53695" lon="13.7389433"><ele>3.0</ele><time>2026-04-19T13:45:05.222Z</time></trkpt><trkpt lat="45.537015" lon="13.73917"><ele>4.0</ele><time>2026-04-19T13:45:06.221Z</time></trkpt><trkpt lat="45.5370883" lon="13.7393967"><ele>5.0</ele><time>2026-04-19T13:45:07.221Z</time></trkpt><trkpt lat="45.5371717" lon="13.73965"><ele>5.333333333333334</ele><time>2026-04-19T13:45:08.224Z</time></trkpt><trkpt lat="45.537255" lon="13.73993"><ele>5.666666666666667</ele><time>2026-04-19T13:45:09.224Z</time></trkpt><trkpt lat="45.5373383" lon="13.7402217"><ele>6.0</ele><time>2026-04-19T13:45:10.223Z</time></trkpt><trkpt lat="45.53742" lon="13.7404983"><ele>6.0</ele><time>2026-04-19T13:45:11.223Z</time></trkpt><trkpt lat="45.5375017" lon="13.7407767"><ele>6.0</ele><time>2026-04-19T13:45:12.224Z</time></trkpt><trkpt lat="45.53759" lon="13.7410633"><ele>6.0</ele><time>2026-04-19T13:45:13.227Z</time></trkpt><trkpt lat="45.53768" lon="13.7413583"><ele>7.5</ele><time>2026-04-19T13:45:14.223Z</time></trkpt><trkpt lat="45.5377733" lon="13.7416617"><ele>9.0</ele><time>2026-04-19T13:45:15.227Z</time></trkpt><trkpt lat="45.5378683" lon="13.7419717"><ele>7.5</ele><time>2026-04-19T13:45:16.225Z</time></trkpt><trkpt lat="45.5379667" lon="13.7422867"><ele>6.0</ele><time>2026-04-19T13:45:17.221Z</time></trkpt><trkpt lat="45.5380683" lon="13.7425967"><ele>8.0</ele><time>2026-04-19T13:45:18.224Z</time></trkpt><trkpt lat="45.5381767" lon="13.7429033"><ele>10.0</ele><time>2026-04-19T13:45:19.223Z</time></trkpt><trkpt lat="45.53829" lon="13.7432083"><ele>10.0</ele><time>2026-04-19T13:45:20.223Z</time></trkpt><trkpt lat="45.5384083" lon="13.7435067"><ele>10.0</ele><time>2026-04-19T13:45:21.226Z</time></trkpt><trkpt lat="45.5385267" lon="13.7438017"><ele>10.0</ele><time>2026-04-19T13:45:22.221Z</time></trkpt><trkpt lat="45.5386467" lon="13.7440983"><ele>10.0</ele><time>2026-04-19T13:45:23.223Z</time></trkpt><trkpt lat="45.53877" lon="13.7444"><ele>10.0</ele><time>2026-04-19T13:45:24.226Z</time></trkpt><trkpt lat="45.5388967" lon="13.7447017"><ele>10.0</ele><time>2026-04-19T13:45:25.223Z</time></trkpt><trkpt lat="45.5390217" lon="13.745005"><ele>11.0</ele><time>2026-04-19T13:45:26.224Z</time></trkpt><trkpt lat="45.53915" lon="13.7453033"><ele>12.0</ele><time>2026-04-19T13:45:27.227Z</time></trkpt><trkpt lat="45.5392817" lon="13.745595"><ele>12.0</ele><time>2026-04-19T13:45:28.223Z</time></trkpt><trkpt lat="45.5394183" lon="13.7458833"><ele>12.0</ele><time>2026-04-19T13:45:29.224Z</time></trkpt><trkpt lat="45.5395533" lon="13.746175"><ele>9.0</ele><time>2026-04-19T13:45:30.224Z</time></trkpt><trkpt lat="45.5396917" lon="13.7464633"><ele>6.0</ele><time>2026-04-19T13:45:31.225Z</time></trkpt><trkpt lat="45.5398283" lon="13.74675"><ele>8.0</ele><time>2026-04-19T13:45:32.226Z</time></trkpt><trkpt lat="45.5399633" lon="13.74704"><ele>10.0</ele><time>2026-04-19T13:45:33.227Z</time></trkpt><trkpt lat="45.5401017" lon="13.7473383"><ele>10.0</ele><time>2026-04-19T13:45:34.228Z</time></trkpt><trkpt lat="45.5402383" lon="13.74764"><ele>10.0</ele><time>2026-04-19T13:45:35.223Z</time></trkpt><trkpt lat="45.54037" lon="13.74795"><ele>8.5</ele><time>2026-04-19T13:45:36.225Z</time></trkpt><trkpt lat="45.5404967" lon="13.7482683"><ele>7.0</ele><time>2026-04-19T13:45:37.226Z</time></trkpt><trkpt lat="45.5406133" lon="13.7485933"><ele>7.0</ele><time>2026-04-19T13:45:38.222Z</time></trkpt><trkpt lat="45.54072" lon="13.7489183"><ele>7.0</ele><time>2026-04-19T13:45:39.224Z</time></trkpt><trkpt lat="45.5408133" lon="13.74924"><ele>9.0</ele><time>2026-04-19T13:45:40.224Z</time></trkpt><trkpt lat="45.5409067" lon="13.7495517"><ele>11.0</ele><time>2026-04-19T13:45:41.224Z</time></trkpt><trkpt lat="45.540995" lon="13.7498533"><ele>11.0</ele><time>2026-04-19T13:45:42.225Z</time></trkpt><trkpt lat="45.541085" lon="13.7501467"><ele>11.0</ele><time>2026-04-19T13:45:43.229Z</time></trkpt><trkpt lat="45.5411733" lon="13.75043"><ele>11.0</ele><time>2026-04-19T13:45:44.224Z</time></trkpt><trkpt lat="45.54125" lon="13.7507067"><ele>11.0</ele><time>2026-04-19T13:45:45.224Z</time></trkpt><trkpt lat="45.5413217" lon="13.7509767"><ele>11.0</ele><time>2026-04-19T13:45:46.226Z</time></trkpt><trkpt lat="45.5413833" lon="13.7512367"><ele>11.0</ele><time>2026-04-19T13:45:47.224Z</time></trkpt><trkpt lat="45.54144" lon="13.75149"><ele>11.0</ele><time>2026-04-19T13:45:48.223Z</time></trkpt><trkpt lat="45.5414983" lon="13.7517333"><ele>11.0</ele><time>2026-04-19T13:45:49.224Z</time></trkpt><trkpt lat="45.541555" lon="13.7519717"><ele>11.0</ele><time>2026-04-19T13:45:50.224Z</time></trkpt><trkpt lat="45.5416117" lon="13.75221"><ele>13.666666666666666</ele><time>2026-04-19T13:45:51.222Z</time></trkpt><trkpt lat="45.541665" lon="13.752445"><ele>16.333333333333332</ele><time>2026-04-19T13:45:52.222Z</time></trkpt><trkpt lat="45.5417183" lon="13.7526783"><ele>19.0</ele><time>2026-04-19T13:45:53.222Z</time></trkpt><trkpt lat="45.5417767" lon="13.7529133"><ele>19.666666666666664</ele><time>2026-04-19T13:45:54.231Z</time></trkpt><trkpt lat="45.5418433" lon="13.7531467"><ele>20.333333333333332</ele><time>2026-04-19T13:45:55.224Z</time></trkpt><trkpt lat="45.5419133" lon="13.753375"><ele>21.0</ele><time>2026-04-19T13:45:56.221Z</time></trkpt><trkpt lat="45.541985" lon="13.7535983"><ele>18.666666666666668</ele><time>2026-04-19T13:45:57.223Z</time></trkpt><trkpt lat="45.5420567" lon="13.7538167"><ele>16.333333333333336</ele><time>2026-04-19T13:45:58.22Z</time></trkpt><trkpt lat="45.542125" lon="13.754035"><ele>14.0</ele><time>2026-04-19T13:45:59.224Z</time></trkpt><trkpt lat="45.542195" lon="13.75426"><ele>14.666666666666668</ele><time>2026-04-19T13:46:00.223Z</time></trkpt><trkpt lat="45.5422617" lon="13.7544883"><ele>15.333333333333332</ele><time>2026-04-19T13:46:01.223Z</time></trkpt><trkpt lat="45.5423283" lon="13.75472"><ele>16.0</ele><time>2026-04-19T13:46:02.224Z</time></trkpt><trkpt lat="45.54239" lon="13.754955"><ele>16.0</ele><time>2026-04-19T13:46:03.223Z</time></trkpt><trkpt lat="45.5424533" lon="13.75519"><ele>16.0</ele><time>2026-04-19T13:46:04.229Z</time></trkpt><trkpt lat="45.5425133" lon="13.7554217"><ele>16.0</ele><time>2026-04-19T13:46:05.221Z</time></trkpt><trkpt lat="45.542575" lon="13.75565"><ele>18.333333333333332</ele><time>2026-04-19T13:46:06.223Z</time></trkpt><trkpt lat="45.5426317" lon="13.7558767"><ele>20.666666666666668</ele><time>2026-04-19T13:46:07.222Z</time></trkpt><trkpt lat="45.5426767" lon="13.7561083"><ele>23.0</ele><time>2026-04-19T13:46:08.224Z</time></trkpt><trkpt lat="45.54271" lon="13.75634"><ele>24.333333333333336</ele><time>2026-04-19T13:46:09.226Z</time></trkpt><trkpt lat="45.5427283" lon="13.7565617"><ele>25.666666666666668</ele><time>2026-04-19T13:46:10.224Z</time></trkpt><trkpt lat="45.542745" lon="13.7567733"><ele>27.0</ele><time>2026-04-19T13:46:11.223Z</time></trkpt><trkpt lat="45.5427733" lon="13.7569883"><ele>28.0</ele><time>2026-04-19T13:46:12.222Z</time></trkpt><trkpt lat="45.5428183" lon="13.757205"><ele>29.0</ele><time>2026-04-19T13:46:13.224Z</time></trkpt><trkpt lat="45.5428867" lon="13.7574117"><ele>30.0</ele><time>2026-04-19T13:46:14.228Z</time></trkpt><trkpt lat="45.54296" lon="13.757605"><ele>29.0</ele><time>2026-04-19T13:46:15.226Z</time></trkpt><trkpt lat="45.5430283" lon="13.7577717"><ele>28.0</ele><time>2026-04-19T13:46:16.221Z</time></trkpt><trkpt lat="45.543085" lon="13.7579217"><ele>27.0</ele><time>2026-04-19T13:46:17.218Z</time></trkpt><trkpt lat="45.5431367" lon="13.7580667"><ele>26.0</ele><time>2026-04-19T13:46:18.224Z</time></trkpt><trkpt lat="45.5431783" lon="13.7582167"><ele>26.0</ele><time>2026-04-19T13:46:19.221Z</time></trkpt><trkpt lat="45.5432083" lon="13.7583667"><ele>26.0</ele><time>2026-04-19T13:46:20.223Z</time></trkpt><trkpt lat="45.543225" lon="13.75852"><ele>26.0</ele><time>2026-04-19T13:46:21.226Z</time></trkpt><trkpt lat="45.5432367" lon="13.758685"><ele>26.0</ele><time>2026-04-19T13:46:22.222Z</time></trkpt><trkpt lat="45.5432583" lon="13.7588533"><ele>26.75</ele><time>2026-04-19T13:46:23.222Z</time></trkpt><trkpt lat="45.543285" lon="13.759025"><ele>27.5</ele><time>2026-04-19T13:46:24.229Z</time></trkpt><trkpt lat="45.5433" lon="13.7592"><ele>28.25</ele><time>2026-04-19T13:46:25.219Z</time></trkpt><trkpt lat="45.5433117" lon="13.759385"><ele>29.0</ele><time>2026-04-19T13:46:26.224Z</time></trkpt><trkpt lat="45.5433217" lon="13.7595783"><ele>29.75</ele><time>2026-04-19T13:46:27.222Z</time></trkpt><trkpt lat="45.543325" lon="13.75976"><ele>30.5</ele><time>2026-04-19T13:46:28.219Z</time></trkpt><trkpt lat="45.5433167" lon="13.7599333"><ele>31.25</ele><time>2026-04-19T13:46:29.221Z</time></trkpt><trkpt lat="45.543305" lon="13.7601183"><ele>32.0</ele><time>2026-04-19T13:46:30.221Z</time></trkpt><trkpt lat="45.5432883" lon="13.76031"><ele>32.25</ele><time>2026-04-19T13:46:31.223Z</time></trkpt><trkpt lat="45.5432633" lon="13.7605"><ele>32.5</ele><time>2026-04-19T13:46:32.224Z</time></trkpt><trkpt lat="45.5432317" lon="13.7606917"><ele>32.75</ele><time>2026-04-19T13:46:33.223Z</time></trkpt><trkpt lat="45.5432067" lon="13.76089"><ele>33.0</ele><time>2026-04-19T13:46:34.228Z</time></trkpt><trkpt lat="45.5431917" lon="13.7611033"><ele>33.75</ele><time>2026-04-19T13:46:35.223Z</time></trkpt><trkpt lat="45.5431817" lon="13.7613183"><ele>34.5</ele><time>2026-04-19T13:46:36.224Z</time></trkpt><trkpt lat="45.5431783" lon="13.76152"><ele>35.25</ele><time>2026-04-19T13:46:37.222Z</time></trkpt><trkpt lat="45.5431867" lon="13.7617217"><ele>36.0</ele><time>2026-04-19T13:46:38.224Z</time></trkpt><trkpt lat="45.543185" lon="13.76193"><ele>36.333333333333336</ele><time>2026-04-19T13:46:39.226Z</time></trkpt><trkpt lat="45.5431717" lon="13.7621417"><ele>36.66666666666667</ele><time>2026-04-19T13:46:40.223Z</time></trkpt><trkpt lat="45.5431417" lon="13.762355"><ele>37.0</ele><time>2026-04-19T13:46:41.221Z</time></trkpt><trkpt lat="45.543115" lon="13.7625633"><ele>37.0</ele><time>2026-04-19T13:46:42.221Z</time></trkpt><trkpt lat="45.5430983" lon="13.7627667"><ele>37.0</ele><time>2026-04-19T13:46:43.223Z</time></trkpt><trkpt lat="45.5430983" lon="13.7629683"><ele>37.0</ele><time>2026-04-19T13:46:44.227Z</time></trkpt><trkpt lat="45.5431217" lon="13.76316"><ele>37.0</ele><time>2026-04-19T13:46:45.223Z</time></trkpt><trkpt lat="45.5431717" lon="13.7633433"><ele>37.0</ele><time>2026-04-19T13:46:46.221Z</time></trkpt><trkpt lat="45.5432433" lon="13.7635267"><ele>37.0</ele><time>2026-04-19T13:46:47.221Z</time></trkpt><trkpt lat="45.5433217" lon="13.7637267"><ele>37.0</ele><time>2026-04-19T13:46:48.228Z</time></trkpt><trkpt lat="45.5433983" lon="13.7639333"><ele>36.66666666666667</ele><time>2026-04-19T13:46:49.224Z</time></trkpt><trkpt lat="45.54347" lon="13.7641333"><ele>36.333333333333336</ele><time>2026-04-19T13:46:50.226Z</time></trkpt><trkpt lat="45.5435417" lon="13.7643267"><ele>36.0</ele><time>2026-04-19T13:46:51.222Z</time></trkpt><trkpt lat="45.5436117" lon="13.7645017"><ele>36.0</ele><time>2026-04-19T13:46:52.221Z</time></trkpt><trkpt lat="45.5436733" lon="13.764655"><ele>36.0</ele><time>2026-04-19T13:46:53.222Z</time></trkpt><trkpt lat="45.5437183" lon="13.7647967"><ele>36.0</ele><time>2026-04-19T13:46:54.229Z</time></trkpt><trkpt lat="45.5437617" lon="13.7649317"><ele>36.0</ele><time>2026-04-19T13:46:55.224Z</time></trkpt><trkpt lat="45.54381" lon="13.7650517"><ele>36.0</ele><time>2026-04-19T13:46:56.222Z</time></trkpt><trkpt lat="45.5438567" lon="13.7651733"><ele>34.833333333333336</ele><time>2026-04-19T13:46:57.223Z</time></trkpt><trkpt lat="45.5439017" lon="13.76529"><ele>33.666666666666664</ele><time>2026-04-19T13:46:58.223Z</time></trkpt><trkpt lat="45.5439467" lon="13.7654033"><ele>32.5</ele><time>2026-04-19T13:46:59.224Z</time></trkpt><trkpt lat="45.5439917" lon="13.7655133"><ele>31.333333333333332</ele><time>2026-04-19T13:47:00.228Z</time></trkpt><trkpt lat="45.5440367" lon="13.765605"><ele>30.166666666666664</ele><time>2026-04-19T13:47:01.226Z</time></trkpt><trkpt lat="45.5440717" lon="13.7656817"><ele>29.0</ele><time>2026-04-19T13:47:02.223Z</time></trkpt><trkpt lat="45.544125" lon="13.7657683"><ele>28.999999999999996</ele><time>2026-04-19T13:47:04.22Z</time></trkpt><trkpt lat="45.544155" lon="13.7658767"><ele>29.0</ele><time>2026-04-19T13:47:06.222Z</time></trkpt><trkpt lat="45.5441967" lon="13.7659833"><ele>29.0</ele><time>2026-04-19T13:47:08.223Z</time></trkpt><trkpt lat="45.5442633" lon="13.76604"><ele>29.0</ele><time>2026-04-19T13:47:10.224Z</time></trkpt><trkpt lat="45.544345" lon="13.76598"><ele>28.999999999999996</ele><time>2026-04-19T13:47:12.223Z</time></trkpt><trkpt lat="45.5443883" lon="13.7659"><ele>29.0</ele><time>2026-04-19T13:47:13.225Z</time></trkpt><trkpt lat="45.54445" lon="13.7657883"><ele>27.25</ele><time>2026-04-19T13:47:14.222Z</time></trkpt><trkpt lat="45.54455" lon="13.7656667"><ele>25.5</ele><time>2026-04-19T13:47:15.225Z</time></trkpt><trkpt lat="45.54466" lon="13.7655367"><ele>23.75</ele><time>2026-04-19T13:47:16.22Z</time></trkpt><trkpt lat="45.5447867" lon="13.7653983"><ele>22.0</ele><time>2026-04-19T13:47:17.22Z</time></trkpt><trkpt lat="45.54492" lon="13.7652517"><ele>21.666666666666664</ele><time>2026-04-19T13:47:18.224Z</time></trkpt><trkpt lat="45.5450533" lon="13.7651017"><ele>21.333333333333332</ele><time>2026-04-19T13:47:19.224Z</time></trkpt><trkpt lat="45.5451833" lon="13.7649567"><ele>21.0</ele><time>2026-04-19T13:47:20.223Z</time></trkpt><trkpt lat="45.5453133" lon="13.76482"><ele>19.0</ele><time>2026-04-19T13:47:21.229Z</time></trkpt><trkpt lat="45.5454417" lon="13.7646933"><ele>17.0</ele><time>2026-04-19T13:47:22.223Z</time></trkpt><trkpt lat="45.545565" lon="13.764575"><ele>15.0</ele><time>2026-04-19T13:47:23.224Z</time></trkpt><trkpt lat="45.5456767" lon="13.7644783"><ele>13.0</ele><time>2026-04-19T13:47:24.225Z</time></trkpt><trkpt lat="45.545765" lon="13.7644067"><ele>12.833333333333332</ele><time>2026-04-19T13:47:25.224Z</time></trkpt><trkpt lat="45.5458283" lon="13.7643567"><ele>12.666666666666666</ele><time>2026-04-19T13:47:26.225Z</time></trkpt><trkpt lat="45.545905" lon="13.7643283"><ele>12.5</ele><time>2026-04-19T13:47:30.223Z</time></trkpt><trkpt lat="45.545985" lon="13.7642917"><ele>12.333333333333332</ele><time>2026-04-19T13:47:32.222Z</time></trkpt><trkpt lat="45.5460483" lon="13.7642783"><ele>12.166666666666666</ele><time>2026-04-19T13:47:33.223Z</time></trkpt><trkpt lat="45.546125" lon="13.7642983"><ele>12.0</ele><time>2026-04-19T13:47:34.222Z</time></trkpt><trkpt lat="45.5462067" lon="13.7643617"><ele>11.5</ele><time>2026-04-19T13:47:35.223Z</time></trkpt><trkpt lat="45.5462867" lon="13.76448"><ele>11.0</ele><time>2026-04-19T13:47:36.223Z</time></trkpt><trkpt lat="45.546365" lon="13.764635"><ele>10.5</ele><time>2026-04-19T13:47:37.228Z</time></trkpt><trkpt lat="45.5464417" lon="13.7648067"><ele>10.0</ele><time>2026-04-19T13:47:38.221Z</time></trkpt><trkpt lat="45.54652" lon="13.76498"><ele>10.0</ele><time>2026-04-19T13:47:39.223Z</time></trkpt><trkpt lat="45.5465983" lon="13.7651383"><ele>10.0</ele><time>2026-04-19T13:47:40.223Z</time></trkpt><trkpt lat="45.5466767" lon="13.765285"><ele>10.0</ele><time>2026-04-19T13:47:41.221Z</time></trkpt><trkpt lat="45.546765" lon="13.7654217"><ele>10.0</ele><time>2026-04-19T13:47:42.222Z</time></trkpt><trkpt lat="45.546875" lon="13.7655383"><ele>10.333333333333334</ele><time>2026-04-19T13:47:43.223Z</time></trkpt><trkpt lat="45.547005" lon="13.7656517"><ele>10.666666666666666</ele><time>2026-04-19T13:47:44.221Z</time></trkpt><trkpt lat="45.5471483" lon="13.7657683"><ele>11.0</ele><time>2026-04-19T13:47:45.225Z</time></trkpt><trkpt lat="45.54729" lon="13.765895"><ele>10.0</ele><time>2026-04-19T13:47:46.223Z</time></trkpt><trkpt lat="45.5474217" lon="13.7660367"><ele>9.0</ele><time>2026-04-19T13:47:47.223Z</time></trkpt><trkpt lat="45.54754" lon="13.7662067"><ele>8.0</ele><time>2026-04-19T13:47:48.223Z</time></trkpt><trkpt lat="45.5476283" lon="13.766415"><ele>8.0</ele><time>2026-04-19T13:47:49.223Z</time></trkpt><trkpt lat="45.5476983" lon="13.7666617"><ele>8.0</ele><time>2026-04-19T13:47:50.222Z</time></trkpt><trkpt lat="45.5477633" lon="13.766935"><ele>8.0</ele><time>2026-04-19T13:47:51.224Z</time></trkpt><trkpt lat="45.54783" lon="13.7672183"><ele>8.333333333333332</ele><time>2026-04-19T13:47:52.22Z</time></trkpt><trkpt lat="45.5479" lon="13.7674983"><ele>8.666666666666666</ele><time>2026-04-19T13:47:53.219Z</time></trkpt><trkpt lat="45.54797" lon="13.7677833"><ele>9.0</ele><time>2026-04-19T13:47:54.225Z</time></trkpt><trkpt lat="45.5480433" lon="13.7680717"><ele>9.0</ele><time>2026-04-19T13:47:55.224Z</time></trkpt><trkpt lat="45.5481233" lon="13.76836"><ele>9.0</ele><time>2026-04-19T13:47:56.223Z</time></trkpt><trkpt lat="45.5482183" lon="13.76864"><ele>9.0</ele><time>2026-04-19T13:47:57.226Z</time></trkpt><trkpt lat="45.5483217" lon="13.76891"><ele>9.0</ele><time>2026-04-19T13:47:58.227Z</time></trkpt><trkpt lat="45.5484383" lon="13.7691667"><ele>9.0</ele><time>2026-04-19T13:47:59.222Z</time></trkpt><trkpt lat="45.54855" lon="13.7694217"><ele>9.0</ele><time>2026-04-19T13:48:00.223Z</time></trkpt><trkpt lat="45.54866" lon="13.7696683"><ele>8.333333333333334</ele><time>2026-04-19T13:48:01.228Z</time></trkpt><trkpt lat="45.5487633" lon="13.76992"><ele>7.666666666666667</ele><time>2026-04-19T13:48:02.222Z</time></trkpt><trkpt lat="45.5488517" lon="13.7701883"><ele>7.0</ele><time>2026-04-19T13:48:03.224Z</time></trkpt><trkpt lat="45.548935" lon="13.7704733"><ele>7.0</ele><time>2026-04-19T13:48:04.224Z</time></trkpt><trkpt lat="45.5490217" lon="13.7707633"><ele>7.0</ele><time>2026-04-19T13:48:05.222Z</time></trkpt><trkpt lat="45.5491083" lon="13.77105"><ele>7.0</ele><time>2026-04-19T13:48:06.223Z</time></trkpt><trkpt lat="45.549195" lon="13.7713283"><ele>6.666666666666667</ele><time>2026-04-19T13:48:07.225Z</time></trkpt><trkpt lat="45.54928" lon="13.7716083"><ele>6.333333333333334</ele><time>2026-04-19T13:48:08.224Z</time></trkpt><trkpt lat="45.5493717" lon="13.7718983"><ele>6.0</ele><time>2026-04-19T13:48:09.226Z</time></trkpt><trkpt lat="45.5494733" lon="13.77221"><ele>5.5</ele><time>2026-04-19T13:48:10.222Z</time></trkpt><trkpt lat="45.5495767" lon="13.7725317"><ele>5.0</ele><time>2026-04-19T13:48:11.222Z</time></trkpt><trkpt lat="45.54968" lon="13.7728433"><ele>5.0</ele><time>2026-04-19T13:48:12.222Z</time></trkpt><trkpt lat="45.5497867" lon="13.7731483"><ele>5.0</ele><time>2026-04-19T13:48:13.226Z</time></trkpt><trkpt lat="45.5499083" lon="13.773435"><ele>5.0</ele><time>2026-04-19T13:48:14.223Z</time></trkpt><trkpt lat="45.5500433" lon="13.7737167"><ele>5.0</ele><time>2026-04-19T13:48:15.226Z</time></trkpt><trkpt lat="45.5501967" lon="13.7739917"><ele>5.0</ele><time>2026-04-19T13:48:16.225Z</time></trkpt><trkpt lat="45.550365" lon="13.7742667"><ele>5.0</ele><time>2026-04-19T13:48:17.22Z</time></trkpt><trkpt lat="45.5505567" lon="13.7745333"><ele>5.0</ele><time>2026-04-19T13:48:18.223Z</time></trkpt><trkpt lat="45.5507517" lon="13.774805"><ele>5.0</ele><time>2026-04-19T13:48:19.224Z</time></trkpt><trkpt lat="45.5509483" lon="13.7750717"><ele>4.0</ele><time>2026-04-19T13:48:20.225Z</time></trkpt><trkpt lat="45.5511433" lon="13.7753267"><ele>3.0</ele><time>2026-04-19T13:48:21.222Z</time></trkpt><trkpt lat="45.5513333" lon="13.7755717"><ele>3.0</ele><time>2026-04-19T13:48:22.223Z</time></trkpt><trkpt lat="45.551515" lon="13.775785"><ele>3.0</ele><time>2026-04-19T13:48:23.224Z</time></trkpt><trkpt lat="45.5516817" lon="13.775965"><ele>3.0</ele><time>2026-04-19T13:48:24.223Z</time></trkpt><trkpt lat="45.551825" lon="13.776115"><ele>2.75</ele><time>2026-04-19T13:48:25.223Z</time></trkpt><trkpt lat="45.5519483" lon="13.77623"><ele>2.5</ele><time>2026-04-19T13:48:26.223Z</time></trkpt><trkpt lat="45.5520533" lon="13.7763167"><ele>2.25</ele><time>2026-04-19T13:48:27.226Z</time></trkpt><trkpt lat="45.5521417" lon="13.7763883"><ele>2.0</ele><time>2026-04-19T13:48:28.222Z</time></trkpt><trkpt lat="45.5522183" lon="13.77645"><ele>2.5</ele><time>2026-04-19T13:48:29.222Z</time></trkpt><trkpt lat="45.5522867" lon="13.776505"><ele>3.0</ele><time>2026-04-19T13:48:30.224Z</time></trkpt><trkpt lat="45.5523483" lon="13.7765517"><ele>3.5</ele><time>2026-04-19T13:48:31.225Z</time></trkpt><trkpt lat="45.5524417" lon="13.7766217"><ele>4.0</ele><time>2026-04-19T13:48:33.222Z</time></trkpt><trkpt lat="45.5525167" lon="13.77666"><ele>4.5</ele><time>2026-04-19T13:48:35.225Z</time></trkpt><trkpt lat="45.5525817" lon="13.7767067"><ele>5.0</ele><time>2026-04-19T13:48:38.226Z</time></trkpt><trkpt lat="45.5526683" lon="13.7767617"><ele>5.0</ele><time>2026-04-19T13:49:30.224Z</time></trkpt><trkpt lat="45.55273" lon="13.776805"><ele>5.0</ele><time>2026-04-19T13:49:31.225Z</time></trkpt><trkpt lat="45.55282" lon="13.77688"><ele>5.0</ele><time>2026-04-19T13:49:32.224Z</time></trkpt><trkpt lat="45.552935" lon="13.77697"><ele>5.0</ele><time>2026-04-19T13:49:33.228Z</time></trkpt><trkpt lat="45.5530633" lon="13.7770617"><ele>5.0</ele><time>2026-04-19T13:49:34.217Z</time></trkpt><trkpt lat="45.5531933" lon="13.7771667"><ele>5.0</ele><time>2026-04-19T13:49:35.22Z</time></trkpt><trkpt lat="45.553335" lon="13.7772967"><ele>5.0</ele><time>2026-04-19T13:49:36.219Z</time></trkpt><trkpt lat="45.5535" lon="13.777455"><ele>5.0</ele><time>2026-04-19T13:49:37.222Z</time></trkpt><trkpt lat="45.5536683" lon="13.7776333"><ele>4.666666666666667</ele><time>2026-04-19T13:49:38.22Z</time></trkpt><trkpt lat="45.55383" lon="13.7778183"><ele>4.333333333333333</ele><time>2026-04-19T13:49:39.222Z</time></trkpt><trkpt lat="45.5539817" lon="13.7780233"><ele>4.0</ele><time>2026-04-19T13:49:40.221Z</time></trkpt><trkpt lat="45.5541317" lon="13.7782467"><ele>4.0</ele><time>2026-04-19T13:49:41.217Z</time></trkpt><trkpt lat="45.5542783" lon="13.7784917"><ele>4.0</ele><time>2026-04-19T13:49:42.222Z</time></trkpt><trkpt lat="45.5544233" lon="13.77876"><ele>3.5</ele><time>2026-04-19T13:49:43.22Z</time></trkpt><trkpt lat="45.5545517" lon="13.7790433"><ele>3.0</ele><time>2026-04-19T13:49:44.219Z</time></trkpt><trkpt lat="45.5546583" lon="13.7793283"><ele>3.0</ele><time>2026-04-19T13:49:45.226Z</time></trkpt><trkpt lat="45.5547417" lon="13.7796067"><ele>3.0</ele><time>2026-04-19T13:49:46.223Z</time></trkpt><trkpt lat="45.55481" lon="13.77988"><ele>3.0</ele><time>2026-04-19T13:49:47.222Z</time></trkpt><trkpt lat="45.5548683" lon="13.7801483"><ele>3.0</ele><time>2026-04-19T13:49:48.221Z</time></trkpt><trkpt lat="45.5549317" lon="13.780405"><ele>3.0</ele><time>2026-04-19T13:49:49.221Z</time></trkpt><trkpt lat="45.555005" lon="13.7806617"><ele>3.0</ele><time>2026-04-19T13:49:50.222Z</time></trkpt><trkpt lat="45.5550983" lon="13.7809033"><ele>2.6666666666666665</ele><time>2026-04-19T13:49:51.223Z</time></trkpt><trkpt lat="45.5552117" lon="13.781105"><ele>2.333333333333333</ele><time>2026-04-19T13:49:52.223Z</time></trkpt><trkpt lat="45.5553517" lon="13.7812533"><ele>2.0</ele><time>2026-04-19T13:49:53.222Z</time></trkpt><trkpt lat="45.5555133" lon="13.7813683"><ele>1.6666666666666665</ele><time>2026-04-19T13:49:54.217Z</time></trkpt><trkpt lat="45.5556867" lon="13.7814917"><ele>1.3333333333333333</ele><time>2026-04-19T13:49:55.22Z</time></trkpt><trkpt lat="45.5558467" lon="13.7816583"><ele>1.0</ele><time>2026-04-19T13:49:56.222Z</time></trkpt><trkpt lat="45.555985" lon="13.78188"><ele>1.0</ele><time>2026-04-19T13:49:57.224Z</time></trkpt><trkpt lat="45.55612" lon="13.782125"><ele>1.0</ele><time>2026-04-19T13:49:58.225Z</time></trkpt><trkpt lat="45.55625" lon="13.78238"><ele>1.0</ele><time>2026-04-19T13:49:59.225Z</time></trkpt><trkpt lat="45.55638" lon="13.7826417"><ele>1.5</ele><time>2026-04-19T13:50:00.222Z</time></trkpt><trkpt lat="45.556515" lon="13.7829183"><ele>2.0</ele><time>2026-04-19T13:50:01.223Z</time></trkpt><trkpt lat="45.556655" lon="13.7831967"><ele>2.0</ele><time>2026-04-19T13:50:02.223Z</time></trkpt><trkpt lat="45.556785" lon="13.7834717"><ele>2.0</ele><time>2026-04-19T13:50:03.222Z</time></trkpt><trkpt lat="45.5568933" lon="13.783755"><ele>2.333333333333333</ele><time>2026-04-19T13:50:04.223Z</time></trkpt><trkpt lat="45.5569683" lon="13.7840567"><ele>2.6666666666666665</ele><time>2026-04-19T13:50:05.221Z</time></trkpt><trkpt lat="45.557" lon="13.78436"><ele>3.0</ele><time>2026-04-19T13:50:06.223Z</time></trkpt><trkpt lat="45.5570233" lon="13.7846567"><ele>3.333333333333333</ele><time>2026-04-19T13:50:07.222Z</time></trkpt><trkpt lat="45.5570683" lon="13.7849383"><ele>3.6666666666666665</ele><time>2026-04-19T13:50:08.223Z</time></trkpt><trkpt lat="45.55715" lon="13.7851967"><ele>4.0</ele><time>2026-04-19T13:50:09.222Z</time></trkpt><trkpt lat="45.557255" lon="13.78543"><ele>4.333333333333333</ele><time>2026-04-19T13:50:10.221Z</time></trkpt><trkpt lat="45.5573617" lon="13.7856383"><ele>4.666666666666667</ele><time>2026-04-19T13:50:11.223Z</time></trkpt><trkpt lat="45.5574567" lon="13.7858133"><ele>5.0</ele><time>2026-04-19T13:50:12.222Z</time></trkpt><trkpt lat="45.55753" lon="13.7859383"><ele>5.0</ele><time>2026-04-19T13:50:13.221Z</time></trkpt><trkpt lat="45.5575817" lon="13.786005"><ele>5.0</ele><time>2026-04-19T13:50:14.222Z</time></trkpt><trkpt lat="45.5576517" lon="13.7860717"><ele>5.0</ele><time>2026-04-19T13:50:16.219Z</time></trkpt><trkpt lat="45.55772" lon="13.78614"><ele>5.0</ele><time>2026-04-19T13:50:18.221Z</time></trkpt><trkpt lat="45.557765" lon="13.7862083"><ele>5.0</ele><time>2026-04-19T13:50:19.222Z</time></trkpt><trkpt lat="45.5578217" lon="13.7863"><ele>5.0</ele><time>2026-04-19T13:50:20.229Z</time></trkpt><trkpt lat="45.5578867" lon="13.7864017"><ele>5.4</ele><time>2026-04-19T13:50:21.222Z</time></trkpt><trkpt lat="45.55796" lon="13.78648"><ele>5.8</ele><time>2026-04-19T13:50:22.225Z</time></trkpt><trkpt lat="45.5580383" lon="13.7865283"><ele>6.199999999999999</ele><time>2026-04-19T13:50:23.22Z</time></trkpt><trkpt lat="45.5581233" lon="13.7865417"><ele>6.6</ele><time>2026-04-19T13:50:24.221Z</time></trkpt><trkpt lat="45.5582267" lon="13.7865333"><ele>7.0</ele><time>2026-04-19T13:50:25.222Z</time></trkpt><trkpt lat="45.55834" lon="13.7865467"><ele>7.0</ele><time>2026-04-19T13:50:26.22Z</time></trkpt><trkpt lat="45.5584583" lon="13.786575"><ele>7.0</ele><time>2026-04-19T13:50:27.223Z</time></trkpt><trkpt lat="45.558585" lon="13.7865767"><ele>7.0</ele><time>2026-04-19T13:50:28.22Z</time></trkpt><trkpt lat="45.5587167" lon="13.7865267"><ele>7.0</ele><time>2026-04-19T13:50:29.219Z</time></trkpt><trkpt lat="45.5588633" lon="13.78645"><ele>7.333333333333334</ele><time>2026-04-19T13:50:30.222Z</time></trkpt><trkpt lat="45.5590267" lon="13.7863933"><ele>7.666666666666666</ele><time>2026-04-19T13:50:31.222Z</time></trkpt><trkpt lat="45.559195" lon="13.7863767"><ele>8.0</ele><time>2026-04-19T13:50:32.221Z</time></trkpt><trkpt lat="45.5593617" lon="13.7863983"><ele>8.0</ele><time>2026-04-19T13:50:33.222Z</time></trkpt><trkpt lat="45.559525" lon="13.7864467"><ele>8.0</ele><time>2026-04-19T13:50:34.225Z</time></trkpt><trkpt lat="45.5596717" lon="13.7865233"><ele>8.0</ele><time>2026-04-19T13:50:35.222Z</time></trkpt><trkpt lat="45.5597933" lon="13.7866283"><ele>8.5</ele><time>2026-04-19T13:50:36.222Z</time></trkpt><trkpt lat="45.5598983" lon="13.786745"><ele>9.0</ele><time>2026-04-19T13:50:37.223Z</time></trkpt><trkpt lat="45.5599983" lon="13.7868633"><ele>9.5</ele><time>2026-04-19T13:50:38.221Z</time></trkpt><trkpt lat="45.5601017" lon="13.78697"><ele>10.0</ele><time>2026-04-19T13:50:39.223Z</time></trkpt><trkpt lat="45.56022" lon="13.7870633"><ele>12.5</ele><time>2026-04-19T13:50:40.222Z</time></trkpt><trkpt lat="45.5603533" lon="13.7871383"><ele>15.0</ele><time>2026-04-19T13:50:41.222Z</time></trkpt><trkpt lat="45.560495" lon="13.78718"><ele>17.5</ele><time>2026-04-19T13:50:42.221Z</time></trkpt><trkpt lat="45.560635" lon="13.78721"><ele>20.0</ele><time>2026-04-19T13:50:43.221Z</time></trkpt><trkpt lat="45.5607767" lon="13.78724"><ele>20.0</ele><time>2026-04-19T13:50:44.223Z</time></trkpt><trkpt lat="45.560915" lon="13.7872633"><ele>20.0</ele><time>2026-04-19T13:50:45.223Z</time></trkpt><trkpt lat="45.5610583" lon="13.7872867"><ele>20.0</ele><time>2026-04-19T13:50:46.224Z</time></trkpt><trkpt lat="45.56122" lon="13.7873117"><ele>20.0</ele><time>2026-04-19T13:50:47.222Z</time></trkpt><trkpt lat="45.5613967" lon="13.7873433"><ele>20.0</ele><time>2026-04-19T13:50:48.221Z</time></trkpt><trkpt lat="45.5615917" lon="13.7873733"><ele>20.0</ele><time>2026-04-19T13:50:49.223Z</time></trkpt><trkpt lat="45.5617983" lon="13.7874067"><ele>20.0</ele><time>2026-04-19T13:50:50.224Z</time></trkpt><trkpt lat="45.5620083" lon="13.78744"><ele>19.666666666666668</ele><time>2026-04-19T13:50:51.223Z</time></trkpt><trkpt lat="45.5622117" lon="13.787455"><ele>19.333333333333332</ele><time>2026-04-19T13:50:52.223Z</time></trkpt><trkpt lat="45.56241" lon="13.7874383"><ele>19.0</ele><time>2026-04-19T13:50:53.222Z</time></trkpt><trkpt lat="45.562585" lon="13.78735"><ele>19.0</ele><time>2026-04-19T13:50:54.223Z</time></trkpt><trkpt lat="45.56274" lon="13.7871867"><ele>19.0</ele><time>2026-04-19T13:50:55.222Z</time></trkpt><trkpt lat="45.5628767" lon="13.7869717"><ele>19.0</ele><time>2026-04-19T13:50:56.223Z</time></trkpt><trkpt lat="45.562995" lon="13.78672"><ele>23.333333333333332</ele><time>2026-04-19T13:50:57.226Z</time></trkpt><trkpt lat="45.563085" lon="13.78644"><ele>27.666666666666664</ele><time>2026-04-19T13:50:58.221Z</time></trkpt><trkpt lat="45.5631767" lon="13.7861533"><ele>32.0</ele><time>2026-04-19T13:50:59.223Z</time></trkpt><trkpt lat="45.5632817" lon="13.7858517"><ele>32.0</ele><time>2026-04-19T13:51:00.221Z</time></trkpt><trkpt lat="45.56344" lon="13.785545"><ele>32.0</ele><time>2026-04-19T13:51:01.224Z</time></trkpt><trkpt lat="45.5636" lon="13.78525"><ele>39.0</ele><time>2026-04-19T13:51:02.219Z</time></trkpt><trkpt lat="45.5637733" lon="13.7849783"><ele>46.0</ele><time>2026-04-19T13:51:03.223Z</time></trkpt><trkpt lat="45.5639083" lon="13.78471"><ele>46.0</ele><time>2026-04-19T13:51:04.222Z</time></trkpt><trkpt lat="45.5640333" lon="13.78444"><ele>46.0</ele><time>2026-04-19T13:51:05.221Z</time></trkpt><trkpt lat="45.5641467" lon="13.7842033"><ele>46.0</ele><time>2026-04-19T13:51:06.224Z</time></trkpt><trkpt lat="45.5642583" lon="13.7840133"><ele>42.66666666666667</ele><time>2026-04-19T13:51:07.223Z</time></trkpt><trkpt lat="45.5643133" lon="13.78389"><ele>39.333333333333336</ele><time>2026-04-19T13:51:08.224Z</time></trkpt><trkpt lat="45.5646133" lon="13.783835"><ele>36.0</ele><time>2026-04-19T13:51:09.223Z</time></trkpt><trkpt lat="45.56489" lon="13.7838133"><ele>36.0</ele><time>2026-04-19T13:51:10.224Z</time></trkpt><trkpt lat="45.5651433" lon="13.7838417"><ele>36.0</ele><time>2026-04-19T13:51:11.222Z</time></trkpt><trkpt lat="45.5653617" lon="13.783875"><ele>33.25</ele><time>2026-04-19T13:51:12.222Z</time></trkpt><trkpt lat="45.5655017" lon="13.7839283"><ele>30.5</ele><time>2026-04-19T13:51:13.222Z</time></trkpt><trkpt lat="45.565605" lon="13.7839933"><ele>27.75</ele><time>2026-04-19T13:51:14.222Z</time></trkpt><trkpt lat="45.565695" lon="13.7840867"><ele>25.0</ele><time>2026-04-19T13:51:15.222Z</time></trkpt><trkpt lat="45.5657667" lon="13.784215"><ele>28.0</ele><time>2026-04-19T13:51:16.22Z</time></trkpt><trkpt lat="45.5658" lon="13.784355"><ele>31.0</ele><time>2026-04-19T13:51:17.222Z</time></trkpt><trkpt lat="45.5658317" lon="13.78448"><ele>34.0</ele><time>2026-04-19T13:51:18.222Z</time></trkpt><trkpt lat="45.5658917" lon="13.78459"><ele>37.0</ele><time>2026-04-19T13:51:19.222Z</time></trkpt><trkpt lat="45.5659767" lon="13.784715"><ele>40.0</ele><time>2026-04-19T13:51:20.221Z</time></trkpt><trkpt lat="45.5660817" lon="13.7848767"><ele>39.66666666666667</ele><time>2026-04-19T13:51:21.224Z</time></trkpt><trkpt lat="45.56622" lon="13.7850683"><ele>39.333333333333336</ele><time>2026-04-19T13:51:22.222Z</time></trkpt><trkpt lat="45.566355" lon="13.7852283"><ele>39.0</ele><time>2026-04-19T13:51:23.222Z</time></trkpt><trkpt lat="45.56652" lon="13.7853767"><ele>43.66666666666667</ele><time>2026-04-19T13:51:24.221Z</time></trkpt><trkpt lat="45.5666817" lon="13.7855083"><ele>48.333333333333336</ele><time>2026-04-19T13:51:25.223Z</time></trkpt><trkpt lat="45.56683" lon="13.7856517"><ele>53.0</ele><time>2026-04-19T13:51:26.223Z</time></trkpt><trkpt lat="45.5669483" lon="13.7858383"><ele>53.0</ele><time>2026-04-19T13:51:27.223Z</time></trkpt><trkpt lat="45.5669167" lon="13.7859917"><ele>53.0</ele><time>2026-04-19T13:51:28.226Z</time></trkpt><trkpt lat="45.567085" lon="13.7862767"><ele>53.0</ele><time>2026-04-19T13:51:29.222Z</time></trkpt><trkpt lat="45.5672267" lon="13.7865417"><ele>53.66666666666667</ele><time>2026-04-19T13:51:30.224Z</time></trkpt><trkpt lat="45.5673567" lon="13.7867917"><ele>54.33333333333333</ele><time>2026-04-19T13:51:31.224Z</time></trkpt><trkpt lat="45.567475" lon="13.7870233"><ele>55.0</ele><time>2026-04-19T13:51:32.226Z</time></trkpt><trkpt lat="45.56761" lon="13.787255"><ele>57.33333333333333</ele><time>2026-04-19T13:51:33.227Z</time></trkpt><trkpt lat="45.5677267" lon="13.787485"><ele>59.66666666666667</ele><time>2026-04-19T13:51:34.225Z</time></trkpt><trkpt lat="45.5678333" lon="13.7877167"><ele>62.0</ele><time>2026-04-19T13:51:35.221Z</time></trkpt><trkpt lat="45.567945" lon="13.7879517"><ele>62.0</ele><time>2026-04-19T13:51:36.221Z</time></trkpt><trkpt lat="45.5680417" lon="13.788175"><ele>62.0</ele><time>2026-04-19T13:51:37.223Z</time></trkpt><trkpt lat="45.5680967" lon="13.7884017"><ele>62.0</ele><time>2026-04-19T13:51:38.219Z</time></trkpt><trkpt lat="45.56815" lon="13.788605"><ele>64.33333333333334</ele><time>2026-04-19T13:51:39.221Z</time></trkpt><trkpt lat="45.568275" lon="13.7887817"><ele>66.66666666666667</ele><time>2026-04-19T13:51:40.221Z</time></trkpt><trkpt lat="45.5683883" lon="13.7889433"><ele>69.0</ele><time>2026-04-19T13:51:41.219Z</time></trkpt><trkpt lat="45.5685117" lon="13.7890767"><ele>69.0</ele><time>2026-04-19T13:51:42.222Z</time></trkpt><trkpt lat="45.56862" lon="13.78921"><ele>69.0</ele><time>2026-04-19T13:51:43.223Z</time></trkpt><trkpt lat="45.56872" lon="13.7893317"><ele>69.0</ele><time>2026-04-19T13:51:44.223Z</time></trkpt><trkpt lat="45.568805" lon="13.789455"><ele>69.0</ele><time>2026-04-19T13:51:45.222Z</time></trkpt><trkpt lat="45.5688783" lon="13.789575"><ele>69.25</ele><time>2026-04-19T13:51:46.22Z</time></trkpt><trkpt lat="45.5689317" lon="13.789705"><ele>69.5</ele><time>2026-04-19T13:51:47.218Z</time></trkpt><trkpt lat="45.568985" lon="13.7898583"><ele>69.75</ele><time>2026-04-19T13:51:48.22Z</time></trkpt><trkpt lat="45.5690817" lon="13.7899533"><ele>70.0</ele><time>2026-04-19T13:51:49.223Z</time></trkpt><trkpt lat="45.5691983" lon="13.7900333"><ele>70.0</ele><time>2026-04-19T13:51:50.223Z</time></trkpt><trkpt lat="45.569315" lon="13.7901533"><ele>70.0</ele><time>2026-04-19T13:51:51.226Z</time></trkpt><trkpt lat="45.569425" lon="13.7902833"><ele>70.0</ele><time>2026-04-19T13:51:52.225Z</time></trkpt><trkpt lat="45.5695317" lon="13.7903917"><ele>70.0</ele><time>2026-04-19T13:51:53.224Z</time></trkpt><trkpt lat="45.5696267" lon="13.7904933"><ele>69.83333333333333</ele><time>2026-04-19T13:51:54.229Z</time></trkpt><trkpt lat="45.5697017" lon="13.790605"><ele>69.66666666666666</ele><time>2026-04-19T13:51:55.225Z</time></trkpt><trkpt lat="45.569765" lon="13.790705"><ele>69.5</ele><time>2026-04-19T13:51:56.223Z</time></trkpt><trkpt lat="45.5698233" lon="13.79077"><ele>69.33333333333333</ele><time>2026-04-19T13:51:57.224Z</time></trkpt><trkpt lat="45.5698817" lon="13.7908317"><ele>69.16666666666667</ele><time>2026-04-19T13:51:58.223Z</time></trkpt><trkpt lat="45.56994" lon="13.7909383"><ele>69.0</ele><time>2026-04-19T13:51:59.22Z</time></trkpt><trkpt lat="45.5700083" lon="13.79104"><ele>69.4</ele><time>2026-04-19T13:52:00.224Z</time></trkpt><trkpt lat="45.5700817" lon="13.7911533"><ele>69.80000000000001</ele><time>2026-04-19T13:52:01.223Z</time></trkpt><trkpt lat="45.570145" lon="13.79128"><ele>70.19999999999999</ele><time>2026-04-19T13:52:02.225Z</time></trkpt><trkpt lat="45.570225" lon="13.7913733"><ele>70.6</ele><time>2026-04-19T13:52:03.225Z</time></trkpt><trkpt lat="45.5703033" lon="13.7914583"><ele>71.0</ele><time>2026-04-19T13:52:04.221Z</time></trkpt><trkpt lat="45.57039" lon="13.7915483"><ele>71.6</ele><time>2026-04-19T13:52:05.222Z</time></trkpt><trkpt lat="45.5704733" lon="13.79165"><ele>72.19999999999999</ele><time>2026-04-19T13:52:06.219Z</time></trkpt><trkpt lat="45.5705467" lon="13.7917417"><ele>72.80000000000001</ele><time>2026-04-19T13:52:07.223Z</time></trkpt><trkpt lat="45.57062" lon="13.7918367"><ele>73.4</ele><time>2026-04-19T13:52:08.224Z</time></trkpt><trkpt lat="45.57068" lon="13.7918717"><ele>74.0</ele><time>2026-04-19T13:52:09.225Z</time></trkpt><trkpt lat="45.57075" lon="13.7919817"><ele>74.0</ele><time>2026-04-19T13:52:10.22Z</time></trkpt><trkpt lat="45.5708167" lon="13.7920283"><ele>74.0</ele><time>2026-04-19T13:52:11.221Z</time></trkpt><trkpt lat="45.5708917" lon="13.7922233"><ele>74.0</ele><time>2026-04-19T13:52:12.22Z</time></trkpt><trkpt lat="45.5709617" lon="13.79234"><ele>74.0</ele><time>2026-04-19T13:52:13.228Z</time></trkpt><trkpt lat="45.5710767" lon="13.7926217"><ele>73.33333333333334</ele><time>2026-04-19T13:52:15.222Z</time></trkpt><trkpt lat="45.5711217" lon="13.7928267"><ele>72.66666666666667</ele><time>2026-04-19T13:52:16.222Z</time></trkpt><trkpt lat="45.571145" lon="13.7930583"><ele>72.0</ele><time>2026-04-19T13:52:17.221Z</time></trkpt><trkpt lat="45.5711483" lon="13.7932767"><ele>70.66666666666667</ele><time>2026-04-19T13:52:18.223Z</time></trkpt><trkpt lat="45.571135" lon="13.7935367"><ele>69.33333333333334</ele><time>2026-04-19T13:52:19.222Z</time></trkpt><trkpt lat="45.5711383" lon="13.7937833"><ele>68.0</ele><time>2026-04-19T13:52:20.223Z</time></trkpt><trkpt lat="45.571145" lon="13.7939917"><ele>68.0</ele><time>2026-04-19T13:52:21.223Z</time></trkpt><trkpt lat="45.5711283" lon="13.7941067"><ele>68.0</ele><time>2026-04-19T13:52:22.223Z</time></trkpt><trkpt lat="45.571135" lon="13.7944633"><ele>68.0</ele><time>2026-04-19T13:52:23.222Z</time></trkpt><trkpt lat="45.5711417" lon="13.794755"><ele>67.0</ele><time>2026-04-19T13:52:24.224Z</time></trkpt><trkpt lat="45.5711467" lon="13.795015"><ele>66.0</ele><time>2026-04-19T13:52:25.221Z</time></trkpt><trkpt lat="45.5711633" lon="13.7952817"><ele>65.0</ele><time>2026-04-19T13:52:26.223Z</time></trkpt><trkpt lat="45.57119" lon="13.795515"><ele>64.66666666666667</ele><time>2026-04-19T13:52:27.224Z</time></trkpt><trkpt lat="45.5712283" lon="13.795605"><ele>64.33333333333333</ele><time>2026-04-19T13:52:28.222Z</time></trkpt><trkpt lat="45.5713167" lon="13.7959083"><ele>64.0</ele><time>2026-04-19T13:52:29.223Z</time></trkpt><trkpt lat="45.5714333" lon="13.79614"><ele>61.25</ele><time>2026-04-19T13:52:30.222Z</time></trkpt><trkpt lat="45.57157" lon="13.7962767"><ele>58.5</ele><time>2026-04-19T13:52:31.225Z</time></trkpt><trkpt lat="45.5717133" lon="13.7963217"><ele>55.75</ele><time>2026-04-19T13:52:32.225Z</time></trkpt><trkpt lat="45.5717533" lon="13.796235"><ele>53.0</ele><time>2026-04-19T13:52:33.224Z</time></trkpt><trkpt lat="45.5719333" lon="13.7961617"><ele>53.0</ele><time>2026-04-19T13:52:34.223Z</time></trkpt><trkpt lat="45.5719983" lon="13.796105"><ele>53.0</ele><time>2026-04-19T13:52:35.221Z</time></trkpt><trkpt lat="45.5722117" lon="13.7958333"><ele>53.0</ele><time>2026-04-19T13:52:36.226Z</time></trkpt><trkpt lat="45.572375" lon="13.7955483"><ele>54.333333333333336</ele><time>2026-04-19T13:52:37.223Z</time></trkpt><trkpt lat="45.5724933" lon="13.7953017"><ele>55.66666666666667</ele><time>2026-04-19T13:52:38.225Z</time></trkpt><trkpt lat="45.5725567" lon="13.7952483"><ele>57.0</ele><time>2026-04-19T13:52:39.223Z</time></trkpt><trkpt lat="45.5726133" lon="13.794885"><ele>58.33333333333333</ele><time>2026-04-19T13:52:40.225Z</time></trkpt><trkpt lat="45.5726833" lon="13.7946833"><ele>59.666666666666664</ele><time>2026-04-19T13:52:41.222Z</time></trkpt><trkpt lat="45.57278" lon="13.794565"><ele>61.0</ele><time>2026-04-19T13:52:42.227Z</time></trkpt><trkpt lat="45.5729033" lon="13.7943883"><ele>57.33333333333333</ele><time>2026-04-19T13:52:43.224Z</time></trkpt><trkpt lat="45.5730417" lon="13.7943483"><ele>53.66666666666667</ele><time>2026-04-19T13:52:44.224Z</time></trkpt><trkpt lat="45.573185" lon="13.7943517"><ele>50.0</ele><time>2026-04-19T13:52:45.223Z</time></trkpt><trkpt lat="45.5733683" lon="13.7943567"><ele>50.0</ele><time>2026-04-19T13:52:46.223Z</time></trkpt><trkpt lat="45.5735367" lon="13.7944367"><ele>50.0</ele><time>2026-04-19T13:52:47.223Z</time></trkpt><trkpt lat="45.5736867" lon="13.7945567"><ele>50.0</ele><time>2026-04-19T13:52:48.224Z</time></trkpt><trkpt lat="45.573835" lon="13.7946683"><ele>50.0</ele><time>2026-04-19T13:52:49.224Z</time></trkpt><trkpt lat="45.5739867" lon="13.7947517"><ele>50.0</ele><time>2026-04-19T13:52:50.226Z</time></trkpt><trkpt lat="45.5741367" lon="13.794815"><ele>50.0</ele><time>2026-04-19T13:52:51.222Z</time></trkpt><trkpt lat="45.57429" lon="13.7948633"><ele>50.0</ele><time>2026-04-19T13:52:52.223Z</time></trkpt><trkpt lat="45.5744367" lon="13.7949133"><ele>50.0</ele><time>2026-04-19T13:52:53.223Z</time></trkpt><trkpt lat="45.5745617" lon="13.7949867"><ele>50.0</ele><time>2026-04-19T13:52:54.225Z</time></trkpt><trkpt lat="45.574685" lon="13.7950417"><ele>50.0</ele><time>2026-04-19T13:52:55.223Z</time></trkpt><trkpt lat="45.5748083" lon="13.7950867"><ele>49.75</ele><time>2026-04-19T13:52:56.224Z</time></trkpt><trkpt lat="45.5749317" lon="13.7951433"><ele>49.5</ele><time>2026-04-19T13:52:57.223Z</time></trkpt><trkpt lat="45.575055" lon="13.7951933"><ele>49.25</ele><time>2026-04-19T13:52:58.225Z</time></trkpt><trkpt lat="45.5751783" lon="13.795245"><ele>49.0</ele><time>2026-04-19T13:52:59.223Z</time></trkpt><trkpt lat="45.5753" lon="13.7953"><ele>46.25</ele><time>2026-04-19T13:53:00.223Z</time></trkpt><trkpt lat="45.5754167" lon="13.7953633"><ele>43.5</ele><time>2026-04-19T13:53:01.221Z</time></trkpt><trkpt lat="45.5755367" lon="13.7954367"><ele>40.75</ele><time>2026-04-19T13:53:02.225Z</time></trkpt><trkpt lat="45.5756617" lon="13.7954967"><ele>38.0</ele><time>2026-04-19T13:53:03.222Z</time></trkpt><trkpt lat="45.5757817" lon="13.7955533"><ele>38.0</ele><time>2026-04-19T13:53:04.222Z</time></trkpt><trkpt lat="45.5758883" lon="13.795605"><ele>38.0</ele><time>2026-04-19T13:53:05.224Z</time></trkpt><trkpt lat="45.5759783" lon="13.7956583"><ele>38.0</ele><time>2026-04-19T13:53:06.225Z</time></trkpt><trkpt lat="45.5760667" lon="13.7957183"><ele>38.0</ele><time>2026-04-19T13:53:07.224Z</time></trkpt><trkpt lat="45.5761533" lon="13.7957767"><ele>38.0</ele><time>2026-04-19T13:53:08.222Z</time></trkpt><trkpt lat="45.5762417" lon="13.7958133"><ele>37.8</ele><time>2026-04-19T13:53:09.226Z</time></trkpt><trkpt lat="45.5763283" lon="13.7958233"><ele>37.599999999999994</ele><time>2026-04-19T13:53:10.225Z</time></trkpt><trkpt lat="45.5764117" lon="13.79585"><ele>37.400000000000006</ele><time>2026-04-19T13:53:11.223Z</time></trkpt><trkpt lat="45.5765183" lon="13.7959133"><ele>37.2</ele><time>2026-04-19T13:53:12.223Z</time></trkpt><trkpt lat="45.57663" lon="13.7959683"><ele>37.0</ele><time>2026-04-19T13:53:13.222Z</time></trkpt><trkpt lat="45.5767467" lon="13.79599"><ele>35.75</ele><time>2026-04-19T13:53:14.223Z</time></trkpt><trkpt lat="45.5768683" lon="13.7960433"><ele>34.5</ele><time>2026-04-19T13:53:15.223Z</time></trkpt><trkpt lat="45.5769933" lon="13.796105"><ele>33.25</ele><time>2026-04-19T13:53:16.22Z</time></trkpt><trkpt lat="45.577115" lon="13.7961517"><ele>32.0</ele><time>2026-04-19T13:53:17.223Z</time></trkpt><trkpt lat="45.5772667" lon="13.79623"><ele>32.0</ele><time>2026-04-19T13:53:18.219Z</time></trkpt><trkpt lat="45.577395" lon="13.7962683"><ele>32.0</ele><time>2026-04-19T13:53:19.223Z</time></trkpt><trkpt lat="45.577505" lon="13.79624"><ele>32.0</ele><time>2026-04-19T13:53:20.222Z</time></trkpt><trkpt lat="45.5776233" lon="13.7962667"><ele>32.0</ele><time>2026-04-19T13:53:21.225Z</time></trkpt><trkpt lat="45.57774" lon="13.7963283"><ele>31.400000000000002</ele><time>2026-04-19T13:53:22.226Z</time></trkpt><trkpt lat="45.5778567" lon="13.796425"><ele>30.800000000000004</ele><time>2026-04-19T13:53:23.222Z</time></trkpt><trkpt lat="45.577955" lon="13.796485"><ele>30.2</ele><time>2026-04-19T13:53:24.225Z</time></trkpt><trkpt lat="45.578025" lon="13.79652"><ele>29.6</ele><time>2026-04-19T13:53:25.224Z</time></trkpt><trkpt lat="45.5780917" lon="13.796615"><ele>29.0</ele><time>2026-04-19T13:53:26.222Z</time></trkpt><trkpt lat="45.5781783" lon="13.796705"><ele>28.999999999999996</ele><time>2026-04-19T13:53:28.22Z</time></trkpt><trkpt lat="45.5782167" lon="13.7967883"><ele>29.0</ele><time>2026-04-19T13:53:29.223Z</time></trkpt><trkpt lat="45.5782783" lon="13.7968667"><ele>29.0</ele><time>2026-04-19T13:53:31.221Z</time></trkpt><trkpt lat="45.5783267" lon="13.7969433"><ele>29.0</ele><time>2026-04-19T13:53:33.224Z</time></trkpt><trkpt lat="45.5783867" lon="13.7969933"><ele>28.999999999999996</ele><time>2026-04-19T13:53:35.222Z</time></trkpt><trkpt lat="45.578455" lon="13.79703"><ele>29.0</ele><time>2026-04-19T13:53:37.221Z</time></trkpt><trkpt lat="45.5785617" lon="13.7969817"><ele>28.666666666666664</ele><time>2026-04-19T13:53:39.222Z</time></trkpt><trkpt lat="45.5786333" lon="13.7969283"><ele>28.333333333333332</ele><time>2026-04-19T13:53:40.222Z</time></trkpt><trkpt lat="45.5786933" lon="13.7968583"><ele>28.0</ele><time>2026-04-19T13:53:41.222Z</time></trkpt><trkpt lat="45.5787583" lon="13.7967867"><ele>27.666666666666664</ele><time>2026-04-19T13:53:42.22Z</time></trkpt><trkpt lat="45.5788267" lon="13.7967133"><ele>27.333333333333332</ele><time>2026-04-19T13:53:43.223Z</time></trkpt><trkpt lat="45.5788867" lon="13.7966567"><ele>27.0</ele><time>2026-04-19T13:53:44.221Z</time></trkpt><trkpt lat="45.5789533" lon="13.796605"><ele>27.0</ele><time>2026-04-19T13:53:45.224Z</time></trkpt><trkpt lat="45.579015" lon="13.79656"><ele>27.000000000000004</ele><time>2026-04-19T13:53:47.221Z</time></trkpt><trkpt lat="45.57914" lon="13.796585"><ele>27.000000000000004</ele><time>2026-04-19T13:53:49.225Z</time></trkpt><trkpt lat="45.579225" lon="13.7966033"><ele>27.0</ele><time>2026-04-19T13:53:50.223Z</time></trkpt><trkpt lat="45.5793267" lon="13.7966267"><ele>27.0</ele><time>2026-04-19T13:53:51.223Z</time></trkpt><trkpt lat="45.57943" lon="13.7966533"><ele>26.5</ele><time>2026-04-19T13:53:52.224Z</time></trkpt><trkpt lat="45.579535" lon="13.7966733"><ele>26.0</ele><time>2026-04-19T13:53:53.224Z</time></trkpt><trkpt lat="45.5796483" lon="13.796695"><ele>25.5</ele><time>2026-04-19T13:53:54.224Z</time></trkpt><trkpt lat="45.5797583" lon="13.7967283"><ele>25.0</ele><time>2026-04-19T13:53:55.218Z</time></trkpt><trkpt lat="45.57988" lon="13.7967567"><ele>25.0</ele><time>2026-04-19T13:53:56.222Z</time></trkpt><trkpt lat="45.58001" lon="13.7967917"><ele>25.0</ele><time>2026-04-19T13:53:57.223Z</time></trkpt><trkpt lat="45.580135" lon="13.7968283"><ele>25.0</ele><time>2026-04-19T13:53:58.223Z</time></trkpt><trkpt lat="45.5802533" lon="13.7968667"><ele>25.0</ele><time>2026-04-19T13:53:59.223Z</time></trkpt><trkpt lat="45.5803783" lon="13.7968967"><ele>24.5</ele><time>2026-04-19T13:54:00.223Z</time></trkpt><trkpt lat="45.5805083" lon="13.7969333"><ele>24.0</ele><time>2026-04-19T13:54:01.222Z</time></trkpt><trkpt lat="45.580645" lon="13.7969733"><ele>23.5</ele><time>2026-04-19T13:54:02.228Z</time></trkpt><trkpt lat="45.5807783" lon="13.7970117"><ele>23.0</ele><time>2026-04-19T13:54:03.225Z</time></trkpt><trkpt lat="45.5809183" lon="13.79705"><ele>23.0</ele><time>2026-04-19T13:54:04.221Z</time></trkpt><trkpt lat="45.5810533" lon="13.7970817"><ele>23.0</ele><time>2026-04-19T13:54:05.222Z</time></trkpt><trkpt lat="45.581185" lon="13.7971167"><ele>23.0</ele><time>2026-04-19T13:54:06.222Z</time></trkpt><trkpt lat="45.5813067" lon="13.7971483"><ele>23.0</ele><time>2026-04-19T13:54:07.221Z</time></trkpt><trkpt lat="45.581425" lon="13.7971983"><ele>22.75</ele><time>2026-04-19T13:54:08.221Z</time></trkpt><trkpt lat="45.5815283" lon="13.797255"><ele>22.5</ele><time>2026-04-19T13:54:09.227Z</time></trkpt><trkpt lat="45.5816367" lon="13.7973067"><ele>22.25</ele><time>2026-04-19T13:54:10.218Z</time></trkpt><trkpt lat="45.5817567" lon="13.797355"><ele>22.0</ele><time>2026-04-19T13:54:11.22Z</time></trkpt><trkpt lat="45.5818717" lon="13.7973933"><ele>22.0</ele><time>2026-04-19T13:54:12.221Z</time></trkpt><trkpt lat="45.5819867" lon="13.797425"><ele>22.0</ele><time>2026-04-19T13:54:13.219Z</time></trkpt><trkpt lat="45.58211" lon="13.7974467"><ele>22.0</ele><time>2026-04-19T13:54:14.219Z</time></trkpt><trkpt lat="45.582225" lon="13.7974767"><ele>22.0</ele><time>2026-04-19T13:54:15.224Z</time></trkpt><trkpt lat="45.58234" lon="13.7975083"><ele>21.0</ele><time>2026-04-19T13:54:16.221Z</time></trkpt><trkpt lat="45.58246" lon="13.7975333"><ele>20.0</ele><time>2026-04-19T13:54:17.221Z</time></trkpt><trkpt lat="45.582585" lon="13.797565"><ele>19.0</ele><time>2026-04-19T13:54:18.224Z</time></trkpt><trkpt lat="45.5827283" lon="13.7975933"><ele>18.0</ele><time>2026-04-19T13:54:19.222Z</time></trkpt><trkpt lat="45.5828683" lon="13.7976317"><ele>17.5</ele><time>2026-04-19T13:54:20.214Z</time></trkpt><trkpt lat="45.5830083" lon="13.7976767"><ele>17.0</ele><time>2026-04-19T13:54:21.217Z</time></trkpt><trkpt lat="45.5831183" lon="13.7977533"><ele>16.5</ele><time>2026-04-19T13:54:22.218Z</time></trkpt><trkpt lat="45.5832483" lon="13.7977917"><ele>16.0</ele><time>2026-04-19T13:54:23.214Z</time></trkpt><trkpt lat="45.5833867" lon="13.797815"><ele>16.0</ele><time>2026-04-19T13:54:24.216Z</time></trkpt><trkpt lat="45.5835267" lon="13.7978317"><ele>16.0</ele><time>2026-04-19T13:54:25.215Z</time></trkpt><trkpt lat="45.5836683" lon="13.797845"><ele>16.0</ele><time>2026-04-19T13:54:26.223Z</time></trkpt><trkpt lat="45.58381" lon="13.7978567"><ele>16.0</ele><time>2026-04-19T13:54:27.22Z</time></trkpt><trkpt lat="45.5839517" lon="13.797875"><ele>15.75</ele><time>2026-04-19T13:54:28.223Z</time></trkpt><trkpt lat="45.5840883" lon="13.797905"><ele>15.5</ele><time>2026-04-19T13:54:29.221Z</time></trkpt><trkpt lat="45.5842217" lon="13.7979367"><ele>15.25</ele><time>2026-04-19T13:54:30.22Z</time></trkpt><trkpt lat="45.5843567" lon="13.7979733"><ele>15.0</ele><time>2026-04-19T13:54:31.222Z</time></trkpt><trkpt lat="45.5845" lon="13.7980033"><ele>14.333333333333332</ele><time>2026-04-19T13:54:32.222Z</time></trkpt><trkpt lat="45.5846467" lon="13.798035"><ele>13.666666666666666</ele><time>2026-04-19T13:54:33.226Z</time></trkpt><trkpt lat="45.5847967" lon="13.7980633"><ele>13.0</ele><time>2026-04-19T13:54:34.222Z</time></trkpt><trkpt lat="45.5849483" lon="13.79809"><ele>13.0</ele><time>2026-04-19T13:54:35.223Z</time></trkpt><trkpt lat="45.5850933" lon="13.79811"><ele>13.0</ele><time>2026-04-19T13:54:36.221Z</time></trkpt><trkpt lat="45.5852367" lon="13.798115"><ele>13.0</ele><time>2026-04-19T13:54:37.227Z</time></trkpt><trkpt lat="45.5853767" lon="13.7981133"><ele>13.0</ele><time>2026-04-19T13:54:38.223Z</time></trkpt><trkpt lat="45.5855117" lon="13.7981117"><ele>12.0</ele><time>2026-04-19T13:54:39.224Z</time></trkpt><trkpt lat="45.5856417" lon="13.7981167"><ele>11.0</ele><time>2026-04-19T13:54:40.223Z</time></trkpt><trkpt lat="45.5857667" lon="13.7981117"><ele>10.0</ele><time>2026-04-19T13:54:41.222Z</time></trkpt><trkpt lat="45.585895" lon="13.7981067"><ele>9.0</ele><time>2026-04-19T13:54:42.226Z</time></trkpt><trkpt lat="45.586025" lon="13.7981133"><ele>9.0</ele><time>2026-04-19T13:54:43.223Z</time></trkpt><trkpt lat="45.5861567" lon="13.798125"><ele>9.0</ele><time>2026-04-19T13:54:44.224Z</time></trkpt><trkpt lat="45.5862867" lon="13.7981333"><ele>9.0</ele><time>2026-04-19T13:54:45.222Z</time></trkpt><trkpt lat="45.58641" lon="13.7981483"><ele>9.0</ele><time>2026-04-19T13:54:46.221Z</time></trkpt><trkpt lat="45.5865283" lon="13.7981667"><ele>8.75</ele><time>2026-04-19T13:54:47.221Z</time></trkpt><trkpt lat="45.5866533" lon="13.798175"><ele>8.5</ele><time>2026-04-19T13:54:48.22Z</time></trkpt><trkpt lat="45.586785" lon="13.7982083"><ele>8.25</ele><time>2026-04-19T13:54:49.223Z</time></trkpt><trkpt lat="45.5869233" lon="13.79824"><ele>8.0</ele><time>2026-04-19T13:54:50.223Z</time></trkpt><trkpt lat="45.5870567" lon="13.7982667"><ele>7.75</ele><time>2026-04-19T13:54:51.221Z</time></trkpt><trkpt lat="45.5871833" lon="13.7982933"><ele>7.5</ele><time>2026-04-19T13:54:52.221Z</time></trkpt><trkpt lat="45.587305" lon="13.7983067"><ele>7.25</ele><time>2026-04-19T13:54:53.221Z</time></trkpt><trkpt lat="45.5874183" lon="13.79833"><ele>7.0</ele><time>2026-04-19T13:54:54.219Z</time></trkpt><trkpt lat="45.5876133" lon="13.7984567"><ele>5.5</ele><time>2026-04-19T13:54:55.766Z</time></trkpt><trkpt lat="45.5877533" lon="13.7985783"><ele>4.0</ele><time>2026-04-19T13:54:56.966Z</time></trkpt><trkpt lat="45.58804" lon="13.7987017"><ele>3.75</ele><time>2026-04-19T13:54:59.22Z</time></trkpt><trkpt lat="45.58817" lon="13.798765"><ele>3.5</ele><time>2026-04-19T13:55:00.222Z</time></trkpt><trkpt lat="45.5882933" lon="13.7988283"><ele>3.25</ele><time>2026-04-19T13:55:01.219Z</time></trkpt><trkpt lat="45.5884117" lon="13.7988983"><ele>3.0</ele><time>2026-04-19T13:55:02.224Z</time></trkpt><trkpt lat="45.5885283" lon="13.7989667"><ele>3.0</ele><time>2026-04-19T13:55:03.22Z</time></trkpt><trkpt lat="45.5886483" lon="13.79904"><ele>3.0</ele><time>2026-04-19T13:55:04.223Z</time></trkpt><trkpt lat="45.5887617" lon="13.799115"><ele>3.0</ele><time>2026-04-19T13:55:05.22Z</time></trkpt><trkpt lat="45.5888717" lon="13.7991917"><ele>3.0</ele><time>2026-04-19T13:55:06.222Z</time></trkpt><trkpt lat="45.588975" lon="13.7992683"><ele>3.0</ele><time>2026-04-19T13:55:07.223Z</time></trkpt><trkpt lat="45.5890833" lon="13.7993867"><ele>3.0</ele><time>2026-04-19T13:55:08.221Z</time></trkpt><trkpt lat="45.5891833" lon="13.7994333"><ele>3.0</ele><time>2026-04-19T13:55:09.221Z</time></trkpt><trkpt lat="45.589285" lon="13.79954"><ele>3.0</ele><time>2026-04-19T13:55:10.222Z</time></trkpt><trkpt lat="45.589385" lon="13.7995883"><ele>3.0</ele><time>2026-04-19T13:55:11.22Z</time></trkpt><trkpt lat="45.5894917" lon="13.79969"><ele>3.0</ele><time>2026-04-19T13:55:12.222Z</time></trkpt><trkpt lat="45.5895817" lon="13.7996917"><ele>3.0</ele><time>2026-04-19T13:55:13.223Z</time></trkpt><trkpt lat="45.5896783" lon="13.7997633"><ele>3.0</ele><time>2026-04-19T13:55:14.222Z</time></trkpt><trkpt lat="45.5897767" lon="13.7998783"><ele>2.4</ele><time>2026-04-19T13:55:15.224Z</time></trkpt><trkpt lat="45.5898617" lon="13.79993"><ele>1.7999999999999998</ele><time>2026-04-19T13:55:16.223Z</time></trkpt><trkpt lat="45.58994" lon="13.80002"><ele>1.2</ele><time>2026-04-19T13:55:17.223Z</time></trkpt><trkpt lat="45.5900133" lon="13.8001033"><ele>0.6</ele><time>2026-04-19T13:55:18.223Z</time></trkpt><trkpt lat="45.5900883" lon="13.8001867"><ele>0.0</ele><time>2026-04-19T13:55:19.221Z</time></trkpt><trkpt lat="45.5901633" lon="13.8002717"><ele>0.0</ele><time>2026-04-19T13:55:20.224Z</time></trkpt><trkpt lat="45.59024" lon="13.8003517"><ele>0.0</ele><time>2026-04-19T13:55:21.219Z</time></trkpt><trkpt lat="45.5903133" lon="13.8004283"><ele>0.0</ele><time>2026-04-19T13:55:22.225Z</time></trkpt><trkpt lat="45.590385" lon="13.8004933"><ele>0.0</ele><time>2026-04-19T13:55:23.221Z</time></trkpt><trkpt lat="45.590455" lon="13.800575"><ele>0.0</ele><time>2026-04-19T13:55:24.222Z</time></trkpt><trkpt lat="45.5905283" lon="13.8006567"><ele>0.3333333333333333</ele><time>2026-04-19T13:55:25.221Z</time></trkpt><trkpt lat="45.5905983" lon="13.80074"><ele>0.6666666666666666</ele><time>2026-04-19T13:55:26.223Z</time></trkpt><trkpt lat="45.5906733" lon="13.8008067"><ele>1.0</ele><time>2026-04-19T13:55:27.225Z</time></trkpt><trkpt lat="45.5907483" lon="13.8008467"><ele>1.3333333333333333</ele><time>2026-04-19T13:55:28.223Z</time></trkpt><trkpt lat="45.5908117" lon="13.80087"><ele>1.6666666666666665</ele><time>2026-04-19T13:55:29.221Z</time></trkpt><trkpt lat="45.5908767" lon="13.8009167"><ele>2.0</ele><time>2026-04-19T13:55:30.223Z</time></trkpt><trkpt lat="45.59095" lon="13.8008833"><ele>1.9999999999999998</ele><time>2026-04-19T13:55:32.222Z</time></trkpt><trkpt lat="45.5910067" lon="13.8009283"><ele>2.0</ele><time>2026-04-19T13:55:33.225Z</time></trkpt><trkpt lat="45.5911267" lon="13.8010067"><ele>2.0</ele><time>2026-04-19T13:55:35.223Z</time></trkpt><trkpt lat="45.5911833" lon="13.8010567"><ele>2.0</ele><time>2026-04-19T13:55:36.224Z</time></trkpt><trkpt lat="45.59128" lon="13.8010983"><ele>1.9999999999999998</ele><time>2026-04-19T13:55:38.223Z</time></trkpt><trkpt lat="45.591325" lon="13.8010333"><ele>2.0</ele><time>2026-04-19T13:55:41.222Z</time></trkpt><trkpt lat="45.591395" lon="13.8010833"><ele>1.6</ele><time>2026-04-19T13:55:43.219Z</time></trkpt><trkpt lat="45.5914817" lon="13.80114"><ele>1.2000000000000002</ele><time>2026-04-19T13:55:45.226Z</time></trkpt><trkpt lat="45.5916167" lon="13.8012483"><ele>0.8</ele><time>2026-04-19T13:55:47.223Z</time></trkpt><trkpt lat="45.5916867" lon="13.80132"><ele>0.4</ele><time>2026-04-19T13:55:48.22Z</time></trkpt><trkpt lat="45.5917517" lon="13.8013383"><ele>0.0</ele><time>2026-04-19T13:55:49.22Z</time></trkpt><trkpt lat="45.5918417" lon="13.8013733"><ele>0.0</ele><time>2026-04-19T13:55:51.222Z</time></trkpt><trkpt lat="45.5919333" lon="13.80144"><ele>0.0</ele><time>2026-04-19T13:55:53.221Z</time></trkpt><trkpt lat="45.5920117" lon="13.8015267"><ele>0.0</ele><time>2026-04-19T13:55:55.222Z</time></trkpt><trkpt lat="45.5920867" lon="13.8015817"><ele>0.0</ele><time>2026-04-19T13:55:57.223Z</time></trkpt><trkpt lat="45.5921867" lon="13.8016883"><ele>0.0</ele><time>2026-04-19T13:56:01.221Z</time></trkpt><trkpt lat="45.5922683" lon="13.8018083"><ele>0.5</ele><time>2026-04-19T13:56:10.223Z</time></trkpt><trkpt lat="45.5923467" lon="13.80193"><ele>1.0</ele><time>2026-04-19T13:56:11.222Z</time></trkpt><trkpt lat="45.59244" lon="13.8020267"><ele>1.5</ele><time>2026-04-19T13:56:12.222Z</time></trkpt><trkpt lat="45.5925417" lon="13.8020917"><ele>2.0</ele><time>2026-04-19T13:56:13.222Z</time></trkpt><trkpt lat="45.5926583" lon="13.8021583"><ele>2.0</ele><time>2026-04-19T13:56:14.221Z</time></trkpt><trkpt lat="45.5927767" lon="13.80223"><ele>2.0</ele><time>2026-04-19T13:56:15.222Z</time></trkpt><trkpt lat="45.592905" lon="13.8023333"><ele>2.0</ele><time>2026-04-19T13:56:16.22Z</time></trkpt><trkpt lat="45.59305" lon="13.8024467"><ele>2.0</ele><time>2026-04-19T13:56:17.222Z</time></trkpt><trkpt lat="45.5932" lon="13.8025783"><ele>2.333333333333333</ele><time>2026-04-19T13:56:18.222Z</time></trkpt><trkpt lat="45.5933517" lon="13.8027167"><ele>2.6666666666666665</ele><time>2026-04-19T13:56:19.222Z</time></trkpt><trkpt lat="45.5934983" lon="13.8028633"><ele>3.0</ele><time>2026-04-19T13:56:20.225Z</time></trkpt><trkpt lat="45.593615" lon="13.80296"><ele>2.75</ele><time>2026-04-19T13:56:21.223Z</time></trkpt><trkpt lat="45.5937317" lon="13.8030683"><ele>2.5</ele><time>2026-04-19T13:56:22.223Z</time></trkpt><trkpt lat="45.5938483" lon="13.8031767"><ele>2.25</ele><time>2026-04-19T13:56:23.222Z</time></trkpt><trkpt lat="45.5939633" lon="13.8032817"><ele>2.0</ele><time>2026-04-19T13:56:24.222Z</time></trkpt><trkpt lat="45.59408" lon="13.8033883"><ele>2.5</ele><time>2026-04-19T13:56:25.219Z</time></trkpt><trkpt lat="45.5941967" lon="13.8034983"><ele>3.0</ele><time>2026-04-19T13:56:26.219Z</time></trkpt><trkpt lat="45.5943183" lon="13.8036133"><ele>3.5</ele><time>2026-04-19T13:56:27.222Z</time></trkpt><trkpt lat="45.5944517" lon="13.8037367"><ele>4.0</ele><time>2026-04-19T13:56:28.219Z</time></trkpt><trkpt lat="45.5945917" lon="13.803865"><ele>5.666666666666666</ele><time>2026-04-19T13:56:29.222Z</time></trkpt><trkpt lat="45.5947217" lon="13.8039883"><ele>7.333333333333333</ele><time>2026-04-19T13:56:30.218Z</time></trkpt><trkpt lat="45.5948533" lon="13.8041133"><ele>9.0</ele><time>2026-04-19T13:56:31.219Z</time></trkpt><trkpt lat="45.5949867" lon="13.804235"><ele>9.0</ele><time>2026-04-19T13:56:32.221Z</time></trkpt><trkpt lat="45.5951183" lon="13.80436"><ele>9.0</ele><time>2026-04-19T13:56:33.225Z</time></trkpt><trkpt lat="45.5952467" lon="13.80449"><ele>9.0</ele><time>2026-04-19T13:56:34.222Z</time></trkpt><trkpt lat="45.595375" lon="13.80463"><ele>9.333333333333334</ele><time>2026-04-19T13:56:35.223Z</time></trkpt><trkpt lat="45.595505" lon="13.80478"><ele>9.666666666666668</ele><time>2026-04-19T13:56:36.224Z</time></trkpt><trkpt lat="45.5956417" lon="13.804945"><ele>10.0</ele><time>2026-04-19T13:56:37.219Z</time></trkpt><trkpt lat="45.59578" lon="13.80512"><ele>11.333333333333334</ele><time>2026-04-19T13:56:38.221Z</time></trkpt><trkpt lat="45.59591" lon="13.8053033"><ele>12.666666666666668</ele><time>2026-04-19T13:56:39.229Z</time></trkpt><trkpt lat="45.5960367" lon="13.8054917"><ele>14.0</ele><time>2026-04-19T13:56:40.223Z</time></trkpt><trkpt lat="45.5961617" lon="13.8056867"><ele>13.0</ele><time>2026-04-19T13:56:41.222Z</time></trkpt><trkpt lat="45.5962833" lon="13.80589"><ele>12.0</ele><time>2026-04-19T13:56:42.223Z</time></trkpt><trkpt lat="45.5964117" lon="13.806115"><ele>11.0</ele><time>2026-04-19T13:56:43.22Z</time></trkpt><trkpt lat="45.59654" lon="13.8063533"><ele>15.5</ele><time>2026-04-19T13:56:44.221Z</time></trkpt><trkpt lat="45.596665" lon="13.8066"><ele>20.0</ele><time>2026-04-19T13:56:45.224Z</time></trkpt><trkpt lat="45.5968" lon="13.80688"><ele>21.0</ele><time>2026-04-19T13:56:46.223Z</time></trkpt><trkpt lat="45.5969433" lon="13.8071817"><ele>22.0</ele><time>2026-04-19T13:56:47.222Z</time></trkpt><trkpt lat="45.5970867" lon="13.8074817"><ele>26.5</ele><time>2026-04-19T13:56:48.222Z</time></trkpt><trkpt lat="45.5972283" lon="13.80777"><ele>31.0</ele><time>2026-04-19T13:56:49.224Z</time></trkpt><trkpt lat="45.5973667" lon="13.8080533"><ele>31.0</ele><time>2026-04-19T13:56:50.222Z</time></trkpt><trkpt lat="45.59751" lon="13.808345"><ele>31.0</ele><time>2026-04-19T13:56:51.224Z</time></trkpt><trkpt lat="45.5976617" lon="13.8086583"><ele>34.5</ele><time>2026-04-19T13:56:52.224Z</time></trkpt><trkpt lat="45.5978267" lon="13.8090017"><ele>38.0</ele><time>2026-04-19T13:56:53.22Z</time></trkpt><trkpt lat="45.597995" lon="13.8093733"><ele>38.0</ele><time>2026-04-19T13:56:54.219Z</time></trkpt><trkpt lat="45.5981533" lon="13.80974"><ele>38.0</ele><time>2026-04-19T13:56:55.224Z</time></trkpt><trkpt lat="45.5983083" lon="13.8100983"><ele>42.0</ele><time>2026-04-19T13:56:56.224Z</time></trkpt><trkpt lat="45.59847" lon="13.810455"><ele>46.0</ele><time>2026-04-19T13:56:57.225Z</time></trkpt><trkpt lat="45.5986167" lon="13.8108067"><ele>59.0</ele><time>2026-04-19T13:56:58.225Z</time></trkpt><trkpt lat="45.598785" lon="13.8111867"><ele>72.0</ele><time>2026-04-19T13:56:59.221Z</time></trkpt><trkpt lat="45.59897" lon="13.8115967"><ele>73.0</ele><time>2026-04-19T13:57:00.223Z</time></trkpt><trkpt lat="45.599155" lon="13.8120117"><ele>74.0</ele><time>2026-04-19T13:57:01.223Z</time></trkpt><trkpt lat="45.599315" lon="13.8124367"><ele>75.5</ele><time>2026-04-19T13:57:02.221Z</time></trkpt><trkpt lat="45.5994967" lon="13.81282"><ele>77.0</ele><time>2026-04-19T13:57:03.221Z</time></trkpt><trkpt lat="45.599665" lon="13.813185"><ele>87.0</ele><time>2026-04-19T13:57:04.222Z</time></trkpt><trkpt lat="45.5998117" lon="13.81354"><ele>97.0</ele><time>2026-04-19T13:57:05.221Z</time></trkpt><trkpt lat="45.5999533" lon="13.81389"><ele>97.0</ele><time>2026-04-19T13:57:06.221Z</time></trkpt><trkpt lat="45.6001033" lon="13.8142133"><ele>97.0</ele><time>2026-04-19T13:57:07.224Z</time></trkpt><trkpt lat="45.6002417" lon="13.81453"><ele>100.0</ele><time>2026-04-19T13:57:08.22Z</time></trkpt><trkpt lat="45.6003533" lon="13.814845"><ele>103.0</ele><time>2026-04-19T13:57:09.221Z</time></trkpt><trkpt lat="45.6005017" lon="13.815145"><ele>105.0</ele><time>2026-04-19T13:57:10.222Z</time></trkpt><trkpt lat="45.6006317" lon="13.8154533"><ele>107.0</ele><time>2026-04-19T13:57:11.223Z</time></trkpt><trkpt lat="45.6007617" lon="13.8157617"><ele>108.5</ele><time>2026-04-19T13:57:12.221Z</time></trkpt><trkpt lat="45.60089" lon="13.8160717"><ele>110.0</ele><time>2026-04-19T13:57:13.223Z</time></trkpt><trkpt lat="45.6010167" lon="13.8163767"><ele>110.0</ele><time>2026-04-19T13:57:14.223Z</time></trkpt><trkpt lat="45.601145" lon="13.8166783"><ele>110.0</ele><time>2026-04-19T13:57:15.221Z</time></trkpt><trkpt lat="45.6012733" lon="13.8169833"><ele>110.0</ele><time>2026-04-19T13:57:16.219Z</time></trkpt><trkpt lat="45.6014017" lon="13.8172933"><ele>110.0</ele><time>2026-04-19T13:57:17.22Z</time></trkpt><trkpt lat="45.6015317" lon="13.8176083"><ele>113.5</ele><time>2026-04-19T13:57:18.223Z</time></trkpt><trkpt lat="45.60166" lon="13.81792"><ele>117.0</ele><time>2026-04-19T13:57:19.218Z</time></trkpt><trkpt lat="45.60178" lon="13.8182117"><ele>115.0</ele><time>2026-04-19T13:57:20.219Z</time></trkpt><trkpt lat="45.6018983" lon="13.8185017"><ele>113.0</ele><time>2026-04-19T13:57:21.221Z</time></trkpt><trkpt lat="45.60202" lon="13.8187967"><ele>110.0</ele><time>2026-04-19T13:57:22.225Z</time></trkpt><trkpt lat="45.6021383" lon="13.8190867"><ele>107.0</ele><time>2026-04-19T13:57:23.218Z</time></trkpt><trkpt lat="45.6022533" lon="13.8193767"><ele>107.0</ele><time>2026-04-19T13:57:24.22Z</time></trkpt><trkpt lat="45.60237" lon="13.81967"><ele>107.0</ele><time>2026-04-19T13:57:25.22Z</time></trkpt><trkpt lat="45.6024867" lon="13.8199667"><ele>109.0</ele><time>2026-04-19T13:57:26.22Z</time></trkpt><trkpt lat="45.602605" lon="13.8202683"><ele>111.0</ele><time>2026-04-19T13:57:27.221Z</time></trkpt><trkpt lat="45.6027233" lon="13.8205717"><ele>97.0</ele><time>2026-04-19T13:57:28.222Z</time></trkpt><trkpt lat="45.6028417" lon="13.820865"><ele>83.0</ele><time>2026-04-19T13:57:29.223Z</time></trkpt><trkpt lat="45.6029533" lon="13.82114"><ele>82.0</ele><time>2026-04-19T13:57:30.219Z</time></trkpt><trkpt lat="45.60306" lon="13.8214117"><ele>81.0</ele><time>2026-04-19T13:57:31.22Z</time></trkpt><trkpt lat="45.6031583" lon="13.8216617"><ele>80.0</ele><time>2026-04-19T13:57:32.218Z</time></trkpt><trkpt lat="45.603245" lon="13.8218767"><ele>78.0</ele><time>2026-04-19T13:57:33.219Z</time></trkpt><trkpt lat="45.603345" lon="13.8221267"><ele>76.0</ele><time>2026-04-19T13:57:34.219Z</time></trkpt><trkpt lat="45.60345" lon="13.822385"><ele>74.0</ele><time>2026-04-19T13:57:35.218Z</time></trkpt><trkpt lat="45.6035483" lon="13.8226267"><ele>73.66666666666667</ele><time>2026-04-19T13:57:36.22Z</time></trkpt><trkpt lat="45.6036533" lon="13.82289"><ele>73.33333333333333</ele><time>2026-04-19T13:57:37.22Z</time></trkpt><trkpt lat="45.6037633" lon="13.8231633"><ele>73.0</ele><time>2026-04-19T13:57:38.219Z</time></trkpt><trkpt lat="45.6038767" lon="13.823445"><ele>64.33333333333333</ele><time>2026-04-19T13:57:39.221Z</time></trkpt><trkpt lat="45.603995" lon="13.8237317"><ele>55.666666666666664</ele><time>2026-04-19T13:57:40.22Z</time></trkpt><trkpt lat="45.6040967" lon="13.8239633"><ele>47.0</ele><time>2026-04-19T13:57:41.219Z</time></trkpt><trkpt lat="45.6041617" lon="13.8240867"><ele>45.0</ele><time>2026-04-19T13:57:42.22Z</time></trkpt><trkpt lat="45.6043267" lon="13.8244883"><ele>43.0</ele><time>2026-04-19T13:57:43.219Z</time></trkpt><trkpt lat="45.60446" lon="13.824735"><ele>34.66666666666667</ele><time>2026-04-19T13:57:44.222Z</time></trkpt><trkpt lat="45.6045867" lon="13.8249767"><ele>26.333333333333336</ele><time>2026-04-19T13:57:45.223Z</time></trkpt><trkpt lat="45.604735" lon="13.8251967"><ele>18.0</ele><time>2026-04-19T13:57:46.221Z</time></trkpt><trkpt lat="45.60487" lon="13.8254033"><ele>18.0</ele><time>2026-04-19T13:57:47.224Z</time></trkpt><trkpt lat="45.6050117" lon="13.8256133"><ele>18.0</ele><time>2026-04-19T13:57:48.223Z</time></trkpt><trkpt lat="45.6051517" lon="13.82582"><ele>18.0</ele><time>2026-04-19T13:57:49.22Z</time></trkpt><trkpt lat="45.6052883" lon="13.8260183"><ele>16.666666666666668</ele><time>2026-04-19T13:57:50.223Z</time></trkpt><trkpt lat="45.6054233" lon="13.826215"><ele>15.333333333333334</ele><time>2026-04-19T13:57:51.225Z</time></trkpt><trkpt lat="45.6055583" lon="13.8264117"><ele>14.0</ele><time>2026-04-19T13:57:52.225Z</time></trkpt><trkpt lat="45.60569" lon="13.826605"><ele>14.0</ele><time>2026-04-19T13:57:53.22Z</time></trkpt><trkpt lat="45.605825" lon="13.8268"><ele>14.0</ele><time>2026-04-19T13:57:54.222Z</time></trkpt><trkpt lat="45.6059617" lon="13.8269983"><ele>14.0</ele><time>2026-04-19T13:57:55.222Z</time></trkpt><trkpt lat="45.6060983" lon="13.8271967"><ele>14.666666666666668</ele><time>2026-04-19T13:57:56.222Z</time></trkpt><trkpt lat="45.606235" lon="13.8273883"><ele>15.333333333333332</ele><time>2026-04-19T13:57:57.224Z</time></trkpt><trkpt lat="45.60637" lon="13.8275817"><ele>16.0</ele><time>2026-04-19T13:57:58.222Z</time></trkpt><trkpt lat="45.6065083" lon="13.8277733"><ele>16.666666666666664</ele><time>2026-04-19T13:57:59.22Z</time></trkpt><trkpt lat="45.6066467" lon="13.8279667"><ele>17.333333333333332</ele><time>2026-04-19T13:58:00.222Z</time></trkpt><trkpt lat="45.6067817" lon="13.8281567"><ele>18.0</ele><time>2026-04-19T13:58:01.223Z</time></trkpt><trkpt lat="45.6069117" lon="13.828345"><ele>17.666666666666668</ele><time>2026-04-19T13:58:02.223Z</time></trkpt><trkpt lat="45.6070367" lon="13.8285267"><ele>17.333333333333336</ele><time>2026-04-19T13:58:03.223Z</time></trkpt><trkpt lat="45.6071567" lon="13.828695"><ele>17.0</ele><time>2026-04-19T13:58:04.221Z</time></trkpt><trkpt lat="45.6072667" lon="13.82885"><ele>17.0</ele><time>2026-04-19T13:58:05.222Z</time></trkpt><trkpt lat="45.6073683" lon="13.828995"><ele>17.0</ele><time>2026-04-19T13:58:06.218Z</time></trkpt><trkpt lat="45.6074633" lon="13.8291483"><ele>17.0</ele><time>2026-04-19T13:58:07.219Z</time></trkpt><trkpt lat="45.6075567" lon="13.8293117"><ele>17.0</ele><time>2026-04-19T13:58:08.222Z</time></trkpt><trkpt lat="45.6076467" lon="13.82949"><ele>16.333333333333336</ele><time>2026-04-19T13:58:09.221Z</time></trkpt><trkpt lat="45.60773" lon="13.8296817"><ele>15.666666666666668</ele><time>2026-04-19T13:58:10.221Z</time></trkpt><trkpt lat="45.6077983" lon="13.8298917"><ele>15.0</ele><time>2026-04-19T13:58:11.222Z</time></trkpt><trkpt lat="45.6078517" lon="13.8301133"><ele>15.0</ele><time>2026-04-19T13:58:12.221Z</time></trkpt><trkpt lat="45.6078883" lon="13.83034"><ele>15.0</ele><time>2026-04-19T13:58:13.221Z</time></trkpt><trkpt lat="45.6079067" lon="13.8305667"><ele>15.0</ele><time>2026-04-19T13:58:14.22Z</time></trkpt><trkpt lat="45.6079067" lon="13.8307933"><ele>16.333333333333332</ele><time>2026-04-19T13:58:15.224Z</time></trkpt><trkpt lat="45.6078933" lon="13.831025"><ele>17.666666666666664</ele><time>2026-04-19T13:58:16.222Z</time></trkpt><trkpt lat="45.6078767" lon="13.8312633"><ele>19.0</ele><time>2026-04-19T13:58:17.221Z</time></trkpt><trkpt lat="45.6078583" lon="13.8314883"><ele>19.0</ele><time>2026-04-19T13:58:18.219Z</time></trkpt><trkpt lat="45.6078433" lon="13.8317117"><ele>19.0</ele><time>2026-04-19T13:58:19.22Z</time></trkpt><trkpt lat="45.6078333" lon="13.831935"><ele>19.0</ele><time>2026-04-19T13:58:20.223Z</time></trkpt><trkpt lat="45.60782" lon="13.8321617"><ele>19.333333333333332</ele><time>2026-04-19T13:58:21.228Z</time></trkpt><trkpt lat="45.607805" lon="13.8323933"><ele>19.666666666666668</ele><time>2026-04-19T13:58:22.224Z</time></trkpt><trkpt lat="45.60779" lon="13.8326233"><ele>20.0</ele><time>2026-04-19T13:58:23.22Z</time></trkpt><trkpt lat="45.6077767" lon="13.8328417"><ele>20.0</ele><time>2026-04-19T13:58:24.221Z</time></trkpt><trkpt lat="45.6077633" lon="13.8330583"><ele>20.0</ele><time>2026-04-19T13:58:25.222Z</time></trkpt><trkpt lat="45.6077533" lon="13.833285"><ele>20.0</ele><time>2026-04-19T13:58:26.219Z</time></trkpt><trkpt lat="45.6077383" lon="13.8335167"><ele>19.666666666666668</ele><time>2026-04-19T13:58:27.223Z</time></trkpt><trkpt lat="45.607725" lon="13.8337667"><ele>19.333333333333332</ele><time>2026-04-19T13:58:28.225Z</time></trkpt><trkpt lat="45.6077167" lon="13.8340267"><ele>19.0</ele><time>2026-04-19T13:58:29.222Z</time></trkpt><trkpt lat="45.6077133" lon="13.8342983"><ele>19.666666666666664</ele><time>2026-04-19T13:58:30.224Z</time></trkpt><trkpt lat="45.6077167" lon="13.8345783"><ele>20.333333333333332</ele><time>2026-04-19T13:58:31.222Z</time></trkpt><trkpt lat="45.6077233" lon="13.8348767"><ele>21.0</ele><time>2026-04-19T13:58:32.224Z</time></trkpt><trkpt lat="45.6077383" lon="13.8351967"><ele>22.0</ele><time>2026-04-19T13:58:33.221Z</time></trkpt><trkpt lat="45.6077683" lon="13.8355367"><ele>23.0</ele><time>2026-04-19T13:58:34.221Z</time></trkpt><trkpt lat="45.6078067" lon="13.83588"><ele>26.0</ele><time>2026-04-19T13:58:35.223Z</time></trkpt><trkpt lat="45.6078467" lon="13.8362117"><ele>29.0</ele><time>2026-04-19T13:58:36.224Z</time></trkpt><trkpt lat="45.6078933" lon="13.8365483"><ele>30.5</ele><time>2026-04-19T13:58:37.224Z</time></trkpt><trkpt lat="45.60795" lon="13.8368867"><ele>32.0</ele><time>2026-04-19T13:58:38.223Z</time></trkpt><trkpt lat="45.6080217" lon="13.8372167"><ele>32.0</ele><time>2026-04-19T13:58:39.221Z</time></trkpt><trkpt lat="45.60811" lon="13.8375417"><ele>32.0</ele><time>2026-04-19T13:58:40.223Z</time></trkpt><trkpt lat="45.6082033" lon="13.837865"><ele>33.5</ele><time>2026-04-19T13:58:41.218Z</time></trkpt><trkpt lat="45.60831" lon="13.83818"><ele>35.0</ele><time>2026-04-19T13:58:42.225Z</time></trkpt><trkpt lat="45.6084333" lon="13.8384817"><ele>36.5</ele><time>2026-04-19T13:58:43.224Z</time></trkpt><trkpt lat="45.6085717" lon="13.8387767"><ele>38.0</ele><time>2026-04-19T13:58:44.224Z</time></trkpt><trkpt lat="45.6087233" lon="13.8390717"><ele>39.5</ele><time>2026-04-19T13:58:45.223Z</time></trkpt><trkpt lat="45.6088517" lon="13.8393683"><ele>41.0</ele><time>2026-04-19T13:58:46.221Z</time></trkpt><trkpt lat="45.609055" lon="13.839655"><ele>41.0</ele><time>2026-04-19T13:58:47.224Z</time></trkpt><trkpt lat="45.6092567" lon="13.8399367"><ele>41.0</ele><time>2026-04-19T13:58:48.223Z</time></trkpt><trkpt lat="45.609455" lon="13.840205"><ele>42.5</ele><time>2026-04-19T13:58:49.221Z</time></trkpt><trkpt lat="45.6096433" lon="13.8404733"><ele>44.0</ele><time>2026-04-19T13:58:50.223Z</time></trkpt><trkpt lat="45.6098267" lon="13.84075"><ele>45.5</ele><time>2026-04-19T13:58:51.225Z</time></trkpt><trkpt lat="45.6100017" lon="13.8410383"><ele>47.0</ele><time>2026-04-19T13:58:52.221Z</time></trkpt><trkpt lat="45.6101733" lon="13.8413317"><ele>49.5</ele><time>2026-04-19T13:58:53.224Z</time></trkpt><trkpt lat="45.6103467" lon="13.84163"><ele>52.0</ele><time>2026-04-19T13:58:54.224Z</time></trkpt><trkpt lat="45.610525" lon="13.84193"><ele>52.0</ele><time>2026-04-19T13:58:55.222Z</time></trkpt><trkpt lat="45.6107017" lon="13.84223"><ele>52.0</ele><time>2026-04-19T13:58:56.221Z</time></trkpt><trkpt lat="45.6108767" lon="13.842525"><ele>52.5</ele><time>2026-04-19T13:58:57.223Z</time></trkpt><trkpt lat="45.61105" lon="13.8428167"><ele>53.0</ele><time>2026-04-19T13:58:58.222Z</time></trkpt><trkpt lat="45.6112233" lon="13.84311"><ele>54.5</ele><time>2026-04-19T13:58:59.222Z</time></trkpt><trkpt lat="45.6114033" lon="13.8434083"><ele>56.0</ele><time>2026-04-19T13:59:00.224Z</time></trkpt><trkpt lat="45.611585" lon="13.8437183"><ele>56.0</ele><time>2026-04-19T13:59:01.221Z</time></trkpt><trkpt lat="45.61177" lon="13.8440317"><ele>56.0</ele><time>2026-04-19T13:59:02.223Z</time></trkpt><trkpt lat="45.6119483" lon="13.8443383"><ele>59.5</ele><time>2026-04-19T13:59:03.226Z</time></trkpt><trkpt lat="45.6121267" lon="13.84464"><ele>63.0</ele><time>2026-04-19T13:59:04.223Z</time></trkpt><trkpt lat="45.6123033" lon="13.8449417"><ele>60.0</ele><time>2026-04-19T13:59:05.224Z</time></trkpt><trkpt lat="45.612485" lon="13.845245"><ele>57.0</ele><time>2026-04-19T13:59:06.221Z</time></trkpt><trkpt lat="45.61267" lon="13.8455533"><ele>60.0</ele><time>2026-04-19T13:59:07.224Z</time></trkpt><trkpt lat="45.612855" lon="13.8458683"><ele>63.0</ele><time>2026-04-19T13:59:08.223Z</time></trkpt><trkpt lat="45.6130483" lon="13.8461967"><ele>63.0</ele><time>2026-04-19T13:59:09.223Z</time></trkpt><trkpt lat="45.6132467" lon="13.8465333"><ele>63.0</ele><time>2026-04-19T13:59:10.223Z</time></trkpt><trkpt lat="45.6134417" lon="13.84687"><ele>59.5</ele><time>2026-04-19T13:59:11.222Z</time></trkpt><trkpt lat="45.6136333" lon="13.8472083"><ele>56.0</ele><time>2026-04-19T13:59:12.224Z</time></trkpt><trkpt lat="45.6138217" lon="13.84754"><ele>60.0</ele><time>2026-04-19T13:59:13.224Z</time></trkpt><trkpt lat="45.6140083" lon="13.847865"><ele>64.0</ele><time>2026-04-19T13:59:14.222Z</time></trkpt><trkpt lat="45.6142" lon="13.8481883"><ele>64.5</ele><time>2026-04-19T13:59:15.222Z</time></trkpt><trkpt lat="45.61441" lon="13.848505"><ele>65.0</ele><time>2026-04-19T13:59:16.223Z</time></trkpt><trkpt lat="45.6146417" lon="13.8487933"><ele>65.0</ele><time>2026-04-19T13:59:17.223Z</time></trkpt><trkpt lat="45.6148917" lon="13.8490383"><ele>65.0</ele><time>2026-04-19T13:59:18.224Z</time></trkpt><trkpt lat="45.6151583" lon="13.84922"><ele>67.5</ele><time>2026-04-19T13:59:19.224Z</time></trkpt><trkpt lat="45.6154383" lon="13.849355"><ele>70.0</ele><time>2026-04-19T13:59:20.222Z</time></trkpt><trkpt lat="45.615725" lon="13.8494483"><ele>70.0</ele><time>2026-04-19T13:59:21.223Z</time></trkpt><trkpt lat="45.6160283" lon="13.8494817"><ele>70.0</ele><time>2026-04-19T13:59:22.226Z</time></trkpt><trkpt lat="45.616325" lon="13.8494567"><ele>71.0</ele><time>2026-04-19T13:59:23.223Z</time></trkpt><trkpt lat="45.6166083" lon="13.84938"><ele>72.0</ele><time>2026-04-19T13:59:24.219Z</time></trkpt><trkpt lat="45.6168817" lon="13.849265"><ele>73.5</ele><time>2026-04-19T13:59:25.227Z</time></trkpt><trkpt lat="45.617145" lon="13.8490933"><ele>75.0</ele><time>2026-04-19T13:59:26.223Z</time></trkpt><trkpt lat="45.6173967" lon="13.8488817"><ele>75.0</ele><time>2026-04-19T13:59:27.231Z</time></trkpt><trkpt lat="45.6176367" lon="13.8486417"><ele>75.0</ele><time>2026-04-19T13:59:28.217Z</time></trkpt><trkpt lat="45.6178767" lon="13.8483783"><ele>77.0</ele><time>2026-04-19T13:59:29.222Z</time></trkpt><trkpt lat="45.6181217" lon="13.848105"><ele>79.0</ele><time>2026-04-19T13:59:30.218Z</time></trkpt><trkpt lat="45.61836" lon="13.8478167"><ele>79.5</ele><time>2026-04-19T13:59:31.218Z</time></trkpt><trkpt lat="45.6185883" lon="13.8475117"><ele>80.0</ele><time>2026-04-19T13:59:32.219Z</time></trkpt><trkpt lat="45.6188183" lon="13.8471783"><ele>81.5</ele><time>2026-04-19T13:59:33.219Z</time></trkpt><trkpt lat="45.61904" lon="13.8468017"><ele>83.0</ele><time>2026-04-19T13:59:34.224Z</time></trkpt><trkpt lat="45.6192483" lon="13.8463933"><ele>83.0</ele><time>2026-04-19T13:59:35.222Z</time></trkpt><trkpt lat="45.6194467" lon="13.8459567"><ele>83.0</ele><time>2026-04-19T13:59:36.222Z</time></trkpt><trkpt lat="45.619635" lon="13.84551"><ele>85.5</ele><time>2026-04-19T13:59:37.219Z</time></trkpt><trkpt lat="45.619825" lon="13.8450733"><ele>88.0</ele><time>2026-04-19T13:59:38.226Z</time></trkpt><trkpt lat="45.6200167" lon="13.844655"><ele>88.5</ele><time>2026-04-19T13:59:39.224Z</time></trkpt><trkpt lat="45.6202" lon="13.8442583"><ele>89.0</ele><time>2026-04-19T13:59:40.222Z</time></trkpt><trkpt lat="45.6203817" lon="13.8438683"><ele>97.5</ele><time>2026-04-19T13:59:41.225Z</time></trkpt><trkpt lat="45.6205667" lon="13.84348"><ele>106.0</ele><time>2026-04-19T13:59:42.221Z</time></trkpt><trkpt lat="45.6207583" lon="13.843105"><ele>106.0</ele><time>2026-04-19T13:59:43.224Z</time></trkpt><trkpt lat="45.6209583" lon="13.8427433"><ele>106.0</ele><time>2026-04-19T13:59:44.223Z</time></trkpt><trkpt lat="45.6211683" lon="13.84239"><ele>106.0</ele><time>2026-04-19T13:59:45.221Z</time></trkpt><trkpt lat="45.62139" lon="13.8420567"><ele>106.0</ele><time>2026-04-19T13:59:46.221Z</time></trkpt><trkpt lat="45.6216133" lon="13.8417433"><ele>106.0</ele><time>2026-04-19T13:59:47.216Z</time></trkpt><trkpt lat="45.6218317" lon="13.84144"><ele>106.0</ele><time>2026-04-19T13:59:48.224Z</time></trkpt><trkpt lat="45.6220483" lon="13.84114"><ele>107.5</ele><time>2026-04-19T13:59:49.217Z</time></trkpt><trkpt lat="45.6222667" lon="13.8408433"><ele>109.0</ele><time>2026-04-19T13:59:50.224Z</time></trkpt><trkpt lat="45.62248" lon="13.8405517"><ele>109.0</ele><time>2026-04-19T13:59:51.228Z</time></trkpt><trkpt lat="45.6226883" lon="13.8402667"><ele>109.0</ele><time>2026-04-19T13:59:52.23Z</time></trkpt><trkpt lat="45.6228867" lon="13.8400017"><ele>111.5</ele><time>2026-04-19T13:59:53.224Z</time></trkpt><trkpt lat="45.6230833" lon="13.83974"><ele>114.0</ele><time>2026-04-19T13:59:54.225Z</time></trkpt><trkpt lat="45.6232867" lon="13.83947"><ele>113.5</ele><time>2026-04-19T13:59:55.223Z</time></trkpt><trkpt lat="45.6234917" lon="13.8391933"><ele>113.0</ele><time>2026-04-19T13:59:56.223Z</time></trkpt><trkpt lat="45.6236983" lon="13.8389167"><ele>114.5</ele><time>2026-04-19T13:59:57.226Z</time></trkpt><trkpt lat="45.6239117" lon="13.8386317"><ele>116.0</ele><time>2026-04-19T13:59:58.222Z</time></trkpt><trkpt lat="45.624125" lon="13.8383483"><ele>116.0</ele><time>2026-04-19T13:59:59.221Z</time></trkpt><trkpt lat="45.624335" lon="13.838065"><ele>116.0</ele><time>2026-04-19T14:00:00.225Z</time></trkpt><trkpt lat="45.6245367" lon="13.837775"><ele>113.5</ele><time>2026-04-19T14:00:01.223Z</time></trkpt><trkpt lat="45.6247267" lon="13.8374617"><ele>111.0</ele><time>2026-04-19T14:00:02.224Z</time></trkpt><trkpt lat="45.6248883" lon="13.8371233"><ele>108.5</ele><time>2026-04-19T14:00:03.223Z</time></trkpt><trkpt lat="45.6250183" lon="13.83676"><ele>106.0</ele><time>2026-04-19T14:00:04.226Z</time></trkpt><trkpt lat="45.6251167" lon="13.83638"><ele>106.0</ele><time>2026-04-19T14:00:05.222Z</time></trkpt><trkpt lat="45.6251833" lon="13.83598"><ele>106.0</ele><time>2026-04-19T14:00:06.223Z</time></trkpt><trkpt lat="45.6252167" lon="13.83556"><ele>108.5</ele><time>2026-04-19T14:00:07.225Z</time></trkpt><trkpt lat="45.6252233" lon="13.83515"><ele>111.0</ele><time>2026-04-19T14:00:08.222Z</time></trkpt><trkpt lat="45.6252217" lon="13.8347583"><ele>114.5</ele><time>2026-04-19T14:00:09.219Z</time></trkpt><trkpt lat="45.6252217" lon="13.8343783"><ele>118.0</ele><time>2026-04-19T14:00:10.224Z</time></trkpt><trkpt lat="45.6252317" lon="13.8339983"><ele>120.0</ele><time>2026-04-19T14:00:11.214Z</time></trkpt><trkpt lat="45.625265" lon="13.8336167"><ele>122.0</ele><time>2026-04-19T14:00:12.222Z</time></trkpt><trkpt lat="45.6253183" lon="13.83324"><ele>129.5</ele><time>2026-04-19T14:00:13.227Z</time></trkpt><trkpt lat="45.625405" lon="13.8328617"><ele>137.0</ele><time>2026-04-19T14:00:14.222Z</time></trkpt><trkpt lat="45.625545" lon="13.832505"><ele>137.0</ele><time>2026-04-19T14:00:15.225Z</time></trkpt><trkpt lat="45.6257183" lon="13.83218"><ele>137.0</ele><time>2026-04-19T14:00:16.221Z</time></trkpt><trkpt lat="45.6259183" lon="13.8318933"><ele>139.0</ele><time>2026-04-19T14:00:17.22Z</time></trkpt><trkpt lat="45.626145" lon="13.83165"><ele>141.0</ele><time>2026-04-19T14:00:18.221Z</time></trkpt><trkpt lat="45.6263967" lon="13.8314517"><ele>141.0</ele><time>2026-04-19T14:00:19.223Z</time></trkpt><trkpt lat="45.6266667" lon="13.8312967"><ele>141.0</ele><time>2026-04-19T14:00:20.223Z</time></trkpt><trkpt lat="45.6269467" lon="13.8311783"><ele>139.5</ele><time>2026-04-19T14:00:21.222Z</time></trkpt><trkpt lat="45.6272433" lon="13.8310967"><ele>138.0</ele><time>2026-04-19T14:00:22.225Z</time></trkpt><trkpt lat="45.6275533" lon="13.8310417"><ele>131.0</ele><time>2026-04-19T14:00:23.225Z</time></trkpt><trkpt lat="45.6278617" lon="13.8309717"><ele>124.0</ele><time>2026-04-19T14:00:24.227Z</time></trkpt><trkpt lat="45.6281567" lon="13.8308683"><ele>124.0</ele><time>2026-04-19T14:00:25.217Z</time></trkpt><trkpt lat="45.6284333" lon="13.8307183"><ele>124.0</ele><time>2026-04-19T14:00:26.221Z</time></trkpt><trkpt lat="45.6286917" lon="13.8305217"><ele>129.0</ele><time>2026-04-19T14:00:27.226Z</time></trkpt><trkpt lat="45.628935" lon="13.8302867"><ele>134.0</ele><time>2026-04-19T14:00:28.225Z</time></trkpt><trkpt lat="45.62916" lon="13.82999"><ele>138.5</ele><time>2026-04-19T14:00:29.222Z</time></trkpt><trkpt lat="45.6293617" lon="13.8296583"><ele>143.0</ele><time>2026-04-19T14:00:30.224Z</time></trkpt><trkpt lat="45.629535" lon="13.8292967"><ele>151.5</ele><time>2026-04-19T14:00:31.225Z</time></trkpt><trkpt lat="45.6296733" lon="13.8289017"><ele>160.0</ele><time>2026-04-19T14:00:32.223Z</time></trkpt><trkpt lat="45.6297717" lon="13.8284767"><ele>158.5</ele><time>2026-04-19T14:00:33.225Z</time></trkpt><trkpt lat="45.6298283" lon="13.8280367"><ele>157.0</ele><time>2026-04-19T14:00:34.222Z</time></trkpt><trkpt lat="45.6298483" lon="13.8275717"><ele>155.0</ele><time>2026-04-19T14:00:35.225Z</time></trkpt><trkpt lat="45.629835" lon="13.8270867"><ele>153.0</ele><time>2026-04-19T14:00:36.221Z</time></trkpt><trkpt lat="45.6298083" lon="13.8265983"><ele>153.0</ele><time>2026-04-19T14:00:37.221Z</time></trkpt><trkpt lat="45.6297917" lon="13.8261217"><ele>153.0</ele><time>2026-04-19T14:00:38.223Z</time></trkpt><trkpt lat="45.6297833" lon="13.8256483"><ele>160.0</ele><time>2026-04-19T14:00:39.223Z</time></trkpt><trkpt lat="45.6297817" lon="13.8251817"><ele>167.0</ele><time>2026-04-19T14:00:40.22Z</time></trkpt><trkpt lat="45.6297917" lon="13.8247083"><ele>165.5</ele><time>2026-04-19T14:00:41.22Z</time></trkpt><trkpt lat="45.6298033" lon="13.8242267"><ele>164.0</ele><time>2026-04-19T14:00:42.225Z</time></trkpt><trkpt lat="45.62982" lon="13.8237317"><ele>164.0</ele><time>2026-04-19T14:00:43.217Z</time></trkpt><trkpt lat="45.62984" lon="13.8232217"><ele>164.0</ele><time>2026-04-19T14:00:44.225Z</time></trkpt><trkpt lat="45.6298617" lon="13.822695"><ele>165.5</ele><time>2026-04-19T14:00:45.224Z</time></trkpt><trkpt lat="45.6298867" lon="13.8221683"><ele>167.0</ele><time>2026-04-19T14:00:46.221Z</time></trkpt><trkpt lat="45.629915" lon="13.82166"><ele>168.5</ele><time>2026-04-19T14:00:47.225Z</time></trkpt><trkpt lat="45.62995" lon="13.8211833"><ele>170.0</ele><time>2026-04-19T14:00:48.222Z</time></trkpt><trkpt lat="45.6299983" lon="13.8207283"><ele>170.0</ele><time>2026-04-19T14:00:49.223Z</time></trkpt><trkpt lat="45.6300783" lon="13.8202967"><ele>170.0</ele><time>2026-04-19T14:00:50.222Z</time></trkpt><trkpt lat="45.6301933" lon="13.8199"><ele>172.0</ele><time>2026-04-19T14:00:51.227Z</time></trkpt><trkpt lat="45.6303417" lon="13.8195383"><ele>174.0</ele><time>2026-04-19T14:00:52.222Z</time></trkpt><trkpt lat="45.6305233" lon="13.8192"><ele>174.0</ele><time>2026-04-19T14:00:53.224Z</time></trkpt><trkpt lat="45.6307383" lon="13.8188883"><ele>174.0</ele><time>2026-04-19T14:00:54.223Z</time></trkpt><trkpt lat="45.630985" lon="13.8185967"><ele>172.0</ele><time>2026-04-19T14:00:55.221Z</time></trkpt><trkpt lat="45.6312417" lon="13.8183133"><ele>170.0</ele><time>2026-04-19T14:00:56.221Z</time></trkpt><trkpt lat="45.63149" lon="13.8180317"><ele>170.0</ele><time>2026-04-19T14:00:57.225Z</time></trkpt><trkpt lat="45.6317317" lon="13.81774"><ele>170.0</ele><time>2026-04-19T14:00:58.223Z</time></trkpt><trkpt lat="45.6319617" lon="13.8174317"><ele>180.0</ele><time>2026-04-19T14:00:59.221Z</time></trkpt><trkpt lat="45.6321667" lon="13.817095"><ele>190.0</ele><time>2026-04-19T14:01:00.22Z</time></trkpt><trkpt lat="45.632335" lon="13.8167233"><ele>190.0</ele><time>2026-04-19T14:01:01.226Z</time></trkpt><trkpt lat="45.63248" lon="13.8163283"><ele>190.0</ele><time>2026-04-19T14:01:02.222Z</time></trkpt><trkpt lat="45.6325883" lon="13.8159033"><ele>189.0</ele><time>2026-04-19T14:01:03.22Z</time></trkpt><trkpt lat="45.6326517" lon="13.8154533"><ele>188.0</ele><time>2026-04-19T14:01:04.223Z</time></trkpt><trkpt lat="45.632695" lon="13.8149983"><ele>187.0</ele><time>2026-04-19T14:01:05.221Z</time></trkpt><trkpt lat="45.632745" lon="13.8145483"><ele>186.0</ele><time>2026-04-19T14:01:06.219Z</time></trkpt><trkpt lat="45.632815" lon="13.8141133"><ele>195.5</ele><time>2026-04-19T14:01:07.222Z</time></trkpt><trkpt lat="45.6329083" lon="13.8136917"><ele>205.0</ele><time>2026-04-19T14:01:08.221Z</time></trkpt><trkpt lat="45.6330367" lon="13.8132917"><ele>205.0</ele><time>2026-04-19T14:01:09.222Z</time></trkpt><trkpt lat="45.633195" lon="13.812915"><ele>205.0</ele><time>2026-04-19T14:01:10.22Z</time></trkpt><trkpt lat="45.6333867" lon="13.81258"><ele>202.5</ele><time>2026-04-19T14:01:11.221Z</time></trkpt><trkpt lat="45.6336017" lon="13.8122717"><ele>200.0</ele><time>2026-04-19T14:01:12.221Z</time></trkpt><trkpt lat="45.63385" lon="13.812025"><ele>195.0</ele><time>2026-04-19T14:01:13.223Z</time></trkpt><trkpt lat="45.634105" lon="13.81181"><ele>190.0</ele><time>2026-04-19T14:01:14.221Z</time></trkpt><trkpt lat="45.6343783" lon="13.8116567"><ele>195.5</ele><time>2026-04-19T14:01:15.222Z</time></trkpt><trkpt lat="45.634665" lon="13.8115633"><ele>201.0</ele><time>2026-04-19T14:01:16.222Z</time></trkpt><trkpt lat="45.6349617" lon="13.8115233"><ele>201.0</ele><time>2026-04-19T14:01:17.22Z</time></trkpt><trkpt lat="45.6352617" lon="13.8115483"><ele>201.0</ele><time>2026-04-19T14:01:18.225Z</time></trkpt><trkpt lat="45.635555" lon="13.8116117"><ele>205.5</ele><time>2026-04-19T14:01:19.22Z</time></trkpt><trkpt lat="45.635845" lon="13.8117167"><ele>210.0</ele><time>2026-04-19T14:01:20.229Z</time></trkpt><trkpt lat="45.6361233" lon="13.8118733"><ele>211.5</ele><time>2026-04-19T14:01:21.223Z</time></trkpt><trkpt lat="45.6363783" lon="13.8120917"><ele>213.0</ele><time>2026-04-19T14:01:22.223Z</time></trkpt><trkpt lat="45.63661" lon="13.81236"><ele>216.0</ele><time>2026-04-19T14:01:23.221Z</time></trkpt><trkpt lat="45.6368117" lon="13.812675"><ele>219.0</ele><time>2026-04-19T14:01:24.223Z</time></trkpt><trkpt lat="45.6369733" lon="13.8130383"><ele>210.0</ele><time>2026-04-19T14:01:25.223Z</time></trkpt><trkpt lat="45.6370967" lon="13.8134333"><ele>201.0</ele><time>2026-04-19T14:01:26.223Z</time></trkpt><trkpt lat="45.6371967" lon="13.8138267"><ele>201.0</ele><time>2026-04-19T14:01:27.225Z</time></trkpt><trkpt lat="45.637255" lon="13.8142333"><ele>201.0</ele><time>2026-04-19T14:01:28.221Z</time></trkpt><trkpt lat="45.6372833" lon="13.8146467"><ele>202.5</ele><time>2026-04-19T14:01:29.222Z</time></trkpt><trkpt lat="45.6372867" lon="13.815085"><ele>204.0</ele><time>2026-04-19T14:01:30.223Z</time></trkpt><trkpt lat="45.6372667" lon="13.8155417"><ele>205.0</ele><time>2026-04-19T14:01:31.221Z</time></trkpt><trkpt lat="45.637225" lon="13.8160033"><ele>206.0</ele><time>2026-04-19T14:01:32.224Z</time></trkpt><trkpt lat="45.63718" lon="13.8164833"><ele>205.5</ele><time>2026-04-19T14:01:33.222Z</time></trkpt><trkpt lat="45.63713" lon="13.8169683"><ele>205.0</ele><time>2026-04-19T14:01:34.222Z</time></trkpt><trkpt lat="45.6370767" lon="13.817455"><ele>204.0</ele><time>2026-04-19T14:01:35.222Z</time></trkpt><trkpt lat="45.6370183" lon="13.81796"><ele>203.0</ele><time>2026-04-19T14:01:36.222Z</time></trkpt><trkpt lat="45.6369633" lon="13.8184533"><ele>212.0</ele><time>2026-04-19T14:01:37.223Z</time></trkpt><trkpt lat="45.6369033" lon="13.8189467"><ele>221.0</ele><time>2026-04-19T14:01:38.22Z</time></trkpt><trkpt lat="45.636845" lon="13.8194433"><ele>225.0</ele><time>2026-04-19T14:01:39.224Z</time></trkpt><trkpt lat="45.6367767" lon="13.8199383"><ele>229.0</ele><time>2026-04-19T14:01:40.223Z</time></trkpt><trkpt lat="45.6367133" lon="13.820435"><ele>229.5</ele><time>2026-04-19T14:01:41.219Z</time></trkpt><trkpt lat="45.63665" lon="13.8209217"><ele>230.0</ele><time>2026-04-19T14:01:42.223Z</time></trkpt><trkpt lat="45.63659" lon="13.8214083"><ele>227.0</ele><time>2026-04-19T14:01:43.222Z</time></trkpt><trkpt lat="45.636535" lon="13.8218967"><ele>224.0</ele><time>2026-04-19T14:01:44.224Z</time></trkpt><trkpt lat="45.6364767" lon="13.8223867"><ele>221.0</ele><time>2026-04-19T14:01:45.222Z</time></trkpt><trkpt lat="45.6364133" lon="13.8228783"><ele>218.0</ele><time>2026-04-19T14:01:46.222Z</time></trkpt><trkpt lat="45.6363383" lon="13.8233817"><ele>217.0</ele><time>2026-04-19T14:01:47.221Z</time></trkpt><trkpt lat="45.63625" lon="13.8238983"><ele>216.0</ele><time>2026-04-19T14:01:48.223Z</time></trkpt><trkpt lat="45.636165" lon="13.8244217"><ele>226.0</ele><time>2026-04-19T14:01:49.223Z</time></trkpt><trkpt lat="45.636075" lon="13.8249367"><ele>236.0</ele><time>2026-04-19T14:01:50.224Z</time></trkpt><trkpt lat="45.6359783" lon="13.8254383"><ele>236.5</ele><time>2026-04-19T14:01:51.22Z</time></trkpt><trkpt lat="45.6358933" lon="13.8259333"><ele>237.0</ele><time>2026-04-19T14:01:52.221Z</time></trkpt><trkpt lat="45.6357933" lon="13.82642"><ele>236.5</ele><time>2026-04-19T14:01:53.221Z</time></trkpt><trkpt lat="45.635685" lon="13.826895"><ele>236.0</ele><time>2026-04-19T14:01:54.223Z</time></trkpt><trkpt lat="45.6355733" lon="13.8273667"><ele>237.5</ele><time>2026-04-19T14:01:55.221Z</time></trkpt><trkpt lat="45.6354517" lon="13.8278283"><ele>239.0</ele><time>2026-04-19T14:01:56.219Z</time></trkpt><trkpt lat="45.6353283" lon="13.8282883"><ele>245.0</ele><time>2026-04-19T14:01:57.222Z</time></trkpt><trkpt lat="45.63521" lon="13.8287233"><ele>251.0</ele><time>2026-04-19T14:01:58.223Z</time></trkpt><trkpt lat="45.6350567" lon="13.8291383"><ele>250.5</ele><time>2026-04-19T14:01:59.223Z</time></trkpt><trkpt lat="45.63489" lon="13.8295267"><ele>250.0</ele><time>2026-04-19T14:02:00.223Z</time></trkpt><trkpt lat="45.63472" lon="13.8299183"><ele>249.0</ele><time>2026-04-19T14:02:01.222Z</time></trkpt><trkpt lat="45.6345617" lon="13.8303217"><ele>248.0</ele><time>2026-04-19T14:02:02.224Z</time></trkpt><trkpt lat="45.634395" lon="13.8307217"><ele>241.0</ele><time>2026-04-19T14:02:03.222Z</time></trkpt><trkpt lat="45.6342433" lon="13.8310883"><ele>234.0</ele><time>2026-04-19T14:02:04.219Z</time></trkpt><trkpt lat="45.63406" lon="13.8312783"><ele>234.0</ele><time>2026-04-19T14:02:05.224Z</time></trkpt><trkpt lat="45.63396" lon="13.83155"><ele>234.0</ele><time>2026-04-19T14:02:06.221Z</time></trkpt><trkpt lat="45.6338567" lon="13.8318817"><ele>232.0</ele><time>2026-04-19T14:02:07.222Z</time></trkpt><trkpt lat="45.63375" lon="13.8322183"><ele>230.0</ele><time>2026-04-19T14:02:08.222Z</time></trkpt><trkpt lat="45.6336517" lon="13.8325667"><ele>218.5</ele><time>2026-04-19T14:02:09.224Z</time></trkpt><trkpt lat="45.6335633" lon="13.8329367"><ele>207.0</ele><time>2026-04-19T14:02:10.223Z</time></trkpt><trkpt lat="45.63349" lon="13.8333217"><ele>211.5</ele><time>2026-04-19T14:02:11.22Z</time></trkpt><trkpt lat="45.6334317" lon="13.8337183"><ele>216.0</ele><time>2026-04-19T14:02:12.223Z</time></trkpt><trkpt lat="45.63339" lon="13.8341217"><ele>226.0</ele><time>2026-04-19T14:02:13.223Z</time></trkpt><trkpt lat="45.633365" lon="13.8345283"><ele>236.0</ele><time>2026-04-19T14:02:14.223Z</time></trkpt><trkpt lat="45.633345" lon="13.8349317"><ele>245.5</ele><time>2026-04-19T14:02:15.222Z</time></trkpt><trkpt lat="45.63334" lon="13.835335"><ele>255.0</ele><time>2026-04-19T14:02:16.223Z</time></trkpt><trkpt lat="45.6333533" lon="13.835735"><ele>261.0</ele><time>2026-04-19T14:02:17.224Z</time></trkpt><trkpt lat="45.6333617" lon="13.8361317"><ele>267.0</ele><time>2026-04-19T14:02:18.223Z</time></trkpt><trkpt lat="45.6333817" lon="13.836525"><ele>270.5</ele><time>2026-04-19T14:02:19.224Z</time></trkpt><trkpt lat="45.6334083" lon="13.836915"><ele>274.0</ele><time>2026-04-19T14:02:20.223Z</time></trkpt><trkpt lat="45.6334467" lon="13.8373017"><ele>275.5</ele><time>2026-04-19T14:02:21.227Z</time></trkpt><trkpt lat="45.6334983" lon="13.8376867"><ele>277.0</ele><time>2026-04-19T14:02:22.224Z</time></trkpt><trkpt lat="45.6335667" lon="13.8380667"><ele>280.5</ele><time>2026-04-19T14:02:23.224Z</time></trkpt><trkpt lat="45.6336517" lon="13.83844"><ele>284.0</ele><time>2026-04-19T14:02:24.223Z</time></trkpt><trkpt lat="45.6337433" lon="13.83881"><ele>284.0</ele><time>2026-04-19T14:02:25.223Z</time></trkpt><trkpt lat="45.63385" lon="13.8391783"><ele>284.0</ele><time>2026-04-19T14:02:26.221Z</time></trkpt><trkpt lat="45.6339683" lon="13.8395383"><ele>292.5</ele><time>2026-04-19T14:02:27.225Z</time></trkpt><trkpt lat="45.6340867" lon="13.839915"><ele>301.0</ele><time>2026-04-19T14:02:28.223Z</time></trkpt><trkpt lat="45.634195" lon="13.840295"><ele>308.5</ele><time>2026-04-19T14:02:29.223Z</time></trkpt><trkpt lat="45.6343233" lon="13.8406333"><ele>316.0</ele><time>2026-04-19T14:02:30.221Z</time></trkpt><trkpt lat="45.6344717" lon="13.840935"><ele>324.0</ele><time>2026-04-19T14:02:31.223Z</time></trkpt><trkpt lat="45.634625" lon="13.84116"><ele>332.0</ele><time>2026-04-19T14:02:32.222Z</time></trkpt><trkpt lat="45.6348133" lon="13.8413483"><ele>340.0</ele><time>2026-04-19T14:02:33.225Z</time></trkpt><trkpt lat="45.635005" lon="13.8415"><ele>340.0</ele><time>2026-04-19T14:02:34.22Z</time></trkpt><trkpt lat="45.635205" lon="13.8416117"><ele>340.0</ele><time>2026-04-19T14:02:35.221Z</time></trkpt><trkpt lat="45.6354283" lon="13.8417067"><ele>340.0</ele><time>2026-04-19T14:02:36.221Z</time></trkpt><trkpt lat="45.6355733" lon="13.8418617"><ele>344.0</ele><time>2026-04-19T14:02:37.221Z</time></trkpt><trkpt lat="45.6356983" lon="13.8420067"><ele>348.0</ele><time>2026-04-19T14:02:38.22Z</time></trkpt><trkpt lat="45.6567217" lon="13.83407"><ele>350.5</ele><time>2026-04-19T14:04:02.582Z</time></trkpt><trkpt lat="45.656955" lon="13.8339133"><ele>353.0</ele><time>2026-04-19T14:04:03.582Z</time></trkpt><trkpt lat="45.6573183" lon="13.833625"><ele>353.0</ele><time>2026-04-19T14:04:05.211Z</time></trkpt><trkpt lat="45.6575417" lon="13.8334317"><ele>353.0</ele><time>2026-04-19T14:04:06.203Z</time></trkpt><trkpt lat="45.65777" lon="13.8332283"><ele>355.5</ele><time>2026-04-19T14:04:07.223Z</time></trkpt><trkpt lat="45.6579967" lon="13.833025"><ele>358.0</ele><time>2026-04-19T14:04:08.22Z</time></trkpt><trkpt lat="45.6582217" lon="13.83282"><ele>357.5</ele><time>2026-04-19T14:04:09.229Z</time></trkpt><trkpt lat="45.65845" lon="13.8326133"><ele>357.0</ele><time>2026-04-19T14:04:10.223Z</time></trkpt><trkpt lat="45.658685" lon="13.8324117"><ele>356.5</ele><time>2026-04-19T14:04:11.22Z</time></trkpt><trkpt lat="45.6589267" lon="13.8321967"><ele>356.0</ele><time>2026-04-19T14:04:12.224Z</time></trkpt><trkpt lat="45.6591817" lon="13.831965"><ele>357.5</ele><time>2026-04-19T14:04:13.223Z</time></trkpt><trkpt lat="45.6594483" lon="13.8317083"><ele>359.0</ele><time>2026-04-19T14:04:14.222Z</time></trkpt><trkpt lat="45.6597317" lon="13.831445"><ele>359.5</ele><time>2026-04-19T14:04:15.226Z</time></trkpt><trkpt lat="45.6600083" lon="13.8312033"><ele>360.0</ele><time>2026-04-19T14:04:16.221Z</time></trkpt><trkpt lat="45.660285" lon="13.8309883"><ele>360.0</ele><time>2026-04-19T14:04:17.22Z</time></trkpt><trkpt lat="45.66056" lon="13.8307917"><ele>360.0</ele><time>2026-04-19T14:04:18.221Z</time></trkpt><trkpt lat="45.6608217" lon="13.830575"><ele>360.0</ele><time>2026-04-19T14:04:19.222Z</time></trkpt><trkpt lat="45.6610767" lon="13.8303617"><ele>360.0</ele><time>2026-04-19T14:04:20.225Z</time></trkpt><trkpt lat="45.6613333" lon="13.83015"><ele>360.0</ele><time>2026-04-19T14:04:21.221Z</time></trkpt><trkpt lat="45.6615883" lon="13.829935"><ele>360.0</ele><time>2026-04-19T14:04:22.223Z</time></trkpt><trkpt lat="45.6618467" lon="13.8297183"><ele>360.0</ele><time>2026-04-19T14:04:23.222Z</time></trkpt><trkpt lat="45.6621117" lon="13.8295"><ele>360.0</ele><time>2026-04-19T14:04:24.221Z</time></trkpt><trkpt lat="45.66238" lon="13.8292767"><ele>360.5</ele><time>2026-04-19T14:04:25.222Z</time></trkpt><trkpt lat="45.6626467" lon="13.8290583"><ele>361.0</ele><time>2026-04-19T14:04:26.225Z</time></trkpt><trkpt lat="45.6629117" lon="13.8288367"><ele>361.0</ele><time>2026-04-19T14:04:27.224Z</time></trkpt><trkpt lat="45.66318" lon="13.828615"><ele>361.0</ele><time>2026-04-19T14:04:28.222Z</time></trkpt><trkpt lat="45.6634517" lon="13.8283883"><ele>361.0</ele><time>2026-04-19T14:04:29.221Z</time></trkpt><trkpt lat="45.6637317" lon="13.8281533"><ele>361.0</ele><time>2026-04-19T14:04:30.224Z</time></trkpt><trkpt lat="45.6640183" lon="13.82791"><ele>361.0</ele><time>2026-04-19T14:04:31.221Z</time></trkpt><trkpt lat="45.6643083" lon="13.827665"><ele>361.0</ele><time>2026-04-19T14:04:32.222Z</time></trkpt><trkpt lat="45.6645967" lon="13.8274217"><ele>360.0</ele><time>2026-04-19T14:04:33.222Z</time></trkpt><trkpt lat="45.664885" lon="13.8271767"><ele>359.0</ele><time>2026-04-19T14:04:34.223Z</time></trkpt><trkpt lat="45.6651717" lon="13.8269283"><ele>358.0</ele><time>2026-04-19T14:04:35.222Z</time></trkpt><trkpt lat="45.6654633" lon="13.826685"><ele>357.0</ele><time>2026-04-19T14:04:36.221Z</time></trkpt><trkpt lat="45.665755" lon="13.826435"><ele>357.0</ele><time>2026-04-19T14:04:37.223Z</time></trkpt><trkpt lat="45.66605" lon="13.826195"><ele>357.0</ele><time>2026-04-19T14:04:38.223Z</time></trkpt><trkpt lat="45.6663467" lon="13.8259533"><ele>358.5</ele><time>2026-04-19T14:04:39.223Z</time></trkpt><trkpt lat="45.6666383" lon="13.82571"><ele>360.0</ele><time>2026-04-19T14:04:40.231Z</time></trkpt><trkpt lat="45.6669267" lon="13.825465"><ele>359.5</ele><time>2026-04-19T14:04:41.221Z</time></trkpt><trkpt lat="45.6672117" lon="13.82522"><ele>359.0</ele><time>2026-04-19T14:04:42.223Z</time></trkpt><trkpt lat="45.6674933" lon="13.8249667"><ele>359.0</ele><time>2026-04-19T14:04:43.224Z</time></trkpt><trkpt lat="45.6677767" lon="13.8247383"><ele>359.0</ele><time>2026-04-19T14:04:44.223Z</time></trkpt><trkpt lat="45.6680633" lon="13.8245033"><ele>357.0</ele><time>2026-04-19T14:04:45.225Z</time></trkpt><trkpt lat="45.6683517" lon="13.8242717"><ele>355.0</ele><time>2026-04-19T14:04:46.225Z</time></trkpt><trkpt lat="45.6686383" lon="13.8240383"><ele>354.0</ele><time>2026-04-19T14:04:47.222Z</time></trkpt><trkpt lat="45.66893" lon="13.8238233"><ele>353.0</ele><time>2026-04-19T14:04:48.224Z</time></trkpt><trkpt lat="45.6692233" lon="13.8236033"><ele>350.5</ele><time>2026-04-19T14:04:49.223Z</time></trkpt><trkpt lat="45.6695117" lon="13.82337"><ele>348.0</ele><time>2026-04-19T14:04:50.222Z</time></trkpt><trkpt lat="45.6698" lon="13.82313"><ele>348.0</ele><time>2026-04-19T14:04:51.222Z</time></trkpt><trkpt lat="45.67009" lon="13.8228833"><ele>348.0</ele><time>2026-04-19T14:04:52.222Z</time></trkpt><trkpt lat="45.67038" lon="13.8226333"><ele>346.0</ele><time>2026-04-19T14:04:53.223Z</time></trkpt><trkpt lat="45.6706667" lon="13.822375"><ele>344.0</ele><time>2026-04-19T14:04:54.223Z</time></trkpt><trkpt lat="45.6709567" lon="13.8221117"><ele>342.0</ele><time>2026-04-19T14:04:55.224Z</time></trkpt><trkpt lat="45.671245" lon="13.821835"><ele>340.0</ele><time>2026-04-19T14:04:56.224Z</time></trkpt><trkpt lat="45.6715367" lon="13.821565"><ele>339.5</ele><time>2026-04-19T14:04:57.221Z</time></trkpt><trkpt lat="45.67183" lon="13.8213083"><ele>339.0</ele><time>2026-04-19T14:04:58.223Z</time></trkpt><trkpt lat="45.672115" lon="13.8210617"><ele>338.5</ele><time>2026-04-19T14:04:59.222Z</time></trkpt><trkpt lat="45.672405" lon="13.8208217"><ele>338.0</ele><time>2026-04-19T14:05:00.223Z</time></trkpt><trkpt lat="45.672695" lon="13.8205833"><ele>337.0</ele><time>2026-04-19T14:05:01.223Z</time></trkpt><trkpt lat="45.6729867" lon="13.8203433"><ele>336.0</ele><time>2026-04-19T14:05:02.219Z</time></trkpt><trkpt lat="45.6732783" lon="13.8201117"><ele>335.5</ele><time>2026-04-19T14:05:03.226Z</time></trkpt><trkpt lat="45.6735817" lon="13.8198983"><ele>335.0</ele><time>2026-04-19T14:05:04.222Z</time></trkpt><trkpt lat="45.673885" lon="13.8196917"><ele>334.5</ele><time>2026-04-19T14:05:05.222Z</time></trkpt><trkpt lat="45.67419" lon="13.8194933"><ele>334.0</ele><time>2026-04-19T14:05:06.223Z</time></trkpt><trkpt lat="45.6744983" lon="13.819305"><ele>334.0</ele><time>2026-04-19T14:05:07.224Z</time></trkpt><trkpt lat="45.674805" lon="13.819115"><ele>334.0</ele><time>2026-04-19T14:05:08.222Z</time></trkpt><trkpt lat="45.6751183" lon="13.8189417"><ele>335.0</ele><time>2026-04-19T14:05:09.225Z</time></trkpt><trkpt lat="45.675435" lon="13.8187733"><ele>336.0</ele><time>2026-04-19T14:05:10.222Z</time></trkpt><trkpt lat="45.6757533" lon="13.81861"><ele>335.5</ele><time>2026-04-19T14:05:11.221Z</time></trkpt><trkpt lat="45.6760733" lon="13.818445"><ele>335.0</ele><time>2026-04-19T14:05:12.222Z</time></trkpt><trkpt lat="45.676395" lon="13.818285"><ele>335.0</ele><time>2026-04-19T14:05:13.222Z</time></trkpt><trkpt lat="45.6767183" lon="13.81813"><ele>335.0</ele><time>2026-04-19T14:05:14.226Z</time></trkpt><trkpt lat="45.6770417" lon="13.8179817"><ele>336.0</ele><time>2026-04-19T14:05:15.223Z</time></trkpt><trkpt lat="45.67736" lon="13.8178083"><ele>337.0</ele><time>2026-04-19T14:05:16.22Z</time></trkpt><trkpt lat="45.6776867" lon="13.81765"><ele>334.0</ele><time>2026-04-19T14:05:17.222Z</time></trkpt><trkpt lat="45.67801" lon="13.8174867"><ele>331.0</ele><time>2026-04-19T14:05:18.222Z</time></trkpt><trkpt lat="45.6783367" lon="13.8173217"><ele>328.0</ele><time>2026-04-19T14:05:19.224Z</time></trkpt><trkpt lat="45.67866" lon="13.8171483"><ele>325.0</ele><time>2026-04-19T14:05:20.22Z</time></trkpt><trkpt lat="45.6789867" lon="13.81698"><ele>326.0</ele><time>2026-04-19T14:05:21.227Z</time></trkpt><trkpt lat="45.6793117" lon="13.8168067"><ele>327.0</ele><time>2026-04-19T14:05:22.225Z</time></trkpt><trkpt lat="45.67964" lon="13.8166183"><ele>327.5</ele><time>2026-04-19T14:05:23.223Z</time></trkpt><trkpt lat="45.6799717" lon="13.8164317"><ele>328.0</ele><time>2026-04-19T14:05:24.221Z</time></trkpt><trkpt lat="45.6803017" lon="13.8162417"><ele>328.0</ele><time>2026-04-19T14:05:25.225Z</time></trkpt><trkpt lat="45.6806283" lon="13.8160483"><ele>328.0</ele><time>2026-04-19T14:05:26.223Z</time></trkpt><trkpt lat="45.68095" lon="13.8158483"><ele>327.0</ele><time>2026-04-19T14:05:27.226Z</time></trkpt><trkpt lat="45.6812683" lon="13.8156417"><ele>326.0</ele><time>2026-04-19T14:05:28.228Z</time></trkpt><trkpt lat="45.6815833" lon="13.8154317"><ele>326.0</ele><time>2026-04-19T14:05:29.225Z</time></trkpt><trkpt lat="45.6818967" lon="13.8152133"><ele>326.0</ele><time>2026-04-19T14:05:30.221Z</time></trkpt><trkpt lat="45.6822083" lon="13.8149967"><ele>326.5</ele><time>2026-04-19T14:05:31.223Z</time></trkpt><trkpt lat="45.6825167" lon="13.81477"><ele>327.0</ele><time>2026-04-19T14:05:32.221Z</time></trkpt><trkpt lat="45.682825" lon="13.8145433"><ele>326.5</ele><time>2026-04-19T14:05:33.222Z</time></trkpt><trkpt lat="45.68313" lon="13.814315"><ele>326.0</ele><time>2026-04-19T14:05:34.223Z</time></trkpt><trkpt lat="45.6834333" lon="13.81408"><ele>324.5</ele><time>2026-04-19T14:05:35.221Z</time></trkpt><trkpt lat="45.6837333" lon="13.8138317"><ele>323.0</ele><time>2026-04-19T14:05:36.223Z</time></trkpt><trkpt lat="45.6840367" lon="13.81358"><ele>323.0</ele><time>2026-04-19T14:05:37.222Z</time></trkpt><trkpt lat="45.6843417" lon="13.8133233"><ele>323.0</ele><time>2026-04-19T14:05:38.223Z</time></trkpt><trkpt lat="45.6846483" lon="13.8130617"><ele>322.0</ele><time>2026-04-19T14:05:39.225Z</time></trkpt><trkpt lat="45.684955" lon="13.8128067"><ele>321.0</ele><time>2026-04-19T14:05:40.224Z</time></trkpt><trkpt lat="45.6852533" lon="13.8125467"><ele>319.5</ele><time>2026-04-19T14:05:41.227Z</time></trkpt><trkpt lat="45.6855467" lon="13.8122883"><ele>318.0</ele><time>2026-04-19T14:05:42.226Z</time></trkpt><trkpt lat="45.6858417" lon="13.812035"><ele>317.5</ele><time>2026-04-19T14:05:43.223Z</time></trkpt><trkpt lat="45.6861383" lon="13.8117817"><ele>317.0</ele><time>2026-04-19T14:05:44.224Z</time></trkpt><trkpt lat="45.6864467" lon="13.811535"><ele>317.0</ele><time>2026-04-19T14:05:45.224Z</time></trkpt><trkpt lat="45.686755" lon="13.8112817"><ele>317.0</ele><time>2026-04-19T14:05:46.222Z</time></trkpt><trkpt lat="45.6870683" lon="13.8110283"><ele>315.5</ele><time>2026-04-19T14:05:47.221Z</time></trkpt><trkpt lat="45.68739" lon="13.810785"><ele>314.0</ele><time>2026-04-19T14:05:48.222Z</time></trkpt><trkpt lat="45.6877167" lon="13.8105417"><ele>313.5</ele><time>2026-04-19T14:05:49.221Z</time></trkpt><trkpt lat="45.6880467" lon="13.8103067"><ele>313.0</ele><time>2026-04-19T14:05:50.223Z</time></trkpt><trkpt lat="45.6883767" lon="13.8100817"><ele>311.0</ele><time>2026-04-19T14:05:51.224Z</time></trkpt><trkpt lat="45.6887" lon="13.8098667"><ele>309.0</ele><time>2026-04-19T14:05:52.221Z</time></trkpt><trkpt lat="45.689015" lon="13.8096733"><ele>309.0</ele><time>2026-04-19T14:05:53.219Z</time></trkpt><trkpt lat="45.689315" lon="13.80948"><ele>309.0</ele><time>2026-04-19T14:05:54.225Z</time></trkpt><trkpt lat="45.6896133" lon="13.8093017"><ele>308.0</ele><time>2026-04-19T14:05:55.223Z</time></trkpt><trkpt lat="45.68991" lon="13.8091283"><ele>307.0</ele><time>2026-04-19T14:05:56.222Z</time></trkpt><trkpt lat="45.690215" lon="13.8089717"><ele>305.0</ele><time>2026-04-19T14:05:57.225Z</time></trkpt><trkpt lat="45.6905233" lon="13.80881"><ele>303.0</ele><time>2026-04-19T14:05:58.222Z</time></trkpt><trkpt lat="45.6908367" lon="13.808645"><ele>305.5</ele><time>2026-04-19T14:05:59.222Z</time></trkpt><trkpt lat="45.6911583" lon="13.8084883"><ele>308.0</ele><time>2026-04-19T14:06:00.223Z</time></trkpt><trkpt lat="45.6914917" lon="13.8083367"><ele>308.0</ele><time>2026-04-19T14:06:01.223Z</time></trkpt><trkpt lat="45.6918283" lon="13.8081817"><ele>308.0</ele><time>2026-04-19T14:06:02.223Z</time></trkpt><trkpt lat="45.6921717" lon="13.80803"><ele>309.0</ele><time>2026-04-19T14:06:03.22Z</time></trkpt><trkpt lat="45.692515" lon="13.807885"><ele>310.0</ele><time>2026-04-19T14:06:04.224Z</time></trkpt><trkpt lat="45.6928683" lon="13.807735"><ele>309.0</ele><time>2026-04-19T14:06:05.223Z</time></trkpt><trkpt lat="45.69322" lon="13.80758"><ele>308.0</ele><time>2026-04-19T14:06:06.223Z</time></trkpt><trkpt lat="45.6935683" lon="13.807435"><ele>308.0</ele><time>2026-04-19T14:06:07.223Z</time></trkpt><trkpt lat="45.6939017" lon="13.807285"><ele>308.0</ele><time>2026-04-19T14:06:08.222Z</time></trkpt><trkpt lat="45.6942217" lon="13.80714"><ele>306.5</ele><time>2026-04-19T14:06:09.221Z</time></trkpt><trkpt lat="45.6945317" lon="13.8070017"><ele>305.0</ele><time>2026-04-19T14:06:10.219Z</time></trkpt><trkpt lat="45.6948283" lon="13.806875"><ele>302.5</ele><time>2026-04-19T14:06:11.222Z</time></trkpt><trkpt lat="45.695115" lon="13.8067483"><ele>300.0</ele><time>2026-04-19T14:06:12.222Z</time></trkpt><trkpt lat="45.6953917" lon="13.8066167"><ele>294.0</ele><time>2026-04-19T14:06:13.225Z</time></trkpt><trkpt lat="45.6956667" lon="13.80648"><ele>288.0</ele><time>2026-04-19T14:06:14.223Z</time></trkpt><trkpt lat="45.695945" lon="13.806325"><ele>292.0</ele><time>2026-04-19T14:06:15.223Z</time></trkpt><trkpt lat="45.69623" lon="13.806165"><ele>296.0</ele><time>2026-04-19T14:06:16.222Z</time></trkpt><trkpt lat="45.6965133" lon="13.805985"><ele>296.5</ele><time>2026-04-19T14:06:17.224Z</time></trkpt><trkpt lat="45.6967967" lon="13.8057967"><ele>297.0</ele><time>2026-04-19T14:06:18.223Z</time></trkpt><trkpt lat="45.69708" lon="13.8056"><ele>299.5</ele><time>2026-04-19T14:06:19.225Z</time></trkpt><trkpt lat="45.6973567" lon="13.8053867"><ele>302.0</ele><time>2026-04-19T14:06:20.224Z</time></trkpt><trkpt lat="45.6976383" lon="13.805165"><ele>303.5</ele><time>2026-04-19T14:06:21.222Z</time></trkpt><trkpt lat="45.6979183" lon="13.8049217"><ele>305.0</ele><time>2026-04-19T14:06:22.224Z</time></trkpt><trkpt lat="45.6981983" lon="13.804665"><ele>305.0</ele><time>2026-04-19T14:06:23.22Z</time></trkpt><trkpt lat="45.6984767" lon="13.8044033"><ele>305.0</ele><time>2026-04-19T14:06:24.222Z</time></trkpt><trkpt lat="45.69875" lon="13.804135"><ele>306.0</ele><time>2026-04-19T14:06:25.221Z</time></trkpt><trkpt lat="45.6990367" lon="13.8038617"><ele>307.0</ele><time>2026-04-19T14:06:26.225Z</time></trkpt><trkpt lat="45.6993417" lon="13.8036"><ele>307.0</ele><time>2026-04-19T14:06:27.221Z</time></trkpt><trkpt lat="45.699695" lon="13.8033833"><ele>307.0</ele><time>2026-04-19T14:06:28.221Z</time></trkpt><trkpt lat="45.701145" lon="13.800605"><ele>307.0</ele><time>2026-04-19T14:06:35.224Z</time></trkpt><trkpt lat="45.70131" lon="13.8002033"><ele>307.0</ele><time>2026-04-19T14:06:36.222Z</time></trkpt><trkpt lat="45.7014633" lon="13.799795"><ele>306.5</ele><time>2026-04-19T14:06:37.222Z</time></trkpt><trkpt lat="45.701615" lon="13.7993983"><ele>306.0</ele><time>2026-04-19T14:06:38.219Z</time></trkpt><trkpt lat="45.70176" lon="13.79898"><ele>306.0</ele><time>2026-04-19T14:06:39.221Z</time></trkpt><trkpt lat="45.7019067" lon="13.7985633"><ele>306.0</ele><time>2026-04-19T14:06:40.223Z</time></trkpt><trkpt lat="45.7020367" lon="13.798125"><ele>305.5</ele><time>2026-04-19T14:06:41.222Z</time></trkpt><trkpt lat="45.7021667" lon="13.79769"><ele>305.0</ele><time>2026-04-19T14:06:42.223Z</time></trkpt><trkpt lat="45.70228" lon="13.797245"><ele>303.0</ele><time>2026-04-19T14:06:43.225Z</time></trkpt><trkpt lat="45.7023933" lon="13.7967933"><ele>301.0</ele><time>2026-04-19T14:06:44.22Z</time></trkpt><trkpt lat="45.7024933" lon="13.7963383"><ele>302.0</ele><time>2026-04-19T14:06:45.222Z</time></trkpt><trkpt lat="45.7025867" lon="13.7958783"><ele>303.0</ele><time>2026-04-19T14:06:46.223Z</time></trkpt><trkpt lat="45.7026783" lon="13.7954183"><ele>303.5</ele><time>2026-04-19T14:06:47.224Z</time></trkpt><trkpt lat="45.7027667" lon="13.7949567"><ele>304.0</ele><time>2026-04-19T14:06:48.221Z</time></trkpt><trkpt lat="45.7028317" lon="13.7944833"><ele>302.5</ele><time>2026-04-19T14:06:49.219Z</time></trkpt><trkpt lat="45.702885" lon="13.7940033"><ele>301.0</ele><time>2026-04-19T14:06:50.22Z</time></trkpt><trkpt lat="45.7029333" lon="13.793505"><ele>300.0</ele><time>2026-04-19T14:06:51.221Z</time></trkpt><trkpt lat="45.7029683" lon="13.792985"><ele>299.0</ele><time>2026-04-19T14:06:52.222Z</time></trkpt><trkpt lat="45.70299" lon="13.79245"><ele>298.5</ele><time>2026-04-19T14:06:53.223Z</time></trkpt><trkpt lat="45.7029967" lon="13.79191"><ele>298.0</ele><time>2026-04-19T14:06:54.222Z</time></trkpt><trkpt lat="45.702995" lon="13.791375"><ele>297.0</ele><time>2026-04-19T14:06:55.224Z</time></trkpt><trkpt lat="45.7029817" lon="13.7908533"><ele>296.0</ele><time>2026-04-19T14:06:56.22Z</time></trkpt><trkpt lat="45.7029667" lon="13.790345"><ele>295.0</ele><time>2026-04-19T14:06:57.224Z</time></trkpt><trkpt lat="45.7029367" lon="13.789845"><ele>294.0</ele><time>2026-04-19T14:06:58.223Z</time></trkpt><trkpt lat="45.7028883" lon="13.789345"><ele>294.5</ele><time>2026-04-19T14:06:59.222Z</time></trkpt><trkpt lat="45.7028383" lon="13.7888417"><ele>295.0</ele><time>2026-04-19T14:07:00.223Z</time></trkpt><trkpt lat="45.7027867" lon="13.7883383"><ele>297.5</ele><time>2026-04-19T14:07:01.219Z</time></trkpt><trkpt lat="45.7027167" lon="13.78784"><ele>300.0</ele><time>2026-04-19T14:07:02.221Z</time></trkpt><trkpt lat="45.7026417" lon="13.7873483"><ele>300.0</ele><time>2026-04-19T14:07:03.222Z</time></trkpt><trkpt lat="45.702565" lon="13.786855"><ele>300.0</ele><time>2026-04-19T14:07:04.221Z</time></trkpt><trkpt lat="45.70249" lon="13.7863633"><ele>298.5</ele><time>2026-04-19T14:07:05.222Z</time></trkpt><trkpt lat="45.7024033" lon="13.785875"><ele>297.0</ele><time>2026-04-19T14:07:06.224Z</time></trkpt><trkpt lat="45.7023167" lon="13.7853867"><ele>296.5</ele><time>2026-04-19T14:07:07.224Z</time></trkpt><trkpt lat="45.7022267" lon="13.7849067"><ele>296.0</ele><time>2026-04-19T14:07:08.221Z</time></trkpt><trkpt lat="45.7021367" lon="13.7844367"><ele>296.0</ele><time>2026-04-19T14:07:09.225Z</time></trkpt><trkpt lat="45.7020467" lon="13.78397"><ele>296.0</ele><time>2026-04-19T14:07:10.221Z</time></trkpt><trkpt lat="45.7019567" lon="13.7835083"><ele>295.0</ele><time>2026-04-19T14:07:11.219Z</time></trkpt><trkpt lat="45.7018683" lon="13.7830467"><ele>294.0</ele><time>2026-04-19T14:07:12.22Z</time></trkpt><trkpt lat="45.7017783" lon="13.7825833"><ele>293.5</ele><time>2026-04-19T14:07:13.222Z</time></trkpt><trkpt lat="45.70169" lon="13.7821183"><ele>293.0</ele><time>2026-04-19T14:07:14.222Z</time></trkpt><trkpt lat="45.7016" lon="13.7816533"><ele>293.0</ele><time>2026-04-19T14:07:15.222Z</time></trkpt><trkpt lat="45.7015117" lon="13.7811883"><ele>293.0</ele><time>2026-04-19T14:07:16.225Z</time></trkpt><trkpt lat="45.70143" lon="13.7807267"><ele>292.5</ele><time>2026-04-19T14:07:17.221Z</time></trkpt><trkpt lat="45.70135" lon="13.7802767"><ele>292.0</ele><time>2026-04-19T14:07:18.223Z</time></trkpt><trkpt lat="45.7012733" lon="13.779845"><ele>291.5</ele><time>2026-04-19T14:07:19.222Z</time></trkpt><trkpt lat="45.7012" lon="13.779425"><ele>291.0</ele><time>2026-04-19T14:07:20.222Z</time></trkpt><trkpt lat="45.70113" lon="13.7790067"><ele>291.0</ele><time>2026-04-19T14:07:21.223Z</time></trkpt><trkpt lat="45.7010533" lon="13.77859"><ele>291.0</ele><time>2026-04-19T14:07:22.221Z</time></trkpt><trkpt lat="45.7009767" lon="13.7781667"><ele>291.0</ele><time>2026-04-19T14:07:23.224Z</time></trkpt><trkpt lat="45.7008967" lon="13.777735"><ele>291.0</ele><time>2026-04-19T14:07:24.222Z</time></trkpt><trkpt lat="45.700815" lon="13.777295"><ele>290.5</ele><time>2026-04-19T14:07:25.221Z</time></trkpt><trkpt lat="45.7007417" lon="13.77685"><ele>290.0</ele><time>2026-04-19T14:07:26.224Z</time></trkpt><trkpt lat="45.70067" lon="13.776405"><ele>289.0</ele><time>2026-04-19T14:07:27.223Z</time></trkpt><trkpt lat="45.700605" lon="13.7759567"><ele>288.0</ele><time>2026-04-19T14:07:28.223Z</time></trkpt><trkpt lat="45.7005417" lon="13.7755017"><ele>288.0</ele><time>2026-04-19T14:07:29.219Z</time></trkpt><trkpt lat="45.7004817" lon="13.7750417"><ele>288.0</ele><time>2026-04-19T14:07:30.223Z</time></trkpt><trkpt lat="45.700425" lon="13.77458"><ele>287.5</ele><time>2026-04-19T14:07:31.224Z</time></trkpt><trkpt lat="45.7003817" lon="13.7741117"><ele>287.0</ele><time>2026-04-19T14:07:32.223Z</time></trkpt><trkpt lat="45.7003367" lon="13.7736417"><ele>286.5</ele><time>2026-04-19T14:07:33.223Z</time></trkpt><trkpt lat="45.7002933" lon="13.7731583"><ele>286.0</ele><time>2026-04-19T14:07:34.222Z</time></trkpt><trkpt lat="45.700255" lon="13.7726583"><ele>287.5</ele><time>2026-04-19T14:07:35.221Z</time></trkpt><trkpt lat="45.7002233" lon="13.7721467"><ele>289.0</ele><time>2026-04-19T14:07:36.223Z</time></trkpt><trkpt lat="45.7001983" lon="13.771635"><ele>289.5</ele><time>2026-04-19T14:07:37.222Z</time></trkpt><trkpt lat="45.70018" lon="13.771125"><ele>290.0</ele><time>2026-04-19T14:07:38.222Z</time></trkpt><trkpt lat="45.7001617" lon="13.7706267"><ele>289.5</ele><time>2026-04-19T14:07:39.22Z</time></trkpt><trkpt lat="45.7001567" lon="13.7701433"><ele>289.0</ele><time>2026-04-19T14:07:40.221Z</time></trkpt><trkpt lat="45.7001517" lon="13.7696683"><ele>288.5</ele><time>2026-04-19T14:07:41.224Z</time></trkpt><trkpt lat="45.7001567" lon="13.7691983"><ele>288.0</ele><time>2026-04-19T14:07:42.219Z</time></trkpt><trkpt lat="45.7001617" lon="13.7687317"><ele>288.0</ele><time>2026-04-19T14:07:43.22Z</time></trkpt><trkpt lat="45.7001767" lon="13.7682667"><ele>288.0</ele><time>2026-04-19T14:07:44.222Z</time></trkpt><trkpt lat="45.7001967" lon="13.7678"><ele>287.0</ele><time>2026-04-19T14:07:45.225Z</time></trkpt><trkpt lat="45.7002133" lon="13.7673283"><ele>286.0</ele><time>2026-04-19T14:07:46.223Z</time></trkpt><trkpt lat="45.7002417" lon="13.7668583"><ele>284.0</ele><time>2026-04-19T14:07:47.222Z</time></trkpt><trkpt lat="45.7002767" lon="13.76639"><ele>282.0</ele><time>2026-04-19T14:07:48.227Z</time></trkpt><trkpt lat="45.7003167" lon="13.7659183"><ele>282.0</ele><time>2026-04-19T14:07:49.223Z</time></trkpt><trkpt lat="45.7003617" lon="13.7654433"><ele>282.0</ele><time>2026-04-19T14:07:50.224Z</time></trkpt><trkpt lat="45.7004133" lon="13.764965"><ele>282.0</ele><time>2026-04-19T14:07:51.225Z</time></trkpt><trkpt lat="45.7004683" lon="13.7644817"><ele>282.0</ele><time>2026-04-19T14:07:52.223Z</time></trkpt><trkpt lat="45.7005283" lon="13.7639933"><ele>281.0</ele><time>2026-04-19T14:07:53.221Z</time></trkpt><trkpt lat="45.7005917" lon="13.7635033"><ele>280.0</ele><time>2026-04-19T14:07:54.221Z</time></trkpt><trkpt lat="45.70067" lon="13.7630117"><ele>280.5</ele><time>2026-04-19T14:07:55.221Z</time></trkpt><trkpt lat="45.700745" lon="13.76251"><ele>281.0</ele><time>2026-04-19T14:07:56.225Z</time></trkpt><trkpt lat="45.700825" lon="13.7620067"><ele>280.5</ele><time>2026-04-19T14:07:57.222Z</time></trkpt><trkpt lat="45.7009167" lon="13.761505"><ele>280.0</ele><time>2026-04-19T14:07:58.222Z</time></trkpt><trkpt lat="45.7010133" lon="13.7610017"><ele>279.0</ele><time>2026-04-19T14:07:59.223Z</time></trkpt><trkpt lat="45.7011167" lon="13.7605133"><ele>278.0</ele><time>2026-04-19T14:08:00.221Z</time></trkpt><trkpt lat="45.7012233" lon="13.76004"><ele>278.0</ele><time>2026-04-19T14:08:01.222Z</time></trkpt><trkpt lat="45.7013333" lon="13.7595717"><ele>278.0</ele><time>2026-04-19T14:08:02.223Z</time></trkpt><trkpt lat="45.7014417" lon="13.7591067"><ele>278.0</ele><time>2026-04-19T14:08:03.224Z</time></trkpt><trkpt lat="45.7015533" lon="13.758645"><ele>278.0</ele><time>2026-04-19T14:08:04.221Z</time></trkpt><trkpt lat="45.7016633" lon="13.758185"><ele>276.5</ele><time>2026-04-19T14:08:05.224Z</time></trkpt><trkpt lat="45.701775" lon="13.757725"><ele>275.0</ele><time>2026-04-19T14:08:06.223Z</time></trkpt><trkpt lat="45.701885" lon="13.757265"><ele>274.0</ele><time>2026-04-19T14:08:07.223Z</time></trkpt><trkpt lat="45.7019967" lon="13.75682"><ele>273.0</ele><time>2026-04-19T14:08:08.222Z</time></trkpt><trkpt lat="45.7021083" lon="13.7563967"><ele>272.5</ele><time>2026-04-19T14:08:09.221Z</time></trkpt><trkpt lat="45.702225" lon="13.7559983"><ele>272.0</ele><time>2026-04-19T14:08:10.222Z</time></trkpt><trkpt lat="45.7023367" lon="13.7556217"><ele>272.0</ele><time>2026-04-19T14:08:11.22Z</time></trkpt><trkpt lat="45.7024483" lon="13.7552683"><ele>272.0</ele><time>2026-04-19T14:08:12.221Z</time></trkpt><trkpt lat="45.7025567" lon="13.7549267"><ele>271.5</ele><time>2026-04-19T14:08:13.224Z</time></trkpt><trkpt lat="45.7026617" lon="13.7546"><ele>271.0</ele><time>2026-04-19T14:08:14.224Z</time></trkpt><trkpt lat="45.7027683" lon="13.7542883"><ele>271.0</ele><time>2026-04-19T14:08:15.223Z</time></trkpt><trkpt lat="45.7028733" lon="13.753985"><ele>271.0</ele><time>2026-04-19T14:08:16.224Z</time></trkpt><trkpt lat="45.7029767" lon="13.7536833"><ele>270.0</ele><time>2026-04-19T14:08:17.224Z</time></trkpt><trkpt lat="45.7030783" lon="13.7533817"><ele>269.0</ele><time>2026-04-19T14:08:18.22Z</time></trkpt><trkpt lat="45.7031817" lon="13.7530767"><ele>269.0</ele><time>2026-04-19T14:08:19.221Z</time></trkpt><trkpt lat="45.70329" lon="13.7527717"><ele>269.0</ele><time>2026-04-19T14:08:20.223Z</time></trkpt><trkpt lat="45.7033983" lon="13.7524733"><ele>267.0</ele><time>2026-04-19T14:08:21.225Z</time></trkpt><trkpt lat="45.7035083" lon="13.75218"><ele>265.0</ele><time>2026-04-19T14:08:22.224Z</time></trkpt><trkpt lat="45.7036167" lon="13.7518867"><ele>264.5</ele><time>2026-04-19T14:08:23.22Z</time></trkpt><trkpt lat="45.7037283" lon="13.7516"><ele>264.0</ele><time>2026-04-19T14:08:24.223Z</time></trkpt><trkpt lat="45.7038417" lon="13.751325"><ele>264.0</ele><time>2026-04-19T14:08:25.224Z</time></trkpt><trkpt lat="45.7039583" lon="13.751065"><ele>264.0</ele><time>2026-04-19T14:08:26.224Z</time></trkpt><trkpt lat="45.7040783" lon="13.750815"><ele>264.0</ele><time>2026-04-19T14:08:27.221Z</time></trkpt><trkpt lat="45.7041983" lon="13.7505667"><ele>263.6666666666667</ele><time>2026-04-19T14:08:28.218Z</time></trkpt><trkpt lat="45.70432" lon="13.7503167"><ele>263.33333333333337</ele><time>2026-04-19T14:08:29.225Z</time></trkpt><trkpt lat="45.7044467" lon="13.7500633"><ele>263.0</ele><time>2026-04-19T14:08:30.224Z</time></trkpt><trkpt lat="45.70458" lon="13.74981"><ele>262.0</ele><time>2026-04-19T14:08:31.22Z</time></trkpt><trkpt lat="45.7047233" lon="13.7495583"><ele>261.0</ele><time>2026-04-19T14:08:32.223Z</time></trkpt><trkpt lat="45.7048683" lon="13.7493117"><ele>260.0</ele><time>2026-04-19T14:08:33.224Z</time></trkpt><trkpt lat="45.7050117" lon="13.7490733"><ele>259.0</ele><time>2026-04-19T14:08:34.219Z</time></trkpt><trkpt lat="45.7051533" lon="13.7488517"><ele>258.0</ele><time>2026-04-19T14:08:35.221Z</time></trkpt><trkpt lat="45.7053117" lon="13.7486567"><ele>256.3333333333333</ele><time>2026-04-19T14:08:36.222Z</time></trkpt><trkpt lat="45.705445" lon="13.74845"><ele>254.66666666666666</ele><time>2026-04-19T14:08:37.224Z</time></trkpt><trkpt lat="45.7055783" lon="13.7482617"><ele>253.0</ele><time>2026-04-19T14:08:38.222Z</time></trkpt><trkpt lat="45.70571" lon="13.7480817"><ele>253.0</ele><time>2026-04-19T14:08:39.224Z</time></trkpt><trkpt lat="45.7058367" lon="13.7479133"><ele>253.0</ele><time>2026-04-19T14:08:40.22Z</time></trkpt><trkpt lat="45.7059567" lon="13.7477483"><ele>253.0</ele><time>2026-04-19T14:08:41.221Z</time></trkpt><trkpt lat="45.70607" lon="13.747585"><ele>252.33333333333331</ele><time>2026-04-19T14:08:42.219Z</time></trkpt><trkpt lat="45.7061833" lon="13.7474267"><ele>251.66666666666669</ele><time>2026-04-19T14:08:43.22Z</time></trkpt><trkpt lat="45.7062917" lon="13.7472733"><ele>251.0</ele><time>2026-04-19T14:08:44.219Z</time></trkpt><trkpt lat="45.7063983" lon="13.747125"><ele>251.0</ele><time>2026-04-19T14:08:45.22Z</time></trkpt><trkpt lat="45.706495" lon="13.7469867"><ele>251.0</ele><time>2026-04-19T14:08:46.22Z</time></trkpt><trkpt lat="45.7065783" lon="13.74686"><ele>251.0</ele><time>2026-04-19T14:08:47.219Z</time></trkpt><trkpt lat="45.7066533" lon="13.746745"><ele>251.0</ele><time>2026-04-19T14:08:48.22Z</time></trkpt><trkpt lat="45.7067233" lon="13.7466433"><ele>250.66666666666669</ele><time>2026-04-19T14:08:49.219Z</time></trkpt><trkpt lat="45.70679" lon="13.74655"><ele>250.33333333333334</ele><time>2026-04-19T14:08:50.221Z</time></trkpt><trkpt lat="45.7068483" lon="13.7464667"><ele>250.0</ele><time>2026-04-19T14:08:51.22Z</time></trkpt><trkpt lat="45.7069" lon="13.7463933"><ele>249.66666666666669</ele><time>2026-04-19T14:08:52.22Z</time></trkpt><trkpt lat="45.706965" lon="13.7463083"><ele>249.33333333333334</ele><time>2026-04-19T14:08:54.219Z</time></trkpt><trkpt lat="45.7070517" lon="13.746245"><ele>249.0</ele><time>2026-04-19T14:09:00.222Z</time></trkpt><trkpt lat="45.7071133" lon="13.7462233"><ele>248.83333333333334</ele><time>2026-04-19T14:09:01.223Z</time></trkpt><trkpt lat="45.707175" lon="13.7462"><ele>248.66666666666669</ele><time>2026-04-19T14:09:02.223Z</time></trkpt><trkpt lat="45.7072317" lon="13.7461567"><ele>248.5</ele><time>2026-04-19T14:09:03.222Z</time></trkpt><trkpt lat="45.7072883" lon="13.74608"><ele>248.33333333333334</ele><time>2026-04-19T14:09:04.221Z</time></trkpt><trkpt lat="45.707325" lon="13.7459667"><ele>248.16666666666669</ele><time>2026-04-19T14:09:05.219Z</time></trkpt><trkpt lat="45.7073517" lon="13.7458367"><ele>248.0</ele><time>2026-04-19T14:09:06.221Z</time></trkpt><trkpt lat="45.707395" lon="13.745705"><ele>248.0</ele><time>2026-04-19T14:09:07.221Z</time></trkpt><trkpt lat="45.7074717" lon="13.7455667"><ele>248.0</ele><time>2026-04-19T14:09:08.219Z</time></trkpt><trkpt lat="45.7075783" lon="13.7454067"><ele>248.0</ele><time>2026-04-19T14:09:09.222Z</time></trkpt><trkpt lat="45.7077067" lon="13.7452167"><ele>247.66666666666669</ele><time>2026-04-19T14:09:10.221Z</time></trkpt><trkpt lat="45.707845" lon="13.7450217"><ele>247.33333333333331</ele><time>2026-04-19T14:09:11.223Z</time></trkpt><trkpt lat="45.7079833" lon="13.74482"><ele>247.0</ele><time>2026-04-19T14:09:12.222Z</time></trkpt><trkpt lat="45.7081267" lon="13.744605"><ele>247.5</ele><time>2026-04-19T14:09:13.223Z</time></trkpt><trkpt lat="45.7082867" lon="13.7443683"><ele>248.0</ele><time>2026-04-19T14:09:14.223Z</time></trkpt><trkpt lat="45.7084717" lon="13.7441083"><ele>248.5</ele><time>2026-04-19T14:09:15.228Z</time></trkpt><trkpt lat="45.7086783" lon="13.743825"><ele>249.0</ele><time>2026-04-19T14:09:16.221Z</time></trkpt><trkpt lat="45.708885" lon="13.74353"><ele>249.0</ele><time>2026-04-19T14:09:17.22Z</time></trkpt><trkpt lat="45.7090833" lon="13.7432383"><ele>249.0</ele><time>2026-04-19T14:09:18.222Z</time></trkpt><trkpt lat="45.7092883" lon="13.742945"><ele>249.0</ele><time>2026-04-19T14:09:19.223Z</time></trkpt><trkpt lat="45.7094983" lon="13.74264"><ele>249.0</ele><time>2026-04-19T14:09:20.218Z</time></trkpt><trkpt lat="45.709715" lon="13.7423267"><ele>249.0</ele><time>2026-04-19T14:09:21.221Z</time></trkpt><trkpt lat="45.7099367" lon="13.7420033"><ele>249.0</ele><time>2026-04-19T14:09:22.223Z</time></trkpt><trkpt lat="45.7101667" lon="13.74167"><ele>249.0</ele><time>2026-04-19T14:09:23.22Z</time></trkpt><trkpt lat="45.7104" lon="13.7413333"><ele>249.0</ele><time>2026-04-19T14:09:24.222Z</time></trkpt><trkpt lat="45.7106267" lon="13.7410167"><ele>249.0</ele><time>2026-04-19T14:09:25.22Z</time></trkpt><trkpt lat="45.7108417" lon="13.740715"><ele>249.0</ele><time>2026-04-19T14:09:26.218Z</time></trkpt><trkpt lat="45.711045" lon="13.7404217"><ele>248.0</ele><time>2026-04-19T14:09:27.222Z</time></trkpt><trkpt lat="45.7112383" lon="13.7401417"><ele>247.0</ele><time>2026-04-19T14:09:28.221Z</time></trkpt><trkpt lat="45.7114233" lon="13.7398717"><ele>247.0</ele><time>2026-04-19T14:09:29.222Z</time></trkpt><trkpt lat="45.7116" lon="13.7396183"><ele>247.0</ele><time>2026-04-19T14:09:30.223Z</time></trkpt><trkpt lat="45.71177" lon="13.7393783"><ele>247.66666666666666</ele><time>2026-04-19T14:09:31.223Z</time></trkpt><trkpt lat="45.7119233" lon="13.7391583"><ele>248.33333333333331</ele><time>2026-04-19T14:09:32.222Z</time></trkpt><trkpt lat="45.7120633" lon="13.7389633"><ele>249.0</ele><time>2026-04-19T14:09:33.225Z</time></trkpt><trkpt lat="45.71219" lon="13.7387833"><ele>249.0</ele><time>2026-04-19T14:09:34.221Z</time></trkpt><trkpt lat="45.7123117" lon="13.7386083"><ele>249.0</ele><time>2026-04-19T14:09:35.223Z</time></trkpt><trkpt lat="45.7124283" lon="13.73844"><ele>249.0</ele><time>2026-04-19T14:09:36.221Z</time></trkpt><trkpt lat="45.7125467" lon="13.7382733"><ele>248.33333333333331</ele><time>2026-04-19T14:09:37.224Z</time></trkpt><trkpt lat="45.7126633" lon="13.7381033"><ele>247.66666666666666</ele><time>2026-04-19T14:09:38.223Z</time></trkpt><trkpt lat="45.71278" lon="13.73793"><ele>247.0</ele><time>2026-04-19T14:09:39.223Z</time></trkpt><trkpt lat="45.7129" lon="13.737755"><ele>246.0</ele><time>2026-04-19T14:09:40.221Z</time></trkpt><trkpt lat="45.7130233" lon="13.73758"><ele>245.0</ele><time>2026-04-19T14:09:41.221Z</time></trkpt><trkpt lat="45.7131483" lon="13.7374"><ele>244.0</ele><time>2026-04-19T14:09:42.22Z</time></trkpt><trkpt lat="45.7132783" lon="13.73721"><ele>244.0</ele><time>2026-04-19T14:09:43.222Z</time></trkpt><trkpt lat="45.7134133" lon="13.7370117"><ele>244.0</ele><time>2026-04-19T14:09:44.223Z</time></trkpt><trkpt lat="45.7135533" lon="13.7368033"><ele>244.0</ele><time>2026-04-19T14:09:45.221Z</time></trkpt><trkpt lat="45.7137033" lon="13.7365833"><ele>242.5</ele><time>2026-04-19T14:09:46.225Z</time></trkpt><trkpt lat="45.713865" lon="13.7363517"><ele>241.0</ele><time>2026-04-19T14:09:47.22Z</time></trkpt><trkpt lat="45.714025" lon="13.7361217"><ele>240.33333333333331</ele><time>2026-04-19T14:09:48.221Z</time></trkpt><trkpt lat="45.7141767" lon="13.7359"><ele>239.66666666666669</ele><time>2026-04-19T14:09:49.222Z</time></trkpt><trkpt lat="45.71433" lon="13.7356767"><ele>239.0</ele><time>2026-04-19T14:09:50.224Z</time></trkpt><trkpt lat="45.7144867" lon="13.7354417"><ele>238.0</ele><time>2026-04-19T14:09:51.222Z</time></trkpt><trkpt lat="45.7146583" lon="13.7351917"><ele>237.0</ele><time>2026-04-19T14:09:52.219Z</time></trkpt><trkpt lat="45.71484" lon="13.7349317"><ele>237.0</ele><time>2026-04-19T14:09:53.221Z</time></trkpt><trkpt lat="45.715015" lon="13.7346783"><ele>237.0</ele><time>2026-04-19T14:09:54.219Z</time></trkpt><trkpt lat="45.7151967" lon="13.7344217"><ele>236.5</ele><time>2026-04-19T14:09:55.218Z</time></trkpt><trkpt lat="45.7153783" lon="13.7341633"><ele>236.0</ele><time>2026-04-19T14:09:56.223Z</time></trkpt><trkpt lat="45.7155667" lon="13.73389"><ele>236.0</ele><time>2026-04-19T14:09:57.225Z</time></trkpt><trkpt lat="45.7157683" lon="13.7335967"><ele>236.0</ele><time>2026-04-19T14:09:58.222Z</time></trkpt><trkpt lat="45.7159717" lon="13.73331"><ele>235.0</ele><time>2026-04-19T14:09:59.22Z</time></trkpt><trkpt lat="45.71617" lon="13.73304"><ele>234.0</ele><time>2026-04-19T14:10:00.219Z</time></trkpt><trkpt lat="45.71637" lon="13.7327733"><ele>233.0</ele><time>2026-04-19T14:10:01.225Z</time></trkpt><trkpt lat="45.7165767" lon="13.7325233"><ele>232.0</ele><time>2026-04-19T14:10:02.224Z</time></trkpt><trkpt lat="45.7168" lon="13.7323"><ele>231.5</ele><time>2026-04-19T14:10:03.224Z</time></trkpt><trkpt lat="45.7170483" lon="13.7321083"><ele>231.0</ele><time>2026-04-19T14:10:04.222Z</time></trkpt><trkpt lat="45.7173117" lon="13.73194"><ele>231.0</ele><time>2026-04-19T14:10:05.223Z</time></trkpt><trkpt lat="45.7175767" lon="13.73179"><ele>231.0</ele><time>2026-04-19T14:10:06.221Z</time></trkpt><trkpt lat="45.7178433" lon="13.7316383"><ele>231.5</ele><time>2026-04-19T14:10:07.222Z</time></trkpt><trkpt lat="45.7181017" lon="13.7314817"><ele>232.0</ele><time>2026-04-19T14:10:08.224Z</time></trkpt><trkpt lat="45.718335" lon="13.731315"><ele>232.0</ele><time>2026-04-19T14:10:09.227Z</time></trkpt><trkpt lat="45.71855" lon="13.73113"><ele>232.0</ele><time>2026-04-19T14:10:10.221Z</time></trkpt><trkpt lat="45.7187417" lon="13.73093"><ele>232.0</ele><time>2026-04-19T14:10:11.219Z</time></trkpt><trkpt lat="45.7189133" lon="13.73072"><ele>232.0</ele><time>2026-04-19T14:10:12.222Z</time></trkpt><trkpt lat="45.7190683" lon="13.7305"><ele>232.0</ele><time>2026-04-19T14:10:13.225Z</time></trkpt><trkpt lat="45.7192167" lon="13.73028"><ele>231.66666666666666</ele><time>2026-04-19T14:10:14.225Z</time></trkpt><trkpt lat="45.7193667" lon="13.73007"><ele>231.33333333333331</ele><time>2026-04-19T14:10:15.226Z</time></trkpt><trkpt lat="45.71952" lon="13.7298667"><ele>231.0</ele><time>2026-04-19T14:10:16.224Z</time></trkpt><trkpt lat="45.7196617" lon="13.729675"><ele>231.0</ele><time>2026-04-19T14:10:17.225Z</time></trkpt><trkpt lat="45.71979" lon="13.7295017"><ele>231.0</ele><time>2026-04-19T14:10:18.225Z</time></trkpt><trkpt lat="45.719905" lon="13.729345"><ele>231.0</ele><time>2026-04-19T14:10:19.222Z</time></trkpt><trkpt lat="45.7200033" lon="13.7292067"><ele>231.0</ele><time>2026-04-19T14:10:20.22Z</time></trkpt><trkpt lat="45.7200917" lon="13.729085"><ele>231.00000000000003</ele><time>2026-04-19T14:10:21.224Z</time></trkpt><trkpt lat="45.72017" lon="13.728975"><ele>231.00000000000003</ele><time>2026-04-19T14:10:22.22Z</time></trkpt><trkpt lat="45.7202433" lon="13.7288717"><ele>231.0</ele><time>2026-04-19T14:10:23.223Z</time></trkpt><trkpt lat="45.7203133" lon="13.7287783"><ele>231.0</ele><time>2026-04-19T14:10:24.22Z</time></trkpt><trkpt lat="45.72038" lon="13.7286967"><ele>231.33333333333334</ele><time>2026-04-19T14:10:25.221Z</time></trkpt><trkpt lat="45.7204417" lon="13.7286183"><ele>231.66666666666669</ele><time>2026-04-19T14:10:26.221Z</time></trkpt><trkpt lat="45.7204983" lon="13.7285517"><ele>232.0</ele><time>2026-04-19T14:10:27.221Z</time></trkpt><trkpt lat="45.7205567" lon="13.7284917"><ele>232.33333333333334</ele><time>2026-04-19T14:10:28.221Z</time></trkpt><trkpt lat="45.72063" lon="13.7284467"><ele>232.66666666666669</ele><time>2026-04-19T14:10:29.221Z</time></trkpt><trkpt lat="45.7207267" lon="13.7284167"><ele>233.0</ele><time>2026-04-19T14:10:30.221Z</time></trkpt><trkpt lat="45.72086" lon="13.7283933"><ele>233.33333333333334</ele><time>2026-04-19T14:10:31.221Z</time></trkpt><trkpt lat="45.7210067" lon="13.72838"><ele>233.66666666666669</ele><time>2026-04-19T14:10:32.22Z</time></trkpt><trkpt lat="45.7211783" lon="13.7283733"><ele>234.0</ele><time>2026-04-19T14:10:33.222Z</time></trkpt><trkpt lat="45.72138" lon="13.7283667"><ele>235.5</ele><time>2026-04-19T14:10:34.222Z</time></trkpt><trkpt lat="45.7216183" lon="13.7283633"><ele>237.0</ele><time>2026-04-19T14:10:35.224Z</time></trkpt><trkpt lat="45.72185" lon="13.728365"><ele>237.0</ele><time>2026-04-19T14:10:36.222Z</time></trkpt><trkpt lat="45.7220517" lon="13.7283717"><ele>237.0</ele><time>2026-04-19T14:10:37.224Z</time></trkpt><trkpt lat="45.7222217" lon="13.7283833"><ele>237.0</ele><time>2026-04-19T14:10:38.222Z</time></trkpt><trkpt lat="45.7223717" lon="13.7283917"><ele>237.0</ele><time>2026-04-19T14:10:39.221Z</time></trkpt><trkpt lat="45.7225033" lon="13.7283983"><ele>237.0</ele><time>2026-04-19T14:10:40.224Z</time></trkpt><trkpt lat="45.722625" lon="13.7284"><ele>237.0</ele><time>2026-04-19T14:10:41.223Z</time></trkpt><trkpt lat="45.7227433" lon="13.7283983"><ele>237.0</ele><time>2026-04-19T14:10:42.223Z</time></trkpt><trkpt lat="45.7228567" lon="13.7283983"><ele>237.0</ele><time>2026-04-19T14:10:43.224Z</time></trkpt><trkpt lat="45.7229717" lon="13.7284017"><ele>237.0</ele><time>2026-04-19T14:10:44.223Z</time></trkpt><trkpt lat="45.723085" lon="13.7284083"><ele>237.0</ele><time>2026-04-19T14:10:45.225Z</time></trkpt><trkpt lat="45.723205" lon="13.728415"><ele>237.0</ele><time>2026-04-19T14:10:46.223Z</time></trkpt><trkpt lat="45.723335" lon="13.7284133"><ele>237.0</ele><time>2026-04-19T14:10:47.223Z</time></trkpt><trkpt lat="45.723485" lon="13.7284033"><ele>237.0</ele><time>2026-04-19T14:10:48.224Z</time></trkpt><trkpt lat="45.7236417" lon="13.728385"><ele>237.0</ele><time>2026-04-19T14:10:49.223Z</time></trkpt><trkpt lat="45.7238033" lon="13.7283617"><ele>236.66666666666669</ele><time>2026-04-19T14:10:50.222Z</time></trkpt><trkpt lat="45.7239633" lon="13.7283367"><ele>236.33333333333334</ele><time>2026-04-19T14:10:51.224Z</time></trkpt><trkpt lat="45.7241217" lon="13.72833"><ele>236.0</ele><time>2026-04-19T14:10:52.222Z</time></trkpt><trkpt lat="45.7242817" lon="13.72834"><ele>236.25</ele><time>2026-04-19T14:10:53.222Z</time></trkpt><trkpt lat="45.7244317" lon="13.7283633"><ele>236.5</ele><time>2026-04-19T14:10:54.222Z</time></trkpt><trkpt lat="45.7245817" lon="13.728395"><ele>236.75</ele><time>2026-04-19T14:10:55.225Z</time></trkpt><trkpt lat="45.7247267" lon="13.7284233"><ele>237.0</ele><time>2026-04-19T14:10:56.219Z</time></trkpt><trkpt lat="45.7248667" lon="13.7284517"><ele>237.0</ele><time>2026-04-19T14:10:57.224Z</time></trkpt><trkpt lat="45.725005" lon="13.7284733"><ele>237.0</ele><time>2026-04-19T14:10:58.221Z</time></trkpt><trkpt lat="45.7251333" lon="13.7284967"><ele>237.0</ele><time>2026-04-19T14:10:59.223Z</time></trkpt><trkpt lat="45.7252567" lon="13.7285283"><ele>237.0</ele><time>2026-04-19T14:11:00.221Z</time></trkpt><trkpt lat="45.7253683" lon="13.7285617"><ele>236.2</ele><time>2026-04-19T14:11:01.22Z</time></trkpt><trkpt lat="45.72547" lon="13.7285983"><ele>235.39999999999998</ele><time>2026-04-19T14:11:02.222Z</time></trkpt><trkpt lat="45.72557" lon="13.7286433"><ele>234.60000000000002</ele><time>2026-04-19T14:11:03.223Z</time></trkpt><trkpt lat="45.7256633" lon="13.7287033"><ele>233.8</ele><time>2026-04-19T14:11:04.225Z</time></trkpt><trkpt lat="45.725755" lon="13.7287733"><ele>233.0</ele><time>2026-04-19T14:11:05.225Z</time></trkpt><trkpt lat="45.7258533" lon="13.7288467"><ele>233.0</ele><time>2026-04-19T14:11:06.221Z</time></trkpt><trkpt lat="45.7259533" lon="13.7289317"><ele>233.0</ele><time>2026-04-19T14:11:07.218Z</time></trkpt><trkpt lat="45.7260567" lon="13.7290283"><ele>233.0</ele><time>2026-04-19T14:11:08.223Z</time></trkpt><trkpt lat="45.7261617" lon="13.7291317"><ele>233.0</ele><time>2026-04-19T14:11:09.222Z</time></trkpt><trkpt lat="45.7262733" lon="13.72923"><ele>233.0</ele><time>2026-04-19T14:11:10.223Z</time></trkpt><trkpt lat="45.72639" lon="13.729305"><ele>233.0</ele><time>2026-04-19T14:11:11.221Z</time></trkpt><trkpt lat="45.7265033" lon="13.7293617"><ele>233.0</ele><time>2026-04-19T14:11:12.221Z</time></trkpt><trkpt lat="45.72661" lon="13.7294033"><ele>233.0</ele><time>2026-04-19T14:11:13.221Z</time></trkpt><trkpt lat="45.7267133" lon="13.7294483"><ele>233.0</ele><time>2026-04-19T14:11:14.219Z</time></trkpt><trkpt lat="45.72681" lon="13.7294933"><ele>233.0</ele><time>2026-04-19T14:11:15.222Z</time></trkpt><trkpt lat="45.7269067" lon="13.729535"><ele>233.0</ele><time>2026-04-19T14:11:16.22Z</time></trkpt><trkpt lat="45.7270083" lon="13.7295633"><ele>233.0</ele><time>2026-04-19T14:11:17.222Z</time></trkpt><trkpt lat="45.7271083" lon="13.7296133"><ele>233.0</ele><time>2026-04-19T14:11:18.222Z</time></trkpt><trkpt lat="45.7272083" lon="13.7296633"><ele>233.0</ele><time>2026-04-19T14:11:19.22Z</time></trkpt><trkpt lat="45.7273083" lon="13.7297033"><ele>233.0</ele><time>2026-04-19T14:11:20.222Z</time></trkpt><trkpt lat="45.7274133" lon="13.7297417"><ele>233.0</ele><time>2026-04-19T14:11:21.225Z</time></trkpt><trkpt lat="45.7275217" lon="13.72978"><ele>233.0</ele><time>2026-04-19T14:11:22.224Z</time></trkpt><trkpt lat="45.7276317" lon="13.7298117"><ele>233.0</ele><time>2026-04-19T14:11:23.221Z</time></trkpt><trkpt lat="45.7277483" lon="13.7298433"><ele>232.75</ele><time>2026-04-19T14:11:24.222Z</time></trkpt><trkpt lat="45.72787" lon="13.7298783"><ele>232.5</ele><time>2026-04-19T14:11:25.228Z</time></trkpt><trkpt lat="45.7279983" lon="13.7299167"><ele>232.25</ele><time>2026-04-19T14:11:26.219Z</time></trkpt><trkpt lat="45.7281417" lon="13.72995"><ele>232.0</ele><time>2026-04-19T14:11:27.222Z</time></trkpt><trkpt lat="45.7283033" lon="13.729985"><ele>232.0</ele><time>2026-04-19T14:11:28.221Z</time></trkpt><trkpt lat="45.7284817" lon="13.7300083"><ele>232.0</ele><time>2026-04-19T14:11:29.222Z</time></trkpt><trkpt lat="45.72867" lon="13.730015"><ele>232.0</ele><time>2026-04-19T14:11:30.224Z</time></trkpt><trkpt lat="45.728855" lon="13.7300133"><ele>232.0</ele><time>2026-04-19T14:11:31.223Z</time></trkpt><trkpt lat="45.7290267" lon="13.730015"><ele>232.0</ele><time>2026-04-19T14:11:32.223Z</time></trkpt><trkpt lat="45.7291667" lon="13.7300133"><ele>232.0</ele><time>2026-04-19T14:11:33.224Z</time></trkpt><trkpt lat="45.7292767" lon="13.730005"><ele>232.0</ele><time>2026-04-19T14:11:34.224Z</time></trkpt><trkpt lat="45.7293633" lon="13.7300033"><ele>231.99999999999997</ele><time>2026-04-19T14:11:35.218Z</time></trkpt><trkpt lat="45.729445" lon="13.7300083"><ele>232.0</ele><time>2026-04-19T14:11:36.22Z</time></trkpt><trkpt lat="45.7295267" lon="13.7300133"><ele>232.0</ele><time>2026-04-19T14:11:37.223Z</time></trkpt><trkpt lat="45.7296133" lon="13.730015"><ele>232.0</ele><time>2026-04-19T14:11:38.223Z</time></trkpt><trkpt lat="45.7296983" lon="13.7300217"><ele>231.99999999999997</ele><time>2026-04-19T14:11:39.223Z</time></trkpt><trkpt lat="45.7297867" lon="13.730045"><ele>232.0</ele><time>2026-04-19T14:11:40.221Z</time></trkpt><trkpt lat="45.7298783" lon="13.7300833"><ele>231.99999999999997</ele><time>2026-04-19T14:11:41.223Z</time></trkpt><trkpt lat="45.7299617" lon="13.73013"><ele>232.0</ele><time>2026-04-19T14:11:42.222Z</time></trkpt><trkpt lat="45.7300333" lon="13.7301767"><ele>232.0</ele><time>2026-04-19T14:11:43.222Z</time></trkpt><trkpt lat="45.7300983" lon="13.7302267"><ele>232.0</ele><time>2026-04-19T14:11:44.221Z</time></trkpt><trkpt lat="45.73016" lon="13.73027"><ele>231.99999999999997</ele><time>2026-04-19T14:11:45.225Z</time></trkpt><trkpt lat="45.7302183" lon="13.7303133"><ele>232.0</ele><time>2026-04-19T14:11:46.221Z</time></trkpt><trkpt lat="45.730285" lon="13.7303633"><ele>232.6</ele><time>2026-04-19T14:11:47.223Z</time></trkpt><trkpt lat="45.7303683" lon="13.730415"><ele>233.2</ele><time>2026-04-19T14:11:48.221Z</time></trkpt><trkpt lat="45.7304733" lon="13.7304633"><ele>233.8</ele><time>2026-04-19T14:11:49.225Z</time></trkpt><trkpt lat="45.73058" lon="13.7304833"><ele>234.4</ele><time>2026-04-19T14:11:50.223Z</time></trkpt><trkpt lat="45.7307" lon="13.73047"><ele>235.0</ele><time>2026-04-19T14:11:51.223Z</time></trkpt><trkpt lat="45.730825" lon="13.7304217"><ele>235.0</ele><time>2026-04-19T14:11:52.223Z</time></trkpt><trkpt lat="45.7309383" lon="13.73034"><ele>235.0</ele><time>2026-04-19T14:11:53.221Z</time></trkpt><trkpt lat="45.73104" lon="13.7302083"><ele>235.0</ele><time>2026-04-19T14:11:54.222Z</time></trkpt><trkpt lat="45.7311267" lon="13.7300383"><ele>235.0</ele><time>2026-04-19T14:11:55.221Z</time></trkpt><trkpt lat="45.7312" lon="13.7298633"><ele>233.5</ele><time>2026-04-19T14:11:56.222Z</time></trkpt><trkpt lat="45.731265" lon="13.72971"><ele>232.0</ele><time>2026-04-19T14:11:57.223Z</time></trkpt><trkpt lat="45.7313367" lon="13.7295633"><ele>230.5</ele><time>2026-04-19T14:11:58.22Z</time></trkpt><trkpt lat="45.7314233" lon="13.729425"><ele>229.0</ele><time>2026-04-19T14:11:59.223Z</time></trkpt><trkpt lat="45.7315267" lon="13.72929"><ele>229.0</ele><time>2026-04-19T14:12:00.218Z</time></trkpt><trkpt lat="45.7316517" lon="13.72916"><ele>229.0</ele><time>2026-04-19T14:12:01.221Z</time></trkpt><trkpt lat="45.7318067" lon="13.7290367"><ele>229.0</ele><time>2026-04-19T14:12:02.223Z</time></trkpt><trkpt lat="45.7319817" lon="13.7289117"><ele>230.5</ele><time>2026-04-19T14:12:03.225Z</time></trkpt><trkpt lat="45.7321683" lon="13.72877"><ele>232.0</ele><time>2026-04-19T14:12:04.225Z</time></trkpt><trkpt lat="45.73238" lon="13.72861"><ele>231.5</ele><time>2026-04-19T14:12:05.221Z</time></trkpt><trkpt lat="45.7325933" lon="13.72847"><ele>231.0</ele><time>2026-04-19T14:12:06.222Z</time></trkpt><trkpt lat="45.7327967" lon="13.7283433"><ele>233.5</ele><time>2026-04-19T14:12:07.226Z</time></trkpt><trkpt lat="45.733" lon="13.728185"><ele>236.0</ele><time>2026-04-19T14:12:08.223Z</time></trkpt><trkpt lat="45.7331967" lon="13.72801"><ele>236.0</ele><time>2026-04-19T14:12:09.223Z</time></trkpt><trkpt lat="45.7333833" lon="13.7278217"><ele>236.0</ele><time>2026-04-19T14:12:10.223Z</time></trkpt><trkpt lat="45.7335583" lon="13.7276317"><ele>236.0</ele><time>2026-04-19T14:12:11.222Z</time></trkpt><trkpt lat="45.7337233" lon="13.7274583"><ele>237.0</ele><time>2026-04-19T14:12:12.222Z</time></trkpt><trkpt lat="45.7338783" lon="13.7272917"><ele>238.0</ele><time>2026-04-19T14:12:13.223Z</time></trkpt><trkpt lat="45.73403" lon="13.7271367"><ele>239.0</ele><time>2026-04-19T14:12:14.223Z</time></trkpt><trkpt lat="45.7341833" lon="13.7269817"><ele>238.66666666666669</ele><time>2026-04-19T14:12:15.223Z</time></trkpt><trkpt lat="45.7343433" lon="13.72683"><ele>238.33333333333331</ele><time>2026-04-19T14:12:16.221Z</time></trkpt><trkpt lat="45.734505" lon="13.7266767"><ele>238.0</ele><time>2026-04-19T14:12:17.219Z</time></trkpt><trkpt lat="45.7346667" lon="13.7265233"><ele>238.66666666666666</ele><time>2026-04-19T14:12:18.221Z</time></trkpt><trkpt lat="45.734835" lon="13.7263617"><ele>239.33333333333331</ele><time>2026-04-19T14:12:19.223Z</time></trkpt><trkpt lat="45.7350233" lon="13.7261833"><ele>240.0</ele><time>2026-04-19T14:12:20.223Z</time></trkpt><trkpt lat="45.7352317" lon="13.7259867"><ele>241.0</ele><time>2026-04-19T14:12:21.222Z</time></trkpt><trkpt lat="45.7354567" lon="13.7257733"><ele>242.0</ele><time>2026-04-19T14:12:22.223Z</time></trkpt><trkpt lat="45.7356967" lon="13.72556"><ele>242.0</ele><time>2026-04-19T14:12:23.221Z</time></trkpt><trkpt lat="45.73593" lon="13.72536"><ele>242.0</ele><time>2026-04-19T14:12:24.226Z</time></trkpt><trkpt lat="45.73615" lon="13.725175"><ele>243.0</ele><time>2026-04-19T14:12:25.222Z</time></trkpt><trkpt lat="45.73636" lon="13.7249783"><ele>244.0</ele><time>2026-04-19T14:12:26.223Z</time></trkpt><trkpt lat="45.7365683" lon="13.724765"><ele>244.0</ele><time>2026-04-19T14:12:27.224Z</time></trkpt><trkpt lat="45.7367817" lon="13.7245283"><ele>244.0</ele><time>2026-04-19T14:12:28.223Z</time></trkpt><trkpt lat="45.7369983" lon="13.7242733"><ele>246.0</ele><time>2026-04-19T14:12:29.222Z</time></trkpt><trkpt lat="45.7372117" lon="13.7240083"><ele>248.0</ele><time>2026-04-19T14:12:30.219Z</time></trkpt><trkpt lat="45.7374183" lon="13.7237533"><ele>249.5</ele><time>2026-04-19T14:12:31.223Z</time></trkpt><trkpt lat="45.73762" lon="13.7235217"><ele>251.0</ele><time>2026-04-19T14:12:32.224Z</time></trkpt><trkpt lat="45.7378283" lon="13.7233167"><ele>251.0</ele><time>2026-04-19T14:12:33.226Z</time></trkpt><trkpt lat="45.7380533" lon="13.7231367"><ele>251.0</ele><time>2026-04-19T14:12:34.22Z</time></trkpt><trkpt lat="45.7382783" lon="13.7229683"><ele>251.0</ele><time>2026-04-19T14:12:35.221Z</time></trkpt><trkpt lat="45.7384967" lon="13.7228167"><ele>251.0</ele><time>2026-04-19T14:12:36.222Z</time></trkpt><trkpt lat="45.7387033" lon="13.7226767"><ele>250.66666666666669</ele><time>2026-04-19T14:12:37.222Z</time></trkpt><trkpt lat="45.7389117" lon="13.7225683"><ele>250.33333333333331</ele><time>2026-04-19T14:12:38.222Z</time></trkpt><trkpt lat="45.7391217" lon="13.7225033"><ele>250.0</ele><time>2026-04-19T14:12:39.222Z</time></trkpt><trkpt lat="45.7393483" lon="13.7224767"><ele>247.0</ele><time>2026-04-19T14:12:40.223Z</time></trkpt><trkpt lat="45.739585" lon="13.7224833"><ele>244.0</ele><time>2026-04-19T14:12:41.223Z</time></trkpt><trkpt lat="45.73984" lon="13.722535"><ele>244.0</ele><time>2026-04-19T14:12:42.223Z</time></trkpt><trkpt lat="45.7400933" lon="13.7225933"><ele>244.0</ele><time>2026-04-19T14:12:43.219Z</time></trkpt><trkpt lat="45.74034" lon="13.7226167"><ele>244.5</ele><time>2026-04-19T14:12:44.221Z</time></trkpt><trkpt lat="45.7405983" lon="13.722585"><ele>245.0</ele><time>2026-04-19T14:12:45.222Z</time></trkpt><trkpt lat="45.740875" lon="13.7224933"><ele>246.0</ele><time>2026-04-19T14:12:46.224Z</time></trkpt><trkpt lat="45.74117" lon="13.72238"><ele>247.0</ele><time>2026-04-19T14:12:47.22Z</time></trkpt><trkpt lat="45.741475" lon="13.7222617"><ele>247.0</ele><time>2026-04-19T14:12:48.223Z</time></trkpt><trkpt lat="45.74177" lon="13.7221517"><ele>247.0</ele><time>2026-04-19T14:12:49.222Z</time></trkpt><trkpt lat="45.74205" lon="13.7220667"><ele>247.0</ele><time>2026-04-19T14:12:50.223Z</time></trkpt><trkpt lat="45.7423217" lon="13.72202"><ele>247.0</ele><time>2026-04-19T14:12:51.226Z</time></trkpt><trkpt lat="45.7425967" lon="13.72201"><ele>249.0</ele><time>2026-04-19T14:12:52.222Z</time></trkpt><trkpt lat="45.7428783" lon="13.7220217"><ele>251.0</ele><time>2026-04-19T14:12:53.221Z</time></trkpt><trkpt lat="45.7431633" lon="13.722045"><ele>251.0</ele><time>2026-04-19T14:12:54.225Z</time></trkpt><trkpt lat="45.743455" lon="13.7220717"><ele>251.0</ele><time>2026-04-19T14:12:55.225Z</time></trkpt><trkpt lat="45.7437333" lon="13.7221033"><ele>251.5</ele><time>2026-04-19T14:12:56.221Z</time></trkpt><trkpt lat="45.7440033" lon="13.7221367"><ele>252.0</ele><time>2026-04-19T14:12:57.222Z</time></trkpt><trkpt lat="45.74426" lon="13.722165"><ele>252.5</ele><time>2026-04-19T14:12:58.223Z</time></trkpt><trkpt lat="45.7445017" lon="13.722185"><ele>253.0</ele><time>2026-04-19T14:12:59.221Z</time></trkpt><trkpt lat="45.7447233" lon="13.7222067"><ele>253.0</ele><time>2026-04-19T14:13:00.222Z</time></trkpt><trkpt lat="45.74492" lon="13.7222283"><ele>253.0</ele><time>2026-04-19T14:13:01.224Z</time></trkpt><trkpt lat="45.7451017" lon="13.7222467"><ele>253.0</ele><time>2026-04-19T14:13:02.224Z</time></trkpt><trkpt lat="45.7452717" lon="13.722265"><ele>253.0</ele><time>2026-04-19T14:13:03.223Z</time></trkpt><trkpt lat="45.7454367" lon="13.722275"><ele>253.0</ele><time>2026-04-19T14:13:04.224Z</time></trkpt><trkpt lat="45.745595" lon="13.7222867"><ele>253.0</ele><time>2026-04-19T14:13:05.223Z</time></trkpt><trkpt lat="45.745745" lon="13.722295"><ele>253.0</ele><time>2026-04-19T14:13:06.222Z</time></trkpt><trkpt lat="45.74589" lon="13.7223"><ele>253.0</ele><time>2026-04-19T14:13:07.222Z</time></trkpt><trkpt lat="45.746035" lon="13.7223"><ele>253.0</ele><time>2026-04-19T14:13:08.222Z</time></trkpt><trkpt lat="45.7461817" lon="13.72229"><ele>253.0</ele><time>2026-04-19T14:13:09.223Z</time></trkpt><trkpt lat="45.7463283" lon="13.722265"><ele>252.0</ele><time>2026-04-19T14:13:10.219Z</time></trkpt><trkpt lat="45.7464733" lon="13.72222"><ele>251.0</ele><time>2026-04-19T14:13:11.221Z</time></trkpt><trkpt lat="45.74662" lon="13.72215"><ele>250.0</ele><time>2026-04-19T14:13:12.222Z</time></trkpt><trkpt lat="45.7467733" lon="13.72205"><ele>249.66666666666666</ele><time>2026-04-19T14:13:13.219Z</time></trkpt><trkpt lat="45.7469333" lon="13.7219117"><ele>249.33333333333331</ele><time>2026-04-19T14:13:14.222Z</time></trkpt><trkpt lat="45.7470883" lon="13.7217317"><ele>249.0</ele><time>2026-04-19T14:13:15.223Z</time></trkpt><trkpt lat="45.74724" lon="13.7215033"><ele>249.0</ele><time>2026-04-19T14:13:16.221Z</time></trkpt><trkpt lat="45.7473917" lon="13.7212383"><ele>249.0</ele><time>2026-04-19T14:13:17.221Z</time></trkpt><trkpt lat="45.7475433" lon="13.72096"><ele>249.0</ele><time>2026-04-19T14:13:18.224Z</time></trkpt><trkpt lat="45.7476933" lon="13.7206817"><ele>249.0</ele><time>2026-04-19T14:13:19.222Z</time></trkpt><trkpt lat="45.74785" lon="13.7204"><ele>250.0</ele><time>2026-04-19T14:13:20.222Z</time></trkpt><trkpt lat="45.7480067" lon="13.7201183"><ele>251.0</ele><time>2026-04-19T14:13:21.223Z</time></trkpt><trkpt lat="45.74816" lon="13.7198383"><ele>251.0</ele><time>2026-04-19T14:13:22.223Z</time></trkpt><trkpt lat="45.7483133" lon="13.7195567"><ele>251.0</ele><time>2026-04-19T14:13:23.219Z</time></trkpt><trkpt lat="45.7484733" lon="13.7192733"><ele>250.5</ele><time>2026-04-19T14:13:24.223Z</time></trkpt><trkpt lat="45.748635" lon="13.7189833"><ele>250.0</ele><time>2026-04-19T14:13:25.223Z</time></trkpt><trkpt lat="45.7488033" lon="13.71869"><ele>249.5</ele><time>2026-04-19T14:13:26.223Z</time></trkpt><trkpt lat="45.74897" lon="13.7183933"><ele>249.0</ele><time>2026-04-19T14:13:27.227Z</time></trkpt><trkpt lat="45.749145" lon="13.718115"><ele>249.0</ele><time>2026-04-19T14:13:28.221Z</time></trkpt><trkpt lat="45.74932" lon="13.71785"><ele>249.0</ele><time>2026-04-19T14:13:29.218Z</time></trkpt><trkpt lat="45.7494983" lon="13.7175933"><ele>248.0</ele><time>2026-04-19T14:13:30.221Z</time></trkpt><trkpt lat="45.74968" lon="13.7173383"><ele>247.0</ele><time>2026-04-19T14:13:31.224Z</time></trkpt><trkpt lat="45.7498667" lon="13.7170783"><ele>246.5</ele><time>2026-04-19T14:13:32.225Z</time></trkpt><trkpt lat="45.7500567" lon="13.7168133"><ele>246.0</ele><time>2026-04-19T14:13:33.22Z</time></trkpt><trkpt lat="45.7502483" lon="13.7165433"><ele>246.0</ele><time>2026-04-19T14:13:34.221Z</time></trkpt><trkpt lat="45.7504433" lon="13.7162783"><ele>246.0</ele><time>2026-04-19T14:13:35.222Z</time></trkpt><trkpt lat="45.7506333" lon="13.7160083"><ele>246.5</ele><time>2026-04-19T14:13:36.221Z</time></trkpt><trkpt lat="45.7508267" lon="13.7157433"><ele>247.0</ele><time>2026-04-19T14:13:37.223Z</time></trkpt><trkpt lat="45.7510183" lon="13.7154817"><ele>246.5</ele><time>2026-04-19T14:13:38.224Z</time></trkpt><trkpt lat="45.7512033" lon="13.7152267"><ele>246.0</ele><time>2026-04-19T14:13:39.221Z</time></trkpt><trkpt lat="45.7513817" lon="13.714985"><ele>246.0</ele><time>2026-04-19T14:13:40.22Z</time></trkpt><trkpt lat="45.7515517" lon="13.7147483"><ele>246.0</ele><time>2026-04-19T14:13:41.22Z</time></trkpt><trkpt lat="45.7517117" lon="13.7145183"><ele>246.33333333333331</ele><time>2026-04-19T14:13:42.224Z</time></trkpt><trkpt lat="45.7518667" lon="13.7143017"><ele>246.66666666666666</ele><time>2026-04-19T14:13:43.22Z</time></trkpt><trkpt lat="45.752025" lon="13.7141033"><ele>247.0</ele><time>2026-04-19T14:13:44.223Z</time></trkpt><trkpt lat="45.752165" lon="13.7139"><ele>247.0</ele><time>2026-04-19T14:13:45.226Z</time></trkpt><trkpt lat="45.752305" lon="13.7137133"><ele>247.0</ele><time>2026-04-19T14:13:46.22Z</time></trkpt><trkpt lat="45.7524417" lon="13.713525"><ele>247.0</ele><time>2026-04-19T14:13:47.222Z</time></trkpt><trkpt lat="45.7526" lon="13.7133767"><ele>246.66666666666666</ele><time>2026-04-19T14:13:48.223Z</time></trkpt><trkpt lat="45.7527667" lon="13.71323"><ele>246.33333333333331</ele><time>2026-04-19T14:13:49.221Z</time></trkpt><trkpt lat="45.7529467" lon="13.71308"><ele>246.0</ele><time>2026-04-19T14:13:50.223Z</time></trkpt><trkpt lat="45.753135" lon="13.7129317"><ele>246.0</ele><time>2026-04-19T14:13:51.221Z</time></trkpt><trkpt lat="45.7533367" lon="13.7127883"><ele>246.0</ele><time>2026-04-19T14:13:52.222Z</time></trkpt><trkpt lat="45.7535483" lon="13.7126383"><ele>244.5</ele><time>2026-04-19T14:13:53.22Z</time></trkpt><trkpt lat="45.7537617" lon="13.7124767"><ele>243.0</ele><time>2026-04-19T14:13:54.221Z</time></trkpt><trkpt lat="45.75398" lon="13.7123083"><ele>243.0</ele><time>2026-04-19T14:13:55.222Z</time></trkpt><trkpt lat="45.7542033" lon="13.7121467"><ele>243.0</ele><time>2026-04-19T14:13:56.222Z</time></trkpt><trkpt lat="45.7544217" lon="13.712"><ele>243.0</ele><time>2026-04-19T14:13:57.225Z</time></trkpt><trkpt lat="45.7546367" lon="13.7118667"><ele>243.0</ele><time>2026-04-19T14:13:58.222Z</time></trkpt><trkpt lat="45.7548417" lon="13.7117367"><ele>243.0</ele><time>2026-04-19T14:13:59.222Z</time></trkpt><trkpt lat="45.7550417" lon="13.711605"><ele>243.0</ele><time>2026-04-19T14:14:00.221Z</time></trkpt><trkpt lat="45.7552383" lon="13.711475"><ele>243.0</ele><time>2026-04-19T14:14:01.221Z</time></trkpt><trkpt lat="45.7554283" lon="13.7113433"><ele>243.0</ele><time>2026-04-19T14:14:02.22Z</time></trkpt><trkpt lat="45.7556133" lon="13.7112117"><ele>243.0</ele><time>2026-04-19T14:14:03.224Z</time></trkpt><trkpt lat="45.7558" lon="13.7110817"><ele>243.0</ele><time>2026-04-19T14:14:04.221Z</time></trkpt><trkpt lat="45.75598" lon="13.7109467"><ele>242.66666666666669</ele><time>2026-04-19T14:14:05.221Z</time></trkpt><trkpt lat="45.7561533" lon="13.7108067"><ele>242.33333333333334</ele><time>2026-04-19T14:14:06.223Z</time></trkpt><trkpt lat="45.7563167" lon="13.7106433"><ele>242.0</ele><time>2026-04-19T14:14:07.224Z</time></trkpt><trkpt lat="45.756475" lon="13.7104683"><ele>242.0</ele><time>2026-04-19T14:14:08.222Z</time></trkpt><trkpt lat="45.7566283" lon="13.7102667"><ele>242.0</ele><time>2026-04-19T14:14:09.222Z</time></trkpt><trkpt lat="45.756785" lon="13.71006"><ele>242.0</ele><time>2026-04-19T14:14:10.222Z</time></trkpt><trkpt lat="45.7569467" lon="13.709845"><ele>240.5</ele><time>2026-04-19T14:14:11.223Z</time></trkpt><trkpt lat="45.7571183" lon="13.709625"><ele>239.0</ele><time>2026-04-19T14:14:12.22Z</time></trkpt><trkpt lat="45.7572967" lon="13.7093967"><ele>239.0</ele><time>2026-04-19T14:14:13.222Z</time></trkpt><trkpt lat="45.7574767" lon="13.7091583"><ele>239.0</ele><time>2026-04-19T14:14:14.221Z</time></trkpt><trkpt lat="45.7576667" lon="13.7089183"><ele>238.5</ele><time>2026-04-19T14:14:15.22Z</time></trkpt><trkpt lat="45.7578667" lon="13.7086617"><ele>238.0</ele><time>2026-04-19T14:14:16.223Z</time></trkpt><trkpt lat="45.75807" lon="13.70839"><ele>238.0</ele><time>2026-04-19T14:14:17.222Z</time></trkpt><trkpt lat="45.7582667" lon="13.7081133"><ele>238.0</ele><time>2026-04-19T14:14:18.22Z</time></trkpt><trkpt lat="45.7584633" lon="13.7078567"><ele>237.0</ele><time>2026-04-19T14:14:19.22Z</time></trkpt><trkpt lat="45.75866" lon="13.707615"><ele>236.0</ele><time>2026-04-19T14:14:20.223Z</time></trkpt><trkpt lat="45.7588567" lon="13.7073733"><ele>236.0</ele><time>2026-04-19T14:14:21.222Z</time></trkpt><trkpt lat="45.7590567" lon="13.7071317"><ele>236.0</ele><time>2026-04-19T14:14:22.219Z</time></trkpt><trkpt lat="45.75925" lon="13.706885"><ele>236.5</ele><time>2026-04-19T14:14:23.222Z</time></trkpt><trkpt lat="45.7594367" lon="13.7066467"><ele>237.0</ele><time>2026-04-19T14:14:24.222Z</time></trkpt><trkpt lat="45.7596167" lon="13.7064167"><ele>237.0</ele><time>2026-04-19T14:14:25.225Z</time></trkpt><trkpt lat="45.7598017" lon="13.7062033"><ele>237.0</ele><time>2026-04-19T14:14:26.223Z</time></trkpt><trkpt lat="45.75999" lon="13.706"><ele>237.0</ele><time>2026-04-19T14:14:27.223Z</time></trkpt><trkpt lat="45.7601883" lon="13.705815"><ele>237.0</ele><time>2026-04-19T14:14:28.223Z</time></trkpt><trkpt lat="45.760395" lon="13.7056533"><ele>237.0</ele><time>2026-04-19T14:14:29.223Z</time></trkpt><trkpt lat="45.7606" lon="13.7055083"><ele>237.0</ele><time>2026-04-19T14:14:30.224Z</time></trkpt><trkpt lat="45.760795" lon="13.7053667"><ele>237.0</ele><time>2026-04-19T14:14:31.22Z</time></trkpt><trkpt lat="45.7609817" lon="13.7052217"><ele>237.33333333333331</ele><time>2026-04-19T14:14:32.224Z</time></trkpt><trkpt lat="45.7611583" lon="13.7050667"><ele>237.66666666666666</ele><time>2026-04-19T14:14:33.222Z</time></trkpt><trkpt lat="45.7613367" lon="13.7049433"><ele>238.0</ele><time>2026-04-19T14:14:34.225Z</time></trkpt><trkpt lat="45.7615" lon="13.70481"><ele>238.0</ele><time>2026-04-19T14:14:35.22Z</time></trkpt><trkpt lat="45.7616583" lon="13.7046883"><ele>238.0</ele><time>2026-04-19T14:14:36.22Z</time></trkpt><trkpt lat="45.7618067" lon="13.7045717"><ele>238.0</ele><time>2026-04-19T14:14:37.222Z</time></trkpt><trkpt lat="45.76195" lon="13.7044683"><ele>239.66666666666666</ele><time>2026-04-19T14:14:38.221Z</time></trkpt><trkpt lat="45.7620933" lon="13.7043683"><ele>241.33333333333331</ele><time>2026-04-19T14:14:39.223Z</time></trkpt><trkpt lat="45.7622317" lon="13.7042617"><ele>243.0</ele><time>2026-04-19T14:14:40.221Z</time></trkpt><trkpt lat="45.7623617" lon="13.704145"><ele>243.0</ele><time>2026-04-19T14:14:41.223Z</time></trkpt><trkpt lat="45.7624817" lon="13.70401"><ele>243.0</ele><time>2026-04-19T14:14:42.218Z</time></trkpt><trkpt lat="45.7625967" lon="13.7038633"><ele>243.0</ele><time>2026-04-19T14:14:43.224Z</time></trkpt><trkpt lat="45.7627" lon="13.7037083"><ele>243.5</ele><time>2026-04-19T14:14:44.222Z</time></trkpt><trkpt lat="45.7628" lon="13.7035417"><ele>244.0</ele><time>2026-04-19T14:14:45.222Z</time></trkpt><trkpt lat="45.7628933" lon="13.7033717"><ele>244.5</ele><time>2026-04-19T14:14:46.219Z</time></trkpt><trkpt lat="45.76298" lon="13.703205"><ele>245.0</ele><time>2026-04-19T14:14:47.222Z</time></trkpt><trkpt lat="45.7630683" lon="13.70304"><ele>245.0</ele><time>2026-04-19T14:14:48.221Z</time></trkpt><trkpt lat="45.7631483" lon="13.7028733"><ele>245.0</ele><time>2026-04-19T14:14:49.223Z</time></trkpt><trkpt lat="45.7632333" lon="13.7027033"><ele>245.0</ele><time>2026-04-19T14:14:50.22Z</time></trkpt><trkpt lat="45.76332" lon="13.702525"><ele>245.0</ele><time>2026-04-19T14:14:51.221Z</time></trkpt><trkpt lat="45.7634133" lon="13.7023317"><ele>246.0</ele><time>2026-04-19T14:14:52.22Z</time></trkpt><trkpt lat="45.7635167" lon="13.70212"><ele>247.0</ele><time>2026-04-19T14:14:53.221Z</time></trkpt><trkpt lat="45.7636233" lon="13.7018917"><ele>248.0</ele><time>2026-04-19T14:14:54.222Z</time></trkpt><trkpt lat="45.76373" lon="13.7016633"><ele>248.0</ele><time>2026-04-19T14:14:55.229Z</time></trkpt><trkpt lat="45.7638217" lon="13.70144"><ele>248.0</ele><time>2026-04-19T14:14:56.22Z</time></trkpt><trkpt lat="45.76392" lon="13.7012417"><ele>248.0</ele><time>2026-04-19T14:14:57.223Z</time></trkpt><trkpt lat="45.764015" lon="13.7010517"><ele>250.0</ele><time>2026-04-19T14:14:58.221Z</time></trkpt><trkpt lat="45.7641067" lon="13.7008683"><ele>252.0</ele><time>2026-04-19T14:14:59.219Z</time></trkpt><trkpt lat="45.7641933" lon="13.7006933"><ele>254.0</ele><time>2026-04-19T14:15:00.22Z</time></trkpt><trkpt lat="45.76428" lon="13.700515"><ele>252.0</ele><time>2026-04-19T14:15:01.219Z</time></trkpt><trkpt lat="45.764365" lon="13.7003383"><ele>250.0</ele><time>2026-04-19T14:15:02.219Z</time></trkpt><trkpt lat="45.7644467" lon="13.70015"><ele>248.0</ele><time>2026-04-19T14:15:03.22Z</time></trkpt><trkpt lat="45.7645367" lon="13.69995"><ele>247.33333333333334</ele><time>2026-04-19T14:15:04.22Z</time></trkpt><trkpt lat="45.7646417" lon="13.699725"><ele>246.66666666666669</ele><time>2026-04-19T14:15:05.221Z</time></trkpt><trkpt lat="45.7647517" lon="13.6994733"><ele>246.0</ele><time>2026-04-19T14:15:06.226Z</time></trkpt><trkpt lat="45.7648783" lon="13.699215"><ele>247.66666666666669</ele><time>2026-04-19T14:15:07.223Z</time></trkpt><trkpt lat="45.765005" lon="13.698965"><ele>249.33333333333334</ele><time>2026-04-19T14:15:08.22Z</time></trkpt><trkpt lat="45.7651283" lon="13.6987167"><ele>251.0</ele><time>2026-04-19T14:15:09.221Z</time></trkpt><trkpt lat="45.7652633" lon="13.6984767"><ele>251.66666666666669</ele><time>2026-04-19T14:15:10.222Z</time></trkpt><trkpt lat="45.7654067" lon="13.6982317"><ele>252.33333333333331</ele><time>2026-04-19T14:15:11.224Z</time></trkpt><trkpt lat="45.7655567" lon="13.6979983"><ele>253.0</ele><time>2026-04-19T14:15:12.222Z</time></trkpt><trkpt lat="45.7657033" lon="13.69776"><ele>254.0</ele><time>2026-04-19T14:15:13.221Z</time></trkpt><trkpt lat="45.7658567" lon="13.6975217"><ele>255.0</ele><time>2026-04-19T14:15:14.222Z</time></trkpt><trkpt lat="45.7660133" lon="13.6972817"><ele>254.0</ele><time>2026-04-19T14:15:15.225Z</time></trkpt><trkpt lat="45.766165" lon="13.6970283"><ele>253.0</ele><time>2026-04-19T14:15:16.223Z</time></trkpt><trkpt lat="45.7663233" lon="13.696775"><ele>253.0</ele><time>2026-04-19T14:15:17.22Z</time></trkpt><trkpt lat="45.7664867" lon="13.6965233"><ele>253.0</ele><time>2026-04-19T14:15:18.223Z</time></trkpt><trkpt lat="45.7666533" lon="13.6962633"><ele>252.0</ele><time>2026-04-19T14:15:19.222Z</time></trkpt><trkpt lat="45.766825" lon="13.695995"><ele>251.0</ele><time>2026-04-19T14:15:20.224Z</time></trkpt><trkpt lat="45.7669983" lon="13.6957183"><ele>248.5</ele><time>2026-04-19T14:15:21.223Z</time></trkpt><trkpt lat="45.76718" lon="13.6954583"><ele>246.0</ele><time>2026-04-19T14:15:22.225Z</time></trkpt><trkpt lat="45.7673717" lon="13.6952133"><ele>246.0</ele><time>2026-04-19T14:15:23.223Z</time></trkpt><trkpt lat="45.7675933" lon="13.6950317"><ele>246.0</ele><time>2026-04-19T14:15:24.221Z</time></trkpt><trkpt lat="45.7678317" lon="13.6949167"><ele>244.5</ele><time>2026-04-19T14:15:25.223Z</time></trkpt><trkpt lat="45.768085" lon="13.6948717"><ele>243.0</ele><time>2026-04-19T14:15:26.222Z</time></trkpt><trkpt lat="45.7683383" lon="13.6948783"><ele>242.0</ele><time>2026-04-19T14:15:27.223Z</time></trkpt><trkpt lat="45.7685833" lon="13.6949133"><ele>241.0</ele><time>2026-04-19T14:15:28.221Z</time></trkpt><trkpt lat="45.7688367" lon="13.695025"><ele>241.0</ele><time>2026-04-19T14:15:29.222Z</time></trkpt><trkpt lat="45.7691033" lon="13.6952017"><ele>241.0</ele><time>2026-04-19T14:15:30.224Z</time></trkpt><trkpt lat="45.76937" lon="13.6953833"><ele>237.5</ele><time>2026-04-19T14:15:31.219Z</time></trkpt><trkpt lat="45.76963" lon="13.6955383"><ele>234.0</ele><time>2026-04-19T14:15:32.223Z</time></trkpt><trkpt lat="45.769875" lon="13.6957183"><ele>234.0</ele><time>2026-04-19T14:15:33.225Z</time></trkpt><trkpt lat="45.7701117" lon="13.6959167"><ele>234.0</ele><time>2026-04-19T14:15:34.221Z</time></trkpt><trkpt lat="45.7703433" lon="13.6961033"><ele>228.5</ele><time>2026-04-19T14:15:35.222Z</time></trkpt><trkpt lat="45.770605" lon="13.6962283"><ele>223.0</ele><time>2026-04-19T14:15:36.224Z</time></trkpt><trkpt lat="45.7708833" lon="13.696325"><ele>223.0</ele><time>2026-04-19T14:15:37.224Z</time></trkpt><trkpt lat="45.7711783" lon="13.6963933"><ele>223.0</ele><time>2026-04-19T14:15:38.223Z</time></trkpt><trkpt lat="45.7714833" lon="13.6964333"><ele>223.0</ele><time>2026-04-19T14:15:39.223Z</time></trkpt><trkpt lat="45.771795" lon="13.69643"><ele>223.0</ele><time>2026-04-19T14:15:40.222Z</time></trkpt><trkpt lat="45.772105" lon="13.6964233"><ele>223.0</ele><time>2026-04-19T14:15:41.22Z</time></trkpt><trkpt lat="45.772405" lon="13.696415"><ele>223.0</ele><time>2026-04-19T14:15:42.225Z</time></trkpt><trkpt lat="45.772695" lon="13.6964267"><ele>223.0</ele><time>2026-04-19T14:15:43.219Z</time></trkpt><trkpt lat="45.7729717" lon="13.6964733"><ele>223.0</ele><time>2026-04-19T14:15:44.222Z</time></trkpt><trkpt lat="45.77322" lon="13.6965667"><ele>223.0</ele><time>2026-04-19T14:15:45.221Z</time></trkpt><trkpt lat="45.7734533" lon="13.6966633"><ele>223.0</ele><time>2026-04-19T14:15:46.223Z</time></trkpt><trkpt lat="45.7736783" lon="13.6967417"><ele>221.66666666666666</ele><time>2026-04-19T14:15:47.222Z</time></trkpt><trkpt lat="45.7738917" lon="13.6968167"><ele>220.33333333333331</ele><time>2026-04-19T14:15:48.224Z</time></trkpt><trkpt lat="45.7741" lon="13.6968867"><ele>219.0</ele><time>2026-04-19T14:15:49.223Z</time></trkpt><trkpt lat="45.7742967" lon="13.6969833"><ele>219.33333333333331</ele><time>2026-04-19T14:15:50.224Z</time></trkpt><trkpt lat="45.77449" lon="13.6970467"><ele>219.66666666666666</ele><time>2026-04-19T14:15:51.223Z</time></trkpt><trkpt lat="45.7746717" lon="13.69719"><ele>220.0</ele><time>2026-04-19T14:15:52.222Z</time></trkpt><trkpt lat="45.774845" lon="13.6973417"><ele>220.0</ele><time>2026-04-19T14:15:53.221Z</time></trkpt><trkpt lat="45.7750167" lon="13.697475"><ele>220.0</ele><time>2026-04-19T14:15:54.222Z</time></trkpt><trkpt lat="45.7751683" lon="13.6976533"><ele>220.0</ele><time>2026-04-19T14:15:55.222Z</time></trkpt><trkpt lat="45.7753183" lon="13.6978367"><ele>217.66666666666666</ele><time>2026-04-19T14:15:56.221Z</time></trkpt><trkpt lat="45.7754833" lon="13.698005"><ele>215.33333333333331</ele><time>2026-04-19T14:15:57.222Z</time></trkpt><trkpt lat="45.7756483" lon="13.698195"><ele>213.0</ele><time>2026-04-19T14:15:58.22Z</time></trkpt><trkpt lat="45.7758317" lon="13.698345"><ele>214.5</ele><time>2026-04-19T14:15:59.224Z</time></trkpt><trkpt lat="45.7760267" lon="13.6984983"><ele>216.0</ele><time>2026-04-19T14:16:00.222Z</time></trkpt><trkpt lat="45.776225" lon="13.6986717"><ele>212.5</ele><time>2026-04-19T14:16:01.222Z</time></trkpt><trkpt lat="45.7764267" lon="13.6988483"><ele>209.0</ele><time>2026-04-19T14:16:02.222Z</time></trkpt><trkpt lat="45.77663" lon="13.6990333"><ele>209.0</ele><time>2026-04-19T14:16:03.223Z</time></trkpt><trkpt lat="45.7768267" lon="13.6992417"><ele>209.0</ele><time>2026-04-19T14:16:04.222Z</time></trkpt><trkpt lat="45.7770167" lon="13.6994467"><ele>204.0</ele><time>2026-04-19T14:16:05.223Z</time></trkpt><trkpt lat="45.7772083" lon="13.69963"><ele>199.0</ele><time>2026-04-19T14:16:06.224Z</time></trkpt><trkpt lat="45.777395" lon="13.6998083"><ele>199.0</ele><time>2026-04-19T14:16:07.223Z</time></trkpt><trkpt lat="45.7775767" lon="13.6999883"><ele>199.0</ele><time>2026-04-19T14:16:08.222Z</time></trkpt><trkpt lat="45.77775" lon="13.700175"><ele>199.0</ele><time>2026-04-19T14:16:09.227Z</time></trkpt><trkpt lat="45.77791" lon="13.7003783"><ele>197.0</ele><time>2026-04-19T14:16:10.224Z</time></trkpt><trkpt lat="45.7780633" lon="13.7005733"><ele>195.0</ele><time>2026-04-19T14:16:11.224Z</time></trkpt><trkpt lat="45.7782133" lon="13.7007683"><ele>193.0</ele><time>2026-04-19T14:16:12.223Z</time></trkpt><trkpt lat="45.7783967" lon="13.70087"><ele>191.0</ele><time>2026-04-19T14:16:13.224Z</time></trkpt><trkpt lat="45.7785767" lon="13.7009583"><ele>189.0</ele><time>2026-04-19T14:16:14.22Z</time></trkpt><trkpt lat="45.7787817" lon="13.70094"><ele>187.0</ele><time>2026-04-19T14:16:15.223Z</time></trkpt><trkpt lat="45.7789967" lon="13.7008783"><ele>187.0</ele><time>2026-04-19T14:16:16.222Z</time></trkpt><trkpt lat="45.7792117" lon="13.7007917"><ele>187.0</ele><time>2026-04-19T14:16:17.221Z</time></trkpt><trkpt lat="45.7794267" lon="13.70071"><ele>187.0</ele><time>2026-04-19T14:16:18.223Z</time></trkpt><trkpt lat="45.7796367" lon="13.7006267"><ele>185.0</ele><time>2026-04-19T14:16:19.225Z</time></trkpt><trkpt lat="45.77985" lon="13.7005783"><ele>183.0</ele><time>2026-04-19T14:16:20.221Z</time></trkpt><trkpt lat="45.7800517" lon="13.7005083"><ele>181.0</ele><time>2026-04-19T14:16:21.218Z</time></trkpt><trkpt lat="45.7802483" lon="13.70044"><ele>179.33333333333334</ele><time>2026-04-19T14:16:22.218Z</time></trkpt><trkpt lat="45.7804433" lon="13.7003817"><ele>177.66666666666666</ele><time>2026-04-19T14:16:23.221Z</time></trkpt><trkpt lat="45.78063" lon="13.700315"><ele>176.0</ele><time>2026-04-19T14:16:24.214Z</time></trkpt><trkpt lat="45.7808083" lon="13.70023"><ele>176.0</ele><time>2026-04-19T14:16:25.217Z</time></trkpt><trkpt lat="45.7809733" lon="13.700155"><ele>176.0</ele><time>2026-04-19T14:16:26.218Z</time></trkpt><trkpt lat="45.7811367" lon="13.7000833"><ele>176.0</ele><time>2026-04-19T14:16:27.215Z</time></trkpt><trkpt lat="45.7812983" lon="13.7000067"><ele>173.33333333333331</ele><time>2026-04-19T14:16:28.22Z</time></trkpt><trkpt lat="45.7814667" lon="13.6999233"><ele>170.66666666666666</ele><time>2026-04-19T14:16:29.223Z</time></trkpt><trkpt lat="45.7816417" lon="13.699835"><ele>168.0</ele><time>2026-04-19T14:16:30.219Z</time></trkpt><trkpt lat="45.781825" lon="13.6997683"><ele>168.0</ele><time>2026-04-19T14:16:31.223Z</time></trkpt><trkpt lat="45.78202" lon="13.6997067"><ele>168.0</ele><time>2026-04-19T14:16:32.222Z</time></trkpt><trkpt lat="45.7822217" lon="13.6997283"><ele>168.0</ele><time>2026-04-19T14:16:33.222Z</time></trkpt><trkpt lat="45.7824317" lon="13.6997667"><ele>168.0</ele><time>2026-04-19T14:16:34.223Z</time></trkpt><trkpt lat="45.7826617" lon="13.699795"><ele>168.0</ele><time>2026-04-19T14:16:35.218Z</time></trkpt><trkpt lat="45.7829017" lon="13.69982"><ele>166.0</ele><time>2026-04-19T14:16:36.222Z</time></trkpt><trkpt lat="45.78314" lon="13.6998467"><ele>164.0</ele><time>2026-04-19T14:16:37.225Z</time></trkpt><trkpt lat="45.7835333" lon="13.6998383"><ele>164.0</ele><time>2026-04-19T14:16:38.799Z</time></trkpt><trkpt lat="45.783785" lon="13.7000517"><ele>164.0</ele><time>2026-04-19T14:16:39.995Z</time></trkpt><trkpt lat="45.7842067" lon="13.70023"><ele>159.5</ele><time>2026-04-19T14:16:42.221Z</time></trkpt><trkpt lat="45.7844117" lon="13.7004233"><ele>155.0</ele><time>2026-04-19T14:16:43.225Z</time></trkpt><trkpt lat="45.7846317" lon="13.7006417"><ele>155.0</ele><time>2026-04-19T14:16:44.218Z</time></trkpt><trkpt lat="45.78486" lon="13.70085"><ele>155.0</ele><time>2026-04-19T14:16:45.222Z</time></trkpt><trkpt lat="45.78508" lon="13.7010517"><ele>153.5</ele><time>2026-04-19T14:16:46.221Z</time></trkpt><trkpt lat="45.7852917" lon="13.7012733"><ele>152.0</ele><time>2026-04-19T14:16:47.222Z</time></trkpt><trkpt lat="45.7855033" lon="13.7015367"><ele>152.0</ele><time>2026-04-19T14:16:48.222Z</time></trkpt><trkpt lat="45.7857067" lon="13.7018133"><ele>152.0</ele><time>2026-04-19T14:16:49.223Z</time></trkpt><trkpt lat="45.785905" lon="13.7020783"><ele>151.5</ele><time>2026-04-19T14:16:50.222Z</time></trkpt><trkpt lat="45.786095" lon="13.7023267"><ele>151.0</ele><time>2026-04-19T14:16:51.221Z</time></trkpt><trkpt lat="45.786275" lon="13.7025617"><ele>152.0</ele><time>2026-04-19T14:16:52.221Z</time></trkpt><trkpt lat="45.7864533" lon="13.7027717"><ele>153.0</ele><time>2026-04-19T14:16:53.22Z</time></trkpt><trkpt lat="45.7866333" lon="13.7029517"><ele>153.0</ele><time>2026-04-19T14:16:54.222Z</time></trkpt><trkpt lat="45.7868183" lon="13.7030867"><ele>153.0</ele><time>2026-04-19T14:16:55.224Z</time></trkpt><trkpt lat="45.7870083" lon="13.7031917"><ele>153.0</ele><time>2026-04-19T14:16:56.223Z</time></trkpt><trkpt lat="45.7871867" lon="13.7033033"><ele>153.0</ele><time>2026-04-19T14:16:57.221Z</time></trkpt><trkpt lat="45.7873317" lon="13.7034917"><ele>153.0</ele><time>2026-04-19T14:16:58.222Z</time></trkpt><trkpt lat="45.7874633" lon="13.7037133"><ele>153.0</ele><time>2026-04-19T14:16:59.222Z</time></trkpt><trkpt lat="45.7876067" lon="13.703905"><ele>153.0</ele><time>2026-04-19T14:17:00.221Z</time></trkpt><trkpt lat="45.7877433" lon="13.7040967"><ele>153.0</ele><time>2026-04-19T14:17:01.224Z</time></trkpt><trkpt lat="45.7878817" lon="13.7042717"><ele>153.0</ele><time>2026-04-19T14:17:02.22Z</time></trkpt><trkpt lat="45.7879817" lon="13.7044683"><ele>152.66666666666666</ele><time>2026-04-19T14:17:03.223Z</time></trkpt><trkpt lat="45.78805" lon="13.70468"><ele>152.33333333333331</ele><time>2026-04-19T14:17:04.225Z</time></trkpt><trkpt lat="45.788095" lon="13.70489"><ele>152.0</ele><time>2026-04-19T14:17:05.224Z</time></trkpt><trkpt lat="45.788145" lon="13.7050883"><ele>152.0</ele><time>2026-04-19T14:17:06.222Z</time></trkpt><trkpt lat="45.788235" lon="13.7052583"><ele>152.0</ele><time>2026-04-19T14:17:07.221Z</time></trkpt><trkpt lat="45.788355" lon="13.7054133"><ele>152.0</ele><time>2026-04-19T14:17:08.222Z</time></trkpt><trkpt lat="45.7884817" lon="13.705575"><ele>151.66666666666666</ele><time>2026-04-19T14:17:09.226Z</time></trkpt><trkpt lat="45.7886167" lon="13.705745"><ele>151.33333333333334</ele><time>2026-04-19T14:17:10.221Z</time></trkpt><trkpt lat="45.788755" lon="13.7059217"><ele>151.0</ele><time>2026-04-19T14:17:11.219Z</time></trkpt><trkpt lat="45.78891" lon="13.7060917"><ele>150.0</ele><time>2026-04-19T14:17:12.221Z</time></trkpt><trkpt lat="45.789065" lon="13.706255"><ele>149.0</ele><time>2026-04-19T14:17:13.223Z</time></trkpt><trkpt lat="45.78921" lon="13.7064233"><ele>148.0</ele><time>2026-04-19T14:17:14.223Z</time></trkpt><trkpt lat="45.7893667" lon="13.70656"><ele>148.0</ele><time>2026-04-19T14:17:15.225Z</time></trkpt><trkpt lat="45.7895383" lon="13.7066517"><ele>148.0</ele><time>2026-04-19T14:17:16.224Z</time></trkpt><trkpt lat="45.7897367" lon="13.706715"><ele>148.0</ele><time>2026-04-19T14:17:17.222Z</time></trkpt><trkpt lat="45.7899317" lon="13.70681"><ele>148.0</ele><time>2026-04-19T14:17:18.223Z</time></trkpt><trkpt lat="45.79013" lon="13.7069283"><ele>148.0</ele><time>2026-04-19T14:17:19.221Z</time></trkpt><trkpt lat="45.7903433" lon="13.7070533"><ele>148.0</ele><time>2026-04-19T14:17:20.223Z</time></trkpt><trkpt lat="45.7905833" lon="13.7071583"><ele>148.0</ele><time>2026-04-19T14:17:21.229Z</time></trkpt><trkpt lat="45.7908617" lon="13.7072333"><ele>148.0</ele><time>2026-04-19T14:17:22.223Z</time></trkpt><trkpt lat="45.7911633" lon="13.7072767"><ele>144.5</ele><time>2026-04-19T14:17:23.221Z</time></trkpt><trkpt lat="45.7914617" lon="13.707315"><ele>141.0</ele><time>2026-04-19T14:17:24.225Z</time></trkpt><trkpt lat="45.791725" lon="13.7073583"><ele>142.0</ele><time>2026-04-19T14:17:25.22Z</time></trkpt><trkpt lat="45.79194" lon="13.7073933"><ele>143.0</ele><time>2026-04-19T14:17:26.218Z</time></trkpt><trkpt lat="45.79213" lon="13.7074267"><ele>144.0</ele><time>2026-04-19T14:17:27.225Z</time></trkpt><trkpt lat="45.7922867" lon="13.7074883"><ele>144.0</ele><time>2026-04-19T14:17:28.223Z</time></trkpt><trkpt lat="45.7924117" lon="13.70758"><ele>144.0</ele><time>2026-04-19T14:17:29.223Z</time></trkpt><trkpt lat="45.79249" lon="13.7077633"><ele>144.0</ele><time>2026-04-19T14:17:30.222Z</time></trkpt><trkpt lat="45.7925483" lon="13.7079717"><ele>144.0</ele><time>2026-04-19T14:17:31.22Z</time></trkpt><trkpt lat="45.7926033" lon="13.70821"><ele>148.66666666666666</ele><time>2026-04-19T14:17:32.223Z</time></trkpt><trkpt lat="45.7926983" lon="13.708465"><ele>153.33333333333331</ele><time>2026-04-19T14:17:33.224Z</time></trkpt><trkpt lat="45.79282" lon="13.708725"><ele>158.0</ele><time>2026-04-19T14:17:34.223Z</time></trkpt><trkpt lat="45.7929483" lon="13.7089917"><ele>158.33333333333331</ele><time>2026-04-19T14:17:35.222Z</time></trkpt><trkpt lat="45.7930633" lon="13.709245"><ele>158.66666666666666</ele><time>2026-04-19T14:17:36.222Z</time></trkpt><trkpt lat="45.7931633" lon="13.70948"><ele>159.0</ele><time>2026-04-19T14:17:37.222Z</time></trkpt><trkpt lat="45.7932483" lon="13.70967"><ele>158.6</ele><time>2026-04-19T14:17:38.222Z</time></trkpt><trkpt lat="45.7933133" lon="13.70982"><ele>158.2</ele><time>2026-04-19T14:17:39.227Z</time></trkpt><trkpt lat="45.7933733" lon="13.7099383"><ele>157.79999999999998</ele><time>2026-04-19T14:17:40.223Z</time></trkpt><trkpt lat="45.7934367" lon="13.7100433"><ele>157.4</ele><time>2026-04-19T14:17:41.221Z</time></trkpt><trkpt lat="45.7935117" lon="13.7101283"><ele>157.0</ele><time>2026-04-19T14:17:42.223Z</time></trkpt><trkpt lat="45.7935967" lon="13.7101833"><ele>158.0</ele><time>2026-04-19T14:17:43.22Z</time></trkpt><trkpt lat="45.7936917" lon="13.710215"><ele>159.0</ele><time>2026-04-19T14:17:44.221Z</time></trkpt><trkpt lat="45.793795" lon="13.710215"><ele>160.0</ele><time>2026-04-19T14:17:45.223Z</time></trkpt><trkpt lat="45.7939033" lon="13.71018"><ele>161.0</ele><time>2026-04-19T14:17:46.222Z</time></trkpt><trkpt lat="45.79402" lon="13.7101133"><ele>162.0</ele><time>2026-04-19T14:17:47.221Z</time></trkpt><trkpt lat="45.7941367" lon="13.71004"><ele>162.0</ele><time>2026-04-19T14:17:48.223Z</time></trkpt><trkpt lat="45.7942483" lon="13.709975"><ele>162.0</ele><time>2026-04-19T14:17:49.22Z</time></trkpt><trkpt lat="45.794355" lon="13.709925"><ele>162.0</ele><time>2026-04-19T14:17:50.223Z</time></trkpt><trkpt lat="45.7944683" lon="13.7098867"><ele>162.0</ele><time>2026-04-19T14:17:51.221Z</time></trkpt><trkpt lat="45.7945817" lon="13.7098567"><ele>161.33333333333334</ele><time>2026-04-19T14:17:52.223Z</time></trkpt><trkpt lat="45.7947033" lon="13.7098433"><ele>160.66666666666669</ele><time>2026-04-19T14:17:53.223Z</time></trkpt><trkpt lat="45.7948417" lon="13.7098567"><ele>160.0</ele><time>2026-04-19T14:17:54.225Z</time></trkpt><trkpt lat="45.7950283" lon="13.7099117"><ele>162.0</ele><time>2026-04-19T14:17:55.225Z</time></trkpt><trkpt lat="45.7952533" lon="13.7100083"><ele>164.0</ele><time>2026-04-19T14:17:56.221Z</time></trkpt><trkpt lat="45.79552" lon="13.710105"><ele>164.0</ele><time>2026-04-19T14:17:57.224Z</time></trkpt><trkpt lat="45.79581" lon="13.7102283"><ele>164.0</ele><time>2026-04-19T14:17:58.222Z</time></trkpt><trkpt lat="45.7960967" lon="13.7103233"><ele>166.5</ele><time>2026-04-19T14:17:59.219Z</time></trkpt><trkpt lat="45.7963717" lon="13.710395"><ele>169.0</ele><time>2026-04-19T14:18:00.221Z</time></trkpt><trkpt lat="45.7966383" lon="13.7104783"><ele>172.0</ele><time>2026-04-19T14:18:01.224Z</time></trkpt><trkpt lat="45.7968867" lon="13.7105617"><ele>175.0</ele><time>2026-04-19T14:18:02.223Z</time></trkpt><trkpt lat="45.79712" lon="13.7106367"><ele>175.0</ele><time>2026-04-19T14:18:03.222Z</time></trkpt><trkpt lat="45.7973317" lon="13.710705"><ele>175.0</ele><time>2026-04-19T14:18:04.223Z</time></trkpt><trkpt lat="45.7975267" lon="13.7107583"><ele>175.0</ele><time>2026-04-19T14:18:05.226Z</time></trkpt><trkpt lat="45.7977233" lon="13.710785"><ele>178.33333333333334</ele><time>2026-04-19T14:18:06.224Z</time></trkpt><trkpt lat="45.7979233" lon="13.710765"><ele>181.66666666666666</ele><time>2026-04-19T14:18:07.221Z</time></trkpt><trkpt lat="45.7981317" lon="13.7106933"><ele>185.0</ele><time>2026-04-19T14:18:08.224Z</time></trkpt><trkpt lat="45.7983567" lon="13.7105833"><ele>188.5</ele><time>2026-04-19T14:18:09.224Z</time></trkpt><trkpt lat="45.7985817" lon="13.71045"><ele>192.0</ele><time>2026-04-19T14:18:10.223Z</time></trkpt><trkpt lat="45.7987983" lon="13.71032"><ele>186.0</ele><time>2026-04-19T14:18:11.222Z</time></trkpt><trkpt lat="45.7989933" lon="13.710215"><ele>180.0</ele><time>2026-04-19T14:18:12.222Z</time></trkpt><trkpt lat="45.7991733" lon="13.7101417"><ele>174.0</ele><time>2026-04-19T14:18:13.219Z</time></trkpt><trkpt lat="45.79933" lon="13.7100767"><ele>175.33333333333334</ele><time>2026-04-19T14:18:14.215Z</time></trkpt><trkpt lat="45.7994783" lon="13.7100867"><ele>176.66666666666669</ele><time>2026-04-19T14:18:15.222Z</time></trkpt><trkpt lat="45.7996167" lon="13.7101633"><ele>178.0</ele><time>2026-04-19T14:18:16.22Z</time></trkpt><trkpt lat="45.7997417" lon="13.710305"><ele>180.66666666666669</ele><time>2026-04-19T14:18:17.224Z</time></trkpt><trkpt lat="45.7998817" lon="13.7104183"><ele>183.33333333333334</ele><time>2026-04-19T14:18:18.223Z</time></trkpt><trkpt lat="45.8000333" lon="13.7105833"><ele>186.0</ele><time>2026-04-19T14:18:19.222Z</time></trkpt><trkpt lat="45.8002" lon="13.710755"><ele>186.33333333333334</ele><time>2026-04-19T14:18:20.223Z</time></trkpt><trkpt lat="45.800365" lon="13.71091"><ele>186.66666666666669</ele><time>2026-04-19T14:18:21.223Z</time></trkpt><trkpt lat="45.80053" lon="13.711015"><ele>187.0</ele><time>2026-04-19T14:18:22.222Z</time></trkpt><trkpt lat="45.8007067" lon="13.7110617"><ele>187.0</ele><time>2026-04-19T14:18:23.219Z</time></trkpt><trkpt lat="45.8008817" lon="13.7110517"><ele>187.0</ele><time>2026-04-19T14:18:24.221Z</time></trkpt><trkpt lat="45.8010383" lon="13.7110483"><ele>187.0</ele><time>2026-04-19T14:18:25.221Z</time></trkpt><trkpt lat="45.8011867" lon="13.7110533"><ele>189.25</ele><time>2026-04-19T14:18:26.222Z</time></trkpt><trkpt lat="45.80133" lon="13.711075"><ele>191.5</ele><time>2026-04-19T14:18:27.222Z</time></trkpt><trkpt lat="45.80146" lon="13.7111183"><ele>193.75</ele><time>2026-04-19T14:18:28.224Z</time></trkpt><trkpt lat="45.8015733" lon="13.7111683"><ele>196.0</ele><time>2026-04-19T14:18:29.22Z</time></trkpt><trkpt lat="45.801675" lon="13.711225"><ele>196.0</ele><time>2026-04-19T14:18:30.219Z</time></trkpt><trkpt lat="45.8017583" lon="13.711305"><ele>196.0</ele><time>2026-04-19T14:18:31.22Z</time></trkpt><trkpt lat="45.8018133" lon="13.7114033"><ele>196.0</ele><time>2026-04-19T14:18:32.224Z</time></trkpt><trkpt lat="45.80184" lon="13.71152"><ele>196.0</ele><time>2026-04-19T14:18:33.222Z</time></trkpt><trkpt lat="45.801855" lon="13.711655"><ele>196.0</ele><time>2026-04-19T14:18:34.222Z</time></trkpt><trkpt lat="45.801855" lon="13.711805"><ele>196.66666666666666</ele><time>2026-04-19T14:18:35.222Z</time></trkpt><trkpt lat="45.8018733" lon="13.711945"><ele>197.33333333333331</ele><time>2026-04-19T14:18:36.224Z</time></trkpt><trkpt lat="45.8019" lon="13.7120833"><ele>198.0</ele><time>2026-04-19T14:18:37.223Z</time></trkpt><trkpt lat="45.8019317" lon="13.7122033"><ele>198.66666666666669</ele><time>2026-04-19T14:18:38.224Z</time></trkpt><trkpt lat="45.801955" lon="13.71231"><ele>199.33333333333334</ele><time>2026-04-19T14:18:39.221Z</time></trkpt><trkpt lat="45.8019917" lon="13.7123967"><ele>200.0</ele><time>2026-04-19T14:18:40.22Z</time></trkpt><trkpt lat="45.8020383" lon="13.7124667"><ele>200.0</ele><time>2026-04-19T14:18:41.22Z</time></trkpt><trkpt lat="45.802115" lon="13.7124833"><ele>200.0</ele><time>2026-04-19T14:18:42.221Z</time></trkpt><trkpt lat="45.8022267" lon="13.7124567"><ele>200.0</ele><time>2026-04-19T14:18:43.223Z</time></trkpt><trkpt lat="45.80235" lon="13.71239"><ele>200.0</ele><time>2026-04-19T14:18:44.222Z</time></trkpt><trkpt lat="45.802485" lon="13.7123083"><ele>200.0</ele><time>2026-04-19T14:18:45.223Z</time></trkpt><trkpt lat="45.8026317" lon="13.7121967"><ele>200.0</ele><time>2026-04-19T14:18:46.222Z</time></trkpt><trkpt lat="45.80277" lon="13.7120317"><ele>200.0</ele><time>2026-04-19T14:18:47.219Z</time></trkpt><trkpt lat="45.8029033" lon="13.7118767"><ele>199.66666666666669</ele><time>2026-04-19T14:18:48.219Z</time></trkpt><trkpt lat="45.8030233" lon="13.71171"><ele>199.33333333333331</ele><time>2026-04-19T14:18:49.219Z</time></trkpt><trkpt lat="45.8031267" lon="13.7115317"><ele>199.0</ele><time>2026-04-19T14:18:50.223Z</time></trkpt><trkpt lat="45.8032067" lon="13.71134"><ele>199.0</ele><time>2026-04-19T14:18:51.22Z</time></trkpt><trkpt lat="45.803285" lon="13.711105"><ele>199.0</ele><time>2026-04-19T14:18:52.222Z</time></trkpt><trkpt lat="45.8033633" lon="13.7108467"><ele>199.0</ele><time>2026-04-19T14:18:53.222Z</time></trkpt><trkpt lat="45.8034617" lon="13.7105783"><ele>199.0</ele><time>2026-04-19T14:18:54.223Z</time></trkpt><trkpt lat="45.8035617" lon="13.7103067"><ele>199.0</ele><time>2026-04-19T14:18:55.221Z</time></trkpt><trkpt lat="45.8036617" lon="13.7100367"><ele>199.0</ele><time>2026-04-19T14:18:56.223Z</time></trkpt><trkpt lat="45.8037483" lon="13.7097667"><ele>198.66666666666666</ele><time>2026-04-19T14:18:57.223Z</time></trkpt><trkpt lat="45.8038033" lon="13.709495"><ele>198.33333333333331</ele><time>2026-04-19T14:18:58.223Z</time></trkpt><trkpt lat="45.8038567" lon="13.7092383"><ele>198.0</ele><time>2026-04-19T14:18:59.226Z</time></trkpt><trkpt lat="45.8039517" lon="13.7090117"><ele>198.0</ele><time>2026-04-19T14:19:00.222Z</time></trkpt><trkpt lat="45.8040717" lon="13.708785"><ele>198.0</ele><time>2026-04-19T14:19:01.222Z</time></trkpt><trkpt lat="45.8042217" lon="13.7085733"><ele>198.0</ele><time>2026-04-19T14:19:02.222Z</time></trkpt><trkpt lat="45.80437" lon="13.7083317"><ele>198.0</ele><time>2026-04-19T14:19:03.223Z</time></trkpt><trkpt lat="45.8045217" lon="13.70809"><ele>198.0</ele><time>2026-04-19T14:19:04.221Z</time></trkpt><trkpt lat="45.8046883" lon="13.707865"><ele>197.66666666666669</ele><time>2026-04-19T14:19:05.222Z</time></trkpt><trkpt lat="45.8048417" lon="13.7076317"><ele>197.33333333333334</ele><time>2026-04-19T14:19:06.222Z</time></trkpt><trkpt lat="45.804985" lon="13.707395"><ele>197.0</ele><time>2026-04-19T14:19:07.221Z</time></trkpt><trkpt lat="45.8051367" lon="13.7071733"><ele>198.0</ele><time>2026-04-19T14:19:08.221Z</time></trkpt><trkpt lat="45.80529" lon="13.70697"><ele>199.0</ele><time>2026-04-19T14:19:09.223Z</time></trkpt><trkpt lat="45.8054467" lon="13.706785"><ele>200.0</ele><time>2026-04-19T14:19:10.218Z</time></trkpt><trkpt lat="45.8055933" lon="13.706585"><ele>200.0</ele><time>2026-04-19T14:19:11.224Z</time></trkpt><trkpt lat="45.8057317" lon="13.706365"><ele>200.0</ele><time>2026-04-19T14:19:12.224Z</time></trkpt><trkpt lat="45.80584" lon="13.7060833"><ele>200.0</ele><time>2026-04-19T14:19:13.229Z</time></trkpt><trkpt lat="45.805945" lon="13.7057917"><ele>199.66666666666669</ele><time>2026-04-19T14:19:14.224Z</time></trkpt><trkpt lat="45.8060567" lon="13.70552"><ele>199.33333333333331</ele><time>2026-04-19T14:19:15.224Z</time></trkpt><trkpt lat="45.8061667" lon="13.7052633"><ele>199.0</ele><time>2026-04-19T14:19:16.22Z</time></trkpt><trkpt lat="45.8062767" lon="13.7050183"><ele>198.0</ele><time>2026-04-19T14:19:17.226Z</time></trkpt><trkpt lat="45.80643" lon="13.7048167"><ele>197.0</ele><time>2026-04-19T14:19:18.225Z</time></trkpt><trkpt lat="45.8066133" lon="13.7046417"><ele>196.0</ele><time>2026-04-19T14:19:19.223Z</time></trkpt><trkpt lat="45.80681" lon="13.7044733"><ele>197.5</ele><time>2026-04-19T14:19:20.225Z</time></trkpt><trkpt lat="45.8069983" lon="13.70428"><ele>199.0</ele><time>2026-04-19T14:19:21.223Z</time></trkpt><trkpt lat="45.8071717" lon="13.704035"><ele>199.0</ele><time>2026-04-19T14:19:22.222Z</time></trkpt><trkpt lat="45.8073267" lon="13.7037417"><ele>199.0</ele><time>2026-04-19T14:19:23.222Z</time></trkpt><trkpt lat="45.8074933" lon="13.7034633"><ele>199.5</ele><time>2026-04-19T14:19:24.223Z</time></trkpt><trkpt lat="45.807685" lon="13.703215"><ele>200.0</ele><time>2026-04-19T14:19:25.223Z</time></trkpt><trkpt lat="45.807875" lon="13.702975"><ele>198.5</ele><time>2026-04-19T14:19:26.223Z</time></trkpt><trkpt lat="45.8080567" lon="13.7027417"><ele>197.0</ele><time>2026-04-19T14:19:27.225Z</time></trkpt><trkpt lat="45.8082133" lon="13.7024833"><ele>197.0</ele><time>2026-04-19T14:19:28.223Z</time></trkpt><trkpt lat="45.8083583" lon="13.702205"><ele>197.0</ele><time>2026-04-19T14:19:29.218Z</time></trkpt><trkpt lat="45.8084967" lon="13.70192"><ele>201.5</ele><time>2026-04-19T14:19:30.223Z</time></trkpt><trkpt lat="45.8086333" lon="13.7016317"><ele>206.0</ele><time>2026-04-19T14:19:31.223Z</time></trkpt><trkpt lat="45.808765" lon="13.7013467"><ele>202.0</ele><time>2026-04-19T14:19:32.224Z</time></trkpt><trkpt lat="45.8088967" lon="13.7010667"><ele>198.0</ele><time>2026-04-19T14:19:33.226Z</time></trkpt><trkpt lat="45.8090233" lon="13.7007767"><ele>198.0</ele><time>2026-04-19T14:19:34.221Z</time></trkpt><trkpt lat="45.8091417" lon="13.7004817"><ele>198.0</ele><time>2026-04-19T14:19:35.224Z</time></trkpt><trkpt lat="45.809255" lon="13.7001883"><ele>198.33333333333331</ele><time>2026-04-19T14:19:36.221Z</time></trkpt><trkpt lat="45.8093617" lon="13.699915"><ele>198.66666666666666</ele><time>2026-04-19T14:19:37.222Z</time></trkpt><trkpt lat="45.8094467" lon="13.6996533"><ele>199.0</ele><time>2026-04-19T14:19:38.221Z</time></trkpt><trkpt lat="45.8095117" lon="13.699405"><ele>199.0</ele><time>2026-04-19T14:19:39.223Z</time></trkpt><trkpt lat="45.80959" lon="13.6992"><ele>199.0</ele><time>2026-04-19T14:19:40.22Z</time></trkpt><trkpt lat="45.8096183" lon="13.69898"><ele>199.0</ele><time>2026-04-19T14:19:41.222Z</time></trkpt><trkpt lat="45.8095867" lon="13.6987533"><ele>195.0</ele><time>2026-04-19T14:19:42.224Z</time></trkpt><trkpt lat="45.80954" lon="13.6985133"><ele>191.0</ele><time>2026-04-19T14:19:43.221Z</time></trkpt><trkpt lat="45.8095233" lon="13.6982617"><ele>187.0</ele><time>2026-04-19T14:19:44.222Z</time></trkpt><trkpt lat="45.8095083" lon="13.6980067"><ele>187.0</ele><time>2026-04-19T14:19:45.221Z</time></trkpt><trkpt lat="45.809535" lon="13.6977567"><ele>187.0</ele><time>2026-04-19T14:19:46.22Z</time></trkpt><trkpt lat="45.8095867" lon="13.6975233"><ele>187.0</ele><time>2026-04-19T14:19:47.22Z</time></trkpt><trkpt lat="45.8096833" lon="13.6973"><ele>183.66666666666669</ele><time>2026-04-19T14:19:48.219Z</time></trkpt><trkpt lat="45.8098067" lon="13.69707"><ele>180.33333333333334</ele><time>2026-04-19T14:19:49.219Z</time></trkpt><trkpt lat="45.8099233" lon="13.6968233"><ele>177.0</ele><time>2026-04-19T14:19:50.223Z</time></trkpt><trkpt lat="45.8100333" lon="13.6965683"><ele>177.0</ele><time>2026-04-19T14:19:51.222Z</time></trkpt><trkpt lat="45.8101433" lon="13.696305"><ele>177.0</ele><time>2026-04-19T14:19:52.221Z</time></trkpt><trkpt lat="45.810235" lon="13.69603"><ele>177.0</ele><time>2026-04-19T14:19:53.223Z</time></trkpt><trkpt lat="45.810325" lon="13.695765"><ele>180.0</ele><time>2026-04-19T14:19:54.223Z</time></trkpt><trkpt lat="45.8104317" lon="13.6955283"><ele>183.0</ele><time>2026-04-19T14:19:55.224Z</time></trkpt><trkpt lat="45.8105633" lon="13.69532"><ele>186.0</ele><time>2026-04-19T14:19:56.223Z</time></trkpt><trkpt lat="45.8106433" lon="13.6950917"><ele>186.0</ele><time>2026-04-19T14:19:57.223Z</time></trkpt><trkpt lat="45.8107183" lon="13.69487"><ele>186.0</ele><time>2026-04-19T14:19:58.217Z</time></trkpt><trkpt lat="45.8107667" lon="13.6946533"><ele>186.0</ele><time>2026-04-19T14:19:59.221Z</time></trkpt><trkpt lat="45.8107833" lon="13.69444"><ele>185.25</ele><time>2026-04-19T14:20:00.223Z</time></trkpt><trkpt lat="45.8107983" lon="13.69423"><ele>184.5</ele><time>2026-04-19T14:20:01.223Z</time></trkpt><trkpt lat="45.8108167" lon="13.694015"><ele>183.75</ele><time>2026-04-19T14:20:02.222Z</time></trkpt><trkpt lat="45.8108067" lon="13.6937983"><ele>183.0</ele><time>2026-04-19T14:20:03.222Z</time></trkpt><trkpt lat="45.8107533" lon="13.6935917"><ele>182.0</ele><time>2026-04-19T14:20:04.22Z</time></trkpt><trkpt lat="45.810705" lon="13.69339"><ele>181.0</ele><time>2026-04-19T14:20:05.22Z</time></trkpt><trkpt lat="45.8106717" lon="13.6931917"><ele>180.0</ele><time>2026-04-19T14:20:06.219Z</time></trkpt><trkpt lat="45.8106567" lon="13.6929917"><ele>179.0</ele><time>2026-04-19T14:20:07.221Z</time></trkpt><trkpt lat="45.810665" lon="13.6927867"><ele>176.66666666666666</ele><time>2026-04-19T14:20:08.216Z</time></trkpt><trkpt lat="45.8106767" lon="13.6925617"><ele>174.33333333333334</ele><time>2026-04-19T14:20:09.215Z</time></trkpt><trkpt lat="45.8106367" lon="13.6923267"><ele>172.0</ele><time>2026-04-19T14:20:10.218Z</time></trkpt><trkpt lat="45.8105633" lon="13.6920983"><ele>171.0</ele><time>2026-04-19T14:20:11.219Z</time></trkpt><trkpt lat="45.8104467" lon="13.6918883"><ele>170.0</ele><time>2026-04-19T14:20:12.219Z</time></trkpt><trkpt lat="45.8103317" lon="13.691685"><ele>169.0</ele><time>2026-04-19T14:20:13.217Z</time></trkpt><trkpt lat="45.8102567" lon="13.6914767"><ele>169.0</ele><time>2026-04-19T14:20:14.222Z</time></trkpt><trkpt lat="45.8102283" lon="13.691225"><ele>169.0</ele><time>2026-04-19T14:20:15.222Z</time></trkpt><trkpt lat="45.8102217" lon="13.69093"><ele>169.0</ele><time>2026-04-19T14:20:16.219Z</time></trkpt><trkpt lat="45.8102017" lon="13.69061"><ele>167.0</ele><time>2026-04-19T14:20:17.223Z</time></trkpt><trkpt lat="45.8101617" lon="13.6902917"><ele>165.0</ele><time>2026-04-19T14:20:18.227Z</time></trkpt><trkpt lat="45.8101" lon="13.68997"><ele>160.0</ele><time>2026-04-19T14:20:19.223Z</time></trkpt><trkpt lat="45.810035" lon="13.689645"><ele>155.0</ele><time>2026-04-19T14:20:20.224Z</time></trkpt><trkpt lat="45.8100233" lon="13.6892983"><ele>153.0</ele><time>2026-04-19T14:20:21.224Z</time></trkpt><trkpt lat="45.810025" lon="13.6889483"><ele>151.0</ele><time>2026-04-19T14:20:22.218Z</time></trkpt><trkpt lat="45.8100183" lon="13.688605"><ele>149.5</ele><time>2026-04-19T14:20:23.222Z</time></trkpt><trkpt lat="45.8099733" lon="13.68827"><ele>148.0</ele><time>2026-04-19T14:20:24.225Z</time></trkpt><trkpt lat="45.8098933" lon="13.6879567"><ele>147.0</ele><time>2026-04-19T14:20:25.222Z</time></trkpt><trkpt lat="45.809815" lon="13.6876417"><ele>146.0</ele><time>2026-04-19T14:20:26.226Z</time></trkpt><trkpt lat="45.8097867" lon="13.6873017"><ele>146.0</ele><time>2026-04-19T14:20:27.222Z</time></trkpt><trkpt lat="45.8097967" lon="13.6869283"><ele>146.0</ele><time>2026-04-19T14:20:28.221Z</time></trkpt><trkpt lat="45.8098283" lon="13.6865367"><ele>144.5</ele><time>2026-04-19T14:20:29.22Z</time></trkpt><trkpt lat="45.8098483" lon="13.6861483"><ele>143.0</ele><time>2026-04-19T14:20:30.222Z</time></trkpt><trkpt lat="45.809855" lon="13.68577"><ele>141.0</ele><time>2026-04-19T14:20:31.227Z</time></trkpt><trkpt lat="45.80988" lon="13.6854"><ele>139.0</ele><time>2026-04-19T14:20:32.222Z</time></trkpt><trkpt lat="45.8099183" lon="13.6850383"><ele>137.5</ele><time>2026-04-19T14:20:33.223Z</time></trkpt><trkpt lat="45.80998" lon="13.6846917"><ele>136.0</ele><time>2026-04-19T14:20:34.222Z</time></trkpt><trkpt lat="45.8100683" lon="13.6843717"><ele>135.5</ele><time>2026-04-19T14:20:35.219Z</time></trkpt><trkpt lat="45.8101417" lon="13.6840483"><ele>135.0</ele><time>2026-04-19T14:20:36.222Z</time></trkpt><trkpt lat="45.81016" lon="13.6837083"><ele>135.5</ele><time>2026-04-19T14:20:37.222Z</time></trkpt><trkpt lat="45.810155" lon="13.68337"><ele>136.0</ele><time>2026-04-19T14:20:38.225Z</time></trkpt><trkpt lat="45.810185" lon="13.6830383"><ele>134.5</ele><time>2026-04-19T14:20:39.223Z</time></trkpt><trkpt lat="45.8102467" lon="13.6826967"><ele>133.0</ele><time>2026-04-19T14:20:40.222Z</time></trkpt><trkpt lat="45.810355" lon="13.682365"><ele>133.0</ele><time>2026-04-19T14:20:41.222Z</time></trkpt><trkpt lat="45.8104733" lon="13.682035"><ele>133.0</ele><time>2026-04-19T14:20:42.22Z</time></trkpt><trkpt lat="45.8105733" lon="13.6817017"><ele>130.0</ele><time>2026-04-19T14:20:43.224Z</time></trkpt><trkpt lat="45.8106817" lon="13.68136"><ele>127.0</ele><time>2026-04-19T14:20:44.22Z</time></trkpt><trkpt lat="45.8108167" lon="13.6810233"><ele>128.0</ele><time>2026-04-19T14:20:45.223Z</time></trkpt><trkpt lat="45.8109283" lon="13.6806733"><ele>129.0</ele><time>2026-04-19T14:20:46.224Z</time></trkpt><trkpt lat="45.811025" lon="13.6803317"><ele>127.5</ele><time>2026-04-19T14:20:47.22Z</time></trkpt><trkpt lat="45.8111117" lon="13.6800133"><ele>126.0</ele><time>2026-04-19T14:20:48.222Z</time></trkpt><trkpt lat="45.8112183" lon="13.6797367"><ele>126.0</ele><time>2026-04-19T14:20:49.224Z</time></trkpt><trkpt lat="45.8113183" lon="13.67946"><ele>126.0</ele><time>2026-04-19T14:20:50.222Z</time></trkpt><trkpt lat="45.81137" lon="13.6791433"><ele>126.0</ele><time>2026-04-19T14:20:51.224Z</time></trkpt><trkpt lat="45.81141" lon="13.6787817"><ele>123.5</ele><time>2026-04-19T14:20:52.224Z</time></trkpt><trkpt lat="45.8114683" lon="13.6784033"><ele>121.0</ele><time>2026-04-19T14:20:53.222Z</time></trkpt><trkpt lat="45.8115817" lon="13.6780417"><ele>120.0</ele><time>2026-04-19T14:20:54.222Z</time></trkpt><trkpt lat="45.8116733" lon="13.677685"><ele>119.0</ele><time>2026-04-19T14:20:55.223Z</time></trkpt><trkpt lat="45.8117517" lon="13.67734"><ele>121.5</ele><time>2026-04-19T14:20:56.22Z</time></trkpt><trkpt lat="45.81184" lon="13.6770183"><ele>124.0</ele><time>2026-04-19T14:20:57.224Z</time></trkpt><trkpt lat="45.811965" lon="13.6767367"><ele>124.0</ele><time>2026-04-19T14:20:58.222Z</time></trkpt><trkpt lat="45.81207" lon="13.67648"><ele>124.0</ele><time>2026-04-19T14:20:59.221Z</time></trkpt><trkpt lat="45.812165" lon="13.67624"><ele>124.0</ele><time>2026-04-19T14:21:00.223Z</time></trkpt><trkpt lat="45.812175" lon="13.67598"><ele>122.66666666666667</ele><time>2026-04-19T14:21:01.224Z</time></trkpt><trkpt lat="45.8121567" lon="13.675715"><ele>121.33333333333334</ele><time>2026-04-19T14:21:02.224Z</time></trkpt><trkpt lat="45.8121333" lon="13.6754367"><ele>120.0</ele><time>2026-04-19T14:21:03.222Z</time></trkpt><trkpt lat="45.81213" lon="13.6751567"><ele>119.0</ele><time>2026-04-19T14:21:04.221Z</time></trkpt><trkpt lat="45.8121733" lon="13.674865"><ele>118.0</ele><time>2026-04-19T14:21:05.223Z</time></trkpt><trkpt lat="45.81229" lon="13.6745417"><ele>117.0</ele><time>2026-04-19T14:21:06.226Z</time></trkpt><trkpt lat="45.812325" lon="13.6741883"><ele>116.0</ele><time>2026-04-19T14:21:07.225Z</time></trkpt><trkpt lat="45.8123283" lon="13.673805"><ele>115.5</ele><time>2026-04-19T14:21:08.227Z</time></trkpt><trkpt lat="45.8124117" lon="13.6733867"><ele>115.0</ele><time>2026-04-19T14:21:09.222Z</time></trkpt><trkpt lat="45.8124783" lon="13.672955"><ele>115.0</ele><time>2026-04-19T14:21:10.219Z</time></trkpt><trkpt lat="45.8125417" lon="13.672545"><ele>115.0</ele><time>2026-04-19T14:21:11.225Z</time></trkpt><trkpt lat="45.8125933" lon="13.67216"><ele>115.0</ele><time>2026-04-19T14:21:12.219Z</time></trkpt><trkpt lat="45.8126517" lon="13.6717817"><ele>115.0</ele><time>2026-04-19T14:21:13.222Z</time></trkpt><trkpt lat="45.8127" lon="13.6714"><ele>116.5</ele><time>2026-04-19T14:21:14.225Z</time></trkpt><trkpt lat="45.8127467" lon="13.6710133"><ele>118.0</ele><time>2026-04-19T14:21:15.224Z</time></trkpt><trkpt lat="45.8127717" lon="13.6706217"><ele>117.0</ele><time>2026-04-19T14:21:16.222Z</time></trkpt><trkpt lat="45.8128183" lon="13.6702483"><ele>116.0</ele><time>2026-04-19T14:21:17.22Z</time></trkpt><trkpt lat="45.81286" lon="13.6698917"><ele>116.0</ele><time>2026-04-19T14:21:18.223Z</time></trkpt><trkpt lat="45.8128883" lon="13.6695467"><ele>116.0</ele><time>2026-04-19T14:21:19.223Z</time></trkpt><trkpt lat="45.8129383" lon="13.669215"><ele>116.0</ele><time>2026-04-19T14:21:20.224Z</time></trkpt><trkpt lat="45.8130033" lon="13.66889"><ele>116.0</ele><time>2026-04-19T14:21:21.222Z</time></trkpt><trkpt lat="45.8130783" lon="13.6685483"><ele>116.0</ele><time>2026-04-19T14:21:22.222Z</time></trkpt><trkpt lat="45.81311" lon="13.66817"><ele>116.0</ele><time>2026-04-19T14:21:23.222Z</time></trkpt><trkpt lat="45.8130883" lon="13.667755"><ele>115.5</ele><time>2026-04-19T14:21:24.221Z</time></trkpt><trkpt lat="45.8130483" lon="13.6673367"><ele>115.0</ele><time>2026-04-19T14:21:25.22Z</time></trkpt><trkpt lat="45.8130117" lon="13.6669333"><ele>117.0</ele><time>2026-04-19T14:21:26.224Z</time></trkpt><trkpt lat="45.81298" lon="13.66654"><ele>119.0</ele><time>2026-04-19T14:21:27.222Z</time></trkpt><trkpt lat="45.8129683" lon="13.66615"><ele>122.0</ele><time>2026-04-19T14:21:28.224Z</time></trkpt><trkpt lat="45.8129883" lon="13.665745"><ele>125.0</ele><time>2026-04-19T14:21:29.223Z</time></trkpt><trkpt lat="45.8130317" lon="13.6653167"><ele>125.0</ele><time>2026-04-19T14:21:30.223Z</time></trkpt><trkpt lat="45.8130967" lon="13.6648767"><ele>125.0</ele><time>2026-04-19T14:21:31.22Z</time></trkpt><trkpt lat="45.81315" lon="13.6644317"><ele>125.0</ele><time>2026-04-19T14:21:32.222Z</time></trkpt><trkpt lat="45.8131817" lon="13.6639933"><ele>125.0</ele><time>2026-04-19T14:21:33.225Z</time></trkpt><trkpt lat="45.81319" lon="13.6635817"><ele>125.0</ele><time>2026-04-19T14:21:34.219Z</time></trkpt><trkpt lat="45.8131767" lon="13.6632067"><ele>125.0</ele><time>2026-04-19T14:21:35.221Z</time></trkpt><trkpt lat="45.8131533" lon="13.6628667"><ele>126.5</ele><time>2026-04-19T14:21:36.221Z</time></trkpt><trkpt lat="45.8130933" lon="13.6625633"><ele>128.0</ele><time>2026-04-19T14:21:37.223Z</time></trkpt><trkpt lat="45.8129717" lon="13.66228"><ele>128.0</ele><time>2026-04-19T14:21:38.224Z</time></trkpt><trkpt lat="45.8128" lon="13.6620083"><ele>128.0</ele><time>2026-04-19T14:21:39.222Z</time></trkpt><trkpt lat="45.8126" lon="13.6617333"><ele>123.5</ele><time>2026-04-19T14:21:40.223Z</time></trkpt><trkpt lat="45.8124133" lon="13.6614267"><ele>119.0</ele><time>2026-04-19T14:21:41.222Z</time></trkpt><trkpt lat="45.8122283" lon="13.6611283"><ele>120.0</ele><time>2026-04-19T14:21:42.223Z</time></trkpt><trkpt lat="45.81205" lon="13.6608417"><ele>121.0</ele><time>2026-04-19T14:21:43.222Z</time></trkpt><trkpt lat="45.8118733" lon="13.6605783"><ele>117.5</ele><time>2026-04-19T14:21:44.222Z</time></trkpt><trkpt lat="45.8117267" lon="13.6603033"><ele>114.0</ele><time>2026-04-19T14:21:45.225Z</time></trkpt><trkpt lat="45.8116167" lon="13.66"><ele>113.5</ele><time>2026-04-19T14:21:46.223Z</time></trkpt><trkpt lat="45.8115133" lon="13.6596767"><ele>113.0</ele><time>2026-04-19T14:21:47.221Z</time></trkpt><trkpt lat="45.8114083" lon="13.6593267"><ele>114.0</ele><time>2026-04-19T14:21:48.222Z</time></trkpt><trkpt lat="45.8112817" lon="13.6589583"><ele>115.0</ele><time>2026-04-19T14:21:49.222Z</time></trkpt><trkpt lat="45.8111417" lon="13.6585633"><ele>110.5</ele><time>2026-04-19T14:21:50.223Z</time></trkpt><trkpt lat="45.8109833" lon="13.6581583"><ele>106.0</ele><time>2026-04-19T14:21:51.225Z</time></trkpt><trkpt lat="45.8108383" lon="13.6577683"><ele>106.0</ele><time>2026-04-19T14:21:52.223Z</time></trkpt><trkpt lat="45.810705" lon="13.6574317"><ele>106.0</ele><time>2026-04-19T14:21:53.222Z</time></trkpt><trkpt lat="45.8105867" lon="13.6571367"><ele>105.5</ele><time>2026-04-19T14:21:54.224Z</time></trkpt><trkpt lat="45.8104917" lon="13.6568417"><ele>105.0</ele><time>2026-04-19T14:21:55.222Z</time></trkpt><trkpt lat="45.81044" lon="13.656495"><ele>105.0</ele><time>2026-04-19T14:21:56.223Z</time></trkpt><trkpt lat="45.8103933" lon="13.6561517"><ele>105.0</ele><time>2026-04-19T14:21:57.221Z</time></trkpt><trkpt lat="45.8103317" lon="13.6558217"><ele>105.0</ele><time>2026-04-19T14:21:58.222Z</time></trkpt><trkpt lat="45.8102583" lon="13.6554967"><ele>105.0</ele><time>2026-04-19T14:21:59.221Z</time></trkpt><trkpt lat="45.81019" lon="13.6551517"><ele>100.5</ele><time>2026-04-19T14:22:00.223Z</time></trkpt><trkpt lat="45.8101317" lon="13.6547833"><ele>96.0</ele><time>2026-04-19T14:22:01.224Z</time></trkpt><trkpt lat="45.8100833" lon="13.6543933"><ele>95.5</ele><time>2026-04-19T14:22:02.22Z</time></trkpt><trkpt lat="45.8100517" lon="13.653995"><ele>95.0</ele><time>2026-04-19T14:22:03.22Z</time></trkpt><trkpt lat="45.8100467" lon="13.6536117"><ele>95.0</ele><time>2026-04-19T14:22:04.223Z</time></trkpt><trkpt lat="45.8100483" lon="13.653275"><ele>95.0</ele><time>2026-04-19T14:22:05.221Z</time></trkpt><trkpt lat="45.8100717" lon="13.652995"><ele>95.0</ele><time>2026-04-19T14:22:06.221Z</time></trkpt><trkpt lat="45.8101083" lon="13.65274"><ele>94.66666666666667</ele><time>2026-04-19T14:22:07.221Z</time></trkpt><trkpt lat="45.8102017" lon="13.652525"><ele>94.33333333333333</ele><time>2026-04-19T14:22:08.222Z</time></trkpt><trkpt lat="45.8103083" lon="13.6523433"><ele>94.0</ele><time>2026-04-19T14:22:09.226Z</time></trkpt><trkpt lat="45.810375" lon="13.6521417"><ele>90.0</ele><time>2026-04-19T14:22:10.222Z</time></trkpt><trkpt lat="45.8103683" lon="13.6519183"><ele>86.0</ele><time>2026-04-19T14:22:11.224Z</time></trkpt><trkpt lat="45.8103433" lon="13.6516933"><ele>82.0</ele><time>2026-04-19T14:22:12.219Z</time></trkpt><trkpt lat="45.81031" lon="13.6514283"><ele>82.0</ele><time>2026-04-19T14:22:13.222Z</time></trkpt><trkpt lat="45.8102333" lon="13.65114"><ele>82.0</ele><time>2026-04-19T14:22:14.227Z</time></trkpt><trkpt lat="45.8101133" lon="13.650865"><ele>82.0</ele><time>2026-04-19T14:22:15.221Z</time></trkpt><trkpt lat="45.81003" lon="13.650585"><ele>81.33333333333333</ele><time>2026-04-19T14:22:16.224Z</time></trkpt><trkpt lat="45.81001" lon="13.650305"><ele>80.66666666666667</ele><time>2026-04-19T14:22:17.219Z</time></trkpt><trkpt lat="45.8099983" lon="13.6500683"><ele>80.0</ele><time>2026-04-19T14:22:18.221Z</time></trkpt><trkpt lat="45.81002" lon="13.6498667"><ele>78.33333333333334</ele><time>2026-04-19T14:22:19.223Z</time></trkpt><trkpt lat="45.8100917" lon="13.649695"><ele>76.66666666666667</ele><time>2026-04-19T14:22:20.222Z</time></trkpt><trkpt lat="45.8102067" lon="13.6495233"><ele>75.0</ele><time>2026-04-19T14:22:21.224Z</time></trkpt><trkpt lat="45.8103217" lon="13.6493283"><ele>72.33333333333333</ele><time>2026-04-19T14:22:22.223Z</time></trkpt><trkpt lat="45.8103867" lon="13.6490817"><ele>69.66666666666666</ele><time>2026-04-19T14:22:23.223Z</time></trkpt><trkpt lat="45.8104317" lon="13.6488"><ele>67.0</ele><time>2026-04-19T14:22:24.221Z</time></trkpt><trkpt lat="45.8104383" lon="13.64849"><ele>67.0</ele><time>2026-04-19T14:22:25.225Z</time></trkpt><trkpt lat="45.810415" lon="13.64815"><ele>67.0</ele><time>2026-04-19T14:22:26.223Z</time></trkpt><trkpt lat="45.810385" lon="13.6478183"><ele>66.5</ele><time>2026-04-19T14:22:27.226Z</time></trkpt><trkpt lat="45.81039" lon="13.6474917"><ele>66.0</ele><time>2026-04-19T14:22:28.226Z</time></trkpt><trkpt lat="45.8104667" lon="13.6471617"><ele>65.5</ele><time>2026-04-19T14:22:29.22Z</time></trkpt><trkpt lat="45.8105483" lon="13.6468233"><ele>65.0</ele><time>2026-04-19T14:22:30.222Z</time></trkpt><trkpt lat="45.8106567" lon="13.6464917"><ele>65.0</ele><time>2026-04-19T14:22:31.221Z</time></trkpt><trkpt lat="45.8107233" lon="13.64618"><ele>65.0</ele><time>2026-04-19T14:22:32.222Z</time></trkpt><trkpt lat="45.8107967" lon="13.6459033"><ele>65.0</ele><time>2026-04-19T14:22:33.223Z</time></trkpt><trkpt lat="45.8109033" lon="13.6456733"><ele>65.33333333333334</ele><time>2026-04-19T14:22:34.222Z</time></trkpt><trkpt lat="45.8110583" lon="13.6455067"><ele>65.66666666666667</ele><time>2026-04-19T14:22:35.224Z</time></trkpt><trkpt lat="45.81126" lon="13.6454183"><ele>66.0</ele><time>2026-04-19T14:22:36.224Z</time></trkpt><trkpt lat="45.8114733" lon="13.64538"><ele>67.0</ele><time>2026-04-19T14:22:37.222Z</time></trkpt><trkpt lat="45.811655" lon="13.645295"><ele>68.0</ele><time>2026-04-19T14:22:38.223Z</time></trkpt><trkpt lat="45.8117967" lon="13.6451217"><ele>69.0</ele><time>2026-04-19T14:22:39.225Z</time></trkpt><trkpt lat="45.8119117" lon="13.6448967"><ele>69.0</ele><time>2026-04-19T14:22:40.219Z</time></trkpt><trkpt lat="45.81202" lon="13.6446633"><ele>69.0</ele><time>2026-04-19T14:22:41.219Z</time></trkpt><trkpt lat="45.8120867" lon="13.64444"><ele>69.0</ele><time>2026-04-19T14:22:42.222Z</time></trkpt><trkpt lat="45.8120867" lon="13.6441933"><ele>68.0</ele><time>2026-04-19T14:22:43.222Z</time></trkpt><trkpt lat="45.812075" lon="13.64399"><ele>67.0</ele><time>2026-04-19T14:22:44.222Z</time></trkpt><trkpt lat="45.812035" lon="13.6438167"><ele>66.0</ele><time>2026-04-19T14:22:45.221Z</time></trkpt><trkpt lat="45.8119983" lon="13.6436567"><ele>65.0</ele><time>2026-04-19T14:22:46.219Z</time></trkpt><trkpt lat="45.8119783" lon="13.64351"><ele>63.25</ele><time>2026-04-19T14:22:47.221Z</time></trkpt><trkpt lat="45.8119717" lon="13.6433633"><ele>61.5</ele><time>2026-04-19T14:22:48.223Z</time></trkpt><trkpt lat="45.8120083" lon="13.6431983"><ele>59.75</ele><time>2026-04-19T14:22:49.223Z</time></trkpt><trkpt lat="45.8120767" lon="13.6430133"><ele>58.0</ele><time>2026-04-19T14:22:50.222Z</time></trkpt><trkpt lat="45.812185" lon="13.642815"><ele>56.666666666666664</ele><time>2026-04-19T14:22:51.222Z</time></trkpt><trkpt lat="45.8122817" lon="13.6425967"><ele>55.33333333333333</ele><time>2026-04-19T14:22:52.222Z</time></trkpt><trkpt lat="45.8123333" lon="13.6423567"><ele>54.0</ele><time>2026-04-19T14:22:53.222Z</time></trkpt><trkpt lat="45.812365" lon="13.6420967"><ele>53.0</ele><time>2026-04-19T14:22:54.222Z</time></trkpt><trkpt lat="45.812415" lon="13.6418183"><ele>52.0</ele><time>2026-04-19T14:22:55.224Z</time></trkpt><trkpt lat="45.8124783" lon="13.6415183"><ele>51.0</ele><time>2026-04-19T14:22:56.223Z</time></trkpt><trkpt lat="45.812555" lon="13.64122"><ele>49.0</ele><time>2026-04-19T14:22:57.22Z</time></trkpt><trkpt lat="45.8126033" lon="13.640905"><ele>47.0</ele><time>2026-04-19T14:22:58.226Z</time></trkpt><trkpt lat="45.8125817" lon="13.6405767"><ele>46.5</ele><time>2026-04-19T14:22:59.224Z</time></trkpt><trkpt lat="45.81251" lon="13.6402317"><ele>46.0</ele><time>2026-04-19T14:23:00.225Z</time></trkpt><trkpt lat="45.8124667" lon="13.6398617"><ele>46.0</ele><time>2026-04-19T14:23:01.224Z</time></trkpt><trkpt lat="45.8124517" lon="13.6394917"><ele>46.0</ele><time>2026-04-19T14:23:02.225Z</time></trkpt><trkpt lat="45.8124883" lon="13.639135"><ele>46.5</ele><time>2026-04-19T14:23:03.224Z</time></trkpt><trkpt lat="45.81259" lon="13.638755"><ele>47.0</ele><time>2026-04-19T14:23:04.222Z</time></trkpt><trkpt lat="45.8126983" lon="13.6383517"><ele>49.0</ele><time>2026-04-19T14:23:05.223Z</time></trkpt><trkpt lat="45.8127733" lon="13.6379183"><ele>51.0</ele><time>2026-04-19T14:23:06.222Z</time></trkpt><trkpt lat="45.8128133" lon="13.6374683"><ele>51.0</ele><time>2026-04-19T14:23:07.223Z</time></trkpt><trkpt lat="45.8128267" lon="13.637035"><ele>51.0</ele><time>2026-04-19T14:23:08.224Z</time></trkpt><trkpt lat="45.81284" lon="13.63662"><ele>51.0</ele><time>2026-04-19T14:23:09.222Z</time></trkpt><trkpt lat="45.8128483" lon="13.6362183"><ele>51.0</ele><time>2026-04-19T14:23:10.224Z</time></trkpt><trkpt lat="45.8128667" lon="13.6358267"><ele>50.5</ele><time>2026-04-19T14:23:11.223Z</time></trkpt><trkpt lat="45.8129117" lon="13.63543"><ele>50.0</ele><time>2026-04-19T14:23:12.221Z</time></trkpt><trkpt lat="45.812975" lon="13.6350317"><ele>49.5</ele><time>2026-04-19T14:23:13.222Z</time></trkpt><trkpt lat="45.81303" lon="13.634645"><ele>49.0</ele><time>2026-04-19T14:23:14.223Z</time></trkpt><trkpt lat="45.81309" lon="13.63428"><ele>48.5</ele><time>2026-04-19T14:23:15.222Z</time></trkpt><trkpt lat="45.8131667" lon="13.6339483"><ele>48.0</ele><time>2026-04-19T14:23:16.222Z</time></trkpt><trkpt lat="45.813285" lon="13.63365"><ele>49.0</ele><time>2026-04-19T14:23:17.221Z</time></trkpt><trkpt lat="45.8134517" lon="13.6333767"><ele>50.0</ele><time>2026-04-19T14:23:18.222Z</time></trkpt><trkpt lat="45.8136283" lon="13.6330883"><ele>52.5</ele><time>2026-04-19T14:23:19.222Z</time></trkpt><trkpt lat="45.8137767" lon="13.6327567"><ele>55.0</ele><time>2026-04-19T14:23:20.224Z</time></trkpt><trkpt lat="45.8139017" lon="13.6323933"><ele>55.0</ele><time>2026-04-19T14:23:21.223Z</time></trkpt><trkpt lat="45.8140283" lon="13.63205"><ele>55.0</ele><time>2026-04-19T14:23:22.221Z</time></trkpt><trkpt lat="45.8141733" lon="13.631755"><ele>55.0</ele><time>2026-04-19T14:23:23.223Z</time></trkpt><trkpt lat="45.8143133" lon="13.6314767"><ele>55.0</ele><time>2026-04-19T14:23:24.225Z</time></trkpt><trkpt lat="45.81444" lon="13.6311983"><ele>60.0</ele><time>2026-04-19T14:23:25.224Z</time></trkpt><trkpt lat="45.8145367" lon="13.630895"><ele>65.0</ele><time>2026-04-19T14:23:26.224Z</time></trkpt><trkpt lat="45.8146033" lon="13.6305667"><ele>65.0</ele><time>2026-04-19T14:23:27.222Z</time></trkpt><trkpt lat="45.81464" lon="13.6302333"><ele>65.0</ele><time>2026-04-19T14:23:28.222Z</time></trkpt><trkpt lat="45.8146783" lon="13.6299133"><ele>65.0</ele><time>2026-04-19T14:23:29.222Z</time></trkpt><trkpt lat="45.81472" lon="13.629605"><ele>65.0</ele><time>2026-04-19T14:23:30.222Z</time></trkpt><trkpt lat="45.8147617" lon="13.62932"><ele>65.0</ele><time>2026-04-19T14:23:31.219Z</time></trkpt><trkpt lat="45.8148117" lon="13.62906"><ele>65.0</ele><time>2026-04-19T14:23:32.221Z</time></trkpt><trkpt lat="45.8148483" lon="13.6288217"><ele>65.0</ele><time>2026-04-19T14:23:33.222Z</time></trkpt><trkpt lat="45.8148767" lon="13.6285983"><ele>65.0</ele><time>2026-04-19T14:23:34.221Z</time></trkpt><trkpt lat="45.8149067" lon="13.6283983"><ele>65.0</ele><time>2026-04-19T14:23:35.22Z</time></trkpt><trkpt lat="45.8149267" lon="13.6282033"><ele>65.0</ele><time>2026-04-19T14:23:36.22Z</time></trkpt><trkpt lat="45.8149283" lon="13.6280117"><ele>65.0</ele><time>2026-04-19T14:23:37.219Z</time></trkpt><trkpt lat="45.8148983" lon="13.6278217"><ele>65.0</ele><time>2026-04-19T14:23:38.221Z</time></trkpt><trkpt lat="45.8148467" lon="13.6276367"><ele>64.75</ele><time>2026-04-19T14:23:39.222Z</time></trkpt><trkpt lat="45.814815" lon="13.6274517"><ele>64.5</ele><time>2026-04-19T14:23:40.222Z</time></trkpt><trkpt lat="45.8148183" lon="13.6272667"><ele>64.25</ele><time>2026-04-19T14:23:41.218Z</time></trkpt><trkpt lat="45.8148367" lon="13.6270833"><ele>64.0</ele><time>2026-04-19T14:23:42.217Z</time></trkpt><trkpt lat="45.8148433" lon="13.626905"><ele>63.75</ele><time>2026-04-19T14:23:43.221Z</time></trkpt><trkpt lat="45.8148183" lon="13.6267467"><ele>63.5</ele><time>2026-04-19T14:23:44.221Z</time></trkpt><trkpt lat="45.8147367" lon="13.6266267"><ele>63.25</ele><time>2026-04-19T14:23:45.222Z</time></trkpt><trkpt lat="45.81463" lon="13.6265317"><ele>63.0</ele><time>2026-04-19T14:23:46.22Z</time></trkpt><trkpt lat="45.8145367" lon="13.626405"><ele>63.0</ele><time>2026-04-19T14:23:47.222Z</time></trkpt><trkpt lat="45.81449" lon="13.6262483"><ele>63.0</ele><time>2026-04-19T14:23:48.224Z</time></trkpt><trkpt lat="45.814485" lon="13.6260617"><ele>63.0</ele><time>2026-04-19T14:23:49.222Z</time></trkpt><trkpt lat="45.8144383" lon="13.6259167"><ele>63.0</ele><time>2026-04-19T14:23:50.222Z</time></trkpt><trkpt lat="45.8143467" lon="13.62582"><ele>62.0</ele><time>2026-04-19T14:23:51.223Z</time></trkpt><trkpt lat="45.81422" lon="13.6257567"><ele>61.0</ele><time>2026-04-19T14:23:52.219Z</time></trkpt><trkpt lat="45.814085" lon="13.6256867"><ele>60.0</ele><time>2026-04-19T14:23:53.221Z</time></trkpt><trkpt lat="45.8139617" lon="13.6255917"><ele>59.0</ele><time>2026-04-19T14:23:54.221Z</time></trkpt><trkpt lat="45.8138333" lon="13.62551"><ele>59.0</ele><time>2026-04-19T14:23:55.222Z</time></trkpt><trkpt lat="45.8137133" lon="13.6254217"><ele>59.0</ele><time>2026-04-19T14:23:56.221Z</time></trkpt><trkpt lat="45.8136283" lon="13.6252833"><ele>59.0</ele><time>2026-04-19T14:23:57.221Z</time></trkpt><trkpt lat="45.81359" lon="13.62507"><ele>59.0</ele><time>2026-04-19T14:23:58.222Z</time></trkpt><trkpt lat="45.8135667" lon="13.6248283"><ele>60.0</ele><time>2026-04-19T14:23:59.227Z</time></trkpt><trkpt lat="45.8135567" lon="13.6245567"><ele>61.0</ele><time>2026-04-19T14:24:00.218Z</time></trkpt><trkpt lat="45.8135533" lon="13.62427"><ele>62.0</ele><time>2026-04-19T14:24:01.219Z</time></trkpt><trkpt lat="45.8135333" lon="13.6239683"><ele>62.66666666666667</ele><time>2026-04-19T14:24:02.224Z</time></trkpt><trkpt lat="45.8134617" lon="13.6236683"><ele>63.33333333333333</ele><time>2026-04-19T14:24:03.222Z</time></trkpt><trkpt lat="45.8134167" lon="13.62337"><ele>64.0</ele><time>2026-04-19T14:24:04.223Z</time></trkpt><trkpt lat="45.8133617" lon="13.623095"><ele>64.33333333333333</ele><time>2026-04-19T14:24:05.221Z</time></trkpt><trkpt lat="45.8132817" lon="13.6228417"><ele>64.66666666666667</ele><time>2026-04-19T14:24:06.225Z</time></trkpt><trkpt lat="45.8132133" lon="13.622595"><ele>65.0</ele><time>2026-04-19T14:24:07.223Z</time></trkpt><trkpt lat="45.81315" lon="13.6223583"><ele>65.0</ele><time>2026-04-19T14:24:08.225Z</time></trkpt><trkpt lat="45.81307" lon="13.6221433"><ele>65.0</ele><time>2026-04-19T14:24:09.223Z</time></trkpt><trkpt lat="45.8130067" lon="13.6219267"><ele>65.0</ele><time>2026-04-19T14:24:10.219Z</time></trkpt><trkpt lat="45.81296" lon="13.6216917"><ele>66.0</ele><time>2026-04-19T14:24:11.221Z</time></trkpt><trkpt lat="45.812965" lon="13.6214283"><ele>67.0</ele><time>2026-04-19T14:24:12.22Z</time></trkpt><trkpt lat="45.8129817" lon="13.6211517"><ele>68.0</ele><time>2026-04-19T14:24:13.22Z</time></trkpt><trkpt lat="45.8129283" lon="13.6208733"><ele>68.0</ele><time>2026-04-19T14:24:14.223Z</time></trkpt><trkpt lat="45.812825" lon="13.6205917"><ele>68.0</ele><time>2026-04-19T14:24:15.225Z</time></trkpt><trkpt lat="45.81272" lon="13.6202783"><ele>67.0</ele><time>2026-04-19T14:24:16.222Z</time></trkpt><trkpt lat="45.81263" lon="13.619945"><ele>66.0</ele><time>2026-04-19T14:24:17.22Z</time></trkpt><trkpt lat="45.8125517" lon="13.6196067"><ele>64.0</ele><time>2026-04-19T14:24:18.223Z</time></trkpt><trkpt lat="45.8124617" lon="13.619275"><ele>62.0</ele><time>2026-04-19T14:24:19.22Z</time></trkpt><trkpt lat="45.812365" lon="13.6189617"><ele>62.0</ele><time>2026-04-19T14:24:20.224Z</time></trkpt><trkpt lat="45.8122617" lon="13.6186717"><ele>62.0</ele><time>2026-04-19T14:24:21.223Z</time></trkpt><trkpt lat="45.8121933" lon="13.6183933"><ele>62.0</ele><time>2026-04-19T14:24:22.226Z</time></trkpt><trkpt lat="45.8121567" lon="13.6181117"><ele>60.66666666666667</ele><time>2026-04-19T14:24:23.221Z</time></trkpt><trkpt lat="45.8121783" lon="13.6178083"><ele>59.33333333333333</ele><time>2026-04-19T14:24:24.222Z</time></trkpt><trkpt lat="45.8122067" lon="13.617475"><ele>58.0</ele><time>2026-04-19T14:24:25.218Z</time></trkpt><trkpt lat="45.8122383" lon="13.6171267"><ele>56.0</ele><time>2026-04-19T14:24:26.224Z</time></trkpt><trkpt lat="45.81227" lon="13.61678"><ele>54.0</ele><time>2026-04-19T14:24:27.224Z</time></trkpt><trkpt lat="45.81229" lon="13.6164317"><ele>53.0</ele><time>2026-04-19T14:24:28.224Z</time></trkpt><trkpt lat="45.81227" lon="13.6160767"><ele>52.0</ele><time>2026-04-19T14:24:29.221Z</time></trkpt><trkpt lat="45.8122117" lon="13.61571"><ele>52.0</ele><time>2026-04-19T14:24:30.222Z</time></trkpt><trkpt lat="45.81214" lon="13.615355"><ele>52.0</ele><time>2026-04-19T14:24:31.221Z</time></trkpt><trkpt lat="45.8120617" lon="13.6150067"><ele>50.0</ele><time>2026-04-19T14:24:32.226Z</time></trkpt><trkpt lat="45.8120233" lon="13.6146333"><ele>48.0</ele><time>2026-04-19T14:24:33.224Z</time></trkpt><trkpt lat="45.81203" lon="13.61425"><ele>47.0</ele><time>2026-04-19T14:24:34.222Z</time></trkpt><trkpt lat="45.8120433" lon="13.6138783"><ele>46.0</ele><time>2026-04-19T14:24:35.224Z</time></trkpt><trkpt lat="45.8120167" lon="13.6135267"><ele>45.0</ele><time>2026-04-19T14:24:36.221Z</time></trkpt><trkpt lat="45.8119567" lon="13.6132"><ele>44.0</ele><time>2026-04-19T14:24:37.224Z</time></trkpt><trkpt lat="45.811845" lon="13.6128933"><ele>43.0</ele><time>2026-04-19T14:24:38.224Z</time></trkpt><trkpt lat="45.8116833" lon="13.6125983"><ele>42.0</ele><time>2026-04-19T14:24:39.225Z</time></trkpt><trkpt lat="45.8115267" lon="13.6123017"><ele>42.0</ele><time>2026-04-19T14:24:40.223Z</time></trkpt><trkpt lat="45.8114133" lon="13.6119933"><ele>42.0</ele><time>2026-04-19T14:24:41.222Z</time></trkpt><trkpt lat="45.8113233" lon="13.6117017"><ele>41.0</ele><time>2026-04-19T14:24:42.222Z</time></trkpt><trkpt lat="45.8112433" lon="13.61144"><ele>40.0</ele><time>2026-04-19T14:24:43.224Z</time></trkpt><trkpt lat="45.8112017" lon="13.6111583"><ele>39.0</ele><time>2026-04-19T14:24:44.223Z</time></trkpt><trkpt lat="45.811225" lon="13.610845"><ele>39.0</ele><time>2026-04-19T14:24:45.223Z</time></trkpt><trkpt lat="45.81124" lon="13.610535"><ele>39.0</ele><time>2026-04-19T14:24:46.223Z</time></trkpt><trkpt lat="45.8112317" lon="13.6102433"><ele>39.0</ele><time>2026-04-19T14:24:47.222Z</time></trkpt><trkpt lat="45.811225" lon="13.609965"><ele>38.333333333333336</ele><time>2026-04-19T14:24:48.221Z</time></trkpt><trkpt lat="45.8112317" lon="13.6097033"><ele>37.66666666666667</ele><time>2026-04-19T14:24:49.221Z</time></trkpt><trkpt lat="45.8112617" lon="13.6094733"><ele>37.0</ele><time>2026-04-19T14:24:50.223Z</time></trkpt><trkpt lat="45.81128" lon="13.60926"><ele>36.75</ele><time>2026-04-19T14:24:51.222Z</time></trkpt><trkpt lat="45.8113033" lon="13.6090533"><ele>36.5</ele><time>2026-04-19T14:24:52.223Z</time></trkpt><trkpt lat="45.8113383" lon="13.6088517"><ele>36.25</ele><time>2026-04-19T14:24:53.223Z</time></trkpt><trkpt lat="45.8114067" lon="13.6086533"><ele>36.0</ele><time>2026-04-19T14:24:54.218Z</time></trkpt><trkpt lat="45.81151" lon="13.608475"><ele>35.0</ele><time>2026-04-19T14:24:55.221Z</time></trkpt><trkpt lat="45.811615" lon="13.608315"><ele>34.0</ele><time>2026-04-19T14:24:56.221Z</time></trkpt><trkpt lat="45.8117217" lon="13.60816"><ele>33.0</ele><time>2026-04-19T14:24:57.221Z</time></trkpt><trkpt lat="45.8118267" lon="13.6080133"><ele>33.0</ele><time>2026-04-19T14:24:58.224Z</time></trkpt><trkpt lat="45.8119317" lon="13.6078567"><ele>33.0</ele><time>2026-04-19T14:24:59.22Z</time></trkpt><trkpt lat="45.8120583" lon="13.6076767"><ele>33.0</ele><time>2026-04-19T14:25:00.221Z</time></trkpt><trkpt lat="45.8121967" lon="13.6074683"><ele>32.0</ele><time>2026-04-19T14:25:01.222Z</time></trkpt><trkpt lat="45.81233" lon="13.6072217"><ele>31.0</ele><time>2026-04-19T14:25:02.221Z</time></trkpt><trkpt lat="45.8124667" lon="13.606935"><ele>31.0</ele><time>2026-04-19T14:25:03.223Z</time></trkpt><trkpt lat="45.8126133" lon="13.6066083"><ele>31.0</ele><time>2026-04-19T14:25:04.223Z</time></trkpt><trkpt lat="45.8127833" lon="13.606295"><ele>31.5</ele><time>2026-04-19T14:25:05.222Z</time></trkpt><trkpt lat="45.81295" lon="13.606"><ele>32.0</ele><time>2026-04-19T14:25:06.221Z</time></trkpt><trkpt lat="45.813095" lon="13.6056917"><ele>32.0</ele><time>2026-04-19T14:25:07.222Z</time></trkpt><trkpt lat="45.8132167" lon="13.6053783"><ele>32.0</ele><time>2026-04-19T14:25:08.223Z</time></trkpt><trkpt lat="45.8133583" lon="13.6050933"><ele>32.5</ele><time>2026-04-19T14:25:09.223Z</time></trkpt><trkpt lat="45.81351" lon="13.60482"><ele>33.0</ele><time>2026-04-19T14:25:10.222Z</time></trkpt><trkpt lat="45.8136667" lon="13.6045567"><ele>32.5</ele><time>2026-04-19T14:25:11.228Z</time></trkpt><trkpt lat="45.8138267" lon="13.604305"><ele>32.0</ele><time>2026-04-19T14:25:12.224Z</time></trkpt><trkpt lat="45.8139533" lon="13.6040367"><ele>32.0</ele><time>2026-04-19T14:25:13.22Z</time></trkpt><trkpt lat="45.81402" lon="13.6037467"><ele>32.0</ele><time>2026-04-19T14:25:14.223Z</time></trkpt><trkpt lat="45.8140367" lon="13.6034583"><ele>32.0</ele><time>2026-04-19T14:25:15.223Z</time></trkpt><trkpt lat="45.81404" lon="13.6032"><ele>31.0</ele><time>2026-04-19T14:25:16.222Z</time></trkpt><trkpt lat="45.8139933" lon="13.6029517"><ele>30.0</ele><time>2026-04-19T14:25:17.222Z</time></trkpt><trkpt lat="45.8139017" lon="13.6027283"><ele>29.0</ele><time>2026-04-19T14:25:18.222Z</time></trkpt><trkpt lat="45.8138333" lon="13.6025417"><ele>28.5</ele><time>2026-04-19T14:25:19.224Z</time></trkpt><trkpt lat="45.8138083" lon="13.6023667"><ele>28.0</ele><time>2026-04-19T14:25:20.224Z</time></trkpt><trkpt lat="45.8138383" lon="13.6021867"><ele>27.5</ele><time>2026-04-19T14:25:21.224Z</time></trkpt><trkpt lat="45.8139167" lon="13.6020183"><ele>27.0</ele><time>2026-04-19T14:25:22.224Z</time></trkpt><trkpt lat="45.8140617" lon="13.6018467"><ele>26.333333333333336</ele><time>2026-04-19T14:25:23.221Z</time></trkpt><trkpt lat="45.8142283" lon="13.6016583"><ele>25.666666666666668</ele><time>2026-04-19T14:25:24.222Z</time></trkpt><trkpt lat="45.8143767" lon="13.60148"><ele>25.0</ele><time>2026-04-19T14:25:25.222Z</time></trkpt><trkpt lat="45.8144867" lon="13.6012883"><ele>27.0</ele><time>2026-04-19T14:25:26.224Z</time></trkpt><trkpt lat="45.8145217" lon="13.6010517"><ele>29.0</ele><time>2026-04-19T14:25:27.225Z</time></trkpt><trkpt lat="45.8145133" lon="13.600805"><ele>31.0</ele><time>2026-04-19T14:25:28.221Z</time></trkpt><trkpt lat="45.8144533" lon="13.60057"><ele>31.0</ele><time>2026-04-19T14:25:29.222Z</time></trkpt><trkpt lat="45.8143417" lon="13.6003483"><ele>31.0</ele><time>2026-04-19T14:25:30.224Z</time></trkpt><trkpt lat="45.81419" lon="13.60011"><ele>31.0</ele><time>2026-04-19T14:25:31.223Z</time></trkpt><trkpt lat="45.8140567" lon="13.5998633"><ele>29.333333333333336</ele><time>2026-04-19T14:25:32.226Z</time></trkpt><trkpt lat="45.8139767" lon="13.59961"><ele>27.666666666666664</ele><time>2026-04-19T14:25:33.224Z</time></trkpt><trkpt lat="45.8139183" lon="13.5994"><ele>26.0</ele><time>2026-04-19T14:25:34.223Z</time></trkpt><trkpt lat="45.8139217" lon="13.5991917"><ele>26.0</ele><time>2026-04-19T14:25:35.221Z</time></trkpt><trkpt lat="45.8139683" lon="13.59896"><ele>26.0</ele><time>2026-04-19T14:25:36.223Z</time></trkpt><trkpt lat="45.8140217" lon="13.5986983"><ele>26.0</ele><time>2026-04-19T14:25:37.223Z</time></trkpt><trkpt lat="45.8140867" lon="13.5984233"><ele>25.666666666666664</ele><time>2026-04-19T14:25:38.219Z</time></trkpt><trkpt lat="45.81417" lon="13.5981333"><ele>25.333333333333336</ele><time>2026-04-19T14:25:39.225Z</time></trkpt><trkpt lat="45.8142617" lon="13.5978417"><ele>25.0</ele><time>2026-04-19T14:25:40.222Z</time></trkpt><trkpt lat="45.81436" lon="13.5975633"><ele>26.333333333333336</ele><time>2026-04-19T14:25:41.223Z</time></trkpt><trkpt lat="45.814455" lon="13.5972917"><ele>27.666666666666664</ele><time>2026-04-19T14:25:42.225Z</time></trkpt><trkpt lat="45.81455" lon="13.5970383"><ele>29.0</ele><time>2026-04-19T14:25:43.225Z</time></trkpt><trkpt lat="45.814665" lon="13.5968133"><ele>29.0</ele><time>2026-04-19T14:25:44.223Z</time></trkpt><trkpt lat="45.8147617" lon="13.5966067"><ele>29.0</ele><time>2026-04-19T14:25:45.223Z</time></trkpt><trkpt lat="45.8148767" lon="13.596445"><ele>29.0</ele><time>2026-04-19T14:25:46.222Z</time></trkpt><trkpt lat="45.8149767" lon="13.5962817"><ele>28.333333333333332</ele><time>2026-04-19T14:25:47.223Z</time></trkpt><trkpt lat="45.8150533" lon="13.5960967"><ele>27.666666666666664</ele><time>2026-04-19T14:25:48.227Z</time></trkpt><trkpt lat="45.8151217" lon="13.595895"><ele>27.0</ele><time>2026-04-19T14:25:49.214Z</time></trkpt><trkpt lat="45.8151817" lon="13.5956717"><ele>31.666666666666664</ele><time>2026-04-19T14:25:50.216Z</time></trkpt><trkpt lat="45.8152317" lon="13.5954167"><ele>36.33333333333333</ele><time>2026-04-19T14:25:51.216Z</time></trkpt><trkpt lat="45.8152917" lon="13.5951433"><ele>41.0</ele><time>2026-04-19T14:25:52.22Z</time></trkpt><trkpt lat="45.815355" lon="13.5948533"><ele>41.0</ele><time>2026-04-19T14:25:53.222Z</time></trkpt><trkpt lat="45.815415" lon="13.5945433"><ele>41.0</ele><time>2026-04-19T14:25:54.222Z</time></trkpt><trkpt lat="45.8154667" lon="13.5942233"><ele>40.0</ele><time>2026-04-19T14:25:55.217Z</time></trkpt><trkpt lat="45.8155217" lon="13.593905"><ele>39.0</ele><time>2026-04-19T14:25:56.221Z</time></trkpt><trkpt lat="45.8156017" lon="13.5935783"><ele>36.5</ele><time>2026-04-19T14:25:57.223Z</time></trkpt><trkpt lat="45.8156933" lon="13.59326"><ele>34.0</ele><time>2026-04-19T14:25:58.223Z</time></trkpt><trkpt lat="45.8158017" lon="13.592975"><ele>32.333333333333336</ele><time>2026-04-19T14:25:59.225Z</time></trkpt><trkpt lat="45.8158567" lon="13.5926783"><ele>30.666666666666664</ele><time>2026-04-19T14:26:00.223Z</time></trkpt><trkpt lat="45.8158533" lon="13.5923783"><ele>29.0</ele><time>2026-04-19T14:26:01.22Z</time></trkpt><trkpt lat="45.81587" lon="13.5920783"><ele>27.666666666666664</ele><time>2026-04-19T14:26:02.223Z</time></trkpt><trkpt lat="45.8159167" lon="13.5917767"><ele>26.333333333333336</ele><time>2026-04-19T14:26:03.225Z</time></trkpt><trkpt lat="45.8159933" lon="13.5914883"><ele>25.0</ele><time>2026-04-19T14:26:04.223Z</time></trkpt><trkpt lat="45.8160683" lon="13.5912217"><ele>27.333333333333336</ele><time>2026-04-19T14:26:05.223Z</time></trkpt><trkpt lat="45.816145" lon="13.5909867"><ele>29.666666666666664</ele><time>2026-04-19T14:26:06.221Z</time></trkpt><trkpt lat="45.8162133" lon="13.5907633"><ele>32.0</ele><time>2026-04-19T14:26:07.224Z</time></trkpt><trkpt lat="45.816295" lon="13.5905717"><ele>30.0</ele><time>2026-04-19T14:26:08.218Z</time></trkpt><trkpt lat="45.8165167" lon="13.59032"><ele>28.0</ele><time>2026-04-19T14:26:09.586Z</time></trkpt><trkpt lat="45.81667" lon="13.59015"><ele>28.0</ele><time>2026-04-19T14:26:10.775Z</time></trkpt><trkpt lat="45.8167967" lon="13.5900367"><ele>28.0</ele><time>2026-04-19T14:26:11.721Z</time></trkpt><trkpt lat="45.8170217" lon="13.5898817"><ele>28.0</ele><time>2026-04-19T14:26:13.222Z</time></trkpt><trkpt lat="45.81717" lon="13.589795"><ele>29.333333333333336</ele><time>2026-04-19T14:26:14.222Z</time></trkpt><trkpt lat="45.8173" lon="13.5896833"><ele>30.666666666666664</ele><time>2026-04-19T14:26:15.22Z</time></trkpt><trkpt lat="45.8174133" lon="13.5895183"><ele>32.0</ele><time>2026-04-19T14:26:16.224Z</time></trkpt><trkpt lat="45.817515" lon="13.58929"><ele>32.0</ele><time>2026-04-19T14:26:17.224Z</time></trkpt><trkpt lat="45.81762" lon="13.5890083"><ele>32.0</ele><time>2026-04-19T14:26:18.222Z</time></trkpt><trkpt lat="45.817745" lon="13.5887067"><ele>32.5</ele><time>2026-04-19T14:26:19.221Z</time></trkpt><trkpt lat="45.8178767" lon="13.5884"><ele>33.0</ele><time>2026-04-19T14:26:20.218Z</time></trkpt><trkpt lat="45.8180083" lon="13.588085"><ele>30.5</ele><time>2026-04-19T14:26:21.222Z</time></trkpt><trkpt lat="45.81814" lon="13.58777"><ele>28.0</ele><time>2026-04-19T14:26:22.222Z</time></trkpt><trkpt lat="45.8182867" lon="13.58748"><ele>28.0</ele><time>2026-04-19T14:26:23.223Z</time></trkpt><trkpt lat="45.8184367" lon="13.5871933"><ele>28.0</ele><time>2026-04-19T14:26:24.222Z</time></trkpt><trkpt lat="45.818595" lon="13.5869083"><ele>32.5</ele><time>2026-04-19T14:26:25.225Z</time></trkpt><trkpt lat="45.8187583" lon="13.586635"><ele>37.0</ele><time>2026-04-19T14:26:26.222Z</time></trkpt><trkpt lat="45.8189033" lon="13.5863617"><ele>35.333333333333336</ele><time>2026-04-19T14:26:27.222Z</time></trkpt><trkpt lat="45.8190333" lon="13.58609"><ele>33.666666666666664</ele><time>2026-04-19T14:26:28.224Z</time></trkpt><trkpt lat="45.81916" lon="13.5858333"><ele>32.0</ele><time>2026-04-19T14:26:29.223Z</time></trkpt><trkpt lat="45.8192867" lon="13.5856017"><ele>36.666666666666664</ele><time>2026-04-19T14:26:30.226Z</time></trkpt><trkpt lat="45.81941" lon="13.58539"><ele>41.333333333333336</ele><time>2026-04-19T14:26:31.225Z</time></trkpt><trkpt lat="45.8195167" lon="13.5851867"><ele>46.0</ele><time>2026-04-19T14:26:32.224Z</time></trkpt><trkpt lat="45.8195683" lon="13.584965"><ele>46.0</ele><time>2026-04-19T14:26:33.225Z</time></trkpt><trkpt lat="45.8196067" lon="13.584755"><ele>46.0</ele><time>2026-04-19T14:26:34.223Z</time></trkpt><trkpt lat="45.81965" lon="13.584575"><ele>46.0</ele><time>2026-04-19T14:26:35.221Z</time></trkpt><trkpt lat="45.8196933" lon="13.584415"><ele>46.0</ele><time>2026-04-19T14:26:36.221Z</time></trkpt><trkpt lat="45.8197333" lon="13.58427"><ele>45.4</ele><time>2026-04-19T14:26:37.221Z</time></trkpt><trkpt lat="45.8197583" lon="13.5841233"><ele>44.8</ele><time>2026-04-19T14:26:38.223Z</time></trkpt><trkpt lat="45.8197617" lon="13.5839767"><ele>44.199999999999996</ele><time>2026-04-19T14:26:39.227Z</time></trkpt><trkpt lat="45.81975" lon="13.5838317"><ele>43.599999999999994</ele><time>2026-04-19T14:26:40.219Z</time></trkpt><trkpt lat="45.81973" lon="13.58369"><ele>43.0</ele><time>2026-04-19T14:26:41.222Z</time></trkpt><trkpt lat="45.819715" lon="13.5835483"><ele>42.599999999999994</ele><time>2026-04-19T14:26:42.223Z</time></trkpt><trkpt lat="45.8196933" lon="13.583405"><ele>42.199999999999996</ele><time>2026-04-19T14:26:43.223Z</time></trkpt><trkpt lat="45.8196717" lon="13.5832667"><ele>41.8</ele><time>2026-04-19T14:26:44.225Z</time></trkpt><trkpt lat="45.8196483" lon="13.5831317"><ele>41.4</ele><time>2026-04-19T14:26:45.222Z</time></trkpt><trkpt lat="45.819615" lon="13.5829967"><ele>41.0</ele><time>2026-04-19T14:26:46.223Z</time></trkpt><trkpt lat="45.8195717" lon="13.5828667"><ele>40.8</ele><time>2026-04-19T14:26:47.223Z</time></trkpt><trkpt lat="45.81952" lon="13.58273"><ele>40.599999999999994</ele><time>2026-04-19T14:26:48.221Z</time></trkpt><trkpt lat="45.8194633" lon="13.5826"><ele>40.4</ele><time>2026-04-19T14:26:49.224Z</time></trkpt><trkpt lat="45.8194067" lon="13.5824683"><ele>40.2</ele><time>2026-04-19T14:26:50.221Z</time></trkpt><trkpt lat="45.81935" lon="13.58233"><ele>40.0</ele><time>2026-04-19T14:26:51.223Z</time></trkpt><trkpt lat="45.8192917" lon="13.5821983"><ele>39.6</ele><time>2026-04-19T14:26:52.223Z</time></trkpt><trkpt lat="45.819235" lon="13.5820733"><ele>39.2</ele><time>2026-04-19T14:26:53.22Z</time></trkpt><trkpt lat="45.81918" lon="13.5819467"><ele>38.8</ele><time>2026-04-19T14:26:54.226Z</time></trkpt><trkpt lat="45.8191267" lon="13.5818283"><ele>38.4</ele><time>2026-04-19T14:26:55.219Z</time></trkpt><trkpt lat="45.8190733" lon="13.58171"><ele>38.0</ele><time>2026-04-19T14:26:56.222Z</time></trkpt><trkpt lat="45.8190183" lon="13.58159"><ele>38.0</ele><time>2026-04-19T14:26:57.224Z</time></trkpt><trkpt lat="45.8189667" lon="13.58146"><ele>38.0</ele><time>2026-04-19T14:26:58.221Z</time></trkpt><trkpt lat="45.8189233" lon="13.5813283"><ele>38.0</ele><time>2026-04-19T14:26:59.223Z</time></trkpt><trkpt lat="45.8189017" lon="13.581185"><ele>38.0</ele><time>2026-04-19T14:27:00.226Z</time></trkpt><trkpt lat="45.8188867" lon="13.5810467"><ele>38.0</ele><time>2026-04-19T14:27:01.222Z</time></trkpt><trkpt lat="45.8188733" lon="13.5809283"><ele>38.83333333333333</ele><time>2026-04-19T14:27:02.222Z</time></trkpt><trkpt lat="45.81888" lon="13.58082"><ele>39.666666666666664</ele><time>2026-04-19T14:27:03.223Z</time></trkpt><trkpt lat="45.8189333" lon="13.58074"><ele>40.5</ele><time>2026-04-19T14:27:04.222Z</time></trkpt><trkpt lat="45.8189833" lon="13.5806667"><ele>41.333333333333336</ele><time>2026-04-19T14:27:05.222Z</time></trkpt><trkpt lat="45.8190383" lon="13.5805983"><ele>42.16666666666667</ele><time>2026-04-19T14:27:06.225Z</time></trkpt><trkpt lat="45.8191083" lon="13.5805267"><ele>43.0</ele><time>2026-04-19T14:27:07.224Z</time></trkpt><trkpt lat="45.819195" lon="13.580455"><ele>43.0</ele><time>2026-04-19T14:27:08.225Z</time></trkpt><trkpt lat="45.81929" lon="13.5803633"><ele>43.0</ele><time>2026-04-19T14:27:09.221Z</time></trkpt><trkpt lat="45.8193983" lon="13.5802667"><ele>43.0</ele><time>2026-04-19T14:27:10.223Z</time></trkpt><trkpt lat="45.8195117" lon="13.5801733"><ele>43.0</ele><time>2026-04-19T14:27:11.222Z</time></trkpt><trkpt lat="45.81962" lon="13.58007"><ele>43.2</ele><time>2026-04-19T14:27:12.223Z</time></trkpt><trkpt lat="45.8197267" lon="13.579975"><ele>43.4</ele><time>2026-04-19T14:27:13.221Z</time></trkpt><trkpt lat="45.8198217" lon="13.5798833"><ele>43.6</ele><time>2026-04-19T14:27:14.223Z</time></trkpt><trkpt lat="45.8199" lon="13.579795"><ele>43.800000000000004</ele><time>2026-04-19T14:27:15.22Z</time></trkpt><trkpt lat="45.819975" lon="13.57973"><ele>44.0</ele><time>2026-04-19T14:27:16.223Z</time></trkpt><trkpt lat="45.8200533" lon="13.5796867"><ele>44.0</ele><time>2026-04-19T14:27:17.223Z</time></trkpt><trkpt lat="45.82015" lon="13.5796483"><ele>44.0</ele><time>2026-04-19T14:27:18.223Z</time></trkpt><trkpt lat="45.8202833" lon="13.57959"><ele>44.0</ele><time>2026-04-19T14:27:19.226Z</time></trkpt><trkpt lat="45.8204317" lon="13.5795217"><ele>44.0</ele><time>2026-04-19T14:27:20.223Z</time></trkpt><trkpt lat="45.820585" lon="13.5794417"><ele>44.0</ele><time>2026-04-19T14:27:21.222Z</time></trkpt><trkpt lat="45.8207417" lon="13.5793683"><ele>44.0</ele><time>2026-04-19T14:27:22.225Z</time></trkpt><trkpt lat="45.8209017" lon="13.5793033"><ele>44.0</ele><time>2026-04-19T14:27:23.222Z</time></trkpt><trkpt lat="45.82106" lon="13.579245"><ele>43.0</ele><time>2026-04-19T14:27:24.222Z</time></trkpt><trkpt lat="45.8212167" lon="13.5791933"><ele>42.0</ele><time>2026-04-19T14:27:25.221Z</time></trkpt><trkpt lat="45.8213717" lon="13.5791433"><ele>41.0</ele><time>2026-04-19T14:27:26.218Z</time></trkpt><trkpt lat="45.82152" lon="13.57909"><ele>41.0</ele><time>2026-04-19T14:27:27.222Z</time></trkpt><trkpt lat="45.8216617" lon="13.5790517"><ele>41.0</ele><time>2026-04-19T14:27:28.222Z</time></trkpt><trkpt lat="45.8218017" lon="13.5790067"><ele>41.0</ele><time>2026-04-19T14:27:29.222Z</time></trkpt><trkpt lat="45.82193" lon="13.5789683"><ele>41.0</ele><time>2026-04-19T14:27:30.22Z</time></trkpt><trkpt lat="45.8220517" lon="13.5789317"><ele>40.599999999999994</ele><time>2026-04-19T14:27:31.22Z</time></trkpt><trkpt lat="45.8221683" lon="13.5788933"><ele>40.199999999999996</ele><time>2026-04-19T14:27:32.221Z</time></trkpt><trkpt lat="45.8222833" lon="13.5788567"><ele>39.8</ele><time>2026-04-19T14:27:33.221Z</time></trkpt><trkpt lat="45.8223833" lon="13.5788233"><ele>39.4</ele><time>2026-04-19T14:27:34.22Z</time></trkpt><trkpt lat="45.8224833" lon="13.57879"><ele>39.0</ele><time>2026-04-19T14:27:35.224Z</time></trkpt><trkpt lat="45.822585" lon="13.5787617"><ele>39.0</ele><time>2026-04-19T14:27:36.221Z</time></trkpt><trkpt lat="45.8227033" lon="13.578725"><ele>39.0</ele><time>2026-04-19T14:27:37.22Z</time></trkpt><trkpt lat="45.8228417" lon="13.578675"><ele>39.0</ele><time>2026-04-19T14:27:38.221Z</time></trkpt><trkpt lat="45.8229933" lon="13.578625"><ele>39.0</ele><time>2026-04-19T14:27:39.219Z</time></trkpt><trkpt lat="45.8231533" lon="13.578565"><ele>39.0</ele><time>2026-04-19T14:27:40.221Z</time></trkpt><trkpt lat="45.8233217" lon="13.5785267"><ele>39.0</ele><time>2026-04-19T14:27:41.22Z</time></trkpt><trkpt lat="45.823495" lon="13.5784633"><ele>39.0</ele><time>2026-04-19T14:27:42.221Z</time></trkpt><trkpt lat="45.8236617" lon="13.5784"><ele>39.333333333333336</ele><time>2026-04-19T14:27:43.221Z</time></trkpt><trkpt lat="45.8238183" lon="13.5783483"><ele>39.66666666666667</ele><time>2026-04-19T14:27:44.221Z</time></trkpt><trkpt lat="45.823975" lon="13.5783033"><ele>40.0</ele><time>2026-04-19T14:27:45.222Z</time></trkpt><trkpt lat="45.8241533" lon="13.5782383"><ele>43.0</ele><time>2026-04-19T14:27:46.224Z</time></trkpt><trkpt lat="45.8243633" lon="13.578185"><ele>46.0</ele><time>2026-04-19T14:27:47.222Z</time></trkpt><trkpt lat="45.8246017" lon="13.5781317"><ele>46.0</ele><time>2026-04-19T14:27:48.224Z</time></trkpt><trkpt lat="45.8248667" lon="13.5780533"><ele>46.0</ele><time>2026-04-19T14:27:49.222Z</time></trkpt><trkpt lat="45.8251583" lon="13.57796"><ele>46.5</ele><time>2026-04-19T14:27:50.223Z</time></trkpt><trkpt lat="45.8254617" lon="13.5778633"><ele>47.0</ele><time>2026-04-19T14:27:51.223Z</time></trkpt><trkpt lat="45.825765" lon="13.5777633"><ele>48.5</ele><time>2026-04-19T14:27:52.223Z</time></trkpt><trkpt lat="45.8260683" lon="13.577655"><ele>50.0</ele><time>2026-04-19T14:27:53.221Z</time></trkpt><trkpt lat="45.8263633" lon="13.5775633"><ele>50.0</ele><time>2026-04-19T14:27:54.221Z</time></trkpt><trkpt lat="45.8266467" lon="13.5774167"><ele>50.0</ele><time>2026-04-19T14:27:55.224Z</time></trkpt><trkpt lat="45.82691" lon="13.577195"><ele>53.5</ele><time>2026-04-19T14:27:56.223Z</time></trkpt><trkpt lat="45.8271483" lon="13.5769033"><ele>57.0</ele><time>2026-04-19T14:27:57.225Z</time></trkpt><trkpt lat="45.8273683" lon="13.5765517"><ele>57.0</ele><time>2026-04-19T14:27:58.223Z</time></trkpt><trkpt lat="45.8275833" lon="13.5762"><ele>57.0</ele><time>2026-04-19T14:27:59.22Z</time></trkpt><trkpt lat="45.8277983" lon="13.5758833"><ele>57.0</ele><time>2026-04-19T14:28:00.227Z</time></trkpt><trkpt lat="45.8280033" lon="13.5755883"><ele>57.0</ele><time>2026-04-19T14:28:01.221Z</time></trkpt><trkpt lat="45.8282" lon="13.575305"><ele>57.0</ele><time>2026-04-19T14:28:02.225Z</time></trkpt><trkpt lat="45.8283867" lon="13.57503"><ele>57.0</ele><time>2026-04-19T14:28:03.227Z</time></trkpt><trkpt lat="45.8285733" lon="13.574775"><ele>61.5</ele><time>2026-04-19T14:28:04.221Z</time></trkpt><trkpt lat="45.8287567" lon="13.5745333"><ele>66.0</ele><time>2026-04-19T14:28:05.222Z</time></trkpt><trkpt lat="45.8289467" lon="13.57431"><ele>66.0</ele><time>2026-04-19T14:28:06.225Z</time></trkpt><trkpt lat="45.8291267" lon="13.57409"><ele>66.0</ele><time>2026-04-19T14:28:07.223Z</time></trkpt><trkpt lat="45.8293017" lon="13.573865"><ele>71.5</ele><time>2026-04-19T14:28:08.222Z</time></trkpt><trkpt lat="45.8294683" lon="13.57363"><ele>77.0</ele><time>2026-04-19T14:28:09.225Z</time></trkpt><trkpt lat="45.8296233" lon="13.5733767"><ele>77.0</ele><time>2026-04-19T14:28:10.222Z</time></trkpt><trkpt lat="45.8297667" lon="13.5731017"><ele>77.0</ele><time>2026-04-19T14:28:11.225Z</time></trkpt><trkpt lat="45.8299033" lon="13.572815"><ele>73.0</ele><time>2026-04-19T14:28:12.225Z</time></trkpt><trkpt lat="45.8300417" lon="13.5725367"><ele>69.0</ele><time>2026-04-19T14:28:13.222Z</time></trkpt><trkpt lat="45.8301883" lon="13.572285"><ele>75.33333333333333</ele><time>2026-04-19T14:28:14.221Z</time></trkpt><trkpt lat="45.830325" lon="13.5720533"><ele>81.66666666666666</ele><time>2026-04-19T14:28:15.224Z</time></trkpt><trkpt lat="45.8304433" lon="13.5718267"><ele>88.0</ele><time>2026-04-19T14:28:16.224Z</time></trkpt><trkpt lat="45.8305383" lon="13.5715933"><ele>88.0</ele><time>2026-04-19T14:28:17.22Z</time></trkpt><trkpt lat="45.83065" lon="13.5714"><ele>88.0</ele><time>2026-04-19T14:28:18.224Z</time></trkpt><trkpt lat="45.8307567" lon="13.571215"><ele>88.0</ele><time>2026-04-19T14:28:19.223Z</time></trkpt><trkpt lat="45.8308717" lon="13.57105"><ele>92.66666666666666</ele><time>2026-04-19T14:28:20.223Z</time></trkpt><trkpt lat="45.8309917" lon="13.5708867"><ele>97.33333333333333</ele><time>2026-04-19T14:28:21.223Z</time></trkpt><trkpt lat="45.83112" lon="13.5707017"><ele>102.0</ele><time>2026-04-19T14:28:22.224Z</time></trkpt><trkpt lat="45.8312633" lon="13.570505"><ele>94.66666666666667</ele><time>2026-04-19T14:28:23.22Z</time></trkpt><trkpt lat="45.8314167" lon="13.570305"><ele>87.33333333333334</ele><time>2026-04-19T14:28:24.222Z</time></trkpt><trkpt lat="45.8315717" lon="13.5701133"><ele>80.0</ele><time>2026-04-19T14:28:25.221Z</time></trkpt><trkpt lat="45.831715" lon="13.5699317"><ele>81.0</ele><time>2026-04-19T14:28:26.22Z</time></trkpt><trkpt lat="45.8318517" lon="13.569765"><ele>82.0</ele><time>2026-04-19T14:28:27.225Z</time></trkpt><trkpt lat="45.8319767" lon="13.5696"><ele>83.0</ele><time>2026-04-19T14:28:28.221Z</time></trkpt><trkpt lat="45.832115" lon="13.5694467"><ele>83.0</ele><time>2026-04-19T14:28:29.223Z</time></trkpt><trkpt lat="45.83228" lon="13.5692883"><ele>83.0</ele><time>2026-04-19T14:28:30.226Z</time></trkpt><trkpt lat="45.8324783" lon="13.56914"><ele>83.0</ele><time>2026-04-19T14:28:31.224Z</time></trkpt><trkpt lat="45.8326933" lon="13.56899"><ele>84.0</ele><time>2026-04-19T14:28:32.222Z</time></trkpt><trkpt lat="45.8329233" lon="13.5688167"><ele>85.0</ele><time>2026-04-19T14:28:33.225Z</time></trkpt><trkpt lat="45.8331417" lon="13.5685583"><ele>85.0</ele><time>2026-04-19T14:28:34.222Z</time></trkpt><trkpt lat="45.833335" lon="13.568235"><ele>85.0</ele><time>2026-04-19T14:28:35.221Z</time></trkpt><trkpt lat="45.8335283" lon="13.567915"><ele>85.0</ele><time>2026-04-19T14:28:36.222Z</time></trkpt><trkpt lat="45.833735" lon="13.5676117"><ele>85.0</ele><time>2026-04-19T14:28:37.222Z</time></trkpt><trkpt lat="45.833955" lon="13.5673467"><ele>85.0</ele><time>2026-04-19T14:28:38.224Z</time></trkpt><trkpt lat="45.8341867" lon="13.5671083"><ele>85.0</ele><time>2026-04-19T14:28:39.222Z</time></trkpt><trkpt lat="45.8344117" lon="13.56687"><ele>85.5</ele><time>2026-04-19T14:28:40.221Z</time></trkpt><trkpt lat="45.8346267" lon="13.5666433"><ele>86.0</ele><time>2026-04-19T14:28:41.22Z</time></trkpt><trkpt lat="45.8348417" lon="13.5664317"><ele>86.0</ele><time>2026-04-19T14:28:42.223Z</time></trkpt><trkpt lat="45.8350567" lon="13.5662267"><ele>86.0</ele><time>2026-04-19T14:28:43.226Z</time></trkpt><trkpt lat="45.8353067" lon="13.56609"><ele>86.5</ele><time>2026-04-19T14:28:44.224Z</time></trkpt><trkpt lat="45.8355717" lon="13.56599"><ele>87.0</ele><time>2026-04-19T14:28:45.226Z</time></trkpt><trkpt lat="45.8358617" lon="13.56595"><ele>87.0</ele><time>2026-04-19T14:28:46.224Z</time></trkpt><trkpt lat="45.83617" lon="13.565945"><ele>87.0</ele><time>2026-04-19T14:28:47.223Z</time></trkpt><trkpt lat="45.8364583" lon="13.5659"><ele>87.0</ele><time>2026-04-19T14:28:48.223Z</time></trkpt><trkpt lat="45.83673" lon="13.56586"><ele>87.0</ele><time>2026-04-19T14:28:49.225Z</time></trkpt><trkpt lat="45.8369967" lon="13.5658167"><ele>85.5</ele><time>2026-04-19T14:28:50.225Z</time></trkpt><trkpt lat="45.8372583" lon="13.56572"><ele>84.0</ele><time>2026-04-19T14:28:51.223Z</time></trkpt><trkpt lat="45.837515" lon="13.5655583"><ele>82.5</ele><time>2026-04-19T14:28:52.223Z</time></trkpt><trkpt lat="45.83776" lon="13.565315"><ele>81.0</ele><time>2026-04-19T14:28:53.219Z</time></trkpt><trkpt lat="45.8379983" lon="13.5650467"><ele>81.0</ele><time>2026-04-19T14:28:54.222Z</time></trkpt><trkpt lat="45.8382383" lon="13.564745"><ele>81.0</ele><time>2026-04-19T14:28:55.221Z</time></trkpt><trkpt lat="45.83847" lon="13.5643917"><ele>80.5</ele><time>2026-04-19T14:28:56.221Z</time></trkpt><trkpt lat="45.8387017" lon="13.5640167"><ele>80.0</ele><time>2026-04-19T14:28:57.222Z</time></trkpt><trkpt lat="45.8389417" lon="13.5636583"><ele>80.0</ele><time>2026-04-19T14:28:58.22Z</time></trkpt><trkpt lat="45.8391833" lon="13.5633183"><ele>80.0</ele><time>2026-04-19T14:28:59.222Z</time></trkpt><trkpt lat="45.8394383" lon="13.5630083"><ele>77.5</ele><time>2026-04-19T14:29:00.223Z</time></trkpt><trkpt lat="45.8397033" lon="13.56271"><ele>75.0</ele><time>2026-04-19T14:29:01.223Z</time></trkpt><trkpt lat="45.8399733" lon="13.5624183"><ele>77.0</ele><time>2026-04-19T14:29:02.222Z</time></trkpt><trkpt lat="45.8402617" lon="13.56216"><ele>79.0</ele><time>2026-04-19T14:29:03.223Z</time></trkpt><trkpt lat="45.840565" lon="13.56194"><ele>79.0</ele><time>2026-04-19T14:29:04.225Z</time></trkpt><trkpt lat="45.8408883" lon="13.5617717"><ele>79.0</ele><time>2026-04-19T14:29:05.225Z</time></trkpt><trkpt lat="45.8412183" lon="13.561635"><ele>77.0</ele><time>2026-04-19T14:29:06.223Z</time></trkpt><trkpt lat="45.8415533" lon="13.5615167"><ele>75.0</ele><time>2026-04-19T14:29:07.23Z</time></trkpt><trkpt lat="45.8418967" lon="13.5614467"><ele>75.0</ele><time>2026-04-19T14:29:08.222Z</time></trkpt><trkpt lat="45.8422367" lon="13.561435"><ele>75.0</ele><time>2026-04-19T14:29:09.221Z</time></trkpt><trkpt lat="45.84258" lon="13.5614317"><ele>75.5</ele><time>2026-04-19T14:29:10.225Z</time></trkpt><trkpt lat="45.8429233" lon="13.5614917"><ele>76.0</ele><time>2026-04-19T14:29:11.221Z</time></trkpt><trkpt lat="45.843275" lon="13.56158"><ele>77.0</ele><time>2026-04-19T14:29:12.225Z</time></trkpt><trkpt lat="45.8436367" lon="13.561695"><ele>78.0</ele><time>2026-04-19T14:29:13.221Z</time></trkpt><trkpt lat="45.84401" lon="13.5618417"><ele>75.0</ele><time>2026-04-19T14:29:14.222Z</time></trkpt><trkpt lat="45.8443883" lon="13.5620017"><ele>72.0</ele><time>2026-04-19T14:29:15.223Z</time></trkpt><trkpt lat="45.8447517" lon="13.5621633"><ele>72.0</ele><time>2026-04-19T14:29:16.222Z</time></trkpt><trkpt lat="45.8450983" lon="13.56233"><ele>72.0</ele><time>2026-04-19T14:29:17.219Z</time></trkpt><trkpt lat="45.8454367" lon="13.562495"><ele>74.5</ele><time>2026-04-19T14:29:18.222Z</time></trkpt><trkpt lat="45.845765" lon="13.5626433"><ele>77.0</ele><time>2026-04-19T14:29:19.22Z</time></trkpt><trkpt lat="45.846085" lon="13.56279"><ele>71.5</ele><time>2026-04-19T14:29:20.22Z</time></trkpt><trkpt lat="45.8463883" lon="13.56293"><ele>66.0</ele><time>2026-04-19T14:29:21.223Z</time></trkpt><trkpt lat="45.8466817" lon="13.563075"><ele>69.5</ele><time>2026-04-19T14:29:22.221Z</time></trkpt><trkpt lat="45.8469733" lon="13.5632033"><ele>73.0</ele><time>2026-04-19T14:29:23.223Z</time></trkpt><trkpt lat="45.8472567" lon="13.5633267"><ele>73.0</ele><time>2026-04-19T14:29:24.219Z</time></trkpt><trkpt lat="45.8475367" lon="13.563435"><ele>73.0</ele><time>2026-04-19T14:29:25.222Z</time></trkpt><trkpt lat="45.8478233" lon="13.563485"><ele>72.0</ele><time>2026-04-19T14:29:26.219Z</time></trkpt><trkpt lat="45.8481217" lon="13.5634483"><ele>71.0</ele><time>2026-04-19T14:29:27.223Z</time></trkpt><trkpt lat="45.8484283" lon="13.563395"><ele>67.0</ele><time>2026-04-19T14:29:28.223Z</time></trkpt><trkpt lat="45.84874" lon="13.5633417"><ele>63.0</ele><time>2026-04-19T14:29:29.222Z</time></trkpt><trkpt lat="45.8490617" lon="13.563265"><ele>59.0</ele><time>2026-04-19T14:29:30.221Z</time></trkpt><trkpt lat="45.84938" lon="13.5631617"><ele>55.0</ele><time>2026-04-19T14:29:31.222Z</time></trkpt><trkpt lat="45.8496817" lon="13.5630083"><ele>59.0</ele><time>2026-04-19T14:29:32.22Z</time></trkpt><trkpt lat="45.8499667" lon="13.5628333"><ele>63.0</ele><time>2026-04-19T14:29:33.221Z</time></trkpt><trkpt lat="45.850235" lon="13.56267"><ele>63.0</ele><time>2026-04-19T14:29:34.223Z</time></trkpt><trkpt lat="45.8504983" lon="13.5625283"><ele>63.0</ele><time>2026-04-19T14:29:35.225Z</time></trkpt><trkpt lat="45.8507517" lon="13.5623917"><ele>57.5</ele><time>2026-04-19T14:29:36.221Z</time></trkpt><trkpt lat="45.85099" lon="13.5622517"><ele>52.0</ele><time>2026-04-19T14:29:37.222Z</time></trkpt><trkpt lat="45.8512217" lon="13.56212"><ele>58.0</ele><time>2026-04-19T14:29:38.221Z</time></trkpt><trkpt lat="45.8514517" lon="13.562"><ele>64.0</ele><time>2026-04-19T14:29:39.222Z</time></trkpt><trkpt lat="45.8516883" lon="13.56193"><ele>65.0</ele><time>2026-04-19T14:29:40.223Z</time></trkpt><trkpt lat="45.8519283" lon="13.5618933"><ele>66.0</ele><time>2026-04-19T14:29:41.221Z</time></trkpt><trkpt lat="45.852175" lon="13.56189"><ele>66.0</ele><time>2026-04-19T14:29:42.221Z</time></trkpt><trkpt lat="45.8524167" lon="13.5619167"><ele>66.0</ele><time>2026-04-19T14:29:43.22Z</time></trkpt><trkpt lat="45.85265" lon="13.5619783"><ele>62.33333333333333</ele><time>2026-04-19T14:29:44.224Z</time></trkpt><trkpt lat="45.8528717" lon="13.5620617"><ele>58.666666666666664</ele><time>2026-04-19T14:29:45.223Z</time></trkpt><trkpt lat="45.85308" lon="13.5621533"><ele>55.0</ele><time>2026-04-19T14:29:46.222Z</time></trkpt><trkpt lat="45.8532767" lon="13.5622567"><ele>59.0</ele><time>2026-04-19T14:29:47.223Z</time></trkpt><trkpt lat="45.8534567" lon="13.5623883"><ele>63.0</ele><time>2026-04-19T14:29:48.224Z</time></trkpt><trkpt lat="45.853625" lon="13.5625167"><ele>67.0</ele><time>2026-04-19T14:29:49.222Z</time></trkpt><trkpt lat="45.8537833" lon="13.5626733"><ele>67.0</ele><time>2026-04-19T14:29:50.22Z</time></trkpt><trkpt lat="45.8539383" lon="13.5628283"><ele>67.0</ele><time>2026-04-19T14:29:51.221Z</time></trkpt><trkpt lat="45.8540967" lon="13.56297"><ele>67.0</ele><time>2026-04-19T14:29:52.221Z</time></trkpt><trkpt lat="45.8542517" lon="13.563105"><ele>66.66666666666666</ele><time>2026-04-19T14:29:53.222Z</time></trkpt><trkpt lat="45.8544" lon="13.563235"><ele>66.33333333333333</ele><time>2026-04-19T14:29:54.225Z</time></trkpt><trkpt lat="45.8545383" lon="13.5633567"><ele>66.0</ele><time>2026-04-19T14:29:55.221Z</time></trkpt><trkpt lat="45.8546767" lon="13.5634717"><ele>66.0</ele><time>2026-04-19T14:29:56.221Z</time></trkpt><trkpt lat="45.85481" lon="13.563595"><ele>66.0</ele><time>2026-04-19T14:29:57.223Z</time></trkpt><trkpt lat="45.854935" lon="13.5637267"><ele>66.0</ele><time>2026-04-19T14:29:58.222Z</time></trkpt><trkpt lat="45.8550567" lon="13.5638667"><ele>68.33333333333333</ele><time>2026-04-19T14:29:59.223Z</time></trkpt><trkpt lat="45.8551617" lon="13.5640383"><ele>70.66666666666666</ele><time>2026-04-19T14:30:00.221Z</time></trkpt><trkpt lat="45.8552417" lon="13.5642383"><ele>73.0</ele><time>2026-04-19T14:30:01.221Z</time></trkpt><trkpt lat="45.8552933" lon="13.564455"><ele>72.66666666666666</ele><time>2026-04-19T14:30:02.226Z</time></trkpt><trkpt lat="45.8553217" lon="13.56468"><ele>72.33333333333333</ele><time>2026-04-19T14:30:03.223Z</time></trkpt><trkpt lat="45.855335" lon="13.5649067"><ele>72.0</ele><time>2026-04-19T14:30:04.22Z</time></trkpt><trkpt lat="45.855345" lon="13.56514"><ele>71.33333333333333</ele><time>2026-04-19T14:30:05.222Z</time></trkpt><trkpt lat="45.8553533" lon="13.565365"><ele>70.66666666666666</ele><time>2026-04-19T14:30:06.222Z</time></trkpt><trkpt lat="45.8553767" lon="13.56558"><ele>70.0</ele><time>2026-04-19T14:30:07.221Z</time></trkpt><trkpt lat="45.855395" lon="13.5657883"><ele>70.0</ele><time>2026-04-19T14:30:08.225Z</time></trkpt><trkpt lat="45.8554167" lon="13.565995"><ele>70.0</ele><time>2026-04-19T14:30:09.225Z</time></trkpt><trkpt lat="45.85546" lon="13.5661933"><ele>70.0</ele><time>2026-04-19T14:30:10.221Z</time></trkpt><trkpt lat="45.85552" lon="13.56638"><ele>70.0</ele><time>2026-04-19T14:30:11.225Z</time></trkpt><trkpt lat="45.8555933" lon="13.566555"><ele>67.25</ele><time>2026-04-19T14:30:12.22Z</time></trkpt><trkpt lat="45.8556767" lon="13.5667167"><ele>64.5</ele><time>2026-04-19T14:30:13.219Z</time></trkpt><trkpt lat="45.8557667" lon="13.56687"><ele>61.75</ele><time>2026-04-19T14:30:14.221Z</time></trkpt><trkpt lat="45.855855" lon="13.56701"><ele>59.0</ele><time>2026-04-19T14:30:15.222Z</time></trkpt><trkpt lat="45.8559283" lon="13.5671367"><ele>58.833333333333336</ele><time>2026-04-19T14:30:16.222Z</time></trkpt><trkpt lat="45.855985" lon="13.5672333"><ele>58.66666666666667</ele><time>2026-04-19T14:30:17.219Z</time></trkpt><trkpt lat="45.8560283" lon="13.5673183"><ele>58.5</ele><time>2026-04-19T14:30:18.215Z</time></trkpt><trkpt lat="45.8560683" lon="13.5673967"><ele>58.33333333333333</ele><time>2026-04-19T14:30:19.223Z</time></trkpt><trkpt lat="45.85614" lon="13.567495"><ele>58.166666666666664</ele><time>2026-04-19T14:30:21.222Z</time></trkpt><trkpt lat="45.8562033" lon="13.5674483"><ele>58.0</ele><time>2026-04-19T14:30:24.222Z</time></trkpt><trkpt lat="45.8561617" lon="13.5673183"><ele>58.0</ele><time>2026-04-19T14:30:26.221Z</time></trkpt><trkpt lat="45.856115" lon="13.56722"><ele>58.0</ele><time>2026-04-19T14:30:27.222Z</time></trkpt><trkpt lat="45.85605" lon="13.5670833"><ele>58.0</ele><time>2026-04-19T14:30:28.223Z</time></trkpt><trkpt lat="45.8559733" lon="13.5669217"><ele>58.0</ele><time>2026-04-19T14:30:29.223Z</time></trkpt><trkpt lat="45.855885" lon="13.5667267"><ele>58.33333333333333</ele><time>2026-04-19T14:30:30.222Z</time></trkpt><trkpt lat="45.8557933" lon="13.5665033"><ele>58.66666666666667</ele><time>2026-04-19T14:30:31.222Z</time></trkpt><trkpt lat="45.85572" lon="13.5662567"><ele>59.0</ele><time>2026-04-19T14:30:32.222Z</time></trkpt><trkpt lat="45.8556717" lon="13.56599"><ele>62.66666666666667</ele><time>2026-04-19T14:30:33.225Z</time></trkpt><trkpt lat="45.8556567" lon="13.5657117"><ele>66.33333333333333</ele><time>2026-04-19T14:30:34.224Z</time></trkpt><trkpt lat="45.855675" lon="13.56543"><ele>70.0</ele><time>2026-04-19T14:30:35.222Z</time></trkpt><trkpt lat="45.8557217" lon="13.5651233"><ele>71.0</ele><time>2026-04-19T14:30:36.224Z</time></trkpt><trkpt lat="45.8557733" lon="13.5647983"><ele>72.0</ele><time>2026-04-19T14:30:37.223Z</time></trkpt><trkpt lat="45.8558117" lon="13.564485"><ele>72.33333333333333</ele><time>2026-04-19T14:30:38.222Z</time></trkpt><trkpt lat="45.8558367" lon="13.56418"><ele>72.66666666666666</ele><time>2026-04-19T14:30:39.225Z</time></trkpt><trkpt lat="45.8558267" lon="13.56388"><ele>73.0</ele><time>2026-04-19T14:30:40.223Z</time></trkpt><trkpt lat="45.8557933" lon="13.563585"><ele>75.0</ele><time>2026-04-19T14:30:41.221Z</time></trkpt><trkpt lat="45.85576" lon="13.563305"><ele>77.0</ele><time>2026-04-19T14:30:42.223Z</time></trkpt><trkpt lat="45.85575" lon="13.5630483"><ele>79.0</ele><time>2026-04-19T14:30:43.224Z</time></trkpt><trkpt lat="45.8557633" lon="13.5628117"><ele>79.75</ele><time>2026-04-19T14:30:44.221Z</time></trkpt><trkpt lat="45.8558083" lon="13.5626083"><ele>80.5</ele><time>2026-04-19T14:30:45.223Z</time></trkpt><trkpt lat="45.8558867" lon="13.5624617"><ele>81.25</ele><time>2026-04-19T14:30:46.222Z</time></trkpt><trkpt lat="45.8559867" lon="13.56237"><ele>82.0</ele><time>2026-04-19T14:30:47.219Z</time></trkpt><trkpt lat="45.8560917" lon="13.5623317"><ele>85.0</ele><time>2026-04-19T14:30:48.219Z</time></trkpt><trkpt lat="45.856195" lon="13.56236"><ele>88.0</ele><time>2026-04-19T14:30:49.223Z</time></trkpt><trkpt lat="45.8562917" lon="13.5624467"><ele>91.0</ele><time>2026-04-19T14:30:50.221Z</time></trkpt><trkpt lat="45.85638" lon="13.5625933"><ele>94.0</ele><time>2026-04-19T14:30:51.223Z</time></trkpt><trkpt lat="45.8564667" lon="13.5627733"><ele>93.80000000000001</ele><time>2026-04-19T14:30:52.223Z</time></trkpt><trkpt lat="45.8565483" lon="13.56295"><ele>93.60000000000001</ele><time>2026-04-19T14:30:53.222Z</time></trkpt><trkpt lat="45.8566217" lon="13.56309"><ele>93.4</ele><time>2026-04-19T14:30:54.221Z</time></trkpt><trkpt lat="45.85669" lon="13.56318"><ele>93.2</ele><time>2026-04-19T14:30:55.221Z</time></trkpt><trkpt lat="45.8567567" lon="13.5632117"><ele>93.0</ele><time>2026-04-19T14:30:56.219Z</time></trkpt><trkpt lat="45.8568633" lon="13.5631083"><ele>95.66666666666666</ele><time>2026-04-19T14:30:58.222Z</time></trkpt><trkpt lat="45.8568817" lon="13.5628933"><ele>98.33333333333333</ele><time>2026-04-19T14:30:59.224Z</time></trkpt><trkpt lat="45.856895" lon="13.56267"><ele>101.0</ele><time>2026-04-19T14:31:00.224Z</time></trkpt><trkpt lat="45.8569083" lon="13.5624283"><ele>101.0</ele><time>2026-04-19T14:31:01.224Z</time></trkpt><trkpt lat="45.8569317" lon="13.5621533"><ele>101.0</ele><time>2026-04-19T14:31:02.224Z</time></trkpt><trkpt lat="45.8569767" lon="13.56187"><ele>101.0</ele><time>2026-04-19T14:31:03.222Z</time></trkpt><trkpt lat="45.8570483" lon="13.561595"><ele>101.0</ele><time>2026-04-19T14:31:04.225Z</time></trkpt><trkpt lat="45.8571267" lon="13.5613217"><ele>101.0</ele><time>2026-04-19T14:31:05.223Z</time></trkpt><trkpt lat="45.8571917" lon="13.5610383"><ele>101.0</ele><time>2026-04-19T14:31:06.224Z</time></trkpt><trkpt lat="45.857255" lon="13.5607533"><ele>101.0</ele><time>2026-04-19T14:31:07.224Z</time></trkpt><trkpt lat="45.8573333" lon="13.560475"><ele>101.0</ele><time>2026-04-19T14:31:08.222Z</time></trkpt><trkpt lat="45.857435" lon="13.5602083"><ele>101.0</ele><time>2026-04-19T14:31:09.224Z</time></trkpt><trkpt lat="45.8575583" lon="13.5599417"><ele>103.0</ele><time>2026-04-19T14:31:10.22Z</time></trkpt><trkpt lat="45.8577" lon="13.559685"><ele>105.0</ele><time>2026-04-19T14:31:11.222Z</time></trkpt><trkpt lat="45.857855" lon="13.5594383"><ele>105.5</ele><time>2026-04-19T14:31:12.223Z</time></trkpt><trkpt lat="45.85803" lon="13.5591867"><ele>106.0</ele><time>2026-04-19T14:31:13.222Z</time></trkpt><trkpt lat="45.85821" lon="13.55891"><ele>105.0</ele><time>2026-04-19T14:31:14.223Z</time></trkpt><trkpt lat="45.8583783" lon="13.558615"><ele>104.0</ele><time>2026-04-19T14:31:15.223Z</time></trkpt><trkpt lat="45.8585283" lon="13.55831"><ele>104.0</ele><time>2026-04-19T14:31:16.222Z</time></trkpt><trkpt lat="45.858665" lon="13.558"><ele>104.0</ele><time>2026-04-19T14:31:17.221Z</time></trkpt><trkpt lat="45.8587717" lon="13.5576833"><ele>103.5</ele><time>2026-04-19T14:31:18.225Z</time></trkpt><trkpt lat="45.85886" lon="13.5573467"><ele>103.0</ele><time>2026-04-19T14:31:19.222Z</time></trkpt><trkpt lat="45.8589433" lon="13.556975"><ele>104.0</ele><time>2026-04-19T14:31:20.224Z</time></trkpt><trkpt lat="45.859025" lon="13.55658"><ele>105.0</ele><time>2026-04-19T14:31:21.219Z</time></trkpt><trkpt lat="45.8591067" lon="13.5561983"><ele>105.5</ele><time>2026-04-19T14:31:22.224Z</time></trkpt><trkpt lat="45.8591833" lon="13.5558417"><ele>106.0</ele><time>2026-04-19T14:31:23.218Z</time></trkpt><trkpt lat="45.85926" lon="13.555505"><ele>106.0</ele><time>2026-04-19T14:31:24.225Z</time></trkpt><trkpt lat="45.8593383" lon="13.5551867"><ele>106.0</ele><time>2026-04-19T14:31:25.225Z</time></trkpt><trkpt lat="45.8594167" lon="13.5548833"><ele>106.0</ele><time>2026-04-19T14:31:26.223Z</time></trkpt><trkpt lat="45.85949" lon="13.554595"><ele>106.0</ele><time>2026-04-19T14:31:27.226Z</time></trkpt><trkpt lat="45.85956" lon="13.554315"><ele>106.0</ele><time>2026-04-19T14:31:28.223Z</time></trkpt><trkpt lat="45.8596217" lon="13.5540467"><ele>106.0</ele><time>2026-04-19T14:31:29.22Z</time></trkpt><trkpt lat="45.8596833" lon="13.553795"><ele>106.0</ele><time>2026-04-19T14:31:30.224Z</time></trkpt><trkpt lat="45.8597417" lon="13.553555"><ele>106.0</ele><time>2026-04-19T14:31:31.22Z</time></trkpt><trkpt lat="45.8598" lon="13.5533233"><ele>106.0</ele><time>2026-04-19T14:31:32.222Z</time></trkpt><trkpt lat="45.8598517" lon="13.55311"><ele>106.0</ele><time>2026-04-19T14:31:33.223Z</time></trkpt><trkpt lat="45.8599017" lon="13.55292"><ele>106.0</ele><time>2026-04-19T14:31:34.223Z</time></trkpt><trkpt lat="45.8599433" lon="13.5527483"><ele>106.0</ele><time>2026-04-19T14:31:35.221Z</time></trkpt><trkpt lat="45.8599783" lon="13.55262"><ele>106.00000000000001</ele><time>2026-04-19T14:31:36.224Z</time></trkpt><trkpt lat="45.8600083" lon="13.552515"><ele>106.0</ele><time>2026-04-19T14:31:37.223Z</time></trkpt><trkpt lat="45.8600367" lon="13.55243"><ele>106.0</ele><time>2026-04-19T14:31:38.222Z</time></trkpt><trkpt lat="45.8600867" lon="13.5523483"><ele>106.0</ele><time>2026-04-19T14:31:40.221Z</time></trkpt><trkpt lat="45.8601667" lon="13.5523867"><ele>106.00000000000001</ele><time>2026-04-19T14:31:42.223Z</time></trkpt><trkpt lat="45.860235" lon="13.55245"><ele>106.0</ele><time>2026-04-19T14:31:43.224Z</time></trkpt><trkpt lat="45.86037" lon="13.5526017"><ele>106.0</ele><time>2026-04-19T14:31:44.222Z</time></trkpt><trkpt lat="45.86051" lon="13.5527583"><ele>106.0</ele><time>2026-04-19T14:31:45.222Z</time></trkpt><trkpt lat="45.8606517" lon="13.5529267"><ele>106.0</ele><time>2026-04-19T14:31:46.222Z</time></trkpt><trkpt lat="45.8607817" lon="13.5531317"><ele>105.66666666666667</ele><time>2026-04-19T14:31:47.223Z</time></trkpt><trkpt lat="45.8608933" lon="13.5533833"><ele>105.33333333333334</ele><time>2026-04-19T14:31:48.225Z</time></trkpt><trkpt lat="45.86099" lon="13.5536717"><ele>105.0</ele><time>2026-04-19T14:31:49.225Z</time></trkpt><trkpt lat="45.8610783" lon="13.5539633"><ele>104.0</ele><time>2026-04-19T14:31:50.221Z</time></trkpt><trkpt lat="45.8611717" lon="13.5542417"><ele>103.0</ele><time>2026-04-19T14:31:51.222Z</time></trkpt><trkpt lat="45.861285" lon="13.5545083"><ele>102.0</ele><time>2026-04-19T14:31:52.227Z</time></trkpt><trkpt lat="45.8614333" lon="13.55475"><ele>102.0</ele><time>2026-04-19T14:31:53.223Z</time></trkpt><trkpt lat="45.8616067" lon="13.55497"><ele>102.0</ele><time>2026-04-19T14:31:54.223Z</time></trkpt><trkpt lat="45.8617933" lon="13.5552017"><ele>99.0</ele><time>2026-04-19T14:31:55.222Z</time></trkpt><trkpt lat="45.8619567" lon="13.5554533"><ele>96.0</ele><time>2026-04-19T14:31:56.225Z</time></trkpt><trkpt lat="45.8620933" lon="13.5557033"><ele>96.0</ele><time>2026-04-19T14:31:57.224Z</time></trkpt><trkpt lat="45.8622283" lon="13.555955"><ele>96.0</ele><time>2026-04-19T14:31:58.227Z</time></trkpt><trkpt lat="45.862355" lon="13.5561817"><ele>96.0</ele><time>2026-04-19T14:31:59.223Z</time></trkpt><trkpt lat="45.8624683" lon="13.55639"><ele>94.66666666666667</ele><time>2026-04-19T14:32:00.22Z</time></trkpt><trkpt lat="45.8625967" lon="13.5565633"><ele>93.33333333333334</ele><time>2026-04-19T14:32:01.228Z</time></trkpt><trkpt lat="45.8627767" lon="13.55667"><ele>92.0</ele><time>2026-04-19T14:32:02.224Z</time></trkpt><trkpt lat="45.862985" lon="13.556755"><ele>91.0</ele><time>2026-04-19T14:32:03.223Z</time></trkpt><trkpt lat="45.8632167" lon="13.5568483"><ele>90.0</ele><time>2026-04-19T14:32:04.224Z</time></trkpt><trkpt lat="45.86346" lon="13.5569533"><ele>87.0</ele><time>2026-04-19T14:32:05.224Z</time></trkpt><trkpt lat="45.8637033" lon="13.5570767"><ele>84.0</ele><time>2026-04-19T14:32:06.225Z</time></trkpt><trkpt lat="45.8639467" lon="13.5571767"><ele>84.0</ele><time>2026-04-19T14:32:07.223Z</time></trkpt><trkpt lat="45.8641933" lon="13.55726"><ele>84.0</ele><time>2026-04-19T14:32:08.223Z</time></trkpt><trkpt lat="45.8644283" lon="13.5573383"><ele>83.0</ele><time>2026-04-19T14:32:09.225Z</time></trkpt><trkpt lat="45.864645" lon="13.5574167"><ele>82.0</ele><time>2026-04-19T14:32:10.222Z</time></trkpt><trkpt lat="45.8648417" lon="13.5574917"><ele>81.0</ele><time>2026-04-19T14:32:11.223Z</time></trkpt><trkpt lat="45.8650133" lon="13.557555"><ele>81.0</ele><time>2026-04-19T14:32:12.224Z</time></trkpt><trkpt lat="45.8651567" lon="13.5576"><ele>81.0</ele><time>2026-04-19T14:32:13.22Z</time></trkpt><trkpt lat="45.8652617" lon="13.55763"><ele>81.0</ele><time>2026-04-19T14:32:14.223Z</time></trkpt><trkpt lat="45.8653433" lon="13.5576317"><ele>81.0</ele><time>2026-04-19T14:32:15.223Z</time></trkpt><trkpt lat="45.8654033" lon="13.55755"><ele>81.0</ele><time>2026-04-19T14:32:16.227Z</time></trkpt><trkpt lat="45.8654667" lon="13.5574333"><ele>81.0</ele><time>2026-04-19T14:32:17.219Z</time></trkpt><trkpt lat="45.8655133" lon="13.55725"><ele>81.0</ele><time>2026-04-19T14:32:18.222Z</time></trkpt><trkpt lat="45.8655833" lon="13.5570333"><ele>81.0</ele><time>2026-04-19T14:32:19.222Z</time></trkpt><trkpt lat="45.8656683" lon="13.5567933"><ele>82.0</ele><time>2026-04-19T14:32:20.219Z</time></trkpt><trkpt lat="45.8657417" lon="13.5565583"><ele>83.0</ele><time>2026-04-19T14:32:21.222Z</time></trkpt><trkpt lat="45.8658167" lon="13.55634"><ele>84.0</ele><time>2026-04-19T14:32:22.221Z</time></trkpt><trkpt lat="45.8658917" lon="13.5561283"><ele>86.33333333333333</ele><time>2026-04-19T14:32:23.22Z</time></trkpt><trkpt lat="45.86597" lon="13.5559183"><ele>88.66666666666666</ele><time>2026-04-19T14:32:24.227Z</time></trkpt><trkpt lat="45.8660717" lon="13.5557433"><ele>91.0</ele><time>2026-04-19T14:32:25.228Z</time></trkpt><trkpt lat="45.8661567" lon="13.5555617"><ele>91.0</ele><time>2026-04-19T14:32:26.229Z</time></trkpt><trkpt lat="45.8662483" lon="13.55538"><ele>91.0</ele><time>2026-04-19T14:32:27.222Z</time></trkpt><trkpt lat="45.8663467" lon="13.5551783"><ele>91.0</ele><time>2026-04-19T14:32:28.221Z</time></trkpt><trkpt lat="45.866465" lon="13.554955"><ele>91.33333333333333</ele><time>2026-04-19T14:32:29.223Z</time></trkpt><trkpt lat="45.866615" lon="13.5547417"><ele>91.66666666666667</ele><time>2026-04-19T14:32:30.223Z</time></trkpt><trkpt lat="45.8667617" lon="13.55452"><ele>92.0</ele><time>2026-04-19T14:32:31.222Z</time></trkpt><trkpt lat="45.8669067" lon="13.554295"><ele>93.66666666666667</ele><time>2026-04-19T14:32:32.221Z</time></trkpt><trkpt lat="45.86706" lon="13.5540717"><ele>95.33333333333334</ele><time>2026-04-19T14:32:33.224Z</time></trkpt><trkpt lat="45.8672283" lon="13.5538867"><ele>97.0</ele><time>2026-04-19T14:32:34.223Z</time></trkpt><trkpt lat="45.8673933" lon="13.55372"><ele>97.0</ele><time>2026-04-19T14:32:35.222Z</time></trkpt><trkpt lat="45.8675417" lon="13.55354"><ele>97.0</ele><time>2026-04-19T14:32:36.223Z</time></trkpt><trkpt lat="45.86764" lon="13.5533033"><ele>97.0</ele><time>2026-04-19T14:32:37.222Z</time></trkpt><trkpt lat="45.86772" lon="13.55306"><ele>99.0</ele><time>2026-04-19T14:32:38.224Z</time></trkpt><trkpt lat="45.8678067" lon="13.5528183"><ele>101.0</ele><time>2026-04-19T14:32:39.227Z</time></trkpt><trkpt lat="45.867945" lon="13.5526117"><ele>103.0</ele><time>2026-04-19T14:32:40.222Z</time></trkpt><trkpt lat="45.8681233" lon="13.5524283"><ele>103.0</ele><time>2026-04-19T14:32:41.223Z</time></trkpt><trkpt lat="45.8682833" lon="13.552215"><ele>103.0</ele><time>2026-04-19T14:32:42.224Z</time></trkpt><trkpt lat="45.8684067" lon="13.5519667"><ele>103.0</ele><time>2026-04-19T14:32:43.222Z</time></trkpt><trkpt lat="45.8685117" lon="13.551695"><ele>105.33333333333334</ele><time>2026-04-19T14:32:44.223Z</time></trkpt><trkpt lat="45.8686217" lon="13.5514283"><ele>107.66666666666666</ele><time>2026-04-19T14:32:45.225Z</time></trkpt><trkpt lat="45.8687117" lon="13.551155"><ele>110.0</ele><time>2026-04-19T14:32:46.221Z</time></trkpt><trkpt lat="45.8687417" lon="13.5508417"><ele>111.0</ele><time>2026-04-19T14:32:47.22Z</time></trkpt><trkpt lat="45.8687517" lon="13.5505033"><ele>112.0</ele><time>2026-04-19T14:32:48.222Z</time></trkpt><trkpt lat="45.8687617" lon="13.5501433"><ele>112.0</ele><time>2026-04-19T14:32:49.222Z</time></trkpt><trkpt lat="45.8687633" lon="13.5497533"><ele>112.0</ele><time>2026-04-19T14:32:50.224Z</time></trkpt><trkpt lat="45.868735" lon="13.549355"><ele>112.5</ele><time>2026-04-19T14:32:51.223Z</time></trkpt><trkpt lat="45.86869" lon="13.5489867"><ele>113.0</ele><time>2026-04-19T14:32:52.221Z</time></trkpt><trkpt lat="45.8686383" lon="13.5486567"><ele>113.33333333333333</ele><time>2026-04-19T14:32:53.223Z</time></trkpt><trkpt lat="45.8686033" lon="13.5483667"><ele>113.66666666666666</ele><time>2026-04-19T14:32:54.222Z</time></trkpt><trkpt lat="45.8685817" lon="13.548075"><ele>114.0</ele><time>2026-04-19T14:32:55.223Z</time></trkpt><trkpt lat="45.8686033" lon="13.5477567"><ele>113.66666666666666</ele><time>2026-04-19T14:32:56.222Z</time></trkpt><trkpt lat="45.868625" lon="13.547445"><ele>113.33333333333333</ele><time>2026-04-19T14:32:57.224Z</time></trkpt><trkpt lat="45.86858" lon="13.5471533"><ele>113.0</ele><time>2026-04-19T14:32:58.222Z</time></trkpt><trkpt lat="45.868495" lon="13.5468833"><ele>111.66666666666666</ele><time>2026-04-19T14:32:59.224Z</time></trkpt><trkpt lat="45.8683883" lon="13.546625"><ele>110.33333333333334</ele><time>2026-04-19T14:33:00.227Z</time></trkpt><trkpt lat="45.86831" lon="13.5463717"><ele>109.0</ele><time>2026-04-19T14:33:01.226Z</time></trkpt><trkpt lat="45.868285" lon="13.54611"><ele>108.66666666666667</ele><time>2026-04-19T14:33:02.222Z</time></trkpt><trkpt lat="45.868285" lon="13.5458317"><ele>108.33333333333334</ele><time>2026-04-19T14:33:03.223Z</time></trkpt><trkpt lat="45.8682917" lon="13.54554"><ele>108.0</ele><time>2026-04-19T14:33:04.221Z</time></trkpt><trkpt lat="45.8682317" lon="13.545225"><ele>108.0</ele><time>2026-04-19T14:33:05.222Z</time></trkpt><trkpt lat="45.8682017" lon="13.5448817"><ele>108.0</ele><time>2026-04-19T14:33:06.223Z</time></trkpt><trkpt lat="45.8681983" lon="13.5445067"><ele>108.0</ele><time>2026-04-19T14:33:07.223Z</time></trkpt><trkpt lat="45.8682333" lon="13.5440967"><ele>108.0</ele><time>2026-04-19T14:33:08.223Z</time></trkpt><trkpt lat="45.8682667" lon="13.5436583"><ele>108.5</ele><time>2026-04-19T14:33:09.223Z</time></trkpt><trkpt lat="45.8682883" lon="13.54319"><ele>109.0</ele><time>2026-04-19T14:33:10.223Z</time></trkpt><trkpt lat="45.8682867" lon="13.5427183"><ele>110.0</ele><time>2026-04-19T14:33:11.22Z</time></trkpt><trkpt lat="45.8682733" lon="13.5422767"><ele>111.0</ele><time>2026-04-19T14:33:12.224Z</time></trkpt><trkpt lat="45.8682633" lon="13.5418967"><ele>111.66666666666666</ele><time>2026-04-19T14:33:13.222Z</time></trkpt><trkpt lat="45.8682583" lon="13.541575"><ele>112.33333333333333</ele><time>2026-04-19T14:33:14.224Z</time></trkpt><trkpt lat="45.8682667" lon="13.5413133"><ele>113.0</ele><time>2026-04-19T14:33:15.227Z</time></trkpt><trkpt lat="45.8682717" lon="13.54111"><ele>113.25</ele><time>2026-04-19T14:33:16.222Z</time></trkpt><trkpt lat="45.8683033" lon="13.5409483"><ele>113.5</ele><time>2026-04-19T14:33:17.219Z</time></trkpt><trkpt lat="45.8683933" lon="13.5408417"><ele>113.75</ele><time>2026-04-19T14:33:18.219Z</time></trkpt><trkpt lat="45.8685167" lon="13.540785"><ele>114.0</ele><time>2026-04-19T14:33:19.222Z</time></trkpt><trkpt lat="45.8686433" lon="13.5407167"><ele>115.33333333333334</ele><time>2026-04-19T14:33:20.221Z</time></trkpt><trkpt lat="45.8688067" lon="13.5406767"><ele>116.66666666666667</ele><time>2026-04-19T14:33:21.222Z</time></trkpt><trkpt lat="45.8690367" lon="13.5406967"><ele>118.0</ele><time>2026-04-19T14:33:22.222Z</time></trkpt><trkpt lat="45.8692267" lon="13.5407033"><ele>120.0</ele><time>2026-04-19T14:33:23.22Z</time></trkpt><trkpt lat="45.8694017" lon="13.5406833"><ele>122.0</ele><time>2026-04-19T14:33:24.223Z</time></trkpt><trkpt lat="45.869555" lon="13.54059"><ele>124.0</ele><time>2026-04-19T14:33:25.223Z</time></trkpt><trkpt lat="45.8696767" lon="13.5404083"><ele>125.0</ele><time>2026-04-19T14:33:26.221Z</time></trkpt><trkpt lat="45.86979" lon="13.540205"><ele>126.0</ele><time>2026-04-19T14:33:27.219Z</time></trkpt><trkpt lat="45.8699017" lon="13.5400167"><ele>127.0</ele><time>2026-04-19T14:33:28.22Z</time></trkpt><trkpt lat="45.8700167" lon="13.5398517"><ele>128.0</ele><time>2026-04-19T14:33:29.221Z</time></trkpt><trkpt lat="45.87013" lon="13.5397"><ele>129.0</ele><time>2026-04-19T14:33:30.22Z</time></trkpt><trkpt lat="45.8702717" lon="13.539585"><ele>130.0</ele><time>2026-04-19T14:33:31.22Z</time></trkpt><trkpt lat="45.870425" lon="13.5394683"><ele>130.33333333333334</ele><time>2026-04-19T14:33:32.219Z</time></trkpt><trkpt lat="45.87059" lon="13.5393517"><ele>130.66666666666666</ele><time>2026-04-19T14:33:33.222Z</time></trkpt><trkpt lat="45.870755" lon="13.539225"><ele>131.0</ele><time>2026-04-19T14:33:34.221Z</time></trkpt><trkpt lat="45.8709317" lon="13.5391117"><ele>133.0</ele><time>2026-04-19T14:33:35.223Z</time></trkpt><trkpt lat="45.8711183" lon="13.5390217"><ele>135.0</ele><time>2026-04-19T14:33:36.225Z</time></trkpt><trkpt lat="45.8713" lon="13.5389583"><ele>137.0</ele><time>2026-04-19T14:33:37.219Z</time></trkpt><trkpt lat="45.8714667" lon="13.5389383"><ele>137.0</ele><time>2026-04-19T14:33:38.222Z</time></trkpt><trkpt lat="45.87161" lon="13.5389417"><ele>137.0</ele><time>2026-04-19T14:33:39.225Z</time></trkpt><trkpt lat="45.871725" lon="13.5389183"><ele>137.0</ele><time>2026-04-19T14:33:40.223Z</time></trkpt><trkpt lat="45.8718033" lon="13.5388317"><ele>137.0</ele><time>2026-04-19T14:33:41.223Z</time></trkpt><trkpt lat="45.8718517" lon="13.5386883"><ele>139.4</ele><time>2026-04-19T14:33:42.224Z</time></trkpt><trkpt lat="45.871885" lon="13.538525"><ele>141.79999999999998</ele><time>2026-04-19T14:33:43.218Z</time></trkpt><trkpt lat="45.871935" lon="13.5383783"><ele>144.2</ele><time>2026-04-19T14:33:44.218Z</time></trkpt><trkpt lat="45.87201" lon="13.538265"><ele>146.6</ele><time>2026-04-19T14:33:45.221Z</time></trkpt><trkpt lat="45.8721017" lon="13.53819"><ele>149.0</ele><time>2026-04-19T14:33:46.221Z</time></trkpt><trkpt lat="45.8722167" lon="13.5381667"><ele>149.0</ele><time>2026-04-19T14:33:47.222Z</time></trkpt><trkpt lat="45.872355" lon="13.5381733"><ele>149.0</ele><time>2026-04-19T14:33:48.222Z</time></trkpt><trkpt lat="45.8724967" lon="13.53817"><ele>149.0</ele><time>2026-04-19T14:33:49.224Z</time></trkpt><trkpt lat="45.8726233" lon="13.53814"><ele>149.0</ele><time>2026-04-19T14:33:50.222Z</time></trkpt><trkpt lat="45.87272" lon="13.5380517"><ele>150.0</ele><time>2026-04-19T14:33:51.223Z</time></trkpt><trkpt lat="45.8727933" lon="13.5379283"><ele>151.0</ele><time>2026-04-19T14:33:52.222Z</time></trkpt><trkpt lat="45.8728567" lon="13.5377883"><ele>152.0</ele><time>2026-04-19T14:33:53.221Z</time></trkpt><trkpt lat="45.8729133" lon="13.5376233"><ele>153.0</ele><time>2026-04-19T14:33:54.222Z</time></trkpt><trkpt lat="45.872975" lon="13.53746"><ele>153.0</ele><time>2026-04-19T14:33:55.221Z</time></trkpt><trkpt lat="45.8730567" lon="13.5373083"><ele>153.0</ele><time>2026-04-19T14:33:56.22Z</time></trkpt><trkpt lat="45.8731667" lon="13.537185"><ele>153.0</ele><time>2026-04-19T14:33:57.222Z</time></trkpt><trkpt lat="45.8732933" lon="13.5370833"><ele>153.0</ele><time>2026-04-19T14:33:58.22Z</time></trkpt><trkpt lat="45.8734183" lon="13.5369867"><ele>155.66666666666666</ele><time>2026-04-19T14:33:59.221Z</time></trkpt><trkpt lat="45.8735517" lon="13.5368633"><ele>158.33333333333331</ele><time>2026-04-19T14:34:00.224Z</time></trkpt><trkpt lat="45.8736983" lon="13.53673"><ele>161.0</ele><time>2026-04-19T14:34:01.22Z</time></trkpt><trkpt lat="45.8738233" lon="13.536565"><ele>161.0</ele><time>2026-04-19T14:34:02.222Z</time></trkpt><trkpt lat="45.8739267" lon="13.5364267"><ele>161.0</ele><time>2026-04-19T14:34:03.223Z</time></trkpt><trkpt lat="45.87398" lon="13.5362717"><ele>161.0</ele><time>2026-04-19T14:34:04.221Z</time></trkpt><trkpt lat="45.8739767" lon="13.5360917"><ele>161.0</ele><time>2026-04-19T14:34:05.225Z</time></trkpt><trkpt lat="45.8739583" lon="13.5358933"><ele>161.0</ele><time>2026-04-19T14:34:06.221Z</time></trkpt><trkpt lat="45.8739633" lon="13.53567"><ele>161.0</ele><time>2026-04-19T14:34:07.222Z</time></trkpt><trkpt lat="45.8739983" lon="13.5354267"><ele>161.0</ele><time>2026-04-19T14:34:08.224Z</time></trkpt><trkpt lat="45.874025" lon="13.535175"><ele>160.66666666666666</ele><time>2026-04-19T14:34:09.223Z</time></trkpt><trkpt lat="45.8740467" lon="13.5349333"><ele>160.33333333333334</ele><time>2026-04-19T14:34:10.222Z</time></trkpt><trkpt lat="45.8740667" lon="13.5347033"><ele>160.0</ele><time>2026-04-19T14:34:11.222Z</time></trkpt><trkpt lat="45.8740867" lon="13.5344883"><ele>160.0</ele><time>2026-04-19T14:34:12.219Z</time></trkpt><trkpt lat="45.87411" lon="13.534285"><ele>160.0</ele><time>2026-04-19T14:34:13.223Z</time></trkpt><trkpt lat="45.8741267" lon="13.5340983"><ele>160.0</ele><time>2026-04-19T14:34:14.224Z</time></trkpt><trkpt lat="45.87414" lon="13.533925"><ele>160.0</ele><time>2026-04-19T14:34:15.22Z</time></trkpt><trkpt lat="45.8741383" lon="13.5337617"><ele>160.25</ele><time>2026-04-19T14:34:16.22Z</time></trkpt><trkpt lat="45.8741117" lon="13.5335983"><ele>160.5</ele><time>2026-04-19T14:34:17.22Z</time></trkpt><trkpt lat="45.8740583" lon="13.5334217"><ele>160.75</ele><time>2026-04-19T14:34:18.222Z</time></trkpt><trkpt lat="45.87398" lon="13.5332283"><ele>161.0</ele><time>2026-04-19T14:34:19.221Z</time></trkpt><trkpt lat="45.873895" lon="13.5330017"><ele>161.66666666666666</ele><time>2026-04-19T14:34:20.221Z</time></trkpt><trkpt lat="45.8738083" lon="13.532745"><ele>162.33333333333334</ele><time>2026-04-19T14:34:21.224Z</time></trkpt><trkpt lat="45.8737083" lon="13.5324667"><ele>163.0</ele><time>2026-04-19T14:34:22.222Z</time></trkpt><trkpt lat="45.8736017" lon="13.5321633"><ele>164.5</ele><time>2026-04-19T14:34:23.225Z</time></trkpt><trkpt lat="45.873485" lon="13.531835"><ele>166.0</ele><time>2026-04-19T14:34:24.227Z</time></trkpt><trkpt lat="45.8733683" lon="13.5314717"><ele>162.0</ele><time>2026-04-19T14:34:25.224Z</time></trkpt><trkpt lat="45.8732467" lon="13.5310967"><ele>158.0</ele><time>2026-04-19T14:34:26.218Z</time></trkpt><trkpt lat="45.87311" lon="13.53074"><ele>158.0</ele><time>2026-04-19T14:34:27.222Z</time></trkpt><trkpt lat="45.872965" lon="13.53041"><ele>158.0</ele><time>2026-04-19T14:34:28.222Z</time></trkpt><trkpt lat="45.8728133" lon="13.5301033"><ele>158.5</ele><time>2026-04-19T14:34:29.223Z</time></trkpt><trkpt lat="45.8726667" lon="13.529815"><ele>159.0</ele><time>2026-04-19T14:34:30.222Z</time></trkpt><trkpt lat="45.8725267" lon="13.5295383"><ele>159.0</ele><time>2026-04-19T14:34:31.218Z</time></trkpt><trkpt lat="45.8724067" lon="13.5292633"><ele>159.0</ele><time>2026-04-19T14:34:32.219Z</time></trkpt><trkpt lat="45.8723067" lon="13.528985"><ele>159.0</ele><time>2026-04-19T14:34:33.22Z</time></trkpt><trkpt lat="45.872235" lon="13.528705"><ele>159.33333333333334</ele><time>2026-04-19T14:34:34.221Z</time></trkpt><trkpt lat="45.8721783" lon="13.5284283"><ele>159.66666666666669</ele><time>2026-04-19T14:34:35.223Z</time></trkpt><trkpt lat="45.8721333" lon="13.528165"><ele>160.0</ele><time>2026-04-19T14:34:36.223Z</time></trkpt><trkpt lat="45.8720983" lon="13.527895"><ele>160.0</ele><time>2026-04-19T14:34:37.22Z</time></trkpt><trkpt lat="45.8720817" lon="13.52762"><ele>160.0</ele><time>2026-04-19T14:34:38.223Z</time></trkpt><trkpt lat="45.8720833" lon="13.52734"><ele>160.0</ele><time>2026-04-19T14:34:39.223Z</time></trkpt><trkpt lat="45.8720933" lon="13.5270567"><ele>160.66666666666669</ele><time>2026-04-19T14:34:40.224Z</time></trkpt><trkpt lat="45.8720933" lon="13.5267683"><ele>161.33333333333334</ele><time>2026-04-19T14:34:41.222Z</time></trkpt><trkpt lat="45.8720867" lon="13.5264717"><ele>162.0</ele><time>2026-04-19T14:34:42.223Z</time></trkpt><trkpt lat="45.8720617" lon="13.526165"><ele>164.5</ele><time>2026-04-19T14:34:43.219Z</time></trkpt><trkpt lat="45.87202" lon="13.52585"><ele>167.0</ele><time>2026-04-19T14:34:44.222Z</time></trkpt><trkpt lat="45.8719667" lon="13.52553"><ele>168.33333333333331</ele><time>2026-04-19T14:34:45.224Z</time></trkpt><trkpt lat="45.8719183" lon="13.525215"><ele>169.66666666666666</ele><time>2026-04-19T14:34:46.222Z</time></trkpt><trkpt lat="45.8718867" lon="13.5249067"><ele>171.0</ele><time>2026-04-19T14:34:47.22Z</time></trkpt><trkpt lat="45.8718667" lon="13.5246033"><ele>171.66666666666666</ele><time>2026-04-19T14:34:48.222Z</time></trkpt><trkpt lat="45.8718683" lon="13.5242983"><ele>172.33333333333331</ele><time>2026-04-19T14:34:49.223Z</time></trkpt><trkpt lat="45.8718767" lon="13.5239917"><ele>173.0</ele><time>2026-04-19T14:34:50.218Z</time></trkpt><trkpt lat="45.87187" lon="13.5236867"><ele>173.0</ele><time>2026-04-19T14:34:51.221Z</time></trkpt><trkpt lat="45.8718433" lon="13.523385"><ele>173.0</ele><time>2026-04-19T14:34:52.221Z</time></trkpt><trkpt lat="45.8718133" lon="13.5230817"><ele>173.0</ele><time>2026-04-19T14:34:53.217Z</time></trkpt><trkpt lat="45.8718" lon="13.5227883"><ele>173.0</ele><time>2026-04-19T14:34:54.221Z</time></trkpt><trkpt lat="45.8718067" lon="13.5225017"><ele>173.0</ele><time>2026-04-19T14:34:55.223Z</time></trkpt><trkpt lat="45.8718283" lon="13.522235"><ele>173.0</ele><time>2026-04-19T14:34:56.221Z</time></trkpt><trkpt lat="45.8718833" lon="13.5220017"><ele>173.0</ele><time>2026-04-19T14:34:57.224Z</time></trkpt><trkpt lat="45.87195" lon="13.521815"><ele>173.0</ele><time>2026-04-19T14:34:58.225Z</time></trkpt><trkpt lat="45.871995" lon="13.5216417"><ele>173.0</ele><time>2026-04-19T14:34:59.222Z</time></trkpt><trkpt lat="45.8719833" lon="13.52147"><ele>173.0</ele><time>2026-04-19T14:35:00.223Z</time></trkpt><trkpt lat="45.8719217" lon="13.52129"><ele>172.66666666666666</ele><time>2026-04-19T14:35:01.223Z</time></trkpt><trkpt lat="45.8718517" lon="13.5210767"><ele>172.33333333333334</ele><time>2026-04-19T14:35:02.224Z</time></trkpt><trkpt lat="45.871805" lon="13.5208433"><ele>172.0</ele><time>2026-04-19T14:35:03.225Z</time></trkpt><trkpt lat="45.871775" lon="13.520605"><ele>172.0</ele><time>2026-04-19T14:35:04.22Z</time></trkpt><trkpt lat="45.8717783" lon="13.5203683"><ele>172.0</ele><time>2026-04-19T14:35:05.221Z</time></trkpt><trkpt lat="45.87181" lon="13.5201433"><ele>172.0</ele><time>2026-04-19T14:35:06.221Z</time></trkpt><trkpt lat="45.871875" lon="13.5199383"><ele>172.0</ele><time>2026-04-19T14:35:07.218Z</time></trkpt><trkpt lat="45.8719167" lon="13.5197283"><ele>172.0</ele><time>2026-04-19T14:35:08.224Z</time></trkpt><trkpt lat="45.87192" lon="13.5194983"><ele>172.0</ele><time>2026-04-19T14:35:09.224Z</time></trkpt><trkpt lat="45.8719033" lon="13.5192517"><ele>172.33333333333334</ele><time>2026-04-19T14:35:10.222Z</time></trkpt><trkpt lat="45.8719033" lon="13.5189733"><ele>172.66666666666666</ele><time>2026-04-19T14:35:11.221Z</time></trkpt><trkpt lat="45.8718883" lon="13.5186817"><ele>173.0</ele><time>2026-04-19T14:35:12.224Z</time></trkpt><trkpt lat="45.8718767" lon="13.518385"><ele>173.0</ele><time>2026-04-19T14:35:13.223Z</time></trkpt><trkpt lat="45.871875" lon="13.51808"><ele>173.0</ele><time>2026-04-19T14:35:14.222Z</time></trkpt><trkpt lat="45.8718783" lon="13.5177583"><ele>173.0</ele><time>2026-04-19T14:35:15.222Z</time></trkpt><trkpt lat="45.8718833" lon="13.5174267"><ele>172.0</ele><time>2026-04-19T14:35:16.223Z</time></trkpt><trkpt lat="45.8718867" lon="13.517095"><ele>171.0</ele><time>2026-04-19T14:35:17.218Z</time></trkpt><trkpt lat="45.8718917" lon="13.5167667"><ele>170.33333333333334</ele><time>2026-04-19T14:35:18.224Z</time></trkpt><trkpt lat="45.8718917" lon="13.51645"><ele>169.66666666666669</ele><time>2026-04-19T14:35:19.226Z</time></trkpt><trkpt lat="45.8718933" lon="13.51614"><ele>169.0</ele><time>2026-04-19T14:35:20.22Z</time></trkpt><trkpt lat="45.8718783" lon="13.515835"><ele>167.33333333333334</ele><time>2026-04-19T14:35:21.227Z</time></trkpt><trkpt lat="45.8718617" lon="13.5155367"><ele>165.66666666666666</ele><time>2026-04-19T14:35:22.223Z</time></trkpt><trkpt lat="45.87187" lon="13.5152383"><ele>164.0</ele><time>2026-04-19T14:35:23.224Z</time></trkpt><trkpt lat="45.8718683" lon="13.5149417"><ele>162.66666666666666</ele><time>2026-04-19T14:35:24.223Z</time></trkpt><trkpt lat="45.8718417" lon="13.5146333"><ele>161.33333333333334</ele><time>2026-04-19T14:35:25.224Z</time></trkpt><trkpt lat="45.87179" lon="13.5143217"><ele>160.0</ele><time>2026-04-19T14:35:26.223Z</time></trkpt><trkpt lat="45.8717233" lon="13.51402"><ele>156.66666666666669</ele><time>2026-04-19T14:35:27.224Z</time></trkpt><trkpt lat="45.87166" lon="13.513725"><ele>153.33333333333334</ele><time>2026-04-19T14:35:28.223Z</time></trkpt><trkpt lat="45.8716133" lon="13.51344"><ele>150.0</ele><time>2026-04-19T14:35:29.222Z</time></trkpt><trkpt lat="45.87159" lon="13.5131733"><ele>150.0</ele><time>2026-04-19T14:35:30.227Z</time></trkpt><trkpt lat="45.8716083" lon="13.5129267"><ele>150.0</ele><time>2026-04-19T14:35:31.223Z</time></trkpt><trkpt lat="45.87167" lon="13.5127117"><ele>150.0</ele><time>2026-04-19T14:35:32.22Z</time></trkpt><trkpt lat="45.8717667" lon="13.5125133"><ele>149.33333333333334</ele><time>2026-04-19T14:35:33.222Z</time></trkpt><trkpt lat="45.8718817" lon="13.5123117"><ele>148.66666666666669</ele><time>2026-04-19T14:35:34.219Z</time></trkpt><trkpt lat="45.871995" lon="13.5121033"><ele>148.0</ele><time>2026-04-19T14:35:35.219Z</time></trkpt><trkpt lat="45.8720983" lon="13.5118883"><ele>146.33333333333334</ele><time>2026-04-19T14:35:36.223Z</time></trkpt><trkpt lat="45.87219" lon="13.51168"><ele>144.66666666666666</ele><time>2026-04-19T14:35:37.223Z</time></trkpt><trkpt lat="45.87227" lon="13.511485"><ele>143.0</ele><time>2026-04-19T14:35:38.222Z</time></trkpt><trkpt lat="45.872295" lon="13.5112817"><ele>142.25</ele><time>2026-04-19T14:35:39.221Z</time></trkpt><trkpt lat="45.8722717" lon="13.51109"><ele>141.5</ele><time>2026-04-19T14:35:40.223Z</time></trkpt><trkpt lat="45.87222" lon="13.510915"><ele>140.75</ele><time>2026-04-19T14:35:41.22Z</time></trkpt><trkpt lat="45.8721483" lon="13.5107367"><ele>140.0</ele><time>2026-04-19T14:35:42.219Z</time></trkpt><trkpt lat="45.87206" lon="13.510555"><ele>138.33333333333331</ele><time>2026-04-19T14:35:43.221Z</time></trkpt><trkpt lat="45.8719783" lon="13.51033"><ele>136.66666666666666</ele><time>2026-04-19T14:35:44.222Z</time></trkpt><trkpt lat="45.8718833" lon="13.510095"><ele>135.0</ele><time>2026-04-19T14:35:45.223Z</time></trkpt><trkpt lat="45.871795" lon="13.5098617"><ele>134.66666666666666</ele><time>2026-04-19T14:35:46.223Z</time></trkpt><trkpt lat="45.8717267" lon="13.5096367"><ele>134.33333333333331</ele><time>2026-04-19T14:35:47.221Z</time></trkpt><trkpt lat="45.87168" lon="13.5094367"><ele>134.0</ele><time>2026-04-19T14:35:48.222Z</time></trkpt><trkpt lat="45.871685" lon="13.5092367"><ele>133.75</ele><time>2026-04-19T14:35:49.219Z</time></trkpt><trkpt lat="45.8717383" lon="13.50904"><ele>133.5</ele><time>2026-04-19T14:35:50.222Z</time></trkpt><trkpt lat="45.8717983" lon="13.5088517"><ele>133.25</ele><time>2026-04-19T14:35:51.221Z</time></trkpt><trkpt lat="45.8718483" lon="13.5086717"><ele>133.0</ele><time>2026-04-19T14:35:52.223Z</time></trkpt><trkpt lat="45.871905" lon="13.50849"><ele>130.75</ele><time>2026-04-19T14:35:53.222Z</time></trkpt><trkpt lat="45.8719883" lon="13.5083367"><ele>128.5</ele><time>2026-04-19T14:35:54.222Z</time></trkpt><trkpt lat="45.8721033" lon="13.5082367"><ele>126.25</ele><time>2026-04-19T14:35:55.222Z</time></trkpt><trkpt lat="45.8722317" lon="13.5081667"><ele>124.0</ele><time>2026-04-19T14:35:56.22Z</time></trkpt><trkpt lat="45.8723633" lon="13.50811"><ele>124.0</ele><time>2026-04-19T14:35:57.221Z</time></trkpt><trkpt lat="45.8724983" lon="13.5080483"><ele>124.0</ele><time>2026-04-19T14:35:58.218Z</time></trkpt><trkpt lat="45.8726283" lon="13.5079683"><ele>124.0</ele><time>2026-04-19T14:35:59.222Z</time></trkpt><trkpt lat="45.8727367" lon="13.5078283"><ele>124.0</ele><time>2026-04-19T14:36:00.221Z</time></trkpt><trkpt lat="45.8728317" lon="13.50765"><ele>122.33333333333334</ele><time>2026-04-19T14:36:01.221Z</time></trkpt><trkpt lat="45.872915" lon="13.5074167"><ele>120.66666666666666</ele><time>2026-04-19T14:36:02.223Z</time></trkpt><trkpt lat="45.87299" lon="13.50716"><ele>119.0</ele><time>2026-04-19T14:36:03.225Z</time></trkpt><trkpt lat="45.8730683" lon="13.5069033"><ele>118.33333333333333</ele><time>2026-04-19T14:36:04.225Z</time></trkpt><trkpt lat="45.8731467" lon="13.50665"><ele>117.66666666666666</ele><time>2026-04-19T14:36:05.222Z</time></trkpt><trkpt lat="45.8732217" lon="13.5063983"><ele>117.0</ele><time>2026-04-19T14:36:06.222Z</time></trkpt><trkpt lat="45.87328" lon="13.5061483"><ele>116.33333333333334</ele><time>2026-04-19T14:36:07.223Z</time></trkpt><trkpt lat="45.8733233" lon="13.5058917"><ele>115.66666666666667</ele><time>2026-04-19T14:36:08.221Z</time></trkpt><trkpt lat="45.8733517" lon="13.5056183"><ele>115.0</ele><time>2026-04-19T14:36:09.222Z</time></trkpt><trkpt lat="45.8733617" lon="13.5053133"><ele>114.0</ele><time>2026-04-19T14:36:10.225Z</time></trkpt><trkpt lat="45.87338" lon="13.504965"><ele>113.0</ele><time>2026-04-19T14:36:11.22Z</time></trkpt><trkpt lat="45.8734233" lon="13.50459"><ele>107.0</ele><time>2026-04-19T14:36:12.222Z</time></trkpt><trkpt lat="45.8734667" lon="13.504205"><ele>101.0</ele><time>2026-04-19T14:36:13.221Z</time></trkpt><trkpt lat="45.873505" lon="13.5038117"><ele>100.5</ele><time>2026-04-19T14:36:14.225Z</time></trkpt><trkpt lat="45.87353" lon="13.5034283"><ele>100.0</ele><time>2026-04-19T14:36:15.224Z</time></trkpt><trkpt lat="45.8735517" lon="13.5030617"><ele>99.0</ele><time>2026-04-19T14:36:16.224Z</time></trkpt><trkpt lat="45.8735417" lon="13.5027133"><ele>98.0</ele><time>2026-04-19T14:36:17.221Z</time></trkpt><trkpt lat="45.8735217" lon="13.5023883"><ele>97.0</ele><time>2026-04-19T14:36:18.223Z</time></trkpt><trkpt lat="45.87346" lon="13.5020717"><ele>96.0</ele><time>2026-04-19T14:36:19.223Z</time></trkpt><trkpt lat="45.873375" lon="13.501745"><ele>101.5</ele><time>2026-04-19T14:36:20.223Z</time></trkpt><trkpt lat="45.873265" lon="13.501425"><ele>107.0</ele><time>2026-04-19T14:36:21.223Z</time></trkpt><trkpt lat="45.87317" lon="13.50111"><ele>108.5</ele><time>2026-04-19T14:36:22.221Z</time></trkpt><trkpt lat="45.87308" lon="13.5008133"><ele>110.0</ele><time>2026-04-19T14:36:23.219Z</time></trkpt><trkpt lat="45.8729783" lon="13.50041"><ele>111.5</ele><time>2026-04-19T14:36:24.744Z</time></trkpt><trkpt lat="45.87292" lon="13.4999967"><ele>113.0</ele><time>2026-04-19T14:36:26.221Z</time></trkpt><trkpt lat="45.87291" lon="13.4997017"><ele>114.0</ele><time>2026-04-19T14:36:27.223Z</time></trkpt><trkpt lat="45.8728917" lon="13.4993983"><ele>115.0</ele><time>2026-04-19T14:36:28.223Z</time></trkpt><trkpt lat="45.872885" lon="13.4991067"><ele>116.0</ele><time>2026-04-19T14:36:29.221Z</time></trkpt><trkpt lat="45.87289" lon="13.498825"><ele>115.66666666666666</ele><time>2026-04-19T14:36:30.222Z</time></trkpt><trkpt lat="45.8729267" lon="13.4985617"><ele>115.33333333333334</ele><time>2026-04-19T14:36:31.22Z</time></trkpt><trkpt lat="45.8729833" lon="13.498315"><ele>115.0</ele><time>2026-04-19T14:36:32.221Z</time></trkpt><trkpt lat="45.8730317" lon="13.4980867"><ele>114.5</ele><time>2026-04-19T14:36:33.223Z</time></trkpt><trkpt lat="45.8730533" lon="13.497875"><ele>114.0</ele><time>2026-04-19T14:36:34.221Z</time></trkpt><trkpt lat="45.8730367" lon="13.4976883"><ele>113.5</ele><time>2026-04-19T14:36:35.223Z</time></trkpt><trkpt lat="45.872975" lon="13.497535"><ele>113.0</ele><time>2026-04-19T14:36:36.225Z</time></trkpt><trkpt lat="45.872865" lon="13.497425"><ele>113.0</ele><time>2026-04-19T14:36:37.221Z</time></trkpt><trkpt lat="45.872725" lon="13.4973633"><ele>113.0</ele><time>2026-04-19T14:36:38.221Z</time></trkpt><trkpt lat="45.8725883" lon="13.4973283"><ele>113.0</ele><time>2026-04-19T14:36:39.224Z</time></trkpt><trkpt lat="45.8724817" lon="13.4972983"><ele>113.0</ele><time>2026-04-19T14:36:40.224Z</time></trkpt><trkpt lat="45.8724083" lon="13.49725"><ele>113.0</ele><time>2026-04-19T14:36:41.221Z</time></trkpt><trkpt lat="45.8723833" lon="13.4971633"><ele>113.00000000000001</ele><time>2026-04-19T14:36:42.221Z</time></trkpt><trkpt lat="45.8724533" lon="13.4970033"><ele>113.00000000000001</ele><time>2026-04-19T14:36:44.224Z</time></trkpt><trkpt lat="45.8725417" lon="13.4969117"><ele>113.0</ele><time>2026-04-19T14:36:45.221Z</time></trkpt><trkpt lat="45.8726417" lon="13.49679"><ele>113.0</ele><time>2026-04-19T14:36:46.224Z</time></trkpt><trkpt lat="45.8727417" lon="13.496645"><ele>111.66666666666666</ele><time>2026-04-19T14:36:47.218Z</time></trkpt><trkpt lat="45.8728517" lon="13.4964717"><ele>110.33333333333334</ele><time>2026-04-19T14:36:48.221Z</time></trkpt><trkpt lat="45.872965" lon="13.496275"><ele>109.0</ele><time>2026-04-19T14:36:49.22Z</time></trkpt><trkpt lat="45.8730717" lon="13.4960717"><ele>106.66666666666667</ele><time>2026-04-19T14:36:50.225Z</time></trkpt><trkpt lat="45.873165" lon="13.4958667"><ele>104.33333333333334</ele><time>2026-04-19T14:36:51.224Z</time></trkpt><trkpt lat="45.87325" lon="13.495675"><ele>102.0</ele><time>2026-04-19T14:36:52.221Z</time></trkpt><trkpt lat="45.873315" lon="13.4955"><ele>100.19999999999999</ele><time>2026-04-19T14:36:53.221Z</time></trkpt><trkpt lat="45.873365" lon="13.4953667"><ele>98.4</ele><time>2026-04-19T14:36:54.22Z</time></trkpt><trkpt lat="45.8733833" lon="13.4952467"><ele>96.6</ele><time>2026-04-19T14:36:55.224Z</time></trkpt><trkpt lat="45.87336" lon="13.495145"><ele>94.80000000000001</ele><time>2026-04-19T14:36:56.226Z</time></trkpt><trkpt lat="45.8732717" lon="13.495075"><ele>93.0</ele><time>2026-04-19T14:36:57.222Z</time></trkpt><trkpt lat="45.873185" lon="13.4950117"><ele>93.0</ele><time>2026-04-19T14:36:58.221Z</time></trkpt><trkpt lat="45.8730817" lon="13.49494"><ele>93.0</ele><time>2026-04-19T14:36:59.22Z</time></trkpt><trkpt lat="45.8729433" lon="13.4949217"><ele>93.0</ele><time>2026-04-19T14:37:00.216Z</time></trkpt><trkpt lat="45.8728083" lon="13.4949183"><ele>93.0</ele><time>2026-04-19T14:37:01.22Z</time></trkpt><trkpt lat="45.87269" lon="13.4949383"><ele>92.16666666666667</ele><time>2026-04-19T14:37:02.222Z</time></trkpt><trkpt lat="45.8726017" lon="13.49493"><ele>91.33333333333333</ele><time>2026-04-19T14:37:03.221Z</time></trkpt><trkpt lat="45.872535" lon="13.4949033"><ele>90.5</ele><time>2026-04-19T14:37:04.222Z</time></trkpt><trkpt lat="45.8724917" lon="13.4948317"><ele>89.66666666666666</ele><time>2026-04-19T14:37:05.222Z</time></trkpt><trkpt lat="45.8724767" lon="13.4947267"><ele>88.83333333333333</ele><time>2026-04-19T14:37:06.223Z</time></trkpt><trkpt lat="45.8725183" lon="13.4945983"><ele>88.0</ele><time>2026-04-19T14:37:07.221Z</time></trkpt><trkpt lat="45.8726083" lon="13.49451"><ele>86.25</ele><time>2026-04-19T14:37:08.223Z</time></trkpt><trkpt lat="45.8727033" lon="13.494395"><ele>84.5</ele><time>2026-04-19T14:37:09.225Z</time></trkpt><trkpt lat="45.8728117" lon="13.4942533"><ele>82.75</ele><time>2026-04-19T14:37:10.221Z</time></trkpt><trkpt lat="45.87296" lon="13.4941367"><ele>81.0</ele><time>2026-04-19T14:37:11.222Z</time></trkpt><trkpt lat="45.8731083" lon="13.494025"><ele>81.0</ele><time>2026-04-19T14:37:12.221Z</time></trkpt><trkpt lat="45.87325" lon="13.4938983"><ele>81.0</ele><time>2026-04-19T14:37:13.226Z</time></trkpt><trkpt lat="45.8733983" lon="13.4937933"><ele>81.0</ele><time>2026-04-19T14:37:14.222Z</time></trkpt><trkpt lat="45.8735067" lon="13.49362"><ele>80.0</ele><time>2026-04-19T14:37:15.223Z</time></trkpt><trkpt lat="45.8736083" lon="13.4934083"><ele>79.0</ele><time>2026-04-19T14:37:16.223Z</time></trkpt><trkpt lat="45.8737117" lon="13.4931917"><ele>78.0</ele><time>2026-04-19T14:37:17.22Z</time></trkpt><trkpt lat="45.8737983" lon="13.49297"><ele>74.33333333333333</ele><time>2026-04-19T14:37:18.222Z</time></trkpt><trkpt lat="45.8738683" lon="13.4927317"><ele>70.66666666666666</ele><time>2026-04-19T14:37:19.222Z</time></trkpt><trkpt lat="45.87396" lon="13.4925167"><ele>67.0</ele><time>2026-04-19T14:37:20.224Z</time></trkpt><trkpt lat="45.8740883" lon="13.4923283"><ele>67.0</ele><time>2026-04-19T14:37:21.222Z</time></trkpt><trkpt lat="45.87424" lon="13.49215"><ele>67.0</ele><time>2026-04-19T14:37:22.221Z</time></trkpt><trkpt lat="45.8743933" lon="13.49197"><ele>67.0</ele><time>2026-04-19T14:37:23.22Z</time></trkpt><trkpt lat="45.874545" lon="13.4917967"><ele>66.0</ele><time>2026-04-19T14:37:24.224Z</time></trkpt><trkpt lat="45.8746867" lon="13.49162"><ele>65.0</ele><time>2026-04-19T14:37:25.221Z</time></trkpt><trkpt lat="45.8748117" lon="13.4914217"><ele>64.0</ele><time>2026-04-19T14:37:26.223Z</time></trkpt><trkpt lat="45.8749083" lon="13.4911967"><ele>63.33333333333333</ele><time>2026-04-19T14:37:27.222Z</time></trkpt><trkpt lat="45.8750033" lon="13.4909833"><ele>62.66666666666667</ele><time>2026-04-19T14:37:28.222Z</time></trkpt><trkpt lat="45.8751133" lon="13.4907967"><ele>62.0</ele><time>2026-04-19T14:37:29.222Z</time></trkpt><trkpt lat="45.875235" lon="13.4906417"><ele>62.0</ele><time>2026-04-19T14:37:30.221Z</time></trkpt><trkpt lat="45.8753633" lon="13.4905233"><ele>62.0</ele><time>2026-04-19T14:37:31.223Z</time></trkpt><trkpt lat="45.87548" lon="13.49043"><ele>62.0</ele><time>2026-04-19T14:37:32.222Z</time></trkpt><trkpt lat="45.8755833" lon="13.49035"><ele>62.0</ele><time>2026-04-19T14:37:33.222Z</time></trkpt><trkpt lat="45.87567" lon="13.4902867"><ele>59.0</ele><time>2026-04-19T14:37:34.221Z</time></trkpt><trkpt lat="45.87573" lon="13.49024"><ele>56.0</ele><time>2026-04-19T14:37:35.221Z</time></trkpt><trkpt lat="45.8757367" lon="13.4901233"><ele>53.0</ele><time>2026-04-19T14:37:37.22Z</time></trkpt><trkpt lat="45.875615" lon="13.490105"><ele>50.0</ele><time>2026-04-19T14:37:39.221Z</time></trkpt><trkpt lat="45.875525" lon="13.490165"><ele>47.0</ele><time>2026-04-19T14:37:40.223Z</time></trkpt><trkpt lat="45.8754417" lon="13.4902067"><ele>47.0</ele><time>2026-04-19T14:37:41.221Z</time></trkpt><trkpt lat="45.8753517" lon="13.49024"><ele>47.0</ele><time>2026-04-19T14:37:42.222Z</time></trkpt><trkpt lat="45.87527" lon="13.4902733"><ele>47.0</ele><time>2026-04-19T14:37:43.223Z</time></trkpt><trkpt lat="45.8751983" lon="13.4902917"><ele>47.0</ele><time>2026-04-19T14:37:44.223Z</time></trkpt><trkpt lat="45.87513" lon="13.4901983"><ele>47.0</ele><time>2026-04-19T14:37:46.222Z</time></trkpt><trkpt lat="45.87515" lon="13.4901067"><ele>47.0</ele><time>2026-04-19T14:37:47.217Z</time></trkpt><trkpt lat="45.8752067" lon="13.4900083"><ele>47.0</ele><time>2026-04-19T14:37:48.222Z</time></trkpt><trkpt lat="45.87529" lon="13.4898883"><ele>47.0</ele><time>2026-04-19T14:37:49.222Z</time></trkpt><trkpt lat="45.8753933" lon="13.4897467"><ele>47.0</ele><time>2026-04-19T14:37:50.219Z</time></trkpt><trkpt lat="45.8755" lon="13.48958"><ele>47.0</ele><time>2026-04-19T14:37:51.223Z</time></trkpt><trkpt lat="45.8756017" lon="13.48938"><ele>43.0</ele><time>2026-04-19T14:37:52.22Z</time></trkpt><trkpt lat="45.8757" lon="13.4891967"><ele>39.0</ele><time>2026-04-19T14:37:53.225Z</time></trkpt><trkpt lat="45.8757967" lon="13.4890167"><ele>35.0</ele><time>2026-04-19T14:37:54.218Z</time></trkpt><trkpt lat="45.8758933" lon="13.488845"><ele>34.25</ele><time>2026-04-19T14:37:55.222Z</time></trkpt><trkpt lat="45.8759883" lon="13.4886733"><ele>33.5</ele><time>2026-04-19T14:37:56.222Z</time></trkpt><trkpt lat="45.87608" lon="13.4885067"><ele>32.75</ele><time>2026-04-19T14:37:57.22Z</time></trkpt><trkpt lat="45.8761667" lon="13.48835"><ele>32.0</ele><time>2026-04-19T14:37:58.22Z</time></trkpt><trkpt lat="45.8762467" lon="13.4882183"><ele>31.999999999999996</ele><time>2026-04-19T14:37:59.222Z</time></trkpt><trkpt lat="45.8763117" lon="13.4881033"><ele>32.0</ele><time>2026-04-19T14:38:00.222Z</time></trkpt><trkpt lat="45.8763567" lon="13.4880133"><ele>32.0</ele><time>2026-04-19T14:38:01.221Z</time></trkpt><trkpt lat="45.8763417" lon="13.48787"><ele>32.0</ele><time>2026-04-19T14:47:51.223Z</time></trkpt><trkpt lat="45.8762817" lon="13.4878167"><ele>31.999999999999996</ele><time>2026-04-19T14:47:53.223Z</time></trkpt><trkpt lat="45.876215" lon="13.48774"><ele>32.0</ele><time>2026-04-19T14:47:55.225Z</time></trkpt><trkpt lat="45.876145" lon="13.48765"><ele>31.166666666666664</ele><time>2026-04-19T14:47:57.225Z</time></trkpt><trkpt lat="45.8760733" lon="13.4875617"><ele>30.333333333333332</ele><time>2026-04-19T14:47:59.219Z</time></trkpt><trkpt lat="45.8760267" lon="13.48748"><ele>29.5</ele><time>2026-04-19T14:48:01.222Z</time></trkpt><trkpt lat="45.876035" lon="13.4873883"><ele>28.666666666666664</ele><time>2026-04-19T14:48:03.223Z</time></trkpt><trkpt lat="45.87607" lon="13.4873"><ele>27.833333333333332</ele><time>2026-04-19T14:48:05.221Z</time></trkpt><trkpt lat="45.8761517" lon="13.4872167"><ele>27.0</ele><time>2026-04-19T14:48:07.223Z</time></trkpt><trkpt lat="45.8762033" lon="13.4871083"><ele>27.0</ele><time>2026-04-19T14:48:09.221Z</time></trkpt><trkpt lat="45.8763467" lon="13.4870917"><ele>27.000000000000004</ele><time>2026-04-19T14:48:23.224Z</time></trkpt><trkpt lat="45.8764467" lon="13.487185"><ele>27.000000000000004</ele><time>2026-04-19T14:48:25.224Z</time></trkpt><trkpt lat="45.8765167" lon="13.487245"><ele>27.0</ele><time>2026-04-19T14:48:26.222Z</time></trkpt><trkpt lat="45.8765883" lon="13.487295"><ele>27.0</ele><time>2026-04-19T14:48:27.223Z</time></trkpt><trkpt lat="45.8766633" lon="13.4873367"><ele>27.0</ele><time>2026-04-19T14:48:28.222Z</time></trkpt><trkpt lat="45.8767433" lon="13.48737"><ele>27.0</ele><time>2026-04-19T14:48:29.222Z</time></trkpt><trkpt lat="45.8768283" lon="13.4873917"><ele>27.0</ele><time>2026-04-19T14:48:30.221Z</time></trkpt><trkpt lat="45.8769033" lon="13.4874033"><ele>27.0</ele><time>2026-04-19T14:48:31.223Z</time></trkpt><trkpt lat="45.876975" lon="13.48741"><ele>27.0</ele><time>2026-04-19T14:48:32.224Z</time></trkpt><trkpt lat="45.877045" lon="13.4874167"><ele>27.0</ele><time>2026-04-19T14:48:33.222Z</time></trkpt><trkpt lat="45.8771117" lon="13.487425"><ele>26.5</ele><time>2026-04-19T14:48:34.221Z</time></trkpt><trkpt lat="45.87718" lon="13.4874333"><ele>26.0</ele><time>2026-04-19T14:48:35.222Z</time></trkpt><trkpt lat="45.8772467" lon="13.48745"><ele>25.5</ele><time>2026-04-19T14:48:36.22Z</time></trkpt><trkpt lat="45.8773083" lon="13.4874833"><ele>25.0</ele><time>2026-04-19T14:48:37.221Z</time></trkpt><trkpt lat="45.8774117" lon="13.4875417"><ele>24.5</ele><time>2026-04-19T14:48:39.221Z</time></trkpt><trkpt lat="45.87752" lon="13.487535"><ele>24.0</ele><time>2026-04-19T14:48:41.222Z</time></trkpt><trkpt lat="45.8775883" lon="13.48743"><ele>24.0</ele><time>2026-04-19T14:48:43.22Z</time></trkpt><trkpt lat="45.8775833" lon="13.487305"><ele>24.0</ele><time>2026-04-19T14:48:45.225Z</time></trkpt><trkpt lat="45.8775367" lon="13.4871183"><ele>24.0</ele><time>2026-04-19T14:48:47.224Z</time></trkpt><trkpt lat="45.8774983" lon="13.4869983"><ele>24.0</ele><time>2026-04-19T14:48:48.222Z</time></trkpt><trkpt lat="45.8774567" lon="13.4868717"><ele>24.0</ele><time>2026-04-19T14:48:49.223Z</time></trkpt><trkpt lat="45.8774217" lon="13.4867467"><ele>24.0</ele><time>2026-04-19T14:48:50.22Z</time></trkpt><trkpt lat="45.8773983" lon="13.4866167"><ele>24.0</ele><time>2026-04-19T14:48:51.217Z</time></trkpt><trkpt lat="45.8773833" lon="13.4864833"><ele>24.0</ele><time>2026-04-19T14:48:52.219Z</time></trkpt><trkpt lat="45.8773717" lon="13.48635"><ele>24.0</ele><time>2026-04-19T14:48:53.22Z</time></trkpt><trkpt lat="45.8773667" lon="13.486215"><ele>24.0</ele><time>2026-04-19T14:48:54.217Z</time></trkpt><trkpt lat="45.8773583" lon="13.486085"><ele>24.0</ele><time>2026-04-19T14:48:55.215Z</time></trkpt><trkpt lat="45.87735" lon="13.4859683"><ele>24.0</ele><time>2026-04-19T14:48:56.215Z</time></trkpt><trkpt lat="45.87735" lon="13.4858733"><ele>24.0</ele><time>2026-04-19T14:48:57.217Z</time></trkpt><trkpt lat="45.8773967" lon="13.48573"><ele>24.0</ele><time>2026-04-19T14:48:59.214Z</time></trkpt><trkpt lat="45.8775117" lon="13.48564"><ele>24.0</ele><time>2026-04-19T14:49:01.217Z</time></trkpt><trkpt lat="45.877595" lon="13.4855983"><ele>23.799999999999997</ele><time>2026-04-19T14:49:02.221Z</time></trkpt><trkpt lat="45.8776883" lon="13.485555"><ele>23.599999999999998</ele><time>2026-04-19T14:49:03.218Z</time></trkpt><trkpt lat="45.8777867" lon="13.4854983"><ele>23.4</ele><time>2026-04-19T14:49:04.222Z</time></trkpt><trkpt lat="45.8778883" lon="13.4854383"><ele>23.2</ele><time>2026-04-19T14:49:05.216Z</time></trkpt><trkpt lat="45.877995" lon="13.4853733"><ele>23.0</ele><time>2026-04-19T14:49:06.222Z</time></trkpt><trkpt lat="45.878105" lon="13.48531"><ele>23.0</ele><time>2026-04-19T14:49:07.217Z</time></trkpt><trkpt lat="45.878215" lon="13.4852517"><ele>23.0</ele><time>2026-04-19T14:49:08.221Z</time></trkpt><trkpt lat="45.878325" lon="13.4851917"><ele>23.0</ele><time>2026-04-19T14:49:09.225Z</time></trkpt><trkpt lat="45.8784317" lon="13.4851283"><ele>23.0</ele><time>2026-04-19T14:49:10.219Z</time></trkpt><trkpt lat="45.8785417" lon="13.4850667"><ele>22.599999999999998</ele><time>2026-04-19T14:49:11.221Z</time></trkpt><trkpt lat="45.8786483" lon="13.485005"><ele>22.2</ele><time>2026-04-19T14:49:12.221Z</time></trkpt><trkpt lat="45.8787467" lon="13.484945"><ele>21.8</ele><time>2026-04-19T14:49:13.221Z</time></trkpt><trkpt lat="45.8788467" lon="13.4848883"><ele>21.4</ele><time>2026-04-19T14:49:14.22Z</time></trkpt><trkpt lat="45.87895" lon="13.48484"><ele>21.0</ele><time>2026-04-19T14:49:15.225Z</time></trkpt><trkpt lat="45.8790517" lon="13.48478"><ele>21.0</ele><time>2026-04-19T14:49:16.216Z</time></trkpt><trkpt lat="45.8791533" lon="13.4847217"><ele>21.0</ele><time>2026-04-19T14:49:17.219Z</time></trkpt><trkpt lat="45.8792533" lon="13.4846617"><ele>21.0</ele><time>2026-04-19T14:49:18.223Z</time></trkpt><trkpt lat="45.8793517" lon="13.4846033"><ele>21.0</ele><time>2026-04-19T14:49:19.221Z</time></trkpt><trkpt lat="45.8794517" lon="13.4845533"><ele>21.0</ele><time>2026-04-19T14:49:20.217Z</time></trkpt><trkpt lat="45.8795533" lon="13.4845033"><ele>21.666666666666668</ele><time>2026-04-19T14:49:21.223Z</time></trkpt><trkpt lat="45.8796467" lon="13.4844483"><ele>22.333333333333336</ele><time>2026-04-19T14:49:22.221Z</time></trkpt><trkpt lat="45.87974" lon="13.4844017"><ele>23.0</ele><time>2026-04-19T14:49:23.223Z</time></trkpt><trkpt lat="45.8798233" lon="13.4843583"><ele>23.666666666666668</ele><time>2026-04-19T14:49:24.222Z</time></trkpt><trkpt lat="45.8799" lon="13.48432"><ele>24.333333333333336</ele><time>2026-04-19T14:49:25.221Z</time></trkpt><trkpt lat="45.8799683" lon="13.4842917"><ele>25.0</ele><time>2026-04-19T14:49:26.222Z</time></trkpt><trkpt lat="45.8800717" lon="13.4842383"><ele>25.0</ele><time>2026-04-19T14:49:28.222Z</time></trkpt><trkpt lat="45.8801817" lon="13.4842167"><ele>25.0</ele><time>2026-04-19T14:49:30.222Z</time></trkpt><trkpt lat="45.8802883" lon="13.4842267"><ele>25.0</ele><time>2026-04-19T14:49:32.221Z</time></trkpt><trkpt lat="45.8803883" lon="13.4841933"><ele>25.0</ele><time>2026-04-19T14:49:34.219Z</time></trkpt><trkpt lat="45.8804383" lon="13.4840683"><ele>25.0</ele><time>2026-04-19T14:49:36.222Z</time></trkpt><trkpt lat="45.8804333" lon="13.4838767"><ele>24.8</ele><time>2026-04-19T14:49:38.222Z</time></trkpt><trkpt lat="45.8804217" lon="13.48375"><ele>24.6</ele><time>2026-04-19T14:49:39.219Z</time></trkpt><trkpt lat="45.88041" lon="13.4836017"><ele>24.4</ele><time>2026-04-19T14:49:40.223Z</time></trkpt><trkpt lat="45.880415" lon="13.4834483"><ele>24.2</ele><time>2026-04-19T14:49:41.218Z</time></trkpt><trkpt lat="45.880435" lon="13.4833"><ele>24.0</ele><time>2026-04-19T14:49:42.22Z</time></trkpt><trkpt lat="45.880455" lon="13.4831567"><ele>24.0</ele><time>2026-04-19T14:49:43.219Z</time></trkpt><trkpt lat="45.8804783" lon="13.4830117"><ele>24.0</ele><time>2026-04-19T14:49:44.225Z</time></trkpt><trkpt lat="45.8805033" lon="13.4828667"><ele>24.0</ele><time>2026-04-19T14:49:45.222Z</time></trkpt><trkpt lat="45.8805367" lon="13.4827367"><ele>24.0</ele><time>2026-04-19T14:49:46.221Z</time></trkpt><trkpt lat="45.880575" lon="13.48262"><ele>24.0</ele><time>2026-04-19T14:49:47.221Z</time></trkpt><trkpt lat="45.8806183" lon="13.4825183"><ele>24.0</ele><time>2026-04-19T14:49:48.223Z</time></trkpt><trkpt lat="45.8806583" lon="13.4824217"><ele>24.0</ele><time>2026-04-19T14:49:49.223Z</time></trkpt><trkpt lat="45.88071" lon="13.4823467"><ele>24.0</ele><time>2026-04-19T14:49:50.221Z</time></trkpt><trkpt lat="45.8807617" lon="13.4822767"><ele>24.0</ele><time>2026-04-19T14:49:51.219Z</time></trkpt><trkpt lat="45.8807917" lon="13.482185"><ele>24.0</ele><time>2026-04-19T14:49:52.221Z</time></trkpt><trkpt lat="45.8807883" lon="13.4820883"><ele>24.0</ele><time>2026-04-19T14:49:53.223Z</time></trkpt><trkpt lat="45.8807367" lon="13.4819167"><ele>23.799999999999997</ele><time>2026-04-19T14:49:55.222Z</time></trkpt><trkpt lat="45.8806917" lon="13.48181"><ele>23.599999999999998</ele><time>2026-04-19T14:49:56.22Z</time></trkpt><trkpt lat="45.8806733" lon="13.4816783"><ele>23.4</ele><time>2026-04-19T14:49:57.22Z</time></trkpt><trkpt lat="45.88067" lon="13.48153"><ele>23.2</ele><time>2026-04-19T14:49:58.223Z</time></trkpt><trkpt lat="45.880685" lon="13.48137"><ele>23.0</ele><time>2026-04-19T14:49:59.222Z</time></trkpt><trkpt lat="45.8807083" lon="13.4811917"><ele>23.0</ele><time>2026-04-19T14:50:00.221Z</time></trkpt><trkpt lat="45.8807367" lon="13.4809983"><ele>23.0</ele><time>2026-04-19T14:50:01.222Z</time></trkpt><trkpt lat="45.8807667" lon="13.4808017"><ele>23.0</ele><time>2026-04-19T14:50:02.222Z</time></trkpt><trkpt lat="45.8807967" lon="13.4805967"><ele>23.0</ele><time>2026-04-19T14:50:03.222Z</time></trkpt><trkpt lat="45.8808267" lon="13.4803817"><ele>22.75</ele><time>2026-04-19T14:50:04.22Z</time></trkpt><trkpt lat="45.8808517" lon="13.48017"><ele>22.5</ele><time>2026-04-19T14:50:05.221Z</time></trkpt><trkpt lat="45.88088" lon="13.479965"><ele>22.25</ele><time>2026-04-19T14:50:06.22Z</time></trkpt><trkpt lat="45.8809083" lon="13.4797667"><ele>22.0</ele><time>2026-04-19T14:50:07.222Z</time></trkpt><trkpt lat="45.8809367" lon="13.47958"><ele>22.400000000000002</ele><time>2026-04-19T14:50:08.217Z</time></trkpt><trkpt lat="45.8809617" lon="13.4794067"><ele>22.8</ele><time>2026-04-19T14:50:09.222Z</time></trkpt><trkpt lat="45.8809833" lon="13.4792433"><ele>23.2</ele><time>2026-04-19T14:50:10.22Z</time></trkpt><trkpt lat="45.8810033" lon="13.4790967"><ele>23.6</ele><time>2026-04-19T14:50:11.22Z</time></trkpt><trkpt lat="45.8810233" lon="13.4789617"><ele>24.0</ele><time>2026-04-19T14:50:12.22Z</time></trkpt><trkpt lat="45.88104" lon="13.4788383"><ele>23.833333333333332</ele><time>2026-04-19T14:50:13.218Z</time></trkpt><trkpt lat="45.88106" lon="13.4787183"><ele>23.666666666666668</ele><time>2026-04-19T14:50:14.222Z</time></trkpt><trkpt lat="45.88108" lon="13.478595"><ele>23.5</ele><time>2026-04-19T14:50:15.225Z</time></trkpt><trkpt lat="45.8810967" lon="13.4784683"><ele>23.333333333333336</ele><time>2026-04-19T14:50:16.219Z</time></trkpt><trkpt lat="45.8811133" lon="13.47834"><ele>23.166666666666668</ele><time>2026-04-19T14:50:17.22Z</time></trkpt><trkpt lat="45.8811317" lon="13.47822"><ele>23.0</ele><time>2026-04-19T14:50:18.22Z</time></trkpt><trkpt lat="45.8811517" lon="13.4781133"><ele>23.0</ele><time>2026-04-19T14:50:19.222Z</time></trkpt><trkpt lat="45.8811883" lon="13.4780333"><ele>23.0</ele><time>2026-04-19T14:50:20.221Z</time></trkpt><trkpt lat="45.88126" lon="13.4779133"><ele>23.0</ele><time>2026-04-19T14:50:22.224Z</time></trkpt><trkpt lat="45.8812867" lon="13.4777767"><ele>23.0</ele><time>2026-04-19T14:50:24.223Z</time></trkpt><trkpt lat="45.8813033" lon="13.4776667"><ele>23.0</ele><time>2026-04-19T14:50:26.219Z</time></trkpt><trkpt lat="45.88132" lon="13.4775583"><ele>23.0</ele><time>2026-04-19T14:50:29.221Z</time></trkpt><trkpt lat="45.8814517" lon="13.477275"><ele>23.0</ele><time>2026-04-19T14:51:22.688Z</time></trkpt></trkseg></trk></gpx>